﻿<?xml version="1.0" encoding="utf-8"?><gpx creator="Garmin Desktop App" version="1.1" xsi:schemaLocation="http://www.topografix.com/GPX/1/1 http://www.topografix.com/GPX/1/1/gpx.xsd http://www.garmin.com/xmlschemas/WaypointExtension/v1 http://www8.garmin.com/xmlschemas/WaypointExtensionv1.xsd http://www.garmin.com/xmlschemas/TrackPointExtension/v1 http://www.garmin.com/xmlschemas/TrackPointExtensionv1.xsd http://www.garmin.com/xmlschemas/GpxExtensions/v3 http://www8.garmin.com/xmlschemas/GpxExtensionsv3.xsd http://www.garmin.com/xmlschemas/ActivityExtension/v1 http://www8.garmin.com/xmlschemas/ActivityExtensionv1.xsd http://www.garmin.com/xmlschemas/AdventuresExtensions/v1 http://www8.garmin.com/xmlschemas/AdventuresExtensionv1.xsd http://www.garmin.com/xmlschemas/PressureExtension/v1 http://www.garmin.com/xmlschemas/PressureExtensionv1.xsd http://www.garmin.com/xmlschemas/TripExtensions/v1 http://www.garmin.com/xmlschemas/TripExtensionsv1.xsd http://www.garmin.com/xmlschemas/TripMetaDataExtensions/v1 http://www.garmin.com/xmlschemas/TripMetaDataExtensionsv1.xsd http://www.garmin.com/xmlschemas/ViaPointTransportationModeExtensions/v1 http://www.garmin.com/xmlschemas/ViaPointTransportationModeExtensionsv1.xsd http://www.garmin.com/xmlschemas/CreationTimeExtension/v1 http://www.garmin.com/xmlschemas/CreationTimeExtensionsv1.xsd http://www.garmin.com/xmlschemas/AccelerationExtension/v1 http://www.garmin.com/xmlschemas/AccelerationExtensionv1.xsd http://www.garmin.com/xmlschemas/PowerExtension/v1 http://www.garmin.com/xmlschemas/PowerExtensionv1.xsd http://www.garmin.com/xmlschemas/VideoExtension/v1 http://www.garmin.com/xmlschemas/VideoExtensionv1.xsd" xmlns="http://www.topografix.com/GPX/1/1" xmlns:xsi="http://www.w3.org/2001/XMLSchema-instance" xmlns:wptx1="http://www.garmin.com/xmlschemas/WaypointExtension/v1" xmlns:gpxtrx="http://www.garmin.com/xmlschemas/GpxExtensions/v3" xmlns:gpxtpx="http://www.garmin.com/xmlschemas/TrackPointExtension/v1" xmlns:gpxx="http://www.garmin.com/xmlschemas/GpxExtensions/v3" xmlns:trp="http://www.garmin.com/xmlschemas/TripExtensions/v1" xmlns:adv="http://www.garmin.com/xmlschemas/AdventuresExtensions/v1" xmlns:prs="http://www.garmin.com/xmlschemas/PressureExtension/v1" xmlns:tmd="http://www.garmin.com/xmlschemas/TripMetaDataExtensions/v1" xmlns:vptm="http://www.garmin.com/xmlschemas/ViaPointTransportationModeExtensions/v1" xmlns:ctx="http://www.garmin.com/xmlschemas/CreationTimeExtension/v1" xmlns:gpxacc="http://www.garmin.com/xmlschemas/AccelerationExtension/v1" xmlns:gpxpx="http://www.garmin.com/xmlschemas/PowerExtension/v1" xmlns:vidx1="http://www.garmin.com/xmlschemas/VideoExtension/v1">

  <metadata>
    <link href="http://www.garmin.com">
      <text>Garmin International</text>
    </link>
    <time>2018-03-05T08:39:35Z</time>
    <bounds maxlat="46.494200136512518" maxlon="11.74507518298924" minlat="46.474004527553916" minlon="11.678044516593218" />
  </metadata>

  <trk>
    <name>val duron2018-03-03</name>
    <extensions>
      <gpxx:TrackExtension>
        <gpxx:DisplayColor>Yellow</gpxx:DisplayColor>
      </gpxx:TrackExtension>
      <gpxtrkx:TrackStatsExtension xmlns:gpxtrkx="http://www.garmin.com/xmlschemas/TrackStatsExtension/v1">
        <gpxtrkx:Distance>15658</gpxtrkx:Distance>
        <gpxtrkx:TotalElapsedTime>24140</gpxtrkx:TotalElapsedTime>
        <gpxtrkx:MovingTime>14981</gpxtrkx:MovingTime>
        <gpxtrkx:StoppedTime>9127</gpxtrkx:StoppedTime>
        <gpxtrkx:MovingSpeed>1</gpxtrkx:MovingSpeed>
        <gpxtrkx:MaxSpeed>2</gpxtrkx:MaxSpeed>
        <gpxtrkx:MaxElevation>1924</gpxtrkx:MaxElevation>
        <gpxtrkx:MinElevation>1427</gpxtrkx:MinElevation>
        <gpxtrkx:Ascent>557</gpxtrkx:Ascent>
        <gpxtrkx:Descent>554</gpxtrkx:Descent>
        <gpxtrkx:AvgAscentRate>0</gpxtrkx:AvgAscentRate>
        <gpxtrkx:MaxAscentRate>0</gpxtrkx:MaxAscentRate>
        <gpxtrkx:AvgDescentRate>0</gpxtrkx:AvgDescentRate>
        <gpxtrkx:MaxDescentRate>-0</gpxtrkx:MaxDescentRate>
      </gpxtrkx:TrackStatsExtension>
    </extensions>
    <trkseg>
      <trkpt lat="46.474303342401981" lon="11.744783157482743">
        <ele>1431.0599999999999</ele>
        <time>2018-03-03T07:59:12Z</time>
      </trkpt>
      <trkpt lat="46.474304012954235" lon="11.744783157482743">
        <ele>1431.0599999999999</ele>
        <time>2018-03-03T07:59:13Z</time>
      </trkpt>
      <trkpt lat="46.474304934963584" lon="11.744782738387585">
        <ele>1429.1400000000001</ele>
        <time>2018-03-03T07:59:20Z</time>
      </trkpt>
      <trkpt lat="46.474347179755569" lon="11.74484895542264">
        <ele>1429.1400000000001</ele>
        <time>2018-03-03T07:59:36Z</time>
      </trkpt>
      <trkpt lat="46.474343575537205" lon="11.744915172457695">
        <ele>1428.6600000000001</ele>
        <time>2018-03-03T07:59:39Z</time>
      </trkpt>
      <trkpt lat="46.474299402907491" lon="11.744922464713454">
        <ele>1429.1400000000001</ele>
        <time>2018-03-03T07:59:48Z</time>
      </trkpt>
      <trkpt lat="46.474302001297474" lon="11.744932690635324">
        <ele>1428.6600000000001</ele>
        <time>2018-03-03T07:59:59Z</time>
      </trkpt>
      <trkpt lat="46.474287332966924" lon="11.744911735877395">
        <ele>1428.6600000000001</ele>
        <time>2018-03-03T08:00:08Z</time>
      </trkpt>
      <trkpt lat="46.474288087338209" lon="11.744936881586909">
        <ele>1428.6600000000001</ele>
        <time>2018-03-03T08:00:26Z</time>
      </trkpt>
      <trkpt lat="46.474279202520847" lon="11.744938809424639">
        <ele>1428.6600000000001</ele>
        <time>2018-03-03T08:00:39Z</time>
      </trkpt>
      <trkpt lat="46.47428959608078" lon="11.744933612644672">
        <ele>1428.6600000000001</ele>
        <time>2018-03-03T08:00:52Z</time>
      </trkpt>
      <trkpt lat="46.474317507818341" lon="11.744924392551184">
        <ele>1428.6600000000001</ele>
        <time>2018-03-03T08:01:06Z</time>
      </trkpt>
      <trkpt lat="46.474339468404651" lon="11.744850212708116">
        <ele>1428.1800000000001</ele>
        <time>2018-03-03T08:01:17Z</time>
      </trkpt>
      <trkpt lat="46.47435606457293" lon="11.744853314012289">
        <ele>1428.6600000000001</ele>
        <time>2018-03-03T08:01:39Z</time>
      </trkpt>
      <trkpt lat="46.47435505874455" lon="11.744867982342839">
        <ele>1428.6600000000001</ele>
        <time>2018-03-03T08:01:55Z</time>
      </trkpt>
      <trkpt lat="46.474357824772596" lon="11.744870077818632">
        <ele>1428.6600000000001</ele>
        <time>2018-03-03T08:02:12Z</time>
      </trkpt>
      <trkpt lat="46.474352544173598" lon="11.744890194386244">
        <ele>1428.1800000000001</ele>
        <time>2018-03-03T08:02:33Z</time>
      </trkpt>
      <trkpt lat="46.474359752610326" lon="11.74487485550344">
        <ele>1428.1800000000001</ele>
        <time>2018-03-03T08:02:47Z</time>
      </trkpt>
      <trkpt lat="46.4743472635746" lon="11.744842920452356">
        <ele>1428.1800000000001</ele>
        <time>2018-03-03T08:03:00Z</time>
      </trkpt>
      <trkpt lat="46.47434919141233" lon="11.744851218536496">
        <ele>1428.1800000000001</ele>
        <time>2018-03-03T08:03:16Z</time>
      </trkpt>
      <trkpt lat="46.474355226382613" lon="11.744861276820302">
        <ele>1428.1800000000001</ele>
        <time>2018-03-03T08:03:39Z</time>
      </trkpt>
      <trkpt lat="46.474358411505818" lon="11.74485775642097">
        <ele>1427.7</ele>
        <time>2018-03-03T08:04:00Z</time>
      </trkpt>
      <trkpt lat="46.47433259524405" lon="11.744848201051354">
        <ele>1427.7</ele>
        <time>2018-03-03T08:04:13Z</time>
      </trkpt>
      <trkpt lat="46.474339803680778" lon="11.744856750592589">
        <ele>1427.7</ele>
        <time>2018-03-03T08:04:36Z</time>
      </trkpt>
      <trkpt lat="46.474350364878774" lon="11.744859516620636">
        <ele>1427.7</ele>
        <time>2018-03-03T08:04:46Z</time>
      </trkpt>
      <trkpt lat="46.474326811730862" lon="11.744868233799934">
        <ele>1427.21</ele>
        <time>2018-03-03T08:05:06Z</time>
      </trkpt>
      <trkpt lat="46.474310718476772" lon="11.744862617924809">
        <ele>1427.21</ele>
        <time>2018-03-03T08:05:18Z</time>
      </trkpt>
      <trkpt lat="46.474338378757238" lon="11.74484895542264">
        <ele>1427.21</ele>
        <time>2018-03-03T08:05:36Z</time>
      </trkpt>
      <trkpt lat="46.474351705983281" lon="11.744846943765879">
        <ele>1426.73</ele>
        <time>2018-03-03T08:05:42Z</time>
      </trkpt>
      <trkpt lat="46.474376516416669" lon="11.744844680652022">
        <ele>1427.21</ele>
        <time>2018-03-03T08:05:45Z</time>
      </trkpt>
      <trkpt lat="46.474380791187286" lon="11.744821043685079">
        <ele>1427.21</ele>
        <time>2018-03-03T08:05:55Z</time>
      </trkpt>
      <trkpt lat="46.474444242194295" lon="11.74473219551146">
        <ele>1427.21</ele>
        <time>2018-03-03T08:06:06Z</time>
      </trkpt>
      <trkpt lat="46.474497048184276" lon="11.744615351781249">
        <ele>1427.21</ele>
        <time>2018-03-03T08:06:17Z</time>
      </trkpt>
      <trkpt lat="46.474563516676426" lon="11.744483755901456">
        <ele>1427.21</ele>
        <time>2018-03-03T08:06:29Z</time>
      </trkpt>
      <trkpt lat="46.474655382335186" lon="11.744324248284101">
        <ele>1427.21</ele>
        <time>2018-03-03T08:06:42Z</time>
      </trkpt>
      <trkpt lat="46.474708607420325" lon="11.744255851954222">
        <ele>1427.21</ele>
        <time>2018-03-03T08:06:54Z</time>
      </trkpt>
      <trkpt lat="46.474755126982927" lon="11.744220061227679">
        <ele>1427.21</ele>
        <time>2018-03-03T08:07:03Z</time>
      </trkpt>
      <trkpt lat="46.474809525534511" lon="11.744200196117163">
        <ele>1427.21</ele>
        <time>2018-03-03T08:07:11Z</time>
      </trkpt>
      <trkpt lat="46.474963333457708" lon="11.744070863351226">
        <ele>1427.21</ele>
        <time>2018-03-03T08:07:26Z</time>
      </trkpt>
      <trkpt lat="46.475047906860709" lon="11.744012273848057">
        <ele>1427.7</ele>
        <time>2018-03-03T08:07:36Z</time>
      </trkpt>
      <trkpt lat="46.47506014443934" lon="11.743996348232031">
        <ele>1427.7</ele>
        <time>2018-03-03T08:07:38Z</time>
      </trkpt>
      <trkpt lat="46.475135246291757" lon="11.743948152288795">
        <ele>1428.1800000000001</ele>
        <time>2018-03-03T08:07:49Z</time>
      </trkpt>
      <trkpt lat="46.475199200212955" lon="11.743886796757579">
        <ele>1428.6600000000001</ele>
        <time>2018-03-03T08:07:59Z</time>
      </trkpt>
      <trkpt lat="46.47526147775352" lon="11.743847317993641">
        <ele>1429.1400000000001</ele>
        <time>2018-03-03T08:08:09Z</time>
      </trkpt>
      <trkpt lat="46.475358372554183" lon="11.743760230019689">
        <ele>1430.0999999999999</ele>
        <time>2018-03-03T08:08:22Z</time>
      </trkpt>
      <trkpt lat="46.475432049483061" lon="11.743704155087471">
        <ele>1430.5799999999999</ele>
        <time>2018-03-03T08:08:33Z</time>
      </trkpt>
      <trkpt lat="46.475496757775545" lon="11.743627544492483">
        <ele>1430.5799999999999</ele>
        <time>2018-03-03T08:08:44Z</time>
      </trkpt>
      <trkpt lat="46.475559202954173" lon="11.743551352992654">
        <ele>1431.54</ele>
        <time>2018-03-03T08:08:55Z</time>
      </trkpt>
      <trkpt lat="46.475584516301751" lon="11.743510952219367">
        <ele>1431.54</ele>
        <time>2018-03-03T08:08:59Z</time>
      </trkpt>
      <trkpt lat="46.475638076663017" lon="11.74342067912221">
        <ele>1432.02</ele>
        <time>2018-03-03T08:09:10Z</time>
      </trkpt>
      <trkpt lat="46.475691385567188" lon="11.74332688562572">
        <ele>1432.5</ele>
        <time>2018-03-03T08:09:20Z</time>
      </trkpt>
      <trkpt lat="46.475732456892729" lon="11.743269972503185">
        <ele>1432.98</ele>
        <time>2018-03-03T08:09:30Z</time>
      </trkpt>
      <trkpt lat="46.475789453834295" lon="11.743153296411037">
        <ele>1433.46</ele>
        <time>2018-03-03T08:09:41Z</time>
      </trkpt>
      <trkpt lat="46.475840834900737" lon="11.743063777685165">
        <ele>1433.9400000000001</ele>
        <time>2018-03-03T08:09:52Z</time>
      </trkpt>
      <trkpt lat="46.475893724709749" lon="11.742964116856456">
        <ele>1434.4200000000001</ele>
        <time>2018-03-03T08:10:04Z</time>
      </trkpt>
      <trkpt lat="46.475953068584204" lon="11.742864456027746">
        <ele>1434.9100000000001</ele>
        <time>2018-03-03T08:10:15Z</time>
      </trkpt>
      <trkpt lat="46.47604376077652" lon="11.742837633937597">
        <ele>1435.3900000000001</ele>
        <time>2018-03-03T08:10:28Z</time>
      </trkpt>
      <trkpt lat="46.476088771596551" lon="11.742892451584339">
        <ele>1435.8699999999999</ele>
        <time>2018-03-03T08:10:38Z</time>
      </trkpt>
      <trkpt lat="46.476131267845631" lon="11.742969062179327">
        <ele>1435.8699999999999</ele>
        <time>2018-03-03T08:10:47Z</time>
      </trkpt>
      <trkpt lat="46.476128669455647" lon="11.742970570921898">
        <ele>1434.9100000000001</ele>
        <time>2018-03-03T08:10:57Z</time>
      </trkpt>
      <trkpt lat="46.476108217611909" lon="11.742994040250778">
        <ele>1435.3900000000001</ele>
        <time>2018-03-03T08:11:05Z</time>
      </trkpt>
      <trkpt lat="46.476111318916082" lon="11.742953052744269">
        <ele>1435.3900000000001</ele>
        <time>2018-03-03T08:11:15Z</time>
      </trkpt>
      <trkpt lat="46.47610092535615" lon="11.742918854579329">
        <ele>1436.8299999999999</ele>
        <time>2018-03-03T08:11:24Z</time>
      </trkpt>
      <trkpt lat="46.476097237318754" lon="11.742889769375324">
        <ele>1435.3900000000001</ele>
        <time>2018-03-03T08:11:35Z</time>
      </trkpt>
      <trkpt lat="46.476142918691039" lon="11.742951292544603">
        <ele>1435.3900000000001</ele>
        <time>2018-03-03T08:11:48Z</time>
      </trkpt>
      <trkpt lat="46.476193461567163" lon="11.743013821542263">
        <ele>1435.3900000000001</ele>
        <time>2018-03-03T08:12:01Z</time>
      </trkpt>
      <trkpt lat="46.476112240925431" lon="11.742989011108875">
        <ele>1435.3900000000001</ele>
        <time>2018-03-03T08:12:13Z</time>
      </trkpt>
      <trkpt lat="46.476081227883697" lon="11.74298289231956">
        <ele>1435.3900000000001</ele>
        <time>2018-03-03T08:12:16Z</time>
      </trkpt>
      <trkpt lat="46.475921468809247" lon="11.743083894252777">
        <ele>1435.3900000000001</ele>
        <time>2018-03-03T08:12:36Z</time>
      </trkpt>
      <trkpt lat="46.476008221507072" lon="11.743104094639421">
        <ele>1434.9100000000001</ele>
        <time>2018-03-03T08:12:57Z</time>
      </trkpt>
      <trkpt lat="46.475963881239295" lon="11.743142567574978">
        <ele>1434.9100000000001</ele>
        <time>2018-03-03T08:13:15Z</time>
      </trkpt>
      <trkpt lat="46.476176865398884" lon="11.742953388020396">
        <ele>1434.9100000000001</ele>
        <time>2018-03-03T08:13:29Z</time>
      </trkpt>
      <trkpt lat="46.476188600063324" lon="11.742947101593018">
        <ele>1434.9100000000001</ele>
        <time>2018-03-03T08:13:30Z</time>
      </trkpt>
      <trkpt lat="46.476348610594869" lon="11.7427942994982">
        <ele>1434.4200000000001</ele>
        <time>2018-03-03T08:13:51Z</time>
      </trkpt>
      <trkpt lat="46.476757563650608" lon="11.742419544607401">
        <ele>1434.4200000000001</ele>
        <time>2018-03-03T08:14:29Z</time>
      </trkpt>
      <trkpt lat="46.476139314472675" lon="11.7431431543082">
        <ele>1434.4200000000001</ele>
        <time>2018-03-03T08:15:09Z</time>
      </trkpt>
      <trkpt lat="46.476048538461328" lon="11.743036787956953">
        <ele>1434.4200000000001</ele>
        <time>2018-03-03T08:15:30Z</time>
      </trkpt>
      <trkpt lat="46.476067313924432" lon="11.743006277829409">
        <ele>1433.46</ele>
        <time>2018-03-03T08:15:47Z</time>
      </trkpt>
      <trkpt lat="46.476124478504062" lon="11.742956070229411">
        <ele>1433.9400000000001</ele>
        <time>2018-03-03T08:16:04Z</time>
      </trkpt>
      <trkpt lat="46.47615029476583" lon="11.742987250909209">
        <ele>1433.9400000000001</ele>
        <time>2018-03-03T08:16:22Z</time>
      </trkpt>
      <trkpt lat="46.476118694990873" lon="11.742961602285504">
        <ele>1432.98</ele>
        <time>2018-03-03T08:16:37Z</time>
      </trkpt>
      <trkpt lat="46.476068319752812" lon="11.7429687269032">
        <ele>1433.9400000000001</ele>
        <time>2018-03-03T08:16:53Z</time>
      </trkpt>
      <trkpt lat="46.476044012233615" lon="11.742985574528575">
        <ele>1432.98</ele>
        <time>2018-03-03T08:17:09Z</time>
      </trkpt>
      <trkpt lat="46.476087933406234" lon="11.743039134889841">
        <ele>1432.98</ele>
        <time>2018-03-03T08:17:31Z</time>
      </trkpt>
      <trkpt lat="46.476122969761491" lon="11.742971576750278">
        <ele>1432.98</ele>
        <time>2018-03-03T08:17:50Z</time>
      </trkpt>
      <trkpt lat="46.47613956592977" lon="11.742989849299192">
        <ele>1432.5</ele>
        <time>2018-03-03T08:18:11Z</time>
      </trkpt>
      <trkpt lat="46.476131100207567" lon="11.742922207340598">
        <ele>1432.98</ele>
        <time>2018-03-03T08:18:27Z</time>
      </trkpt>
      <trkpt lat="46.476106038317084" lon="11.742975767701864">
        <ele>1432.5</ele>
        <time>2018-03-03T08:18:37Z</time>
      </trkpt>
      <trkpt lat="46.476077204570174" lon="11.74301122315228">
        <ele>1432.5</ele>
        <time>2018-03-03T08:18:56Z</time>
      </trkpt>
      <trkpt lat="46.47607259452343" lon="11.743006864562631">
        <ele>1432.98</ele>
        <time>2018-03-03T08:19:04Z</time>
      </trkpt>
      <trkpt lat="46.476084496825933" lon="11.742981299757957">
        <ele>1432.98</ele>
        <time>2018-03-03T08:19:15Z</time>
      </trkpt>
      <trkpt lat="46.476090867072344" lon="11.742951292544603">
        <ele>1432.02</ele>
        <time>2018-03-03T08:19:26Z</time>
      </trkpt>
      <trkpt lat="46.476067313924432" lon="11.742889015004039">
        <ele>1432.02</ele>
        <time>2018-03-03T08:19:37Z</time>
      </trkpt>
      <trkpt lat="46.476030936464667" lon="11.742829168215394">
        <ele>1431.54</ele>
        <time>2018-03-03T08:19:49Z</time>
      </trkpt>
      <trkpt lat="46.476061781868339" lon="11.742817768827081">
        <ele>1432.02</ele>
        <time>2018-03-03T08:19:58Z</time>
      </trkpt>
      <trkpt lat="46.476083071902394" lon="11.742823552340269">
        <ele>1432.02</ele>
        <time>2018-03-03T08:20:17Z</time>
      </trkpt>
      <trkpt lat="46.476103020831943" lon="11.742780217900872">
        <ele>1432.02</ele>
        <time>2018-03-03T08:20:27Z</time>
      </trkpt>
      <trkpt lat="46.476145265623927" lon="11.742621967568994">
        <ele>1432.5</ele>
        <time>2018-03-03T08:20:38Z</time>
      </trkpt>
      <trkpt lat="46.476220116019249" lon="11.742499675601721">
        <ele>1432.98</ele>
        <time>2018-03-03T08:20:49Z</time>
      </trkpt>
      <trkpt lat="46.476266887038946" lon="11.742416024208069">
        <ele>1433.9400000000001</ele>
        <time>2018-03-03T08:20:59Z</time>
      </trkpt>
      <trkpt lat="46.476322123780847" lon="11.742264730855823">
        <ele>1434.4200000000001</ele>
        <time>2018-03-03T08:21:11Z</time>
      </trkpt>
      <trkpt lat="46.476376689970493" lon="11.742172110825777">
        <ele>1434.9100000000001</ele>
        <time>2018-03-03T08:21:20Z</time>
      </trkpt>
      <trkpt lat="46.476440727710724" lon="11.742101367563009">
        <ele>1436.8299999999999</ele>
        <time>2018-03-03T08:21:30Z</time>
      </trkpt>
      <trkpt lat="46.476479871198535" lon="11.7420344799757">
        <ele>1435.8699999999999</ele>
        <time>2018-03-03T08:21:39Z</time>
      </trkpt>
      <trkpt lat="46.476470064371824" lon="11.742000449448824">
        <ele>1436.3499999999999</ele>
        <time>2018-03-03T08:21:53Z</time>
      </trkpt>
      <trkpt lat="46.476479955017567" lon="11.741975471377373">
        <ele>1436.3499999999999</ele>
        <time>2018-03-03T08:22:08Z</time>
      </trkpt>
      <trkpt lat="46.476508788764477" lon="11.741793500259519">
        <ele>1436.8299999999999</ele>
        <time>2018-03-03T08:22:19Z</time>
      </trkpt>
      <trkpt lat="46.476579112932086" lon="11.741705238819122">
        <ele>1436.8299999999999</ele>
        <time>2018-03-03T08:22:26Z</time>
      </trkpt>
      <trkpt lat="46.476635355502367" lon="11.741660311818123">
        <ele>1436.8299999999999</ele>
        <time>2018-03-03T08:22:34Z</time>
      </trkpt>
      <trkpt lat="46.476747253909707" lon="11.741573642939329">
        <ele>1437.3099999999999</ele>
        <time>2018-03-03T08:22:47Z</time>
      </trkpt>
      <trkpt lat="46.476794108748436" lon="11.741556627675891">
        <ele>1437.79</ele>
        <time>2018-03-03T08:22:52Z</time>
      </trkpt>
      <trkpt lat="46.476874742656946" lon="11.741478843614459">
        <ele>1437.79</ele>
        <time>2018-03-03T08:23:01Z</time>
      </trkpt>
      <trkpt lat="46.476971972733736" lon="11.741463923826814">
        <ele>1438.27</ele>
        <time>2018-03-03T08:23:12Z</time>
      </trkpt>
      <trkpt lat="46.477049505338073" lon="11.741455541923642">
        <ele>1438.75</ele>
        <time>2018-03-03T08:23:20Z</time>
      </trkpt>
      <trkpt lat="46.477091498672962" lon="11.741410531103611">
        <ele>1438.75</ele>
        <time>2018-03-03T08:23:28Z</time>
      </trkpt>
      <trkpt lat="46.477124020457268" lon="11.741392593830824">
        <ele>1438.75</ele>
        <time>2018-03-03T08:23:40Z</time>
      </trkpt>
      <trkpt lat="46.477205324918032" lon="11.74134498462081">
        <ele>1439.23</ele>
        <time>2018-03-03T08:23:53Z</time>
      </trkpt>
      <trkpt lat="46.477250922471285" lon="11.74131422303617">
        <ele>1439.71</ele>
        <time>2018-03-03T08:24:02Z</time>
      </trkpt>
      <trkpt lat="46.477322420105338" lon="11.741277007386088">
        <ele>1440.1900000000001</ele>
        <time>2018-03-03T08:24:12Z</time>
      </trkpt>
      <trkpt lat="46.477413028478622" lon="11.741207018494606">
        <ele>1440.6700000000001</ele>
        <time>2018-03-03T08:24:23Z</time>
      </trkpt>
      <trkpt lat="46.477512270212173" lon="11.741145746782422">
        <ele>1441.1500000000001</ele>
        <time>2018-03-03T08:24:35Z</time>
      </trkpt>
      <trkpt lat="46.477609751746058" lon="11.741071483120322">
        <ele>1441.6300000000001</ele>
        <time>2018-03-03T08:24:47Z</time>
      </trkpt>
      <trkpt lat="46.477692564949393" lon="11.740999734029174">
        <ele>1442.5999999999999</ele>
        <time>2018-03-03T08:24:58Z</time>
      </trkpt>
      <trkpt lat="46.477771103382111" lon="11.740931421518326">
        <ele>1443.0799999999999</ele>
        <time>2018-03-03T08:25:09Z</time>
      </trkpt>
      <trkpt lat="46.477859281003475" lon="11.740883812308311">
        <ele>1444.04</ele>
        <time>2018-03-03T08:25:20Z</time>
      </trkpt>
      <trkpt lat="46.47793429903686" lon="11.740840310230851">
        <ele>1444.52</ele>
        <time>2018-03-03T08:25:30Z</time>
      </trkpt>
      <trkpt lat="46.478014178574085" lon="11.740787420421839">
        <ele>1445.48</ele>
        <time>2018-03-03T08:25:39Z</time>
      </trkpt>
      <trkpt lat="46.47811065427959" lon="11.740739978849888">
        <ele>1445.96</ele>
        <time>2018-03-03T08:25:50Z</time>
      </trkpt>
      <trkpt lat="46.47820545360446" lon="11.740683317184448">
        <ele>1445.96</ele>
        <time>2018-03-03T08:26:01Z</time>
      </trkpt>
      <trkpt lat="46.47824359126389" lon="11.740660266950727">
        <ele>1446.4400000000001</ele>
        <time>2018-03-03T08:26:06Z</time>
      </trkpt>
      <trkpt lat="46.478260019794106" lon="11.740646939724684">
        <ele>1446.4400000000001</ele>
        <time>2018-03-03T08:26:08Z</time>
      </trkpt>
      <trkpt lat="46.478358842432499" lon="11.740563288331032">
        <ele>1446.9200000000001</ele>
        <time>2018-03-03T08:26:20Z</time>
      </trkpt>
      <trkpt lat="46.47843268699944" lon="11.740500759333372">
        <ele>1447.8800000000001</ele>
        <time>2018-03-03T08:26:31Z</time>
      </trkpt>
      <trkpt lat="46.478506866842508" lon="11.740438900887966">
        <ele>1448.8399999999999</ele>
        <time>2018-03-03T08:26:41Z</time>
      </trkpt>
      <trkpt lat="46.478596217930317" lon="11.740355333313346">
        <ele>1450.29</ele>
        <time>2018-03-03T08:26:52Z</time>
      </trkpt>
      <trkpt lat="46.47866478189826" lon="11.74026170745492">
        <ele>1451.25</ele>
        <time>2018-03-03T08:27:02Z</time>
      </trkpt>
      <trkpt lat="46.478716665878892" lon="11.740162800997496">
        <ele>1452.6900000000001</ele>
        <time>2018-03-03T08:27:13Z</time>
      </trkpt>
      <trkpt lat="46.478780535981059" lon="11.740085352212191">
        <ele>1453.6500000000001</ele>
        <time>2018-03-03T08:27:24Z</time>
      </trkpt>
      <trkpt lat="46.478828899562359" lon="11.740048136562109">
        <ele>1455.5699999999999</ele>
        <time>2018-03-03T08:27:35Z</time>
      </trkpt>
      <trkpt lat="46.478880448266864" lon="11.740001533180475">
        <ele>1456.53</ele>
        <time>2018-03-03T08:27:46Z</time>
      </trkpt>
      <trkpt lat="46.478968122974038" lon="11.739933555945754">
        <ele>1457.98</ele>
        <time>2018-03-03T08:27:59Z</time>
      </trkpt>
      <trkpt lat="46.479038028046489" lon="11.739873457700014">
        <ele>1458.9400000000001</ele>
        <time>2018-03-03T08:28:06Z</time>
      </trkpt>
      <trkpt lat="46.479074070230126" lon="11.739769270643592">
        <ele>1459.9000000000001</ele>
        <time>2018-03-03T08:28:16Z</time>
      </trkpt>
      <trkpt lat="46.479151519015431" lon="11.739685451611876">
        <ele>1460.8599999999999</ele>
        <time>2018-03-03T08:28:28Z</time>
      </trkpt>
      <trkpt lat="46.479195859283209" lon="11.739626862108707">
        <ele>1461.8199999999999</ele>
        <time>2018-03-03T08:28:37Z</time>
      </trkpt>
      <trkpt lat="46.479268195107579" lon="11.739601464942098">
        <ele>1463.26</ele>
        <time>2018-03-03T08:28:48Z</time>
      </trkpt>
      <trkpt lat="46.479332568123937" lon="11.739591239020228">
        <ele>1464.71</ele>
        <time>2018-03-03T08:28:58Z</time>
      </trkpt>
      <trkpt lat="46.479419823735952" lon="11.739571541547775">
        <ele>1466.1500000000001</ele>
        <time>2018-03-03T08:29:10Z</time>
      </trkpt>
      <trkpt lat="46.479457207024097" lon="11.739555532112718">
        <ele>1466.1500000000001</ele>
        <time>2018-03-03T08:29:20Z</time>
      </trkpt>
      <trkpt lat="46.479557622224092" lon="11.739479675889015">
        <ele>1467.1099999999999</ele>
        <time>2018-03-03T08:29:32Z</time>
      </trkpt>
      <trkpt lat="46.479633897542953" lon="11.739441035315394">
        <ele>1468.0699999999999</ele>
        <time>2018-03-03T08:29:42Z</time>
      </trkpt>
      <trkpt lat="46.47972752340138" lon="11.739418571814895">
        <ele>1469.03</ele>
        <time>2018-03-03T08:29:53Z</time>
      </trkpt>
      <trkpt lat="46.47981058806181" lon="11.739395689219236">
        <ele>1469.51</ele>
        <time>2018-03-03T08:30:04Z</time>
      </trkpt>
      <trkpt lat="46.479871859773993" lon="11.739316647872329">
        <ele>1470.95</ele>
        <time>2018-03-03T08:30:16Z</time>
      </trkpt>
      <trkpt lat="46.479926845058799" lon="11.739212544634938">
        <ele>1472.4000000000001</ele>
        <time>2018-03-03T08:30:27Z</time>
      </trkpt>
      <trkpt lat="46.479987781494856" lon="11.739141214638948">
        <ele>1473.3599999999999</ele>
        <time>2018-03-03T08:30:37Z</time>
      </trkpt>
      <trkpt lat="46.480042012408376" lon="11.73910073004663">
        <ele>1474.3199999999999</ele>
        <time>2018-03-03T08:30:46Z</time>
      </trkpt>
      <trkpt lat="46.480111163109541" lon="11.739040045067668">
        <ele>1475.28</ele>
        <time>2018-03-03T08:30:58Z</time>
      </trkpt>
      <trkpt lat="46.480177128687501" lon="11.739001488313079">
        <ele>1476.24</ele>
        <time>2018-03-03T08:31:09Z</time>
      </trkpt>
      <trkpt lat="46.480179978534579" lon="11.738978521898389">
        <ele>1476.24</ele>
        <time>2018-03-03T08:31:25Z</time>
      </trkpt>
      <trkpt lat="46.480246279388666" lon="11.738940216600895">
        <ele>1478.1600000000001</ele>
        <time>2018-03-03T08:31:36Z</time>
      </trkpt>
      <trkpt lat="46.480339486151934" lon="11.738878944888711">
        <ele>1477.6800000000001</ele>
        <time>2018-03-03T08:31:49Z</time>
      </trkpt>
      <trkpt lat="46.480414252728224" lon="11.738800657913089">
        <ele>1479.1300000000001</ele>
        <time>2018-03-03T08:32:01Z</time>
      </trkpt>
      <trkpt lat="46.48047124966979" lon="11.738769393414259">
        <ele>1478.6500000000001</ele>
        <time>2018-03-03T08:32:12Z</time>
      </trkpt>
      <trkpt lat="46.480493629351258" lon="11.738737542182207">
        <ele>1480.5699999999999</ele>
        <time>2018-03-03T08:32:17Z</time>
      </trkpt>
      <trkpt lat="46.480567809194326" lon="11.738642994314432">
        <ele>1482.97</ele>
        <time>2018-03-03T08:32:32Z</time>
      </trkpt>
      <trkpt lat="46.480625979602337" lon="11.738578705117106">
        <ele>1484.4100000000001</ele>
        <time>2018-03-03T08:32:44Z</time>
      </trkpt>
      <trkpt lat="46.480695717036724" lon="11.738532185554504">
        <ele>1485.3699999999999</ele>
        <time>2018-03-03T08:32:56Z</time>
      </trkpt>
      <trkpt lat="46.480766041204333" lon="11.738521456718445">
        <ele>1486.3399999999999</ele>
        <time>2018-03-03T08:33:07Z</time>
      </trkpt>
      <trkpt lat="46.48082354106009" lon="11.738474266603589">
        <ele>1487.78</ele>
        <time>2018-03-03T08:33:17Z</time>
      </trkpt>
      <trkpt lat="46.480891769751906" lon="11.738399332389235">
        <ele>1488.74</ele>
        <time>2018-03-03T08:33:29Z</time>
      </trkpt>
      <trkpt lat="46.48094960488379" lon="11.738304784521461">
        <ele>1489.7</ele>
        <time>2018-03-03T08:33:41Z</time>
      </trkpt>
      <trkpt lat="46.481016157194972" lon="11.738195149227977">
        <ele>1490.6600000000001</ele>
        <time>2018-03-03T08:33:55Z</time>
      </trkpt>
      <trkpt lat="46.481037111952901" lon="11.73817528411746">
        <ele>1490.6600000000001</ele>
        <time>2018-03-03T08:34:08Z</time>
      </trkpt>
      <trkpt lat="46.481043063104153" lon="11.738137900829315">
        <ele>1491.1400000000001</ele>
        <time>2018-03-03T08:34:19Z</time>
      </trkpt>
      <trkpt lat="46.481100982055068" lon="11.738101942464709">
        <ele>1491.1400000000001</ele>
        <time>2018-03-03T08:34:33Z</time>
      </trkpt>
      <trkpt lat="46.481110537424684" lon="11.738102026283741">
        <ele>1490.1800000000001</ele>
        <time>2018-03-03T08:34:43Z</time>
      </trkpt>
      <trkpt lat="46.481148675084114" lon="11.738096242770553">
        <ele>1489.7</ele>
        <time>2018-03-03T08:34:54Z</time>
      </trkpt>
      <trkpt lat="46.481175748631358" lon="11.738061206415296">
        <ele>1489.7</ele>
        <time>2018-03-03T08:35:17Z</time>
      </trkpt>
      <trkpt lat="46.48117826320231" lon="11.738027511164546">
        <ele>1489.7</ele>
        <time>2018-03-03T08:35:34Z</time>
      </trkpt>
      <trkpt lat="46.481162505224347" lon="11.738035557791591">
        <ele>1490.1800000000001</ele>
        <time>2018-03-03T08:35:53Z</time>
      </trkpt>
      <trkpt lat="46.481173485517502" lon="11.738020470365882">
        <ele>1490.6600000000001</ele>
        <time>2018-03-03T08:36:13Z</time>
      </trkpt>
      <trkpt lat="46.481159990653396" lon="11.738037317991257">
        <ele>1490.6600000000001</ele>
        <time>2018-03-03T08:36:37Z</time>
      </trkpt>
      <trkpt lat="46.481184465810657" lon="11.73805458471179">
        <ele>1490.6600000000001</ele>
        <time>2018-03-03T08:36:53Z</time>
      </trkpt>
      <trkpt lat="46.481209024786949" lon="11.738060284405947">
        <ele>1491.1400000000001</ele>
        <time>2018-03-03T08:37:10Z</time>
      </trkpt>
      <trkpt lat="46.481187650933862" lon="11.738040754571557">
        <ele>1491.1400000000001</ele>
        <time>2018-03-03T08:37:28Z</time>
      </trkpt>
      <trkpt lat="46.481147166341543" lon="11.738020554184914">
        <ele>1492.5799999999999</ele>
        <time>2018-03-03T08:37:40Z</time>
      </trkpt>
      <trkpt lat="46.481147836893797" lon="11.738000269979239">
        <ele>1491.1400000000001</ele>
        <time>2018-03-03T08:37:42Z</time>
      </trkpt>
      <trkpt lat="46.481153955683112" lon="11.737985266372561">
        <ele>1491.6199999999999</ele>
        <time>2018-03-03T08:38:08Z</time>
      </trkpt>
      <trkpt lat="46.481145154684782" lon="11.73801694996655">
        <ele>1491.6199999999999</ele>
        <time>2018-03-03T08:38:30Z</time>
      </trkpt>
      <trkpt lat="46.481159068644047" lon="11.738024409860373">
        <ele>1491.6199999999999</ele>
        <time>2018-03-03T08:38:49Z</time>
      </trkpt>
      <trkpt lat="46.481173569336534" lon="11.737986104562879">
        <ele>1492.0999999999999</ele>
        <time>2018-03-03T08:39:04Z</time>
      </trkpt>
      <trkpt lat="46.481169210746884" lon="11.737938746809959">
        <ele>1493.0599999999999</ele>
        <time>2018-03-03T08:39:14Z</time>
      </trkpt>
      <trkpt lat="46.481151189655066" lon="11.737892646342516">
        <ele>1493.55</ele>
        <time>2018-03-03T08:39:29Z</time>
      </trkpt>
      <trkpt lat="46.481170048937201" lon="11.737882252782583">
        <ele>1494.03</ele>
        <time>2018-03-03T08:39:46Z</time>
      </trkpt>
      <trkpt lat="46.481211958453059" lon="11.737969508394599">
        <ele>1494.51</ele>
        <time>2018-03-03T08:39:59Z</time>
      </trkpt>
      <trkpt lat="46.481203492730856" lon="11.737969592213631">
        <ele>1493.55</ele>
        <time>2018-03-03T08:40:05Z</time>
      </trkpt>
      <trkpt lat="46.481243222951889" lon="11.738026337698102">
        <ele>1493.55</ele>
        <time>2018-03-03T08:40:28Z</time>
      </trkpt>
      <trkpt lat="46.481259819120169" lon="11.738038910552859">
        <ele>1494.03</ele>
        <time>2018-03-03T08:40:40Z</time>
      </trkpt>
      <trkpt lat="46.481209024786949" lon="11.737982584163547">
        <ele>1494.99</ele>
        <time>2018-03-03T08:40:50Z</time>
      </trkpt>
      <trkpt lat="46.481198128312826" lon="11.737938662990928">
        <ele>1495.47</ele>
        <time>2018-03-03T08:40:58Z</time>
      </trkpt>
      <trkpt lat="46.481183627620339" lon="11.737900944426656">
        <ele>1495.47</ele>
        <time>2018-03-03T08:41:15Z</time>
      </trkpt>
      <trkpt lat="46.481186477467418" lon="11.73789625056088">
        <ele>1496.4300000000001</ele>
        <time>2018-03-03T08:41:22Z</time>
      </trkpt>
      <trkpt lat="46.481207180768251" lon="11.737986775115132">
        <ele>1496.4300000000001</ele>
        <time>2018-03-03T08:41:29Z</time>
      </trkpt>
      <trkpt lat="46.481239702552557" lon="11.73797445371747">
        <ele>1496.4300000000001</ele>
        <time>2018-03-03T08:41:32Z</time>
      </trkpt>
      <trkpt lat="46.481329053640366" lon="11.737914439290762">
        <ele>1497.8699999999999</ele>
        <time>2018-03-03T08:41:43Z</time>
      </trkpt>
      <trkpt lat="46.481338525190949" lon="11.737915948033333">
        <ele>1498.3499999999999</ele>
        <time>2018-03-03T08:41:53Z</time>
      </trkpt>
      <trkpt lat="46.481328466907144" lon="11.737894490361214">
        <ele>1498.8299999999999</ele>
        <time>2018-03-03T08:42:09Z</time>
      </trkpt>
      <trkpt lat="46.481313044205308" lon="11.737875547260046">
        <ele>1498.8299999999999</ele>
        <time>2018-03-03T08:42:23Z</time>
      </trkpt>
      <trkpt lat="46.481262249872088" lon="11.737907314673066">
        <ele>1499.3099999999999</ele>
        <time>2018-03-03T08:42:40Z</time>
      </trkpt>
      <trkpt lat="46.481262752786279" lon="11.73794612288475">
        <ele>1499.79</ele>
        <time>2018-03-03T08:42:51Z</time>
      </trkpt>
      <trkpt lat="46.481258813291788" lon="11.738012591376901">
        <ele>1499.79</ele>
        <time>2018-03-03T08:43:02Z</time>
      </trkpt>
      <trkpt lat="46.481242636218667" lon="11.738074785098433">
        <ele>1500.27</ele>
        <time>2018-03-03T08:43:20Z</time>
      </trkpt>
      <trkpt lat="46.481257891282439" lon="11.738054333254695">
        <ele>1500.27</ele>
        <time>2018-03-03T08:43:36Z</time>
      </trkpt>
      <trkpt lat="46.481258813291788" lon="11.738050393760204">
        <ele>1500.27</ele>
        <time>2018-03-03T08:43:46Z</time>
      </trkpt>
      <trkpt lat="46.481281276792288" lon="11.738037066534162">
        <ele>1500.27</ele>
        <time>2018-03-03T08:44:04Z</time>
      </trkpt>
      <trkpt lat="46.481241462752223" lon="11.738054668530822">
        <ele>1500.27</ele>
        <time>2018-03-03T08:44:23Z</time>
      </trkpt>
      <trkpt lat="46.481275912374258" lon="11.73800328746438">
        <ele>1500.76</ele>
        <time>2018-03-03T08:44:40Z</time>
      </trkpt>
      <trkpt lat="46.481291754171252" lon="11.73798618838191">
        <ele>1500.27</ele>
        <time>2018-03-03T08:44:57Z</time>
      </trkpt>
      <trkpt lat="46.481314385309815" lon="11.737983506172895">
        <ele>1500.76</ele>
        <time>2018-03-03T08:45:07Z</time>
      </trkpt>
      <trkpt lat="46.481332825496793" lon="11.737990044057369">
        <ele>1500.76</ele>
        <time>2018-03-03T08:45:23Z</time>
      </trkpt>
      <trkpt lat="46.481334753334522" lon="11.737967832013965">
        <ele>1501.24</ele>
        <time>2018-03-03T08:45:42Z</time>
      </trkpt>
      <trkpt lat="46.481308350339532" lon="11.737976549193263">
        <ele>1501.24</ele>
        <time>2018-03-03T08:46:01Z</time>
      </trkpt>
      <trkpt lat="46.481288066133857" lon="11.737999599426985">
        <ele>1501.72</ele>
        <time>2018-03-03T08:46:17Z</time>
      </trkpt>
      <trkpt lat="46.48129116743803" lon="11.737980991601944">
        <ele>1501.72</ele>
        <time>2018-03-03T08:46:30Z</time>
      </trkpt>
      <trkpt lat="46.481275493279099" lon="11.738004544749856">
        <ele>1501.24</ele>
        <time>2018-03-03T08:46:39Z</time>
      </trkpt>
      <trkpt lat="46.481304913759232" lon="11.73794612288475">
        <ele>1501.72</ele>
        <time>2018-03-03T08:46:52Z</time>
      </trkpt>
      <trkpt lat="46.481332406401634" lon="11.737892394885421">
        <ele>1501.72</ele>
        <time>2018-03-03T08:47:08Z</time>
      </trkpt>
      <trkpt lat="46.481343386694789" lon="11.737874960526824">
        <ele>1501.72</ele>
        <time>2018-03-03T08:47:26Z</time>
      </trkpt>
      <trkpt lat="46.48134296759963" lon="11.737900273874402">
        <ele>1502.2</ele>
        <time>2018-03-03T08:47:41Z</time>
      </trkpt>
      <trkpt lat="46.481348080560565" lon="11.737923827022314">
        <ele>1503.6400000000001</ele>
        <time>2018-03-03T08:47:46Z</time>
      </trkpt>
      <trkpt lat="46.481351600959897" lon="11.737926844507456">
        <ele>1502.6800000000001</ele>
        <time>2018-03-03T08:47:47Z</time>
      </trkpt>
      <trkpt lat="46.481385044753551" lon="11.737887617200613">
        <ele>1502.6800000000001</ele>
        <time>2018-03-03T08:47:55Z</time>
      </trkpt>
      <trkpt lat="46.481421422213316" lon="11.737832799553871">
        <ele>1503.1600000000001</ele>
        <time>2018-03-03T08:48:04Z</time>
      </trkpt>
      <trkpt lat="46.481415219604969" lon="11.737860627472401">
        <ele>1503.1600000000001</ele>
        <time>2018-03-03T08:48:15Z</time>
      </trkpt>
      <trkpt lat="46.481432905420661" lon="11.737900692969561">
        <ele>1504.1199999999999</ele>
        <time>2018-03-03T08:48:27Z</time>
      </trkpt>
      <trkpt lat="46.481449333950877" lon="11.737905386835337">
        <ele>1504.1199999999999</ele>
        <time>2018-03-03T08:48:41Z</time>
      </trkpt>
      <trkpt lat="46.481446567922831" lon="11.737863896414638">
        <ele>1504.1199999999999</ele>
        <time>2018-03-03T08:48:52Z</time>
      </trkpt>
      <trkpt lat="46.481485879048705" lon="11.737820226699114">
        <ele>1504.5999999999999</ele>
        <time>2018-03-03T08:48:58Z</time>
      </trkpt>
      <trkpt lat="46.481565590947866" lon="11.737777898088098">
        <ele>1506.52</ele>
        <time>2018-03-03T08:49:09Z</time>
      </trkpt>
      <trkpt lat="46.4816380944103" lon="11.737747304141521">
        <ele>1507.97</ele>
        <time>2018-03-03T08:49:20Z</time>
      </trkpt>
      <trkpt lat="46.481695342808962" lon="11.73771595582366">
        <ele>1508.45</ele>
        <time>2018-03-03T08:49:29Z</time>
      </trkpt>
      <trkpt lat="46.481777485460043" lon="11.737678656354547">
        <ele>1508.9300000000001</ele>
        <time>2018-03-03T08:49:39Z</time>
      </trkpt>
      <trkpt lat="46.481855940073729" lon="11.73763046041131">
        <ele>1509.8900000000001</ele>
        <time>2018-03-03T08:49:48Z</time>
      </trkpt>
      <trkpt lat="46.48193028755486" lon="11.737564578652382">
        <ele>1509.4100000000001</ele>
        <time>2018-03-03T08:49:57Z</time>
      </trkpt>
      <trkpt lat="46.482023578137159" lon="11.737469611689448">
        <ele>1509.8900000000001</ele>
        <time>2018-03-03T08:50:09Z</time>
      </trkpt>
      <trkpt lat="46.482046628370881" lon="11.737381517887115">
        <ele>1510.8499999999999</ele>
        <time>2018-03-03T08:50:18Z</time>
      </trkpt>
      <trkpt lat="46.48205098696053" lon="11.737281354144216">
        <ele>1512.29</ele>
        <time>2018-03-03T08:50:27Z</time>
      </trkpt>
      <trkpt lat="46.482073534280062" lon="11.73719703219831">
        <ele>1512.77</ele>
        <time>2018-03-03T08:50:35Z</time>
      </trkpt>
      <trkpt lat="46.482085352763534" lon="11.737093012779951">
        <ele>1513.73</ele>
        <time>2018-03-03T08:50:44Z</time>
      </trkpt>
      <trkpt lat="46.482102535665035" lon="11.736975749954581">
        <ele>1515.1800000000001</ele>
        <time>2018-03-03T08:50:56Z</time>
      </trkpt>
      <trkpt lat="46.482134554535151" lon="11.736877262592316">
        <ele>1516.6199999999999</ele>
        <time>2018-03-03T08:51:07Z</time>
      </trkpt>
      <trkpt lat="46.4821648132056" lon="11.736760251224041">
        <ele>1518.0599999999999</ele>
        <time>2018-03-03T08:51:20Z</time>
      </trkpt>
      <trkpt lat="46.48218828253448" lon="11.736673833802342">
        <ele>1519.98</ele>
        <time>2018-03-03T08:51:31Z</time>
      </trkpt>
      <trkpt lat="46.482217786833644" lon="11.736597223207355">
        <ele>1520.9400000000001</ele>
        <time>2018-03-03T08:51:39Z</time>
      </trkpt>
      <trkpt lat="46.482257349416614" lon="11.736507620662451">
        <ele>1522.8699999999999</ele>
        <time>2018-03-03T08:51:52Z</time>
      </trkpt>
      <trkpt lat="46.482308814302087" lon="11.736427070572972">
        <ele>1524.79</ele>
        <time>2018-03-03T08:52:05Z</time>
      </trkpt>
      <trkpt lat="46.482325913384557" lon="11.73637175001204">
        <ele>1526.23</ele>
        <time>2018-03-03T08:52:16Z</time>
      </trkpt>
      <trkpt lat="46.482360949739814" lon="11.736318022012711">
        <ele>1527.6700000000001</ele>
        <time>2018-03-03T08:52:28Z</time>
      </trkpt>
      <trkpt lat="46.482424233108759" lon="11.736244428902864">
        <ele>1529.5899999999999</ele>
        <time>2018-03-03T08:52:40Z</time>
      </trkpt>
      <trkpt lat="46.482507297769189" lon="11.736214170232415">
        <ele>1531.04</ele>
        <time>2018-03-03T08:52:51Z</time>
      </trkpt>
      <trkpt lat="46.482562115415931" lon="11.736166309565306">
        <ele>1532.96</ele>
        <time>2018-03-03T08:53:04Z</time>
      </trkpt>
      <trkpt lat="46.482606874778867" lon="11.736124064773321">
        <ele>1534.4000000000001</ele>
        <time>2018-03-03T08:53:14Z</time>
      </trkpt>
      <trkpt lat="46.482671918347478" lon="11.736073521897197">
        <ele>1536.3199999999999</ele>
        <time>2018-03-03T08:53:24Z</time>
      </trkpt>
      <trkpt lat="46.482722880318761" lon="11.736022057011724">
        <ele>1538.25</ele>
        <time>2018-03-03T08:53:35Z</time>
      </trkpt>
      <trkpt lat="46.482749283313751" lon="11.735972100868821">
        <ele>1539.21</ele>
        <time>2018-03-03T08:53:45Z</time>
      </trkpt>
      <trkpt lat="46.482798652723432" lon="11.7359075602144">
        <ele>1541.1300000000001</ele>
        <time>2018-03-03T08:53:55Z</time>
      </trkpt>
      <trkpt lat="46.482849614694715" lon="11.73585332930088">
        <ele>1542.5699999999999</ele>
        <time>2018-03-03T08:54:06Z</time>
      </trkpt>
      <trkpt lat="46.482875850051641" lon="11.735788285732269">
        <ele>1544.98</ele>
        <time>2018-03-03T08:54:18Z</time>
      </trkpt>
      <trkpt lat="46.482898397371173" lon="11.735735144466162">
        <ele>1546.4200000000001</ele>
        <time>2018-03-03T08:54:28Z</time>
      </trkpt>
      <trkpt lat="46.482902839779854" lon="11.73565836623311">
        <ele>1547.8599999999999</ele>
        <time>2018-03-03T08:54:41Z</time>
      </trkpt>
      <trkpt lat="46.482926728203893" lon="11.735567254945636">
        <ele>1548.3399999999999</ele>
        <time>2018-03-03T08:54:50Z</time>
      </trkpt>
      <trkpt lat="46.4829470962286" lon="11.735460134223104">
        <ele>1549.78</ele>
        <time>2018-03-03T08:55:01Z</time>
      </trkpt>
      <trkpt lat="46.482993783429265" lon="11.735365753993392">
        <ele>1550.74</ele>
        <time>2018-03-03T08:55:12Z</time>
      </trkpt>
      <trkpt lat="46.482999734580517" lon="11.735354270786047">
        <ele>1550.74</ele>
        <time>2018-03-03T08:55:13Z</time>
      </trkpt>
      <trkpt lat="46.483006021007895" lon="11.735343793407083">
        <ele>1551.22</ele>
        <time>2018-03-03T08:55:14Z</time>
      </trkpt>
      <trkpt lat="46.483050025999546" lon="11.735255615785718">
        <ele>1552.1900000000001</ele>
        <time>2018-03-03T08:55:24Z</time>
      </trkpt>
      <trkpt lat="46.483107022941113" lon="11.735195433720946">
        <ele>1553.6300000000001</ele>
        <time>2018-03-03T08:55:33Z</time>
      </trkpt>
      <trkpt lat="46.483135102316737" lon="11.735170790925622">
        <ele>1553.6300000000001</ele>
        <time>2018-03-03T08:55:41Z</time>
      </trkpt>
      <trkpt lat="46.483195619657636" lon="11.735085127875209">
        <ele>1556.51</ele>
        <time>2018-03-03T08:55:51Z</time>
      </trkpt>
      <trkpt lat="46.483232164755464" lon="11.735053528100252">
        <ele>1555.0699999999999</ele>
        <time>2018-03-03T08:55:56Z</time>
      </trkpt>
      <trkpt lat="46.483244653791189" lon="11.735032489523292">
        <ele>1555.0699999999999</ele>
        <time>2018-03-03T08:55:58Z</time>
      </trkpt>
      <trkpt lat="46.483298633247614" lon="11.734962835907936">
        <ele>1555.55</ele>
        <time>2018-03-03T08:56:06Z</time>
      </trkpt>
      <trkpt lat="46.483362251892686" lon="11.734880860894918">
        <ele>1556.03</ele>
        <time>2018-03-03T08:56:16Z</time>
      </trkpt>
      <trkpt lat="46.483431234955788" lon="11.734804417937994">
        <ele>1556.51</ele>
        <time>2018-03-03T08:56:26Z</time>
      </trkpt>
      <trkpt lat="46.483458308503032" lon="11.73477491363883">
        <ele>1556.99</ele>
        <time>2018-03-03T08:56:29Z</time>
      </trkpt>
      <trkpt lat="46.483536763116717" lon="11.734686903655529">
        <ele>1557.47</ele>
        <time>2018-03-03T08:56:39Z</time>
      </trkpt>
      <trkpt lat="46.483617648482323" lon="11.734572239220142">
        <ele>1557.95</ele>
        <time>2018-03-03T08:56:51Z</time>
      </trkpt>
      <trkpt lat="46.483672466129065" lon="11.734478278085589">
        <ele>1558.4300000000001</ele>
        <time>2018-03-03T08:57:00Z</time>
      </trkpt>
      <trkpt lat="46.483741113916039" lon="11.734376437962055">
        <ele>1559.4000000000001</ele>
        <time>2018-03-03T08:57:11Z</time>
      </trkpt>
      <trkpt lat="46.4837846159935" lon="11.734282979741693">
        <ele>1559.8800000000001</ele>
        <time>2018-03-03T08:57:18Z</time>
      </trkpt>
      <trkpt lat="46.483835158869624" lon="11.73418952152133">
        <ele>1560.3599999999999</ele>
        <time>2018-03-03T08:57:26Z</time>
      </trkpt>
      <trkpt lat="46.48389601148665" lon="11.734082903712988">
        <ele>1560.8399999999999</ele>
        <time>2018-03-03T08:57:36Z</time>
      </trkpt>
      <trkpt lat="46.48392484523356" lon="11.734028924256563">
        <ele>1561.3199999999999</ele>
        <time>2018-03-03T08:57:41Z</time>
      </trkpt>
      <trkpt lat="46.48398938588798" lon="11.73390218988061">
        <ele>1561.8</ele>
        <time>2018-03-03T08:57:51Z</time>
      </trkpt>
      <trkpt lat="46.48400355130434" lon="11.733880648389459">
        <ele>1562.28</ele>
        <time>2018-03-03T08:57:53Z</time>
      </trkpt>
      <trkpt lat="46.484065912663937" lon="11.733794985339046">
        <ele>1562.76</ele>
        <time>2018-03-03T08:58:02Z</time>
      </trkpt>
      <trkpt lat="46.484090806916356" lon="11.733741844072938">
        <ele>1563.24</ele>
        <time>2018-03-03T08:58:07Z</time>
      </trkpt>
      <trkpt lat="46.484128022566438" lon="11.733715860173106">
        <ele>1563.24</ele>
        <time>2018-03-03T08:58:10Z</time>
      </trkpt>
      <trkpt lat="46.484134728088975" lon="11.73370479606092">
        <ele>1563.24</ele>
        <time>2018-03-03T08:58:11Z</time>
      </trkpt>
      <trkpt lat="46.484150569885969" lon="11.733692558482289">
        <ele>1563.24</ele>
        <time>2018-03-03T08:58:13Z</time>
      </trkpt>
      <trkpt lat="46.484230700880289" lon="11.733575379475951">
        <ele>1564.6800000000001</ele>
        <time>2018-03-03T08:58:24Z</time>
      </trkpt>
      <trkpt lat="46.484262300655246" lon="11.733520897105336">
        <ele>1564.6800000000001</ele>
        <time>2018-03-03T08:58:29Z</time>
      </trkpt>
      <trkpt lat="46.484284428879619" lon="11.733491811901331">
        <ele>1564.6800000000001</ele>
        <time>2018-03-03T08:58:32Z</time>
      </trkpt>
      <trkpt lat="46.484357938170433" lon="11.733391145244241">
        <ele>1565.1600000000001</ele>
        <time>2018-03-03T08:58:41Z</time>
      </trkpt>
      <trkpt lat="46.484390711411834" lon="11.733317552134395">
        <ele>1565.6400000000001</ele>
        <time>2018-03-03T08:58:47Z</time>
      </trkpt>
      <trkpt lat="46.484435806050897" lon="11.733225435018539">
        <ele>1566.1199999999999</ele>
        <time>2018-03-03T08:58:54Z</time>
      </trkpt>
      <trkpt lat="46.484437398612499" lon="11.733189560472965">
        <ele>1566.1199999999999</ele>
        <time>2018-03-03T08:58:57Z</time>
      </trkpt>
      <trkpt lat="46.484443433582783" lon="11.733158715069294">
        <ele>1566.1199999999999</ele>
        <time>2018-03-03T08:58:58Z</time>
      </trkpt>
      <trkpt lat="46.484464975073934" lon="11.733105657622218">
        <ele>1566.1199999999999</ele>
        <time>2018-03-03T08:59:02Z</time>
      </trkpt>
      <trkpt lat="46.484476458281279" lon="11.73306223936379">
        <ele>1566.6099999999999</ele>
        <time>2018-03-03T08:59:05Z</time>
      </trkpt>
      <trkpt lat="46.48450780659914" lon="11.732996692880988">
        <ele>1566.6099999999999</ele>
        <time>2018-03-03T08:59:11Z</time>
      </trkpt>
      <trkpt lat="46.484541334211826" lon="11.732910191640258">
        <ele>1566.6099999999999</ele>
        <time>2018-03-03T08:59:17Z</time>
      </trkpt>
      <trkpt lat="46.48458156734705" lon="11.732836179435253">
        <ele>1566.6099999999999</ele>
        <time>2018-03-03T08:59:23Z</time>
      </trkpt>
      <trkpt lat="46.484622387215495" lon="11.732726544141769">
        <ele>1567.0899999999999</ele>
        <time>2018-03-03T08:59:31Z</time>
      </trkpt>
      <trkpt lat="46.484695812687278" lon="11.732579274103045">
        <ele>1568.05</ele>
        <time>2018-03-03T08:59:43Z</time>
      </trkpt>
      <trkpt lat="46.484732441604137" lon="11.732468716800213">
        <ele>1569.01</ele>
        <time>2018-03-03T08:59:52Z</time>
      </trkpt>
      <trkpt lat="46.484734704717994" lon="11.732453964650631">
        <ele>1569.97</ele>
        <time>2018-03-03T08:59:53Z</time>
      </trkpt>
      <trkpt lat="46.484739482402802" lon="11.732421275228262">
        <ele>1569.01</ele>
        <time>2018-03-03T08:59:55Z</time>
      </trkpt>
      <trkpt lat="46.484759598970413" lon="11.73237525857985">
        <ele>1569.01</ele>
        <time>2018-03-03T08:59:59Z</time>
      </trkpt>
      <trkpt lat="46.484784325584769" lon="11.732231844216585">
        <ele>1569.49</ele>
        <time>2018-03-03T09:00:09Z</time>
      </trkpt>
      <trkpt lat="46.484797233715653" lon="11.73215146176517">
        <ele>1569.97</ele>
        <time>2018-03-03T09:00:14Z</time>
      </trkpt>
      <trkpt lat="46.484799245372415" lon="11.732106870040298">
        <ele>1569.97</ele>
        <time>2018-03-03T09:00:17Z</time>
      </trkpt>
      <trkpt lat="46.484835874289274" lon="11.731998575851321">
        <ele>1569.97</ele>
        <time>2018-03-03T09:00:25Z</time>
      </trkpt>
      <trkpt lat="46.484861439093947" lon="11.731873350217938">
        <ele>1570.45</ele>
        <time>2018-03-03T09:00:35Z</time>
      </trkpt>
      <trkpt lat="46.484884908422828" lon="11.731792548671365">
        <ele>1570.45</ele>
        <time>2018-03-03T09:00:42Z</time>
      </trkpt>
      <trkpt lat="46.484913574531674" lon="11.731669753789902">
        <ele>1571.4100000000001</ele>
        <time>2018-03-03T09:00:52Z</time>
      </trkpt>
      <trkpt lat="46.484940648078918" lon="11.731560286134481">
        <ele>1572.8499999999999</ele>
        <time>2018-03-03T09:01:02Z</time>
      </trkpt>
      <trkpt lat="46.484966380521655" lon="11.731424331665039">
        <ele>1573.8199999999999</ele>
        <time>2018-03-03T09:01:13Z</time>
      </trkpt>
      <trkpt lat="46.484965207055211" lon="11.731387870386243">
        <ele>1573.8199999999999</ele>
        <time>2018-03-03T09:01:16Z</time>
      </trkpt>
      <trkpt lat="46.4850037638098" lon="11.731235487386584">
        <ele>1574.78</ele>
        <time>2018-03-03T09:01:29Z</time>
      </trkpt>
      <trkpt lat="46.485056318342686" lon="11.731164744123816">
        <ele>1575.74</ele>
        <time>2018-03-03T09:01:37Z</time>
      </trkpt>
      <trkpt lat="46.485060006380081" lon="11.731118224561214">
        <ele>1576.22</ele>
        <time>2018-03-03T09:01:47Z</time>
      </trkpt>
      <trkpt lat="46.485085655003786" lon="11.731040859594941">
        <ele>1575.74</ele>
        <time>2018-03-03T09:01:54Z</time>
      </trkpt>
      <trkpt lat="46.485092528164387" lon="11.731028873473406">
        <ele>1577.1800000000001</ele>
        <time>2018-03-03T09:01:55Z</time>
      </trkpt>
      <trkpt lat="46.485126642510295" lon="11.730961482971907">
        <ele>1576.7</ele>
        <time>2018-03-03T09:02:07Z</time>
      </trkpt>
      <trkpt lat="46.485141227021813" lon="11.730942288413644">
        <ele>1577.1800000000001</ele>
        <time>2018-03-03T09:02:25Z</time>
      </trkpt>
      <trkpt lat="46.485151872038841" lon="11.730908844619989">
        <ele>1577.1800000000001</ele>
        <time>2018-03-03T09:02:39Z</time>
      </trkpt>
      <trkpt lat="46.485164863988757" lon="11.730846734717488">
        <ele>1577.1800000000001</ele>
        <time>2018-03-03T09:02:50Z</time>
      </trkpt>
      <trkpt lat="46.485196128487587" lon="11.730769788846374">
        <ele>1577.6600000000001</ele>
        <time>2018-03-03T09:02:58Z</time>
      </trkpt>
      <trkpt lat="46.485212808474898" lon="11.730728885158896">
        <ele>1578.1400000000001</ele>
        <time>2018-03-03T09:03:03Z</time>
      </trkpt>
      <trkpt lat="46.485247677192092" lon="11.730656381696463">
        <ele>1578.6199999999999</ele>
        <time>2018-03-03T09:03:11Z</time>
      </trkpt>
      <trkpt lat="46.485254047438502" lon="11.730644898489118">
        <ele>1579.0999999999999</ele>
        <time>2018-03-03T09:03:12Z</time>
      </trkpt>
      <trkpt lat="46.485279444605112" lon="11.730607682839036">
        <ele>1579.5799999999999</ele>
        <time>2018-03-03T09:03:16Z</time>
      </trkpt>
      <trkpt lat="46.485284892842174" lon="11.730594020336866">
        <ele>1579.0999999999999</ele>
        <time>2018-03-03T09:03:17Z</time>
      </trkpt>
      <trkpt lat="46.485351696610451" lon="11.730498718097806">
        <ele>1580.54</ele>
        <time>2018-03-03T09:03:29Z</time>
      </trkpt>
      <trkpt lat="46.485373489558697" lon="11.730467705056071">
        <ele>1580.54</ele>
        <time>2018-03-03T09:03:39Z</time>
      </trkpt>
      <trkpt lat="46.485412046313286" lon="11.730428393930197">
        <ele>1581.03</ele>
        <time>2018-03-03T09:03:48Z</time>
      </trkpt>
      <trkpt lat="46.485411208122969" lon="11.730408361181617">
        <ele>1580.54</ele>
        <time>2018-03-03T09:03:50Z</time>
      </trkpt>
      <trkpt lat="46.485437778756022" lon="11.730373073369265">
        <ele>1581.03</ele>
        <time>2018-03-03T09:03:53Z</time>
      </trkpt>
      <trkpt lat="46.485447250306606" lon="11.730350609868765">
        <ele>1582.47</ele>
        <time>2018-03-03T09:03:55Z</time>
      </trkpt>
      <trkpt lat="46.485457560047507" lon="11.73033619299531">
        <ele>1581.51</ele>
        <time>2018-03-03T09:03:57Z</time>
      </trkpt>
      <trkpt lat="46.485461499541998" lon="11.730321859940886">
        <ele>1581.03</ele>
        <time>2018-03-03T09:03:58Z</time>
      </trkpt>
      <trkpt lat="46.485506678000093" lon="11.730251871049404">
        <ele>1581.99</ele>
        <time>2018-03-03T09:04:05Z</time>
      </trkpt>
      <trkpt lat="46.485507767647505" lon="11.730226473882794">
        <ele>1582.47</ele>
        <time>2018-03-03T09:04:07Z</time>
      </trkpt>
      <trkpt lat="46.485538277775049" lon="11.730140140280128">
        <ele>1583.4300000000001</ele>
        <time>2018-03-03T09:04:16Z</time>
      </trkpt>
      <trkpt lat="46.485552778467536" lon="11.730146175250411">
        <ele>1583.4300000000001</ele>
        <time>2018-03-03T09:04:17Z</time>
      </trkpt>
      <trkpt lat="46.485550431534648" lon="11.730155479162931">
        <ele>1583.4300000000001</ele>
        <time>2018-03-03T09:04:18Z</time>
      </trkpt>
      <trkpt lat="46.485543726012111" lon="11.730174757540226">
        <ele>1582.95</ele>
        <time>2018-03-03T09:04:20Z</time>
      </trkpt>
      <trkpt lat="46.485549844801426" lon="11.730196550488472">
        <ele>1582.95</ele>
        <time>2018-03-03T09:04:28Z</time>
      </trkpt>
      <trkpt lat="46.485548000782728" lon="11.730188084766269">
        <ele>1582.95</ele>
        <time>2018-03-03T09:04:29Z</time>
      </trkpt>
      <trkpt lat="46.485565016046166" lon="11.730046765878797">
        <ele>1583.9100000000001</ele>
        <time>2018-03-03T09:04:41Z</time>
      </trkpt>
      <trkpt lat="46.48559695109725" lon="11.729939980432391">
        <ele>1585.3499999999999</ele>
        <time>2018-03-03T09:04:50Z</time>
      </trkpt>
      <trkpt lat="46.485635591670871" lon="11.729843085631728">
        <ele>1586.3099999999999</ele>
        <time>2018-03-03T09:05:01Z</time>
      </trkpt>
      <trkpt lat="46.485682865604758" lon="11.729716099798679">
        <ele>1588.24</ele>
        <time>2018-03-03T09:05:14Z</time>
      </trkpt>
      <trkpt lat="46.485729217529297" lon="11.72963060438633">
        <ele>1589.2</ele>
        <time>2018-03-03T09:05:25Z</time>
      </trkpt>
      <trkpt lat="46.485759560018778" lon="11.729575786739588">
        <ele>1590.1600000000001</ele>
        <time>2018-03-03T09:05:33Z</time>
      </trkpt>
      <trkpt lat="46.48580364882946" lon="11.729485262185335">
        <ele>1591.1199999999999</ele>
        <time>2018-03-03T09:05:42Z</time>
      </trkpt>
      <trkpt lat="46.485837427899241" lon="11.729372441768646">
        <ele>1592.5599999999999</ele>
        <time>2018-03-03T09:05:53Z</time>
      </trkpt>
      <trkpt lat="46.485855532810092" lon="11.729346876963973">
        <ele>1594</ele>
        <time>2018-03-03T09:05:56Z</time>
      </trkpt>
      <trkpt lat="46.485893251374364" lon="11.729249311611056">
        <ele>1593.52</ele>
        <time>2018-03-03T09:06:05Z</time>
      </trkpt>
      <trkpt lat="46.485898196697235" lon="11.729236738756299">
        <ele>1594</ele>
        <time>2018-03-03T09:06:06Z</time>
      </trkpt>
      <trkpt lat="46.485937340185046" lon="11.729141939431429">
        <ele>1594.96</ele>
        <time>2018-03-03T09:06:17Z</time>
      </trkpt>
      <trkpt lat="46.486011520028114" lon="11.72906088642776">
        <ele>1595.9300000000001</ele>
        <time>2018-03-03T09:06:27Z</time>
      </trkpt>
      <trkpt lat="46.486059715971351" lon="11.728980420157313">
        <ele>1597.3699999999999</ele>
        <time>2018-03-03T09:06:39Z</time>
      </trkpt>
      <trkpt lat="46.486134566366673" lon="11.728881346061826">
        <ele>1598.8099999999999</ele>
        <time>2018-03-03T09:06:51Z</time>
      </trkpt>
      <trkpt lat="46.486140433698893" lon="11.728876233100891">
        <ele>1598.8099999999999</ele>
        <time>2018-03-03T09:06:52Z</time>
      </trkpt>
      <trkpt lat="46.486194664612412" lon="11.728812865912914">
        <ele>1599.77</ele>
        <time>2018-03-03T09:07:02Z</time>
      </trkpt>
      <trkpt lat="46.486242106184363" lon="11.728746481239796">
        <ele>1600.73</ele>
        <time>2018-03-03T09:07:12Z</time>
      </trkpt>
      <trkpt lat="46.486292062327266" lon="11.728649754077196">
        <ele>1601.6900000000001</ele>
        <time>2018-03-03T09:07:23Z</time>
      </trkpt>
      <trkpt lat="46.486348137259483" lon="11.72853265888989">
        <ele>1602.6600000000001</ele>
        <time>2018-03-03T09:07:34Z</time>
      </trkpt>
      <trkpt lat="46.486409828066826" lon="11.728340461850166">
        <ele>1604.0999999999999</ele>
        <time>2018-03-03T09:07:46Z</time>
      </trkpt>
      <trkpt lat="46.486496077850461" lon="11.728299725800753">
        <ele>1606.02</ele>
        <time>2018-03-03T09:07:57Z</time>
      </trkpt>
      <trkpt lat="46.486601438373327" lon="11.728266533464193">
        <ele>1605.54</ele>
        <time>2018-03-03T09:08:07Z</time>
      </trkpt>
      <trkpt lat="46.486670086160302" lon="11.728226048871875">
        <ele>1606.98</ele>
        <time>2018-03-03T09:08:17Z</time>
      </trkpt>
      <trkpt lat="46.486736638471484" lon="11.728140385821462">
        <ele>1608.4200000000001</ele>
        <time>2018-03-03T09:08:30Z</time>
      </trkpt>
      <trkpt lat="46.486761616542935" lon="11.728114234283566">
        <ele>1608.9000000000001</ele>
        <time>2018-03-03T09:08:33Z</time>
      </trkpt>
      <trkpt lat="46.486843507736921" lon="11.728104427456856">
        <ele>1609.3800000000001</ele>
        <time>2018-03-03T09:08:44Z</time>
      </trkpt>
      <trkpt lat="46.486894302070141" lon="11.728127561509609">
        <ele>1610.3499999999999</ele>
        <time>2018-03-03T09:09:02Z</time>
      </trkpt>
      <trkpt lat="46.486951718106866" lon="11.728052878752351">
        <ele>1611.3099999999999</ele>
        <time>2018-03-03T09:09:10Z</time>
      </trkpt>
      <trkpt lat="46.487014079466462" lon="11.727986745536327">
        <ele>1612.75</ele>
        <time>2018-03-03T09:09:20Z</time>
      </trkpt>
      <trkpt lat="46.487086666747928" lon="11.727916589006782">
        <ele>1614.1900000000001</ele>
        <time>2018-03-03T09:09:31Z</time>
      </trkpt>
      <trkpt lat="46.487170401960611" lon="11.727838050574064">
        <ele>1615.6300000000001</ele>
        <time>2018-03-03T09:09:42Z</time>
      </trkpt>
      <trkpt lat="46.487246593460441" lon="11.727780047804117">
        <ele>1616.5899999999999</ele>
        <time>2018-03-03T09:09:51Z</time>
      </trkpt>
      <trkpt lat="46.487277103587985" lon="11.727756662294269">
        <ele>1619</ele>
        <time>2018-03-03T09:09:58Z</time>
      </trkpt>
      <trkpt lat="46.48734575137496" lon="11.727707041427493">
        <ele>1618.52</ele>
        <time>2018-03-03T09:10:08Z</time>
      </trkpt>
      <trkpt lat="46.487403586506844" lon="11.727636465802789">
        <ele>1619.48</ele>
        <time>2018-03-03T09:10:19Z</time>
      </trkpt>
      <trkpt lat="46.487409370020032" lon="11.727619199082255">
        <ele>1619.96</ele>
        <time>2018-03-03T09:10:21Z</time>
      </trkpt>
      <trkpt lat="46.4874351862818" lon="11.727598160505295">
        <ele>1619.96</ele>
        <time>2018-03-03T09:10:24Z</time>
      </trkpt>
      <trkpt lat="46.487501654773951" lon="11.727533536031842">
        <ele>1620.9200000000001</ele>
        <time>2018-03-03T09:10:33Z</time>
      </trkpt>
      <trkpt lat="46.487525459378958" lon="11.727502942085266">
        <ele>1620.9200000000001</ele>
        <time>2018-03-03T09:10:36Z</time>
      </trkpt>
      <trkpt lat="46.487564016133547" lon="11.727441502735019">
        <ele>1621.4000000000001</ele>
        <time>2018-03-03T09:10:45Z</time>
      </trkpt>
      <trkpt lat="46.487625204026699" lon="11.727326922118664">
        <ele>1622.8399999999999</ele>
        <time>2018-03-03T09:10:58Z</time>
      </trkpt>
      <trkpt lat="46.487619923427701" lon="11.727334801107645">
        <ele>1623.3199999999999</ele>
        <time>2018-03-03T09:11:07Z</time>
      </trkpt>
      <trkpt lat="46.487606009468436" lon="11.727358270436525">
        <ele>1622.8399999999999</ele>
        <time>2018-03-03T09:11:21Z</time>
      </trkpt>
      <trkpt lat="46.487622186541557" lon="11.727311918511987">
        <ele>1623.3199999999999</ele>
        <time>2018-03-03T09:11:31Z</time>
      </trkpt>
      <trkpt lat="46.487628892064095" lon="11.727240001782775">
        <ele>1623.8</ele>
        <time>2018-03-03T09:11:41Z</time>
      </trkpt>
      <trkpt lat="46.487666191533208" lon="11.727136233821511">
        <ele>1624.28</ele>
        <time>2018-03-03T09:11:50Z</time>
      </trkpt>
      <trkpt lat="46.487679937854409" lon="11.72705358825624">
        <ele>1625.25</ele>
        <time>2018-03-03T09:11:57Z</time>
      </trkpt>
      <trkpt lat="46.487682787701488" lon="11.726975217461586">
        <ele>1625.25</ele>
        <time>2018-03-03T09:12:07Z</time>
      </trkpt>
      <trkpt lat="46.487697204574943" lon="11.72698225826025">
        <ele>1624.77</ele>
        <time>2018-03-03T09:12:21Z</time>
      </trkpt>
      <trkpt lat="46.487660240381956" lon="11.726968176662922">
        <ele>1625.25</ele>
        <time>2018-03-03T09:12:40Z</time>
      </trkpt>
      <trkpt lat="46.487664431333542" lon="11.726969517767429">
        <ele>1625.25</ele>
        <time>2018-03-03T09:12:51Z</time>
      </trkpt>
      <trkpt lat="46.487655211240053" lon="11.726881256327033">
        <ele>1625.25</ele>
        <time>2018-03-03T09:12:59Z</time>
      </trkpt>
      <trkpt lat="46.487653451040387" lon="11.726828785613179">
        <ele>1625.25</ele>
        <time>2018-03-03T09:13:03Z</time>
      </trkpt>
      <trkpt lat="46.487653283402324" lon="11.726628541946411">
        <ele>1626.6900000000001</ele>
        <time>2018-03-03T09:13:16Z</time>
      </trkpt>
      <trkpt lat="46.487650936469436" lon="11.72661286778748">
        <ele>1626.6900000000001</ele>
        <time>2018-03-03T09:13:17Z</time>
      </trkpt>
      <trkpt lat="46.487653367221355" lon="11.726574478670955">
        <ele>1627.1700000000001</ele>
        <time>2018-03-03T09:13:20Z</time>
      </trkpt>
      <trkpt lat="46.487659402191639" lon="11.726489821448922">
        <ele>1627.6500000000001</ele>
        <time>2018-03-03T09:13:27Z</time>
      </trkpt>
      <trkpt lat="46.48766627535224" lon="11.726354202255607">
        <ele>1628.6099999999999</ele>
        <time>2018-03-03T09:13:38Z</time>
      </trkpt>
      <trkpt lat="46.48765604943037" lon="11.726324530318379">
        <ele>1629.0899999999999</ele>
        <time>2018-03-03T09:13:41Z</time>
      </trkpt>
      <trkpt lat="46.487637525424361" lon="11.726292092353106">
        <ele>1629.5699999999999</ele>
        <time>2018-03-03T09:13:44Z</time>
      </trkpt>
      <trkpt lat="46.48762721568346" lon="11.72615890391171">
        <ele>1630.53</ele>
        <time>2018-03-03T09:13:55Z</time>
      </trkpt>
      <trkpt lat="46.487615229561925" lon="11.726104505360126">
        <ele>1630.53</ele>
        <time>2018-03-03T09:13:59Z</time>
      </trkpt>
      <trkpt lat="46.487582540139556" lon="11.725969556719065">
        <ele>1630.53</ele>
        <time>2018-03-03T09:14:09Z</time>
      </trkpt>
      <trkpt lat="46.487576588988304" lon="11.725848270580173">
        <ele>1631.01</ele>
        <time>2018-03-03T09:14:19Z</time>
      </trkpt>
      <trkpt lat="46.487586814910173" lon="11.725853802636266">
        <ele>1631.01</ele>
        <time>2018-03-03T09:14:27Z</time>
      </trkpt>
      <trkpt lat="46.487566865980625" lon="11.725821113213897">
        <ele>1631.01</ele>
        <time>2018-03-03T09:14:34Z</time>
      </trkpt>
      <trkpt lat="46.487572062760592" lon="11.725734360516071">
        <ele>1631.49</ele>
        <time>2018-03-03T09:14:40Z</time>
      </trkpt>
      <trkpt lat="46.487596621736884" lon="11.725595220923424">
        <ele>1632.46</ele>
        <time>2018-03-03T09:14:51Z</time>
      </trkpt>
      <trkpt lat="46.487577427178621" lon="11.72547334805131">
        <ele>1632.9400000000001</ele>
        <time>2018-03-03T09:15:01Z</time>
      </trkpt>
      <trkpt lat="46.487577678635716" lon="11.725332364439964">
        <ele>1632.9400000000001</ele>
        <time>2018-03-03T09:15:12Z</time>
      </trkpt>
      <trkpt lat="46.487570973113179" lon="11.725289952009916">
        <ele>1633.4200000000001</ele>
        <time>2018-03-03T09:15:15Z</time>
      </trkpt>
      <trkpt lat="46.487578433007002" lon="11.725186435505748">
        <ele>1633.9000000000001</ele>
        <time>2018-03-03T09:15:21Z</time>
      </trkpt>
      <trkpt lat="46.487575499340892" lon="11.725104711949825">
        <ele>1634.3800000000001</ele>
        <time>2018-03-03T09:15:27Z</time>
      </trkpt>
      <trkpt lat="46.48758664727211" lon="11.72500966116786">
        <ele>1634.8599999999999</ele>
        <time>2018-03-03T09:15:34Z</time>
      </trkpt>
      <trkpt lat="46.487594526261091" lon="11.724950484931469">
        <ele>1634.8599999999999</ele>
        <time>2018-03-03T09:15:39Z</time>
      </trkpt>
      <trkpt lat="46.487591173499823" lon="11.724898936226964">
        <ele>1635.3399999999999</ele>
        <time>2018-03-03T09:15:42Z</time>
      </trkpt>
      <trkpt lat="46.487604500725865" lon="11.724844956770539">
        <ele>1635.3399999999999</ele>
        <time>2018-03-03T09:15:46Z</time>
      </trkpt>
      <trkpt lat="46.487632915377617" lon="11.724773962050676">
        <ele>1635.8199999999999</ele>
        <time>2018-03-03T09:15:53Z</time>
      </trkpt>
      <trkpt lat="46.487640459090471" lon="11.724722161889076">
        <ele>1636.3</ele>
        <time>2018-03-03T09:15:57Z</time>
      </trkpt>
      <trkpt lat="46.487708352506161" lon="11.724599115550518">
        <ele>1637.26</ele>
        <time>2018-03-03T09:16:09Z</time>
      </trkpt>
      <trkpt lat="46.487716566771269" lon="11.72457380220294">
        <ele>1637.26</ele>
        <time>2018-03-03T09:16:12Z</time>
      </trkpt>
      <trkpt lat="46.487726289778948" lon="11.724546141922474">
        <ele>1637.74</ele>
        <time>2018-03-03T09:16:14Z</time>
      </trkpt>
      <trkpt lat="46.487743053585291" lon="11.724485708400607">
        <ele>1637.74</ele>
        <time>2018-03-03T09:16:18Z</time>
      </trkpt>
      <trkpt lat="46.487782699987292" lon="11.724410522729158">
        <ele>1638.7</ele>
        <time>2018-03-03T09:16:26Z</time>
      </trkpt>
      <trkpt lat="46.487763086333871" lon="11.724338438361883">
        <ele>1639.1900000000001</ele>
        <time>2018-03-03T09:16:32Z</time>
      </trkpt>
      <trkpt lat="46.487840702757239" lon="11.724213045090437">
        <ele>1640.1500000000001</ele>
        <time>2018-03-03T09:16:43Z</time>
      </trkpt>
      <trkpt lat="46.487903902307153" lon="11.724107014015317">
        <ele>1641.5899999999999</ele>
        <time>2018-03-03T09:16:56Z</time>
      </trkpt>
      <trkpt lat="46.487903902307153" lon="11.724065188318491">
        <ele>1642.55</ele>
        <time>2018-03-03T09:17:05Z</time>
      </trkpt>
      <trkpt lat="46.487875655293465" lon="11.72405730932951">
        <ele>1642.55</ele>
        <time>2018-03-03T09:17:20Z</time>
      </trkpt>
      <trkpt lat="46.487921588122845" lon="11.724046496674418">
        <ele>1642.55</ele>
        <time>2018-03-03T09:17:37Z</time>
      </trkpt>
      <trkpt lat="46.487894179299474" lon="11.72404364682734">
        <ele>1642.55</ele>
        <time>2018-03-03T09:17:52Z</time>
      </trkpt>
      <trkpt lat="46.487930892035365" lon="11.724067451432347">
        <ele>1643.99</ele>
        <time>2018-03-03T09:18:02Z</time>
      </trkpt>
      <trkpt lat="46.487941956147552" lon="11.72408564016223">
        <ele>1643.03</ele>
        <time>2018-03-03T09:18:09Z</time>
      </trkpt>
      <trkpt lat="46.48794430308044" lon="11.724066194146872">
        <ele>1643.03</ele>
        <time>2018-03-03T09:18:20Z</time>
      </trkpt>
      <trkpt lat="46.487973807379603" lon="11.72396644949913">
        <ele>1644.47</ele>
        <time>2018-03-03T09:18:30Z</time>
      </trkpt>
      <trkpt lat="46.487938016653061" lon="11.723996875807643">
        <ele>1644.95</ele>
        <time>2018-03-03T09:18:43Z</time>
      </trkpt>
      <trkpt lat="46.487860735505819" lon="11.723997630178928">
        <ele>1644.95</ele>
        <time>2018-03-03T09:19:04Z</time>
      </trkpt>
      <trkpt lat="46.487835925072432" lon="11.723994612693787">
        <ele>1644.95</ele>
        <time>2018-03-03T09:19:19Z</time>
      </trkpt>
      <trkpt lat="46.487821759656072" lon="11.723956726491451">
        <ele>1644.95</ele>
        <time>2018-03-03T09:19:29Z</time>
      </trkpt>
      <trkpt lat="46.487825866788626" lon="11.723921187222004">
        <ele>1644.95</ele>
        <time>2018-03-03T09:19:41Z</time>
      </trkpt>
      <trkpt lat="46.487823352217674" lon="11.723864525556564">
        <ele>1644.95</ele>
        <time>2018-03-03T09:19:51Z</time>
      </trkpt>
      <trkpt lat="46.487833494320512" lon="11.7238833848387">
        <ele>1645.4300000000001</ele>
        <time>2018-03-03T09:20:02Z</time>
      </trkpt>
      <trkpt lat="46.487831566482782" lon="11.723897717893124">
        <ele>1645.4300000000001</ele>
        <time>2018-03-03T09:20:19Z</time>
      </trkpt>
      <trkpt lat="46.487856209278107" lon="11.723928479477763">
        <ele>1645.4300000000001</ele>
        <time>2018-03-03T09:20:33Z</time>
      </trkpt>
      <trkpt lat="46.487863082438707" lon="11.723828315734863">
        <ele>1645.9100000000001</ele>
        <time>2018-03-03T09:20:38Z</time>
      </trkpt>
      <trkpt lat="46.487862579524517" lon="11.723776096478105">
        <ele>1645.9100000000001</ele>
        <time>2018-03-03T09:20:41Z</time>
      </trkpt>
      <trkpt lat="46.487857885658741" lon="11.723636370152235">
        <ele>1646.8800000000001</ele>
        <time>2018-03-03T09:20:52Z</time>
      </trkpt>
      <trkpt lat="46.487847156822681" lon="11.723520448431373">
        <ele>1649.28</ele>
        <time>2018-03-03T09:21:03Z</time>
      </trkpt>
      <trkpt lat="46.487867189571261" lon="11.723474683240056">
        <ele>1650.24</ele>
        <time>2018-03-03T09:21:09Z</time>
      </trkpt>
      <trkpt lat="46.487893257290125" lon="11.723427660763264">
        <ele>1651.2</ele>
        <time>2018-03-03T09:21:14Z</time>
      </trkpt>
      <trkpt lat="46.487880935892463" lon="11.723318109288812">
        <ele>1653.1199999999999</ele>
        <time>2018-03-03T09:21:23Z</time>
      </trkpt>
      <trkpt lat="46.487880935892463" lon="11.723240409046412">
        <ele>1655.05</ele>
        <time>2018-03-03T09:21:33Z</time>
      </trkpt>
      <trkpt lat="46.487875320017338" lon="11.723168576136231">
        <ele>1656.49</ele>
        <time>2018-03-03T09:21:43Z</time>
      </trkpt>
      <trkpt lat="46.487857215106487" lon="11.723123649135232">
        <ele>1658.4100000000001</ele>
        <time>2018-03-03T09:21:55Z</time>
      </trkpt>
      <trkpt lat="46.487845228984952" lon="11.723033711314201">
        <ele>1659.8499999999999</ele>
        <time>2018-03-03T09:22:05Z</time>
      </trkpt>
      <trkpt lat="46.487834583967924" lon="11.72294813208282">
        <ele>1661.78</ele>
        <time>2018-03-03T09:22:14Z</time>
      </trkpt>
      <trkpt lat="46.487796027213335" lon="11.72287923283875">
        <ele>1663.22</ele>
        <time>2018-03-03T09:22:25Z</time>
      </trkpt>
      <trkpt lat="46.487791333347559" lon="11.722766747698188">
        <ele>1665.1400000000001</ele>
        <time>2018-03-03T09:22:38Z</time>
      </trkpt>
      <trkpt lat="46.487786388024688" lon="11.722622578963637">
        <ele>1667.0599999999999</ele>
        <time>2018-03-03T09:22:51Z</time>
      </trkpt>
      <trkpt lat="46.487790076062083" lon="11.722473884001374">
        <ele>1668.99</ele>
        <time>2018-03-03T09:23:05Z</time>
      </trkpt>
      <trkpt lat="46.487803906202316" lon="11.722390819340944">
        <ele>1670.9100000000001</ele>
        <time>2018-03-03T09:23:18Z</time>
      </trkpt>
      <trkpt lat="46.487775659188628" lon="11.722248578444123">
        <ele>1672.8299999999999</ele>
        <time>2018-03-03T09:23:29Z</time>
      </trkpt>
      <trkpt lat="46.487811617553234" lon="11.72215947881341">
        <ele>1673.79</ele>
        <time>2018-03-03T09:23:40Z</time>
      </trkpt>
      <trkpt lat="46.487838691100478" lon="11.722082532942295">
        <ele>1674.75</ele>
        <time>2018-03-03T09:23:48Z</time>
      </trkpt>
      <trkpt lat="46.487870626151562" lon="11.721960240975022">
        <ele>1676.6800000000001</ele>
        <time>2018-03-03T09:24:00Z</time>
      </trkpt>
      <trkpt lat="46.487868949770927" lon="11.721847923472524">
        <ele>1678.5999999999999</ele>
        <time>2018-03-03T09:24:11Z</time>
      </trkpt>
      <trkpt lat="46.487883450463414" lon="11.721756812185049">
        <ele>1680.04</ele>
        <time>2018-03-03T09:24:23Z</time>
      </trkpt>
      <trkpt lat="46.48787640966475" lon="11.721708532422781">
        <ele>1681.48</ele>
        <time>2018-03-03T09:24:33Z</time>
      </trkpt>
      <trkpt lat="46.487889988347888" lon="11.721613230183721">
        <ele>1682.9300000000001</ele>
        <time>2018-03-03T09:24:44Z</time>
      </trkpt>
      <trkpt lat="46.487884456291795" lon="11.721571991220117">
        <ele>1683.4100000000001</ele>
        <time>2018-03-03T09:24:47Z</time>
      </trkpt>
      <trkpt lat="46.487915050238371" lon="11.721427068114281">
        <ele>1685.8099999999999</ele>
        <time>2018-03-03T09:25:01Z</time>
      </trkpt>
      <trkpt lat="46.48787934333086" lon="11.721315421164036">
        <ele>1687.73</ele>
        <time>2018-03-03T09:25:13Z</time>
      </trkpt>
      <trkpt lat="46.487906584516168" lon="11.721260519698262">
        <ele>1688.6900000000001</ele>
        <time>2018-03-03T09:25:19Z</time>
      </trkpt>
      <trkpt lat="46.487894095480442" lon="11.721167480573058">
        <ele>1690.6199999999999</ele>
        <time>2018-03-03T09:25:33Z</time>
      </trkpt>
      <trkpt lat="46.487900717183948" lon="11.721058180555701">
        <ele>1692.54</ele>
        <time>2018-03-03T09:25:46Z</time>
      </trkpt>
      <trkpt lat="46.487918486818671" lon="11.720939408987761">
        <ele>1694.46</ele>
        <time>2018-03-03T09:25:57Z</time>
      </trkpt>
      <trkpt lat="46.487950254231691" lon="11.720834467560053">
        <ele>1695.9000000000001</ele>
        <time>2018-03-03T09:26:08Z</time>
      </trkpt>
      <trkpt lat="46.487944386899471" lon="11.720756180584431">
        <ele>1696.3800000000001</ele>
        <time>2018-03-03T09:26:19Z</time>
      </trkpt>
      <trkpt lat="46.487975986674428" lon="11.720645623281598">
        <ele>1698.3099999999999</ele>
        <time>2018-03-03T09:26:30Z</time>
      </trkpt>
      <trkpt lat="46.487979674711823" lon="11.72063497826457">
        <ele>1698.3099999999999</ele>
        <time>2018-03-03T09:26:31Z</time>
      </trkpt>
      <trkpt lat="46.488017477095127" lon="11.720544872805476">
        <ele>1700.23</ele>
        <time>2018-03-03T09:26:42Z</time>
      </trkpt>
      <trkpt lat="46.48804253898561" lon="11.720455856993794">
        <ele>1701.6700000000001</ele>
        <time>2018-03-03T09:26:53Z</time>
      </trkpt>
      <trkpt lat="46.48804840631783" lon="11.720330882817507">
        <ele>1703.1099999999999</ele>
        <time>2018-03-03T09:27:03Z</time>
      </trkpt>
      <trkpt lat="46.48811487480998" lon="11.720252763479948">
        <ele>1704.55</ele>
        <time>2018-03-03T09:27:12Z</time>
      </trkpt>
      <trkpt lat="46.488209757953882" lon="11.720148324966431">
        <ele>1706</ele>
        <time>2018-03-03T09:27:25Z</time>
      </trkpt>
      <trkpt lat="46.488257283344865" lon="11.720042042434216">
        <ele>1707.4400000000001</ele>
        <time>2018-03-03T09:27:33Z</time>
      </trkpt>
      <trkpt lat="46.488310508430004" lon="11.719948584213853">
        <ele>1708.4000000000001</ele>
        <time>2018-03-03T09:27:43Z</time>
      </trkpt>
      <trkpt lat="46.488337833434343" lon="11.719888150691986">
        <ele>1709.3599999999999</ele>
        <time>2018-03-03T09:27:53Z</time>
      </trkpt>
      <trkpt lat="46.488366667181253" lon="11.719801733270288">
        <ele>1710.8</ele>
        <time>2018-03-03T09:28:04Z</time>
      </trkpt>
      <trkpt lat="46.488385694101453" lon="11.719718836247921">
        <ele>1711.76</ele>
        <time>2018-03-03T09:28:14Z</time>
      </trkpt>
      <trkpt lat="46.488338084891438" lon="11.719645075500011">
        <ele>1713.21</ele>
        <time>2018-03-03T09:28:25Z</time>
      </trkpt>
      <trkpt lat="46.488322159275413" lon="11.719547593966126">
        <ele>1714.1700000000001</ele>
        <time>2018-03-03T09:28:35Z</time>
      </trkpt>
      <trkpt lat="46.488318806514144" lon="11.719538290053606">
        <ele>1714.1700000000001</ele>
        <time>2018-03-03T09:28:36Z</time>
      </trkpt>
      <trkpt lat="46.488388376310468" lon="11.719451956450939">
        <ele>1716.0899999999999</ele>
        <time>2018-03-03T09:28:47Z</time>
      </trkpt>
      <trkpt lat="46.488427352160215" lon="11.719387331977487">
        <ele>1717.05</ele>
        <time>2018-03-03T09:28:57Z</time>
      </trkpt>
      <trkpt lat="46.488490719348192" lon="11.719324802979827">
        <ele>1719.46</ele>
        <time>2018-03-03T09:29:10Z</time>
      </trkpt>
      <trkpt lat="46.488511087372899" lon="11.719250539317727">
        <ele>1720.4200000000001</ele>
        <time>2018-03-03T09:29:19Z</time>
      </trkpt>
      <trkpt lat="46.488510249182582" lon="11.719197565689683">
        <ele>1721.3800000000001</ele>
        <time>2018-03-03T09:29:28Z</time>
      </trkpt>
      <trkpt lat="46.488530449569225" lon="11.71912363730371">
        <ele>1721.8599999999999</ele>
        <time>2018-03-03T09:29:38Z</time>
      </trkpt>
      <trkpt lat="46.488560372963548" lon="11.719033112749457">
        <ele>1722.8199999999999</ele>
        <time>2018-03-03T09:29:48Z</time>
      </trkpt>
      <trkpt lat="46.488570850342512" lon="11.719000088050961">
        <ele>1722.8199999999999</ele>
        <time>2018-03-03T09:29:51Z</time>
      </trkpt>
      <trkpt lat="46.488580405712128" lon="11.718932865187526">
        <ele>1722.8199999999999</ele>
        <time>2018-03-03T09:29:55Z</time>
      </trkpt>
      <trkpt lat="46.488587781786919" lon="11.718852650374174">
        <ele>1723.78</ele>
        <time>2018-03-03T09:30:01Z</time>
      </trkpt>
      <trkpt lat="46.488599600270391" lon="11.718793055042624">
        <ele>1723.78</ele>
        <time>2018-03-03T09:30:05Z</time>
      </trkpt>
      <trkpt lat="46.488578142598271" lon="11.718682330101728">
        <ele>1725.22</ele>
        <time>2018-03-03T09:30:16Z</time>
      </trkpt>
      <trkpt lat="46.488606976345181" lon="11.718606809154153">
        <ele>1726.1800000000001</ele>
        <time>2018-03-03T09:30:26Z</time>
      </trkpt>
      <trkpt lat="46.48863572627306" lon="11.71861250884831">
        <ele>1726.1800000000001</ele>
        <time>2018-03-03T09:30:35Z</time>
      </trkpt>
      <trkpt lat="46.488607563078403" lon="11.718578897416592">
        <ele>1726.6700000000001</ele>
        <time>2018-03-03T09:30:47Z</time>
      </trkpt>
      <trkpt lat="46.488619716838002" lon="11.718471189960837">
        <ele>1728.5899999999999</ele>
        <time>2018-03-03T09:31:00Z</time>
      </trkpt>
      <trkpt lat="46.488597169518471" lon="11.718407990410924">
        <ele>1730.03</ele>
        <time>2018-03-03T09:31:11Z</time>
      </trkpt>
      <trkpt lat="46.488596498966217" lon="11.718329368159175">
        <ele>1730.99</ele>
        <time>2018-03-03T09:31:19Z</time>
      </trkpt>
      <trkpt lat="46.48859323002398" lon="11.718228282406926">
        <ele>1732.9100000000001</ele>
        <time>2018-03-03T09:31:30Z</time>
      </trkpt>
      <trkpt lat="46.488595828413963" lon="11.718172375112772">
        <ele>1734.3599999999999</ele>
        <time>2018-03-03T09:31:39Z</time>
      </trkpt>
      <trkpt lat="46.488614017143846" lon="11.718105906620622">
        <ele>1736.28</ele>
        <time>2018-03-03T09:31:51Z</time>
      </trkpt>
      <trkpt lat="46.488666906952858" lon="11.718005407601595">
        <ele>1738.2</ele>
        <time>2018-03-03T09:32:02Z</time>
      </trkpt>
      <trkpt lat="46.488662799820304" lon="11.717968275770545">
        <ele>1739.6400000000001</ele>
        <time>2018-03-03T09:32:13Z</time>
      </trkpt>
      <trkpt lat="46.488640252500772" lon="11.717911614105105">
        <ele>1741.0799999999999</ele>
        <time>2018-03-03T09:32:25Z</time>
      </trkpt>
      <trkpt lat="46.488675205036998" lon="11.717848917469382">
        <ele>1743.01</ele>
        <time>2018-03-03T09:32:37Z</time>
      </trkpt>
      <trkpt lat="46.488724574446678" lon="11.717845145612955">
        <ele>1744.45</ele>
        <time>2018-03-03T09:32:47Z</time>
      </trkpt>
      <trkpt lat="46.488767825067043" lon="11.717813713476062">
        <ele>1744.9300000000001</ele>
        <time>2018-03-03T09:32:54Z</time>
      </trkpt>
      <trkpt lat="46.488796155899763" lon="11.717729140073061">
        <ele>1747.3299999999999</ele>
        <time>2018-03-03T09:33:08Z</time>
      </trkpt>
      <trkpt lat="46.488813171163201" lon="11.717694271355867">
        <ele>1748.29</ele>
        <time>2018-03-03T09:33:17Z</time>
      </trkpt>
      <trkpt lat="46.488872515037656" lon="11.717637442052364">
        <ele>1750.22</ele>
        <time>2018-03-03T09:33:27Z</time>
      </trkpt>
      <trkpt lat="46.488898834213614" lon="11.717590838670731">
        <ele>1751.6600000000001</ele>
        <time>2018-03-03T09:33:37Z</time>
      </trkpt>
      <trkpt lat="46.488916939124465" lon="11.717534428462386">
        <ele>1753.5799999999999</ele>
        <time>2018-03-03T09:33:49Z</time>
      </trkpt>
      <trkpt lat="46.488947281613946" lon="11.717499895021319">
        <ele>1754.54</ele>
        <time>2018-03-03T09:34:00Z</time>
      </trkpt>
      <trkpt lat="46.488984748721123" lon="11.717420183122158">
        <ele>1756.47</ele>
        <time>2018-03-03T09:34:12Z</time>
      </trkpt>
      <trkpt lat="46.489020204171538" lon="11.71735530719161">
        <ele>1757.9100000000001</ele>
        <time>2018-03-03T09:34:22Z</time>
      </trkpt>
      <trkpt lat="46.489080805331469" lon="11.717290095984936">
        <ele>1759.3499999999999</ele>
        <time>2018-03-03T09:34:34Z</time>
      </trkpt>
      <trkpt lat="46.489102933555841" lon="11.717261765152216">
        <ele>1760.79</ele>
        <time>2018-03-03T09:34:44Z</time>
      </trkpt>
      <trkpt lat="46.489141238853335" lon="11.717236200347543">
        <ele>1761.75</ele>
        <time>2018-03-03T09:34:52Z</time>
      </trkpt>
      <trkpt lat="46.489169653505087" lon="11.717184567824006">
        <ele>1762.71</ele>
        <time>2018-03-03T09:35:02Z</time>
      </trkpt>
      <trkpt lat="46.489176359027624" lon="11.71711684204638">
        <ele>1763.6800000000001</ele>
        <time>2018-03-03T09:35:12Z</time>
      </trkpt>
      <trkpt lat="46.489160684868693" lon="11.717071915045381">
        <ele>1764.6400000000001</ele>
        <time>2018-03-03T09:35:21Z</time>
      </trkpt>
      <trkpt lat="46.489125229418278" lon="11.717066047713161">
        <ele>1765.5999999999999</ele>
        <time>2018-03-03T09:35:30Z</time>
      </trkpt>
      <trkpt lat="46.489093126729131" lon="11.717026820406318">
        <ele>1767.04</ele>
        <time>2018-03-03T09:35:40Z</time>
      </trkpt>
      <trkpt lat="46.489043422043324" lon="11.717009050771594">
        <ele>1768</ele>
        <time>2018-03-03T09:35:50Z</time>
      </trkpt>
      <trkpt lat="46.488990867510438" lon="11.716965800151229">
        <ele>1769.4400000000001</ele>
        <time>2018-03-03T09:36:00Z</time>
      </trkpt>
      <trkpt lat="46.488923896104097" lon="11.716929338872433">
        <ele>1770.8900000000001</ele>
        <time>2018-03-03T09:36:11Z</time>
      </trkpt>
      <trkpt lat="46.488904114812613" lon="11.716897152364254">
        <ele>1771.8499999999999</ele>
        <time>2018-03-03T09:36:20Z</time>
      </trkpt>
      <trkpt lat="46.48887905292213" lon="11.716839401051402">
        <ele>1772.8099999999999</ele>
        <time>2018-03-03T09:36:28Z</time>
      </trkpt>
      <trkpt lat="46.488856421783566" lon="11.716752145439386">
        <ele>1774.25</ele>
        <time>2018-03-03T09:36:38Z</time>
      </trkpt>
      <trkpt lat="46.488884165883064" lon="11.7166927177459">
        <ele>1776.1700000000001</ele>
        <time>2018-03-03T09:36:49Z</time>
      </trkpt>
      <trkpt lat="46.488908724859357" lon="11.71668048016727">
        <ele>1776.1700000000001</ele>
        <time>2018-03-03T09:36:52Z</time>
      </trkpt>
      <trkpt lat="46.488983910530806" lon="11.716619292274117">
        <ele>1777.6099999999999</ele>
        <time>2018-03-03T09:37:03Z</time>
      </trkpt>
      <trkpt lat="46.489007631316781" lon="11.716559026390314">
        <ele>1779.0599999999999</ele>
        <time>2018-03-03T09:37:14Z</time>
      </trkpt>
      <trkpt lat="46.489063119515777" lon="11.716520134359598">
        <ele>1780.5</ele>
        <time>2018-03-03T09:37:28Z</time>
      </trkpt>
      <trkpt lat="46.489054905250669" lon="11.716540334746242">
        <ele>1780.02</ele>
        <time>2018-03-03T09:37:40Z</time>
      </trkpt>
      <trkpt lat="46.489058844745159" lon="11.716519044712186">
        <ele>1781.46</ele>
        <time>2018-03-03T09:37:52Z</time>
      </trkpt>
      <trkpt lat="46.489140819758177" lon="11.716510746628046">
        <ele>1783.3800000000001</ele>
        <time>2018-03-03T09:38:01Z</time>
      </trkpt>
      <trkpt lat="46.489215418696404" lon="11.716514686122537">
        <ele>1784.3399999999999</ele>
        <time>2018-03-03T09:38:10Z</time>
      </trkpt>
      <trkpt lat="46.489250119775534" lon="11.716487528756261">
        <ele>1786.75</ele>
        <time>2018-03-03T09:38:18Z</time>
      </trkpt>
      <trkpt lat="46.489304518327117" lon="11.716434052214026">
        <ele>1788.6700000000001</ele>
        <time>2018-03-03T09:38:29Z</time>
      </trkpt>
      <trkpt lat="46.489354223012924" lon="11.716447211802006">
        <ele>1790.1099999999999</ele>
        <time>2018-03-03T09:38:38Z</time>
      </trkpt>
      <trkpt lat="46.489350451156497" lon="11.716455677524209">
        <ele>1791.0699999999999</ele>
        <time>2018-03-03T09:38:51Z</time>
      </trkpt>
      <trkpt lat="46.489374591037631" lon="11.716438243165612">
        <ele>1792.52</ele>
        <time>2018-03-03T09:39:00Z</time>
      </trkpt>
      <trkpt lat="46.489413063973188" lon="11.716401949524879">
        <ele>1793.96</ele>
        <time>2018-03-03T09:39:09Z</time>
      </trkpt>
      <trkpt lat="46.489404011517763" lon="11.716350819915533">
        <ele>1795.4000000000001</ele>
        <time>2018-03-03T09:39:18Z</time>
      </trkpt>
      <trkpt lat="46.489428905770183" lon="11.716338749974966">
        <ele>1796.3599999999999</ele>
        <time>2018-03-03T09:39:27Z</time>
      </trkpt>
      <trkpt lat="46.489433767274022" lon="11.716311005875468">
        <ele>1796.8399999999999</ele>
        <time>2018-03-03T09:39:37Z</time>
      </trkpt>
      <trkpt lat="46.489452039822936" lon="11.71630228869617">
        <ele>1798.76</ele>
        <time>2018-03-03T09:39:48Z</time>
      </trkpt>
      <trkpt lat="46.489471066743135" lon="11.716210171580315">
        <ele>1800.6900000000001</ele>
        <time>2018-03-03T09:40:00Z</time>
      </trkpt>
      <trkpt lat="46.489441310986876" lon="11.716161388903856">
        <ele>1803.5699999999999</ele>
        <time>2018-03-03T09:40:12Z</time>
      </trkpt>
      <trkpt lat="46.489431252703071" lon="11.716139260679483">
        <ele>1803.5699999999999</ele>
        <time>2018-03-03T09:40:22Z</time>
      </trkpt>
      <trkpt lat="46.489400155842304" lon="11.716085448861122">
        <ele>1805.01</ele>
        <time>2018-03-03T09:40:31Z</time>
      </trkpt>
      <trkpt lat="46.48939068429172" lon="11.716019148007035">
        <ele>1805.97</ele>
        <time>2018-03-03T09:40:43Z</time>
      </trkpt>
      <trkpt lat="46.489405017346144" lon="11.715978411957622">
        <ele>1806.9400000000001</ele>
        <time>2018-03-03T09:40:49Z</time>
      </trkpt>
      <trkpt lat="46.489393198862672" lon="11.715913536027074">
        <ele>1808.3800000000001</ele>
        <time>2018-03-03T09:40:58Z</time>
      </trkpt>
      <trkpt lat="46.48937844671309" lon="11.715842457488179">
        <ele>1809.8199999999999</ele>
        <time>2018-03-03T09:41:08Z</time>
      </trkpt>
      <trkpt lat="46.489362856373191" lon="11.715755788609385">
        <ele>1811.26</ele>
        <time>2018-03-03T09:41:20Z</time>
      </trkpt>
      <trkpt lat="46.489324299618602" lon="11.715666521340609">
        <ele>1812.7</ele>
        <time>2018-03-03T09:41:32Z</time>
      </trkpt>
      <trkpt lat="46.48932714946568" lon="11.715619247406721">
        <ele>1813.1800000000001</ele>
        <time>2018-03-03T09:41:41Z</time>
      </trkpt>
      <trkpt lat="46.489322204142809" lon="11.715583624318242">
        <ele>1813.1800000000001</ele>
        <time>2018-03-03T09:42:01Z</time>
      </trkpt>
      <trkpt lat="46.489351373165846" lon="11.715499218553305">
        <ele>1815.1099999999999</ele>
        <time>2018-03-03T09:42:11Z</time>
      </trkpt>
      <trkpt lat="46.489360509440303" lon="11.715413304045796">
        <ele>1817.03</ele>
        <time>2018-03-03T09:42:22Z</time>
      </trkpt>
      <trkpt lat="46.489362688735127" lon="11.715323533862829">
        <ele>1819.4300000000001</ele>
        <time>2018-03-03T09:42:33Z</time>
      </trkpt>
      <trkpt lat="46.489384146407247" lon="11.715273326262832">
        <ele>1820.8699999999999</ele>
        <time>2018-03-03T09:42:44Z</time>
      </trkpt>
      <trkpt lat="46.489398060366511" lon="11.71520191244781">
        <ele>1822.8</ele>
        <time>2018-03-03T09:42:53Z</time>
      </trkpt>
      <trkpt lat="46.489383559674025" lon="11.715085990726948">
        <ele>1823.28</ele>
        <time>2018-03-03T09:43:03Z</time>
      </trkpt>
      <trkpt lat="46.489379368722439" lon="11.714985826984048">
        <ele>1824.72</ele>
        <time>2018-03-03T09:43:14Z</time>
      </trkpt>
      <trkpt lat="46.489401748403907" lon="11.714880634099245">
        <ele>1825.6800000000001</ele>
        <time>2018-03-03T09:43:26Z</time>
      </trkpt>
      <trkpt lat="46.489409878849983" lon="11.714786170050502">
        <ele>1826.6400000000001</ele>
        <time>2018-03-03T09:43:36Z</time>
      </trkpt>
      <trkpt lat="46.489424966275692" lon="11.714661195874214">
        <ele>1827.5999999999999</ele>
        <time>2018-03-03T09:43:49Z</time>
      </trkpt>
      <trkpt lat="46.489410381764174" lon="11.714589362964034">
        <ele>1828.5599999999999</ele>
        <time>2018-03-03T09:44:01Z</time>
      </trkpt>
      <trkpt lat="46.489397557452321" lon="11.714516105130315">
        <ele>1829.05</ele>
        <time>2018-03-03T09:44:12Z</time>
      </trkpt>
      <trkpt lat="46.489383894950151" lon="11.714458018541336">
        <ele>1829.53</ele>
        <time>2018-03-03T09:44:18Z</time>
      </trkpt>
      <trkpt lat="46.489363946020603" lon="11.714362967759371">
        <ele>1830.49</ele>
        <time>2018-03-03T09:44:29Z</time>
      </trkpt>
      <trkpt lat="46.489361934363842" lon="11.714266911149025">
        <ele>1831.45</ele>
        <time>2018-03-03T09:44:39Z</time>
      </trkpt>
      <trkpt lat="46.489350451156497" lon="11.714171357452869">
        <ele>1832.4100000000001</ele>
        <time>2018-03-03T09:44:49Z</time>
      </trkpt>
      <trkpt lat="46.489360090345144" lon="11.714043030515313">
        <ele>1832.8900000000001</ele>
        <time>2018-03-03T09:44:58Z</time>
      </trkpt>
      <trkpt lat="46.489392276853323" lon="11.713940184563398">
        <ele>1833.8499999999999</ele>
        <time>2018-03-03T09:45:08Z</time>
      </trkpt>
      <trkpt lat="46.489397725090384" lon="11.713869273662567">
        <ele>1834.8099999999999</ele>
        <time>2018-03-03T09:45:19Z</time>
      </trkpt>
      <trkpt lat="46.489410633221269" lon="11.713798027485609">
        <ele>1836.26</ele>
        <time>2018-03-03T09:45:30Z</time>
      </trkpt>
      <trkpt lat="46.489429576322436" lon="11.713745724409819">
        <ele>1836.74</ele>
        <time>2018-03-03T09:45:37Z</time>
      </trkpt>
      <trkpt lat="46.489448351785541" lon="11.713696522638202">
        <ele>1837.7</ele>
        <time>2018-03-03T09:45:45Z</time>
      </trkpt>
      <trkpt lat="46.489460757002234" lon="11.713683195412159">
        <ele>1837.7</ele>
        <time>2018-03-03T09:45:58Z</time>
      </trkpt>
      <trkpt lat="46.489452207460999" lon="11.713587138801813">
        <ele>1839.1400000000001</ele>
        <time>2018-03-03T09:46:10Z</time>
      </trkpt>
      <trkpt lat="46.489435443654656" lon="11.713484125211835">
        <ele>1840.5799999999999</ele>
        <time>2018-03-03T09:46:19Z</time>
      </trkpt>
      <trkpt lat="46.48946100845933" lon="11.71340961009264">
        <ele>1841.54</ele>
        <time>2018-03-03T09:46:30Z</time>
      </trkpt>
      <trkpt lat="46.489493614062667" lon="11.713355043902993">
        <ele>1842.5</ele>
        <time>2018-03-03T09:46:44Z</time>
      </trkpt>
      <trkpt lat="46.489545246586204" lon="11.713257310912013">
        <ele>1843.47</ele>
        <time>2018-03-03T09:46:55Z</time>
      </trkpt>
      <trkpt lat="46.489582126960158" lon="11.713203079998493">
        <ele>1844.4300000000001</ele>
        <time>2018-03-03T09:47:04Z</time>
      </trkpt>
      <trkpt lat="46.489610960707068" lon="11.713143065571785">
        <ele>1844.9100000000001</ele>
        <time>2018-03-03T09:47:14Z</time>
      </trkpt>
      <trkpt lat="46.489638537168503" lon="11.713135605677962">
        <ele>1844.9100000000001</ele>
        <time>2018-03-03T09:47:28Z</time>
      </trkpt>
      <trkpt lat="46.489667873829603" lon="11.712998645380139">
        <ele>1846.8299999999999</ele>
        <time>2018-03-03T09:47:42Z</time>
      </trkpt>
      <trkpt lat="46.489670807495713" lon="11.71290434896946">
        <ele>1849.23</ele>
        <time>2018-03-03T09:47:54Z</time>
      </trkpt>
      <trkpt lat="46.489653205499053" lon="11.712834360077977">
        <ele>1850.6800000000001</ele>
        <time>2018-03-03T09:48:05Z</time>
      </trkpt>
      <trkpt lat="46.489675668999553" lon="11.712737549096346">
        <ele>1852.1199999999999</ele>
        <time>2018-03-03T09:48:15Z</time>
      </trkpt>
      <trkpt lat="46.48966234177351" lon="11.712703267112374">
        <ele>1852.1199999999999</ele>
        <time>2018-03-03T09:48:26Z</time>
      </trkpt>
      <trkpt lat="46.48968581110239" lon="11.712647946551442">
        <ele>1853.0799999999999</ele>
        <time>2018-03-03T09:48:34Z</time>
      </trkpt>
      <trkpt lat="46.489694863557816" lon="11.712571335956454">
        <ele>1854.52</ele>
        <time>2018-03-03T09:48:44Z</time>
      </trkpt>
      <trkpt lat="46.489711124449968" lon="11.712512914091349">
        <ele>1855.96</ele>
        <time>2018-03-03T09:48:58Z</time>
      </trkpt>
      <trkpt lat="46.489715566858649" lon="11.712442673742771">
        <ele>1856.9200000000001</ele>
        <time>2018-03-03T09:49:12Z</time>
      </trkpt>
      <trkpt lat="46.489750519394875" lon="11.712332870811224">
        <ele>1858.8499999999999</ele>
        <time>2018-03-03T09:49:23Z</time>
      </trkpt>
      <trkpt lat="46.489712297916412" lon="11.712193144485354">
        <ele>1860.77</ele>
        <time>2018-03-03T09:49:36Z</time>
      </trkpt>
      <trkpt lat="46.489710202440619" lon="11.712088286876678">
        <ele>1862.21</ele>
        <time>2018-03-03T09:49:45Z</time>
      </trkpt>
      <trkpt lat="46.48972244001925" lon="11.71204294078052">
        <ele>1863.1700000000001</ele>
        <time>2018-03-03T09:49:56Z</time>
      </trkpt>
      <trkpt lat="46.489715063944459" lon="11.711962642148137">
        <ele>1863.6500000000001</ele>
        <time>2018-03-03T09:50:06Z</time>
      </trkpt>
      <trkpt lat="46.489719171077013" lon="11.711858538910747">
        <ele>1867.02</ele>
        <time>2018-03-03T09:50:17Z</time>
      </trkpt>
      <trkpt lat="46.489737527444959" lon="11.711866920813918">
        <ele>1865.5799999999999</ele>
        <time>2018-03-03T09:50:32Z</time>
      </trkpt>
      <trkpt lat="46.489770468324423" lon="11.711855437606573">
        <ele>1865.5799999999999</ele>
        <time>2018-03-03T09:50:52Z</time>
      </trkpt>
      <trkpt lat="46.489761751145124" lon="11.711825933307409">
        <ele>1865.5799999999999</ele>
        <time>2018-03-03T09:51:10Z</time>
      </trkpt>
      <trkpt lat="46.48975663818419" lon="11.711799278855324">
        <ele>1866.0599999999999</ele>
        <time>2018-03-03T09:51:12Z</time>
      </trkpt>
      <trkpt lat="46.489750519394875" lon="11.711672460660338">
        <ele>1867.5</ele>
        <time>2018-03-03T09:51:23Z</time>
      </trkpt>
      <trkpt lat="46.489750519394875" lon="11.711566429585218">
        <ele>1867.98</ele>
        <time>2018-03-03T09:51:33Z</time>
      </trkpt>
      <trkpt lat="46.489745574072003" lon="11.711489986628294">
        <ele>1869.4200000000001</ele>
        <time>2018-03-03T09:51:41Z</time>
      </trkpt>
      <trkpt lat="46.489728391170502" lon="11.711425194516778">
        <ele>1870.8599999999999</ele>
        <time>2018-03-03T09:51:51Z</time>
      </trkpt>
      <trkpt lat="46.489702658727765" lon="11.711367024108768">
        <ele>1871.8199999999999</ele>
        <time>2018-03-03T09:52:01Z</time>
      </trkpt>
      <trkpt lat="46.489698383957148" lon="11.711339699104428">
        <ele>1871.8199999999999</ele>
        <time>2018-03-03T09:52:12Z</time>
      </trkpt>
      <trkpt lat="46.489705927670002" lon="11.711302902549505">
        <ele>1871.8199999999999</ele>
        <time>2018-03-03T09:52:23Z</time>
      </trkpt>
      <trkpt lat="46.489712214097381" lon="11.711284378543496">
        <ele>1871.8199999999999</ele>
        <time>2018-03-03T09:52:36Z</time>
      </trkpt>
      <trkpt lat="46.489718835800886" lon="11.71120734885335">
        <ele>1871.3399999999999</ele>
        <time>2018-03-03T09:52:44Z</time>
      </trkpt>
      <trkpt lat="46.489702155813575" lon="11.711111962795258">
        <ele>1871.3399999999999</ele>
        <time>2018-03-03T09:52:52Z</time>
      </trkpt>
      <trkpt lat="46.489677848294377" lon="11.711039710789919">
        <ele>1870.8599999999999</ele>
        <time>2018-03-03T09:53:01Z</time>
      </trkpt>
      <trkpt lat="46.489678770303726" lon="11.710993777960539">
        <ele>1869.9000000000001</ele>
        <time>2018-03-03T09:53:17Z</time>
      </trkpt>
      <trkpt lat="46.489691343158484" lon="11.710958238691092">
        <ele>1869.9000000000001</ele>
        <time>2018-03-03T09:53:37Z</time>
      </trkpt>
      <trkpt lat="46.489697126671672" lon="11.710961675271392">
        <ele>1870.3800000000001</ele>
        <time>2018-03-03T09:53:47Z</time>
      </trkpt>
      <trkpt lat="46.489698719233274" lon="11.710963351652026">
        <ele>1870.3800000000001</ele>
        <time>2018-03-03T09:53:59Z</time>
      </trkpt>
      <trkpt lat="46.489728055894375" lon="11.710971482098103">
        <ele>1870.3800000000001</ele>
        <time>2018-03-03T09:54:08Z</time>
      </trkpt>
      <trkpt lat="46.489709867164493" lon="11.710996543988585">
        <ele>1870.8599999999999</ele>
        <time>2018-03-03T09:54:18Z</time>
      </trkpt>
      <trkpt lat="46.489723781123757" lon="11.711002914234996">
        <ele>1869.4200000000001</ele>
        <time>2018-03-03T09:54:32Z</time>
      </trkpt>
      <trkpt lat="46.489733755588531" lon="11.710994951426983">
        <ele>1868.9400000000001</ele>
        <time>2018-03-03T09:54:59Z</time>
      </trkpt>
      <trkpt lat="46.489698719233274" lon="11.710943067446351">
        <ele>1868.9400000000001</ele>
        <time>2018-03-03T09:55:26Z</time>
      </trkpt>
      <trkpt lat="46.489700311794877" lon="11.710956143215299">
        <ele>1868.9400000000001</ele>
        <time>2018-03-03T09:55:52Z</time>
      </trkpt>
      <trkpt lat="46.489747082814574" lon="11.710971901193261">
        <ele>1868.9400000000001</ele>
        <time>2018-03-03T09:56:13Z</time>
      </trkpt>
      <trkpt lat="46.489758649840951" lon="11.710970308631659">
        <ele>1868.9400000000001</ele>
        <time>2018-03-03T09:56:30Z</time>
      </trkpt>
      <trkpt lat="46.489738114178181" lon="11.710963686928153">
        <ele>1868.46</ele>
        <time>2018-03-03T09:56:54Z</time>
      </trkpt>
      <trkpt lat="46.489711795002222" lon="11.710975505411625">
        <ele>1868.9400000000001</ele>
        <time>2018-03-03T09:56:59Z</time>
      </trkpt>
      <trkpt lat="46.489678602665663" lon="11.711040297523141">
        <ele>1869.9000000000001</ele>
        <time>2018-03-03T09:57:07Z</time>
      </trkpt>
      <trkpt lat="46.489671813324094" lon="11.710983384400606">
        <ele>1869.4200000000001</ele>
        <time>2018-03-03T09:57:23Z</time>
      </trkpt>
      <trkpt lat="46.489667622372508" lon="11.710905516520143">
        <ele>1869.4200000000001</ele>
        <time>2018-03-03T09:57:33Z</time>
      </trkpt>
      <trkpt lat="46.489684302359819" lon="11.710842903703451">
        <ele>1868.9400000000001</ele>
        <time>2018-03-03T09:57:42Z</time>
      </trkpt>
      <trkpt lat="46.489683883264661" lon="11.710804346948862">
        <ele>1867.98</ele>
        <time>2018-03-03T09:57:52Z</time>
      </trkpt>
      <trkpt lat="46.489682123064995" lon="11.710791019722819">
        <ele>1867.98</ele>
        <time>2018-03-03T09:57:53Z</time>
      </trkpt>
      <trkpt lat="46.489684637635946" lon="11.710759419947863">
        <ele>1867.98</ele>
        <time>2018-03-03T09:57:55Z</time>
      </trkpt>
      <trkpt lat="46.489694695919752" lon="11.710599074140191">
        <ele>1867.02</ele>
        <time>2018-03-03T09:58:05Z</time>
      </trkpt>
      <trkpt lat="46.489693354815245" lon="11.710443841293454">
        <ele>1865.5799999999999</ele>
        <time>2018-03-03T09:58:15Z</time>
      </trkpt>
      <trkpt lat="46.489691343158484" lon="11.710429340600967">
        <ele>1865.0899999999999</ele>
        <time>2018-03-03T09:58:16Z</time>
      </trkpt>
      <trkpt lat="46.489678435027599" lon="11.710373517125845">
        <ele>1866.0599999999999</ele>
        <time>2018-03-03T09:58:20Z</time>
      </trkpt>
      <trkpt lat="46.48966234177351" lon="11.710297325626016">
        <ele>1863.1700000000001</ele>
        <time>2018-03-03T09:58:25Z</time>
      </trkpt>
      <trkpt lat="46.489631747826934" lon="11.710164053365588">
        <ele>1860.29</ele>
        <time>2018-03-03T09:58:37Z</time>
      </trkpt>
      <trkpt lat="46.489609535783529" lon="11.710024829953909">
        <ele>1858.3699999999999</ele>
        <time>2018-03-03T09:58:48Z</time>
      </trkpt>
      <trkpt lat="46.489597801119089" lon="11.70990077778697">
        <ele>1855.48</ele>
        <time>2018-03-03T09:58:58Z</time>
      </trkpt>
      <trkpt lat="46.489599896594882" lon="11.709726182743907">
        <ele>1854.04</ele>
        <time>2018-03-03T09:59:10Z</time>
      </trkpt>
      <trkpt lat="46.489619510248303" lon="11.709756860509515">
        <ele>1853.5599999999999</ele>
        <time>2018-03-03T09:59:21Z</time>
      </trkpt>
      <trkpt lat="46.489629819989204" lon="11.709769014269114">
        <ele>1853.5599999999999</ele>
        <time>2018-03-03T09:59:36Z</time>
      </trkpt>
      <trkpt lat="46.489609451964498" lon="11.709742862731218">
        <ele>1853.5599999999999</ele>
        <time>2018-03-03T09:59:51Z</time>
      </trkpt>
      <trkpt lat="46.489627473056316" lon="11.709584109485149">
        <ele>1854.04</ele>
        <time>2018-03-03T10:00:02Z</time>
      </trkpt>
      <trkpt lat="46.489645997062325" lon="11.709470618516207">
        <ele>1854.52</ele>
        <time>2018-03-03T10:00:11Z</time>
      </trkpt>
      <trkpt lat="46.489669634029269" lon="11.709362491965294">
        <ele>1855.48</ele>
        <time>2018-03-03T10:00:20Z</time>
      </trkpt>
      <trkpt lat="46.489677261561155" lon="11.70929191634059">
        <ele>1855.96</ele>
        <time>2018-03-03T10:00:26Z</time>
      </trkpt>
      <trkpt lat="46.489691426977515" lon="11.709232907742262">
        <ele>1855.96</ele>
        <time>2018-03-03T10:00:30Z</time>
      </trkpt>
      <trkpt lat="46.489702239632607" lon="11.709164259955287">
        <ele>1856.4400000000001</ele>
        <time>2018-03-03T10:00:41Z</time>
      </trkpt>
      <trkpt lat="46.489702323451638" lon="11.709153028205037">
        <ele>1856.4400000000001</ele>
        <time>2018-03-03T10:00:42Z</time>
      </trkpt>
      <trkpt lat="46.489714728668332" lon="11.709032999351621">
        <ele>1857.4000000000001</ele>
        <time>2018-03-03T10:00:52Z</time>
      </trkpt>
      <trkpt lat="46.489727050065994" lon="11.70890542678535">
        <ele>1858.8499999999999</ele>
        <time>2018-03-03T10:01:03Z</time>
      </trkpt>
      <trkpt lat="46.489729313179851" lon="11.708892183378339">
        <ele>1858.3699999999999</ele>
        <time>2018-03-03T10:01:04Z</time>
      </trkpt>
      <trkpt lat="46.489750267937779" lon="11.70876226387918">
        <ele>1859.8099999999999</ele>
        <time>2018-03-03T10:01:15Z</time>
      </trkpt>
      <trkpt lat="46.489767199382186" lon="11.708668638020754">
        <ele>1860.77</ele>
        <time>2018-03-03T10:01:26Z</time>
      </trkpt>
      <trkpt lat="46.489788070321083" lon="11.708537461236119">
        <ele>1861.25</ele>
        <time>2018-03-03T10:01:36Z</time>
      </trkpt>
      <trkpt lat="46.489832242950797" lon="11.708437381312251">
        <ele>1860.77</ele>
        <time>2018-03-03T10:01:44Z</time>
      </trkpt>
      <trkpt lat="46.48983484134078" lon="11.708396226167679">
        <ele>1860.29</ele>
        <time>2018-03-03T10:01:47Z</time>
      </trkpt>
      <trkpt lat="46.489824866876006" lon="11.708215428516269">
        <ele>1858.8499999999999</ele>
        <time>2018-03-03T10:02:00Z</time>
      </trkpt>
      <trkpt lat="46.489810785278678" lon="11.708117024973035">
        <ele>1857.8900000000001</ele>
        <time>2018-03-03T10:02:07Z</time>
      </trkpt>
      <trkpt lat="46.489771390333772" lon="11.70794477686286">
        <ele>1857.4000000000001</ele>
        <time>2018-03-03T10:02:19Z</time>
      </trkpt>
      <trkpt lat="46.489775665104389" lon="11.707927342504263">
        <ele>1857.8900000000001</ele>
        <time>2018-03-03T10:02:30Z</time>
      </trkpt>
      <trkpt lat="46.489769462496042" lon="11.70791694894433">
        <ele>1857.4000000000001</ele>
        <time>2018-03-03T10:02:43Z</time>
      </trkpt>
      <trkpt lat="46.489789411425591" lon="11.707933880388737">
        <ele>1857.4000000000001</ele>
        <time>2018-03-03T10:02:56Z</time>
      </trkpt>
      <trkpt lat="46.489843809977174" lon="11.70788275077939">
        <ele>1855</ele>
        <time>2018-03-03T10:03:05Z</time>
      </trkpt>
      <trkpt lat="46.489896783605218" lon="11.707855677232146">
        <ele>1853.0799999999999</ele>
        <time>2018-03-03T10:03:15Z</time>
      </trkpt>
      <trkpt lat="46.48989443667233" lon="11.707842769101262">
        <ele>1853.0799999999999</ele>
        <time>2018-03-03T10:03:29Z</time>
      </trkpt>
      <trkpt lat="46.489891586825252" lon="11.70784561894834">
        <ele>1853.0799999999999</ele>
        <time>2018-03-03T10:03:45Z</time>
      </trkpt>
      <trkpt lat="46.489919163286686" lon="11.70784167945385">
        <ele>1852.5999999999999</ele>
        <time>2018-03-03T10:03:54Z</time>
      </trkpt>
      <trkpt lat="46.489927545189857" lon="11.707840338349342">
        <ele>1852.5999999999999</ele>
        <time>2018-03-03T10:03:55Z</time>
      </trkpt>
      <trkpt lat="46.489982614293694" lon="11.707829274237156">
        <ele>1852.1199999999999</ele>
        <time>2018-03-03T10:04:00Z</time>
      </trkpt>
      <trkpt lat="46.490015806630254" lon="11.707816701382399">
        <ele>1852.1199999999999</ele>
        <time>2018-03-03T10:04:03Z</time>
      </trkpt>
      <trkpt lat="46.490079676732421" lon="11.707723326981068">
        <ele>1852.1199999999999</ele>
        <time>2018-03-03T10:04:14Z</time>
      </trkpt>
      <trkpt lat="46.490087890997529" lon="11.707698851823807">
        <ele>1852.1199999999999</ele>
        <time>2018-03-03T10:04:16Z</time>
      </trkpt>
      <trkpt lat="46.49009183049202" lon="11.707717375829816">
        <ele>1852.1199999999999</ele>
        <time>2018-03-03T10:04:27Z</time>
      </trkpt>
      <trkpt lat="46.490117562934756" lon="11.70764965005219">
        <ele>1852.1199999999999</ele>
        <time>2018-03-03T10:04:43Z</time>
      </trkpt>
      <trkpt lat="46.490134242922068" lon="11.707619894295931">
        <ele>1852.1199999999999</ele>
        <time>2018-03-03T10:04:46Z</time>
      </trkpt>
      <trkpt lat="46.490161400288343" lon="11.707574296742678">
        <ele>1852.5999999999999</ele>
        <time>2018-03-03T10:04:51Z</time>
      </trkpt>
      <trkpt lat="46.490225102752447" lon="11.70748301781714">
        <ele>1853.5599999999999</ele>
        <time>2018-03-03T10:05:02Z</time>
      </trkpt>
      <trkpt lat="46.490238346159458" lon="11.707459045574069">
        <ele>1854.04</ele>
        <time>2018-03-03T10:05:05Z</time>
      </trkpt>
      <trkpt lat="46.490305904299021" lon="11.707393331453204">
        <ele>1854.52</ele>
        <time>2018-03-03T10:05:14Z</time>
      </trkpt>
      <trkpt lat="46.49038746021688" lon="11.707383608445525">
        <ele>1855.48</ele>
        <time>2018-03-03T10:05:25Z</time>
      </trkpt>
      <trkpt lat="46.490405146032572" lon="11.70733256265521">
        <ele>1855.96</ele>
        <time>2018-03-03T10:05:33Z</time>
      </trkpt>
      <trkpt lat="46.490408163517714" lon="11.707341531291604">
        <ele>1855.96</ele>
        <time>2018-03-03T10:05:44Z</time>
      </trkpt>
      <trkpt lat="46.490397183224559" lon="11.707342201843858">
        <ele>1855.96</ele>
        <time>2018-03-03T10:05:56Z</time>
      </trkpt>
      <trkpt lat="46.49040749296546" lon="11.70728319324553">
        <ele>1855.96</ele>
        <time>2018-03-03T10:06:03Z</time>
      </trkpt>
      <trkpt lat="46.490415120497346" lon="11.707324935123324">
        <ele>1855.48</ele>
        <time>2018-03-03T10:06:15Z</time>
      </trkpt>
      <trkpt lat="46.490397518500686" lon="11.70733256265521">
        <ele>1855.48</ele>
        <time>2018-03-03T10:06:36Z</time>
      </trkpt>
      <trkpt lat="46.490395506843925" lon="11.707363994792104">
        <ele>1855.48</ele>
        <time>2018-03-03T10:06:41Z</time>
      </trkpt>
      <trkpt lat="46.490379078313708" lon="11.707405401393771">
        <ele>1854.52</ele>
        <time>2018-03-03T10:06:50Z</time>
      </trkpt>
      <trkpt lat="46.49038746021688" lon="11.70737262815237">
        <ele>1854.52</ele>
        <time>2018-03-03T10:07:12Z</time>
      </trkpt>
      <trkpt lat="46.490404056385159" lon="11.707378160208464">
        <ele>1854.52</ele>
        <time>2018-03-03T10:07:14Z</time>
      </trkpt>
      <trkpt lat="46.490452419966459" lon="11.707402467727661">
        <ele>1855.48</ele>
        <time>2018-03-03T10:07:19Z</time>
      </trkpt>
      <trkpt lat="46.49052182212472" lon="11.707496596500278">
        <ele>1856.9200000000001</ele>
        <time>2018-03-03T10:07:31Z</time>
      </trkpt>
      <trkpt lat="46.490532215684652" lon="11.707515623420477">
        <ele>1856.9200000000001</ele>
        <time>2018-03-03T10:07:33Z</time>
      </trkpt>
      <trkpt lat="46.490562474355102" lon="11.70752702280879">
        <ele>1856.9200000000001</ele>
        <time>2018-03-03T10:07:44Z</time>
      </trkpt>
      <trkpt lat="46.490570520982146" lon="11.707511013373733">
        <ele>1856.9200000000001</ele>
        <time>2018-03-03T10:07:54Z</time>
      </trkpt>
      <trkpt lat="46.490583596751094" lon="11.707563903182745">
        <ele>1856.9200000000001</ele>
        <time>2018-03-03T10:08:05Z</time>
      </trkpt>
      <trkpt lat="46.490596169605851" lon="11.707554012537003">
        <ele>1855.96</ele>
        <time>2018-03-03T10:08:15Z</time>
      </trkpt>
      <trkpt lat="46.4905970916152" lon="11.707548312842846">
        <ele>1856.4400000000001</ele>
        <time>2018-03-03T10:08:24Z</time>
      </trkpt>
      <trkpt lat="46.490590805187821" lon="11.707507912069559">
        <ele>1855.96</ele>
        <time>2018-03-03T10:08:35Z</time>
      </trkpt>
      <trkpt lat="46.490597175434232" lon="11.707506319507957">
        <ele>1855.96</ele>
        <time>2018-03-03T10:08:47Z</time>
      </trkpt>
      <trkpt lat="46.490585021674633" lon="11.707497602328658">
        <ele>1855.48</ele>
        <time>2018-03-03T10:09:02Z</time>
      </trkpt>
      <trkpt lat="46.490592230111361" lon="11.707496177405119">
        <ele>1855.96</ele>
        <time>2018-03-03T10:09:23Z</time>
      </trkpt>
      <trkpt lat="46.490608239546418" lon="11.707520987838507">
        <ele>1855.96</ele>
        <time>2018-03-03T10:09:42Z</time>
      </trkpt>
      <trkpt lat="46.49059122428298" lon="11.707513695582747">
        <ele>1855.96</ele>
        <time>2018-03-03T10:10:08Z</time>
      </trkpt>
      <trkpt lat="46.490592733025551" lon="11.70752895064652">
        <ele>1855.96</ele>
        <time>2018-03-03T10:10:18Z</time>
      </trkpt>
      <trkpt lat="46.490585943683982" lon="11.70754604972899">
        <ele>1855.96</ele>
        <time>2018-03-03T10:10:36Z</time>
      </trkpt>
      <trkpt lat="46.490606311708689" lon="11.707519227638841">
        <ele>1855.96</ele>
        <time>2018-03-03T10:10:56Z</time>
      </trkpt>
      <trkpt lat="46.490594996139407" lon="11.70751478523016">
        <ele>1855.96</ele>
        <time>2018-03-03T10:11:03Z</time>
      </trkpt>
      <trkpt lat="46.490601198747754" lon="11.70751528814435">
        <ele>1856.4400000000001</ele>
        <time>2018-03-03T10:11:12Z</time>
      </trkpt>
      <trkpt lat="46.490594577044249" lon="11.707520987838507">
        <ele>1854.52</ele>
        <time>2018-03-03T10:11:15Z</time>
      </trkpt>
      <trkpt lat="46.490595331415534" lon="11.707518473267555">
        <ele>1855.96</ele>
        <time>2018-03-03T10:11:20Z</time>
      </trkpt>
      <trkpt lat="46.49057756178081" lon="11.707527358084917">
        <ele>1856.4400000000001</ele>
        <time>2018-03-03T10:11:39Z</time>
      </trkpt>
      <trkpt lat="46.490596337243915" lon="11.707531800493598">
        <ele>1855.96</ele>
        <time>2018-03-03T10:12:06Z</time>
      </trkpt>
      <trkpt lat="46.490589212626219" lon="11.707533225417137">
        <ele>1854.52</ele>
        <time>2018-03-03T10:12:12Z</time>
      </trkpt>
      <trkpt lat="46.490593571215868" lon="11.707536075264215">
        <ele>1855.96</ele>
        <time>2018-03-03T10:12:29Z</time>
      </trkpt>
      <trkpt lat="46.490592230111361" lon="11.707533560693264">
        <ele>1855.96</ele>
        <time>2018-03-03T10:12:42Z</time>
      </trkpt>
      <trkpt lat="46.490602372214198" lon="11.707528363913298">
        <ele>1856.4400000000001</ele>
        <time>2018-03-03T10:13:01Z</time>
      </trkpt>
      <trkpt lat="46.490617794916034" lon="11.707534901797771">
        <ele>1856.4400000000001</ele>
        <time>2018-03-03T10:13:15Z</time>
      </trkpt>
      <trkpt lat="46.490580663084984" lon="11.707539092749357">
        <ele>1856.4400000000001</ele>
        <time>2018-03-03T10:13:34Z</time>
      </trkpt>
      <trkpt lat="46.490576472133398" lon="11.707518473267555">
        <ele>1856.4400000000001</ele>
        <time>2018-03-03T10:13:56Z</time>
      </trkpt>
      <trkpt lat="46.490585440769792" lon="11.707528615370393">
        <ele>1856.4400000000001</ele>
        <time>2018-03-03T10:14:13Z</time>
      </trkpt>
      <trkpt lat="46.49056482128799" lon="11.707530207931995">
        <ele>1856.9200000000001</ele>
        <time>2018-03-03T10:14:32Z</time>
      </trkpt>
      <trkpt lat="46.490582507103682" lon="11.707535739988089">
        <ele>1856.4400000000001</ele>
        <time>2018-03-03T10:14:54Z</time>
      </trkpt>
      <trkpt lat="46.490575885400176" lon="11.707526687532663">
        <ele>1856.4400000000001</ele>
        <time>2018-03-03T10:15:09Z</time>
      </trkpt>
      <trkpt lat="46.490597678348422" lon="11.707540517672896">
        <ele>1856.4400000000001</ele>
        <time>2018-03-03T10:15:35Z</time>
      </trkpt>
      <trkpt lat="46.490598348900676" lon="11.707545630633831">
        <ele>1855.48</ele>
        <time>2018-03-03T10:15:42Z</time>
      </trkpt>
      <trkpt lat="46.490589631721377" lon="11.707539930939674">
        <ele>1856.4400000000001</ele>
        <time>2018-03-03T10:15:50Z</time>
      </trkpt>
      <trkpt lat="46.490590218454599" lon="11.707541272044182">
        <ele>1857.4000000000001</ele>
        <time>2018-03-03T10:15:58Z</time>
      </trkpt>
      <trkpt lat="46.490577142685652" lon="11.707551078870893">
        <ele>1857.4000000000001</ele>
        <time>2018-03-03T10:16:07Z</time>
      </trkpt>
      <trkpt lat="46.490559373050928" lon="11.707554012537003">
        <ele>1856.9200000000001</ele>
        <time>2018-03-03T10:16:22Z</time>
      </trkpt>
      <trkpt lat="46.490550488233566" lon="11.707567507401109">
        <ele>1857.4000000000001</ele>
        <time>2018-03-03T10:16:36Z</time>
      </trkpt>
      <trkpt lat="46.490562139078975" lon="11.70757588930428">
        <ele>1856.9200000000001</ele>
        <time>2018-03-03T10:16:45Z</time>
      </trkpt>
      <trkpt lat="46.490575131028891" lon="11.707526771351695">
        <ele>1857.4000000000001</ele>
        <time>2018-03-03T10:16:54Z</time>
      </trkpt>
      <trkpt lat="46.490591559559107" lon="11.707513695582747">
        <ele>1856.9200000000001</ele>
        <time>2018-03-03T10:17:08Z</time>
      </trkpt>
      <trkpt lat="46.49061368778348" lon="11.707491734996438">
        <ele>1857.4000000000001</ele>
        <time>2018-03-03T10:17:20Z</time>
      </trkpt>
      <trkpt lat="46.490613268688321" lon="11.707528866827488">
        <ele>1856.9200000000001</ele>
        <time>2018-03-03T10:17:34Z</time>
      </trkpt>
      <trkpt lat="46.490585608407855" lon="11.707533393055201">
        <ele>1857.4000000000001</ele>
        <time>2018-03-03T10:17:43Z</time>
      </trkpt>
      <trkpt lat="46.490547554567456" lon="11.707503469660878">
        <ele>1856.9200000000001</ele>
        <time>2018-03-03T10:17:53Z</time>
      </trkpt>
      <trkpt lat="46.490496173501015" lon="11.70750305056572">
        <ele>1856.4400000000001</ele>
        <time>2018-03-03T10:17:59Z</time>
      </trkpt>
      <trkpt lat="46.490444960072637" lon="11.70751285739243">
        <ele>1855.96</ele>
        <time>2018-03-03T10:18:08Z</time>
      </trkpt>
      <trkpt lat="46.490397434681654" lon="11.707586785778403">
        <ele>1856.4400000000001</ele>
        <time>2018-03-03T10:18:17Z</time>
      </trkpt>
      <trkpt lat="46.490392321720719" lon="11.707576056942344">
        <ele>1855.96</ele>
        <time>2018-03-03T10:18:19Z</time>
      </trkpt>
      <trkpt lat="46.490378156304359" lon="11.707545546814799">
        <ele>1857.4000000000001</ele>
        <time>2018-03-03T10:18:29Z</time>
      </trkpt>
      <trkpt lat="46.490368098020554" lon="11.70754068531096">
        <ele>1856.4400000000001</ele>
        <time>2018-03-03T10:18:43Z</time>
      </trkpt>
      <trkpt lat="46.490370444953442" lon="11.707591647282243">
        <ele>1855.96</ele>
        <time>2018-03-03T10:18:51Z</time>
      </trkpt>
      <trkpt lat="46.490325350314379" lon="11.707674628123641">
        <ele>1856.4400000000001</ele>
        <time>2018-03-03T10:19:01Z</time>
      </trkpt>
      <trkpt lat="46.490312861278653" lon="11.707629952579737">
        <ele>1855.96</ele>
        <time>2018-03-03T10:19:18Z</time>
      </trkpt>
      <trkpt lat="46.490334821864963" lon="11.707613356411457">
        <ele>1855.96</ele>
        <time>2018-03-03T10:19:34Z</time>
      </trkpt>
      <trkpt lat="46.490357872098684" lon="11.707592569291592">
        <ele>1855.96</ele>
        <time>2018-03-03T10:19:37Z</time>
      </trkpt>
      <trkpt lat="46.490450073033571" lon="11.707552084699273">
        <ele>1855.96</ele>
        <time>2018-03-03T10:19:47Z</time>
      </trkpt>
      <trkpt lat="46.490513691678643" lon="11.707498440518975">
        <ele>1856.4400000000001</ele>
        <time>2018-03-03T10:19:56Z</time>
      </trkpt>
      <trkpt lat="46.490565491840243" lon="11.707464577630162">
        <ele>1856.9200000000001</ele>
        <time>2018-03-03T10:20:06Z</time>
      </trkpt>
      <trkpt lat="46.490635313093662" lon="11.707454519346356">
        <ele>1856.9200000000001</ele>
        <time>2018-03-03T10:20:16Z</time>
      </trkpt>
      <trkpt lat="46.490686275064945" lon="11.707425685599446">
        <ele>1857.8900000000001</ele>
        <time>2018-03-03T10:20:26Z</time>
      </trkpt>
      <trkpt lat="46.490730196237564" lon="11.7074038926512">
        <ele>1857.4000000000001</ele>
        <time>2018-03-03T10:20:34Z</time>
      </trkpt>
      <trkpt lat="46.490729609504342" lon="11.707390397787094">
        <ele>1857.4000000000001</ele>
        <time>2018-03-03T10:20:46Z</time>
      </trkpt>
      <trkpt lat="46.490721814334393" lon="11.707404982298613">
        <ele>1857.8900000000001</ele>
        <time>2018-03-03T10:20:57Z</time>
      </trkpt>
      <trkpt lat="46.490720640867949" lon="11.707400875166059">
        <ele>1857.4000000000001</ele>
        <time>2018-03-03T10:21:03Z</time>
      </trkpt>
      <trkpt lat="46.490756934508681" lon="11.707321330904961">
        <ele>1857.4000000000001</ele>
        <time>2018-03-03T10:21:08Z</time>
      </trkpt>
      <trkpt lat="46.490791970863938" lon="11.707282271236181">
        <ele>1857.4000000000001</ele>
        <time>2018-03-03T10:21:17Z</time>
      </trkpt>
      <trkpt lat="46.490790210664272" lon="11.707220999523997">
        <ele>1857.4000000000001</ele>
        <time>2018-03-03T10:21:30Z</time>
      </trkpt>
      <trkpt lat="46.490776715800166" lon="11.707186130806804">
        <ele>1857.8900000000001</ele>
        <time>2018-03-03T10:21:33Z</time>
      </trkpt>
      <trkpt lat="46.490789540112019" lon="11.707080267369747">
        <ele>1857.4000000000001</ele>
        <time>2018-03-03T10:21:43Z</time>
      </trkpt>
      <trkpt lat="46.490779984742403" lon="11.707057971507311">
        <ele>1858.3699999999999</ele>
        <time>2018-03-03T10:21:57Z</time>
      </trkpt>
      <trkpt lat="46.490781661123037" lon="11.707030227407813">
        <ele>1857.8900000000001</ele>
        <time>2018-03-03T10:22:07Z</time>
      </trkpt>
      <trkpt lat="46.490801274776459" lon="11.706950766965747">
        <ele>1857.8900000000001</ele>
        <time>2018-03-03T10:22:17Z</time>
      </trkpt>
      <trkpt lat="46.490814937278628" lon="11.706934170797467">
        <ele>1857.4000000000001</ele>
        <time>2018-03-03T10:22:25Z</time>
      </trkpt>
      <trkpt lat="46.49083262309432" lon="11.706919586285949">
        <ele>1857.4000000000001</ele>
        <time>2018-03-03T10:22:45Z</time>
      </trkpt>
      <trkpt lat="46.490832958370447" lon="11.706941798329353">
        <ele>1857.4000000000001</ele>
        <time>2018-03-03T10:23:01Z</time>
      </trkpt>
      <trkpt lat="46.490816865116358" lon="11.706928638741374">
        <ele>1857.8900000000001</ele>
        <time>2018-03-03T10:23:05Z</time>
      </trkpt>
      <trkpt lat="46.490740505978465" lon="11.706854207441211">
        <ele>1856.4400000000001</ele>
        <time>2018-03-03T10:23:16Z</time>
      </trkpt>
      <trkpt lat="46.490732878446579" lon="11.706847753375769">
        <ele>1856.4400000000001</ele>
        <time>2018-03-03T10:23:17Z</time>
      </trkpt>
      <trkpt lat="46.490716030821204" lon="11.706810956820846">
        <ele>1856.4400000000001</ele>
        <time>2018-03-03T10:23:28Z</time>
      </trkpt>
      <trkpt lat="46.490711253136396" lon="11.706796791404486">
        <ele>1856.4400000000001</ele>
        <time>2018-03-03T10:23:41Z</time>
      </trkpt>
      <trkpt lat="46.49071779102087" lon="11.706811962649226">
        <ele>1856.4400000000001</ele>
        <time>2018-03-03T10:23:54Z</time>
      </trkpt>
      <trkpt lat="46.490703709423542" lon="11.706812214106321">
        <ele>1855.96</ele>
        <time>2018-03-03T10:24:01Z</time>
      </trkpt>
      <trkpt lat="46.490614777430892" lon="11.706865858286619">
        <ele>1855.48</ele>
        <time>2018-03-03T10:24:13Z</time>
      </trkpt>
      <trkpt lat="46.490561300888658" lon="11.706840544939041">
        <ele>1854.52</ele>
        <time>2018-03-03T10:24:20Z</time>
      </trkpt>
      <trkpt lat="46.490462981164455" lon="11.706732250750065">
        <ele>1852.5999999999999</ele>
        <time>2018-03-03T10:24:31Z</time>
      </trkpt>
      <trkpt lat="46.490399530157447" lon="11.706704841926694">
        <ele>1852.5999999999999</ele>
        <time>2018-03-03T10:24:40Z</time>
      </trkpt>
      <trkpt lat="46.490306658670306" lon="11.706649186089635">
        <ele>1853.0799999999999</ele>
        <time>2018-03-03T10:24:51Z</time>
      </trkpt>
      <trkpt lat="46.490249829366803" lon="11.706602415069938">
        <ele>1852.5999999999999</ele>
        <time>2018-03-03T10:25:00Z</time>
      </trkpt>
      <trkpt lat="46.490192580968142" lon="11.70658003538847">
        <ele>1852.5999999999999</ele>
        <time>2018-03-03T10:25:10Z</time>
      </trkpt>
      <trkpt lat="46.490121418610215" lon="11.706524798646569">
        <ele>1852.1199999999999</ele>
        <time>2018-03-03T10:25:21Z</time>
      </trkpt>
      <trkpt lat="46.490120328962803" lon="11.70652094297111">
        <ele>1852.1199999999999</ele>
        <time>2018-03-03T10:25:32Z</time>
      </trkpt>
      <trkpt lat="46.490103648975492" lon="11.706520523875952">
        <ele>1851.6400000000001</ele>
        <time>2018-03-03T10:25:45Z</time>
      </trkpt>
      <trkpt lat="46.490103984251618" lon="11.706578359007835">
        <ele>1852.1199999999999</ele>
        <time>2018-03-03T10:25:53Z</time>
      </trkpt>
      <trkpt lat="46.490066684782505" lon="11.706570899114013">
        <ele>1851.6400000000001</ele>
        <time>2018-03-03T10:26:01Z</time>
      </trkpt>
      <trkpt lat="46.490084873512387" lon="11.706563858315349">
        <ele>1851.6400000000001</ele>
        <time>2018-03-03T10:26:11Z</time>
      </trkpt>
      <trkpt lat="46.490086549893022" lon="11.706551285460591">
        <ele>1851.6400000000001</ele>
        <time>2018-03-03T10:26:23Z</time>
      </trkpt>
      <trkpt lat="46.490098284557462" lon="11.70659177005291">
        <ele>1851.6400000000001</ele>
        <time>2018-03-03T10:26:36Z</time>
      </trkpt>
      <trkpt lat="46.490095099434257" lon="11.706604426726699">
        <ele>1851.6400000000001</ele>
        <time>2018-03-03T10:26:47Z</time>
      </trkpt>
      <trkpt lat="46.490118065848947" lon="11.706602750346065">
        <ele>1851.6400000000001</ele>
        <time>2018-03-03T10:26:54Z</time>
      </trkpt>
      <trkpt lat="46.490149330347776" lon="11.706597972661257">
        <ele>1851.6400000000001</ele>
        <time>2018-03-03T10:26:58Z</time>
      </trkpt>
      <trkpt lat="46.490220325067639" lon="11.706615323200822">
        <ele>1852.1199999999999</ele>
        <time>2018-03-03T10:27:08Z</time>
      </trkpt>
      <trkpt lat="46.490259384736419" lon="11.706616664305329">
        <ele>1852.5999999999999</ele>
        <time>2018-03-03T10:27:17Z</time>
      </trkpt>
      <trkpt lat="46.49035669863224" lon="11.706646084785461">
        <ele>1852.5999999999999</ele>
        <time>2018-03-03T10:27:31Z</time>
      </trkpt>
      <trkpt lat="46.490420987829566" lon="11.706676762551069">
        <ele>1852.5999999999999</ele>
        <time>2018-03-03T10:27:39Z</time>
      </trkpt>
      <trkpt lat="46.490430375561118" lon="11.706686988472939">
        <ele>1853.0799999999999</ele>
        <time>2018-03-03T10:27:47Z</time>
      </trkpt>
      <trkpt lat="46.490425011143088" lon="11.706679947674274">
        <ele>1852.5999999999999</ele>
        <time>2018-03-03T10:27:59Z</time>
      </trkpt>
      <trkpt lat="46.49041679687798" lon="11.706597805023193">
        <ele>1852.5999999999999</ele>
        <time>2018-03-03T10:28:06Z</time>
      </trkpt>
      <trkpt lat="46.490447977557778" lon="11.706530498340726">
        <ele>1852.5999999999999</ele>
        <time>2018-03-03T10:28:11Z</time>
      </trkpt>
      <trkpt lat="46.490517798811197" lon="11.706459252163768">
        <ele>1853.5599999999999</ele>
        <time>2018-03-03T10:28:21Z</time>
      </trkpt>
      <trkpt lat="46.490566413849592" lon="11.706397896632552">
        <ele>1853.5599999999999</ele>
        <time>2018-03-03T10:28:28Z</time>
      </trkpt>
      <trkpt lat="46.490623746067286" lon="11.706378282979131">
        <ele>1854.04</ele>
        <time>2018-03-03T10:28:38Z</time>
      </trkpt>
      <trkpt lat="46.490612262859941" lon="11.706350538879633">
        <ele>1853.5599999999999</ele>
        <time>2018-03-03T10:28:57Z</time>
      </trkpt>
      <trkpt lat="46.490627015009522" lon="11.706349197775126">
        <ele>1853.5599999999999</ele>
        <time>2018-03-03T10:29:06Z</time>
      </trkpt>
      <trkpt lat="46.490651406347752" lon="11.70632740482688">
        <ele>1853.5599999999999</ele>
        <time>2018-03-03T10:29:16Z</time>
      </trkpt>
      <trkpt lat="46.490678563714027" lon="11.706310724839568">
        <ele>1853.5599999999999</ele>
        <time>2018-03-03T10:29:19Z</time>
      </trkpt>
      <trkpt lat="46.49075542576611" lon="11.70627024024725">
        <ele>1854.04</ele>
        <time>2018-03-03T10:29:29Z</time>
      </trkpt>
      <trkpt lat="46.490819798782468" lon="11.706229671835899">
        <ele>1853.5599999999999</ele>
        <time>2018-03-03T10:29:38Z</time>
      </trkpt>
      <trkpt lat="46.490822313353419" lon="11.706215674057603">
        <ele>1854.04</ele>
        <time>2018-03-03T10:29:39Z</time>
      </trkpt>
      <trkpt lat="46.490888278931379" lon="11.706099165603518">
        <ele>1854.04</ele>
        <time>2018-03-03T10:29:51Z</time>
      </trkpt>
      <trkpt lat="46.49091862142086" lon="11.706026829779148">
        <ele>1854.04</ele>
        <time>2018-03-03T10:29:57Z</time>
      </trkpt>
      <trkpt lat="46.4909752830863" lon="11.705931527540088">
        <ele>1854.52</ele>
        <time>2018-03-03T10:30:08Z</time>
      </trkpt>
      <trkpt lat="46.490990286692977" lon="11.70592482201755">
        <ele>1854.52</ele>
        <time>2018-03-03T10:30:10Z</time>
      </trkpt>
      <trkpt lat="46.491074105724692" lon="11.705892384052277">
        <ele>1854.52</ele>
        <time>2018-03-03T10:30:21Z</time>
      </trkpt>
      <trkpt lat="46.491071842610836" lon="11.705880397930741">
        <ele>1854.52</ele>
        <time>2018-03-03T10:30:22Z</time>
      </trkpt>
      <trkpt lat="46.491077374666929" lon="11.705829603597522">
        <ele>1855</ele>
        <time>2018-03-03T10:30:33Z</time>
      </trkpt>
      <trkpt lat="46.491091204807162" lon="11.705746874213219">
        <ele>1855</ele>
        <time>2018-03-03T10:30:40Z</time>
      </trkpt>
      <trkpt lat="46.491096988320351" lon="11.705701779574156">
        <ele>1855</ele>
        <time>2018-03-03T10:30:44Z</time>
      </trkpt>
      <trkpt lat="46.491102185100317" lon="11.705653164535761">
        <ele>1855</ele>
        <time>2018-03-03T10:30:48Z</time>
      </trkpt>
      <trkpt lat="46.491146441549063" lon="11.705497680231929">
        <ele>1855</ele>
        <time>2018-03-03T10:31:00Z</time>
      </trkpt>
      <trkpt lat="46.491193464025855" lon="11.705383099615574">
        <ele>1855.48</ele>
        <time>2018-03-03T10:31:09Z</time>
      </trkpt>
      <trkpt lat="46.491238139569759" lon="11.705308668315411">
        <ele>1855.48</ele>
        <time>2018-03-03T10:31:16Z</time>
      </trkpt>
      <trkpt lat="46.491248533129692" lon="11.70527396723628">
        <ele>1855.48</ele>
        <time>2018-03-03T10:31:19Z</time>
      </trkpt>
      <trkpt lat="46.491299327462912" lon="11.705137509852648">
        <ele>1855.48</ele>
        <time>2018-03-03T10:31:30Z</time>
      </trkpt>
      <trkpt lat="46.491317600011826" lon="11.705097947269678">
        <ele>1855.96</ele>
        <time>2018-03-03T10:31:34Z</time>
      </trkpt>
      <trkpt lat="46.491354228928685" lon="11.704968949779868">
        <ele>1855.48</ele>
        <time>2018-03-03T10:31:44Z</time>
      </trkpt>
      <trkpt lat="46.491356743499637" lon="11.704956376925111">
        <ele>1855.96</ele>
        <time>2018-03-03T10:31:45Z</time>
      </trkpt>
      <trkpt lat="46.491404017433524" lon="11.704821344465017">
        <ele>1856.4400000000001</ele>
        <time>2018-03-03T10:31:56Z</time>
      </trkpt>
      <trkpt lat="46.491435617208481" lon="11.704710787162185">
        <ele>1856.4400000000001</ele>
        <time>2018-03-03T10:32:05Z</time>
      </trkpt>
      <trkpt lat="46.491464115679264" lon="11.704615233466029">
        <ele>1856.4400000000001</ele>
        <time>2018-03-03T10:32:13Z</time>
      </trkpt>
      <trkpt lat="46.491506109014153" lon="11.704513560980558">
        <ele>1856.4400000000001</ele>
        <time>2018-03-03T10:32:22Z</time>
      </trkpt>
      <trkpt lat="46.491540726274252" lon="11.704411804676056">
        <ele>1856.9200000000001</ele>
        <time>2018-03-03T10:32:31Z</time>
      </trkpt>
      <trkpt lat="46.49156310595572" lon="11.704301163554192">
        <ele>1857.4000000000001</ele>
        <time>2018-03-03T10:32:40Z</time>
      </trkpt>
      <trkpt lat="46.491601830348372" lon="11.704162945970893">
        <ele>1857.4000000000001</ele>
        <time>2018-03-03T10:32:51Z</time>
      </trkpt>
      <trkpt lat="46.491631921380758" lon="11.704064626246691">
        <ele>1857.4000000000001</ele>
        <time>2018-03-03T10:32:59Z</time>
      </trkpt>
      <trkpt lat="46.491662096232176" lon="11.703924061730504">
        <ele>1857.4000000000001</ele>
        <time>2018-03-03T10:33:10Z</time>
      </trkpt>
      <trkpt lat="46.491690091788769" lon="11.703810319304466">
        <ele>1857.4000000000001</ele>
        <time>2018-03-03T10:33:20Z</time>
      </trkpt>
      <trkpt lat="46.491705682128668" lon="11.703727254644036">
        <ele>1857.8900000000001</ele>
        <time>2018-03-03T10:33:27Z</time>
      </trkpt>
      <trkpt lat="46.491728983819485" lon="11.703604459762573">
        <ele>1857.8900000000001</ele>
        <time>2018-03-03T10:33:37Z</time>
      </trkpt>
      <trkpt lat="46.491755051538348" lon="11.703486358746886">
        <ele>1858.3699999999999</ele>
        <time>2018-03-03T10:33:47Z</time>
      </trkpt>
      <trkpt lat="46.49178103543818" lon="11.703362893313169">
        <ele>1858.3699999999999</ele>
        <time>2018-03-03T10:33:56Z</time>
      </trkpt>
      <trkpt lat="46.491784639656544" lon="11.703351242467761">
        <ele>1858.3699999999999</ele>
        <time>2018-03-03T10:33:57Z</time>
      </trkpt>
      <trkpt lat="46.491813557222486" lon="11.703238002955914">
        <ele>1858.3699999999999</ele>
        <time>2018-03-03T10:34:06Z</time>
      </trkpt>
      <trkpt lat="46.491846079006791" lon="11.703118057921529">
        <ele>1859.3299999999999</ele>
        <time>2018-03-03T10:34:16Z</time>
      </trkpt>
      <trkpt lat="46.491879522800446" lon="11.702988054603338">
        <ele>1859.8099999999999</ele>
        <time>2018-03-03T10:34:27Z</time>
      </trkpt>
      <trkpt lat="46.491919504478574" lon="11.702913958579302">
        <ele>1860.77</ele>
        <time>2018-03-03T10:34:37Z</time>
      </trkpt>
      <trkpt lat="46.491930400952697" lon="11.702861655503511">
        <ele>1859.8099999999999</ele>
        <time>2018-03-03T10:34:41Z</time>
      </trkpt>
      <trkpt lat="46.49194716475904" lon="11.702792420983315">
        <ele>1859.8099999999999</ele>
        <time>2018-03-03T10:34:46Z</time>
      </trkpt>
      <trkpt lat="46.491965940222144" lon="11.702701477333903">
        <ele>1859.8099999999999</ele>
        <time>2018-03-03T10:34:53Z</time>
      </trkpt>
      <trkpt lat="46.492000306025147" lon="11.702656969428062">
        <ele>1859.8099999999999</ele>
        <time>2018-03-03T10:35:03Z</time>
      </trkpt>
      <trkpt lat="46.491964012384415" lon="11.702644731849432">
        <ele>1859.8099999999999</ele>
        <time>2018-03-03T10:35:17Z</time>
      </trkpt>
      <trkpt lat="46.491976920515299" lon="11.7026705481112">
        <ele>1859.3299999999999</ele>
        <time>2018-03-03T10:35:31Z</time>
      </trkpt>
      <trkpt lat="46.491974322125316" lon="11.702686809003353">
        <ele>1859.3299999999999</ele>
        <time>2018-03-03T10:35:45Z</time>
      </trkpt>
      <trkpt lat="46.491971304640174" lon="11.70262117870152">
        <ele>1859.3299999999999</ele>
        <time>2018-03-03T10:36:01Z</time>
      </trkpt>
      <trkpt lat="46.491960240527987" lon="11.702493103221059">
        <ele>1859.8099999999999</ele>
        <time>2018-03-03T10:36:11Z</time>
      </trkpt>
      <trkpt lat="46.491954373195767" lon="11.702442476525903">
        <ele>1859.8099999999999</ele>
        <time>2018-03-03T10:36:17Z</time>
      </trkpt>
      <trkpt lat="46.491905087605119" lon="11.702324626967311">
        <ele>1860.29</ele>
        <time>2018-03-03T10:36:27Z</time>
      </trkpt>
      <trkpt lat="46.491865105926991" lon="11.702234521508217">
        <ele>1860.77</ele>
        <time>2018-03-03T10:36:36Z</time>
      </trkpt>
      <trkpt lat="46.491857646033168" lon="11.702231420204043">
        <ele>1860.77</ele>
        <time>2018-03-03T10:36:44Z</time>
      </trkpt>
      <trkpt lat="46.491843229159713" lon="11.702204346656799">
        <ele>1860.29</ele>
        <time>2018-03-03T10:37:02Z</time>
      </trkpt>
      <trkpt lat="46.491828896105289" lon="11.702180290594697">
        <ele>1860.77</ele>
        <time>2018-03-03T10:37:10Z</time>
      </trkpt>
      <trkpt lat="46.491821017116308" lon="11.702167550101876">
        <ele>1860.77</ele>
        <time>2018-03-03T10:37:23Z</time>
      </trkpt>
      <trkpt lat="46.491773910820484" lon="11.702090352773666">
        <ele>1860.77</ele>
        <time>2018-03-03T10:37:31Z</time>
      </trkpt>
      <trkpt lat="46.491750860586762" lon="11.702042911201715">
        <ele>1861.25</ele>
        <time>2018-03-03T10:37:34Z</time>
      </trkpt>
      <trkpt lat="46.491719763725996" lon="11.701964540407062">
        <ele>1860.77</ele>
        <time>2018-03-03T10:37:40Z</time>
      </trkpt>
      <trkpt lat="46.491716075688601" lon="11.701957918703556">
        <ele>1860.29</ele>
        <time>2018-03-03T10:37:49Z</time>
      </trkpt>
      <trkpt lat="46.491707190871239" lon="11.701918942853808">
        <ele>1860.77</ele>
        <time>2018-03-03T10:37:59Z</time>
      </trkpt>
      <trkpt lat="46.491705933585763" lon="11.701824143528938">
        <ele>1860.77</ele>
        <time>2018-03-03T10:38:08Z</time>
      </trkpt>
      <trkpt lat="46.491703586652875" lon="11.701814169064164">
        <ele>1860.77</ele>
        <time>2018-03-03T10:38:25Z</time>
      </trkpt>
      <trkpt lat="46.491695120930672" lon="11.701801847666502">
        <ele>1860.29</ele>
        <time>2018-03-03T10:38:30Z</time>
      </trkpt>
      <trkpt lat="46.491708364337683" lon="11.701644351705909">
        <ele>1859.8099999999999</ele>
        <time>2018-03-03T10:38:39Z</time>
      </trkpt>
      <trkpt lat="46.491717249155045" lon="11.701602777466178">
        <ele>1859.8099999999999</ele>
        <time>2018-03-03T10:38:42Z</time>
      </trkpt>
      <trkpt lat="46.491742227226496" lon="11.701453579589725">
        <ele>1859.8099999999999</ele>
        <time>2018-03-03T10:38:51Z</time>
      </trkpt>
      <trkpt lat="46.49175169877708" lon="11.701330114156008">
        <ele>1860.29</ele>
        <time>2018-03-03T10:39:00Z</time>
      </trkpt>
      <trkpt lat="46.491754883900285" lon="11.701217796653509">
        <ele>1860.77</ele>
        <time>2018-03-03T10:39:07Z</time>
      </trkpt>
      <trkpt lat="46.491753458976746" lon="11.701107490807772">
        <ele>1860.29</ele>
        <time>2018-03-03T10:39:16Z</time>
      </trkpt>
      <trkpt lat="46.491752285510302" lon="11.701047392562032">
        <ele>1860.77</ele>
        <time>2018-03-03T10:39:20Z</time>
      </trkpt>
      <trkpt lat="46.491743568331003" lon="11.700964830815792">
        <ele>1860.77</ele>
        <time>2018-03-03T10:39:28Z</time>
      </trkpt>
      <trkpt lat="46.49173216894269" lon="11.70086064375937">
        <ele>1860.77</ele>
        <time>2018-03-03T10:39:37Z</time>
      </trkpt>
      <trkpt lat="46.491732839494944" lon="11.700830804184079">
        <ele>1861.25</ele>
        <time>2018-03-03T10:39:47Z</time>
      </trkpt>
      <trkpt lat="46.491720350459218" lon="11.700737178325653">
        <ele>1861.25</ele>
        <time>2018-03-03T10:39:57Z</time>
      </trkpt>
      <trkpt lat="46.491711717098951" lon="11.700588902458549">
        <ele>1861.73</ele>
        <time>2018-03-03T10:40:07Z</time>
      </trkpt>
      <trkpt lat="46.491713896393776" lon="11.700565684586763">
        <ele>1861.73</ele>
        <time>2018-03-03T10:40:09Z</time>
      </trkpt>
      <trkpt lat="46.491715321317315" lon="11.700495611876249">
        <ele>1861.73</ele>
        <time>2018-03-03T10:40:14Z</time>
      </trkpt>
      <trkpt lat="46.491731246933341" lon="11.700357059016824">
        <ele>1862.21</ele>
        <time>2018-03-03T10:40:23Z</time>
      </trkpt>
      <trkpt lat="46.491758152842522" lon="11.700229067355394">
        <ele>1862.6900000000001</ele>
        <time>2018-03-03T10:40:33Z</time>
      </trkpt>
      <trkpt lat="46.491771060973406" lon="11.700167963281274">
        <ele>1862.6900000000001</ele>
        <time>2018-03-03T10:40:38Z</time>
      </trkpt>
      <trkpt lat="46.491803834214807" lon="11.700117085129023">
        <ele>1863.1700000000001</ele>
        <time>2018-03-03T10:40:44Z</time>
      </trkpt>
      <trkpt lat="46.491824788972735" lon="11.700070984661579">
        <ele>1863.1700000000001</ele>
        <time>2018-03-03T10:40:48Z</time>
      </trkpt>
      <trkpt lat="46.491865608841181" lon="11.700004348531365">
        <ele>1863.6500000000001</ele>
        <time>2018-03-03T10:40:54Z</time>
      </trkpt>
      <trkpt lat="46.491893772035837" lon="11.699971994385123">
        <ele>1863.6500000000001</ele>
        <time>2018-03-03T10:40:58Z</time>
      </trkpt>
      <trkpt lat="46.491967029869556" lon="11.699862610548735">
        <ele>1864.1300000000001</ele>
        <time>2018-03-03T10:41:09Z</time>
      </trkpt>
      <trkpt lat="46.492009609937668" lon="11.699803015217185">
        <ele>1865.0899999999999</ele>
        <time>2018-03-03T10:41:15Z</time>
      </trkpt>
      <trkpt lat="46.492046825587749" lon="11.699722716584802">
        <ele>1864.1300000000001</ele>
        <time>2018-03-03T10:41:23Z</time>
      </trkpt>
      <trkpt lat="46.492066271603107" lon="11.699667479842901">
        <ele>1864.6099999999999</ele>
        <time>2018-03-03T10:41:27Z</time>
      </trkpt>
      <trkpt lat="46.492072893306613" lon="11.699619200080633">
        <ele>1864.1300000000001</ele>
        <time>2018-03-03T10:41:31Z</time>
      </trkpt>
      <trkpt lat="46.492081778123975" lon="11.699596485123038">
        <ele>1864.1300000000001</ele>
        <time>2018-03-03T10:41:33Z</time>
      </trkpt>
      <trkpt lat="46.492104157805443" lon="11.699420884251595">
        <ele>1864.6099999999999</ele>
        <time>2018-03-03T10:41:45Z</time>
      </trkpt>
      <trkpt lat="46.492133075371385" lon="11.699281828477979">
        <ele>1864.1300000000001</ele>
        <time>2018-03-03T10:41:56Z</time>
      </trkpt>
      <trkpt lat="46.492142966017127" lon="11.699228854849935">
        <ele>1864.6099999999999</ele>
        <time>2018-03-03T10:42:00Z</time>
      </trkpt>
      <trkpt lat="46.492156628519297" lon="11.699187029153109">
        <ele>1864.6099999999999</ele>
        <time>2018-03-03T10:42:03Z</time>
      </trkpt>
      <trkpt lat="46.492166854441166" lon="11.699141012504697">
        <ele>1864.6099999999999</ele>
        <time>2018-03-03T10:42:07Z</time>
      </trkpt>
      <trkpt lat="46.49219342507422" lon="11.699003549292684">
        <ele>1865.0899999999999</ele>
        <time>2018-03-03T10:42:17Z</time>
      </trkpt>
      <trkpt lat="46.492198873311281" lon="11.698988629505038">
        <ele>1865.0899999999999</ele>
        <time>2018-03-03T10:42:25Z</time>
      </trkpt>
      <trkpt lat="46.492207506671548" lon="11.69895107857883">
        <ele>1865.0899999999999</ele>
        <time>2018-03-03T10:42:35Z</time>
      </trkpt>
      <trkpt lat="46.492216307669878" lon="11.698905061930418">
        <ele>1865.0899999999999</ele>
        <time>2018-03-03T10:42:38Z</time>
      </trkpt>
      <trkpt lat="46.492231311276555" lon="11.698751840740442">
        <ele>1865.5799999999999</ele>
        <time>2018-03-03T10:42:49Z</time>
      </trkpt>
      <trkpt lat="46.492239106446505" lon="11.698628207668662">
        <ele>1865.5799999999999</ele>
        <time>2018-03-03T10:42:58Z</time>
      </trkpt>
      <trkpt lat="46.49223156273365" lon="11.698646815493703">
        <ele>1865.5799999999999</ele>
        <time>2018-03-03T10:43:08Z</time>
      </trkpt>
      <trkpt lat="46.492249835282564" lon="11.698555955663323">
        <ele>1866.0599999999999</ele>
        <time>2018-03-03T10:43:17Z</time>
      </trkpt>
      <trkpt lat="46.492260815575719" lon="11.698457803577185">
        <ele>1866.54</ele>
        <time>2018-03-03T10:43:25Z</time>
      </trkpt>
      <trkpt lat="46.492258217185736" lon="11.698430730029941">
        <ele>1866.54</ele>
        <time>2018-03-03T10:43:27Z</time>
      </trkpt>
      <trkpt lat="46.492253271862864" lon="11.69828899204731">
        <ele>1867.5</ele>
        <time>2018-03-03T10:43:38Z</time>
      </trkpt>
      <trkpt lat="46.49225209839642" lon="11.698258062824607">
        <ele>1867.5</ele>
        <time>2018-03-03T10:43:41Z</time>
      </trkpt>
      <trkpt lat="46.492248997092247" lon="11.69811406172812">
        <ele>1868.9400000000001</ele>
        <time>2018-03-03T10:43:52Z</time>
      </trkpt>
      <trkpt lat="46.492245476692915" lon="11.698069386184216">
        <ele>1868.9400000000001</ele>
        <time>2018-03-03T10:43:56Z</time>
      </trkpt>
      <trkpt lat="46.492247823625803" lon="11.697977771982551">
        <ele>1869.4200000000001</ele>
        <time>2018-03-03T10:44:03Z</time>
      </trkpt>
      <trkpt lat="46.49224572815001" lon="11.697935108095407">
        <ele>1869.4200000000001</ele>
        <time>2018-03-03T10:44:06Z</time>
      </trkpt>
      <trkpt lat="46.492239693179727" lon="11.697877943515778">
        <ele>1869.4200000000001</ele>
        <time>2018-03-03T10:44:10Z</time>
      </trkpt>
      <trkpt lat="46.492241621017456" lon="11.697743078693748">
        <ele>1869.4200000000001</ele>
        <time>2018-03-03T10:44:20Z</time>
      </trkpt>
      <trkpt lat="46.492248997092247" lon="11.697620032355189">
        <ele>1869.4200000000001</ele>
        <time>2018-03-03T10:44:29Z</time>
      </trkpt>
      <trkpt lat="46.492264503613114" lon="11.697477791458368">
        <ele>1869.9000000000001</ele>
        <time>2018-03-03T10:44:39Z</time>
      </trkpt>
      <trkpt lat="46.492280596867204" lon="11.697398917749524">
        <ele>1869.9000000000001</ele>
        <time>2018-03-03T10:44:45Z</time>
      </trkpt>
      <trkpt lat="46.492301300168037" lon="11.697356086224318">
        <ele>1870.3800000000001</ele>
        <time>2018-03-03T10:44:49Z</time>
      </trkpt>
      <trkpt lat="46.492336336523294" lon="11.697296490892768">
        <ele>1871.3399999999999</ele>
        <time>2018-03-03T10:44:58Z</time>
      </trkpt>
      <trkpt lat="46.492369528859854" lon="11.697258856147528">
        <ele>1871.8199999999999</ele>
        <time>2018-03-03T10:45:06Z</time>
      </trkpt>
      <trkpt lat="46.492408756166697" lon="11.697199596092105">
        <ele>1871.8199999999999</ele>
        <time>2018-03-03T10:45:15Z</time>
      </trkpt>
      <trkpt lat="46.492414036765695" lon="11.697189789265394">
        <ele>1871.8199999999999</ele>
        <time>2018-03-03T10:45:16Z</time>
      </trkpt>
      <trkpt lat="46.492472877725959" lon="11.697105802595615">
        <ele>1871.8199999999999</ele>
        <time>2018-03-03T10:45:26Z</time>
      </trkpt>
      <trkpt lat="46.492487210780382" lon="11.69709088280797">
        <ele>1871.8199999999999</ele>
        <time>2018-03-03T10:45:28Z</time>
      </trkpt>
      <trkpt lat="46.492504812777042" lon="11.697064395993948">
        <ele>1871.8199999999999</ele>
        <time>2018-03-03T10:45:31Z</time>
      </trkpt>
      <trkpt lat="46.492558121681213" lon="11.696977475658059">
        <ele>1872.79</ele>
        <time>2018-03-03T10:45:41Z</time>
      </trkpt>
      <trkpt lat="46.492565413936973" lon="11.696972027420998">
        <ele>1872.3</ele>
        <time>2018-03-03T10:45:42Z</time>
      </trkpt>
      <trkpt lat="46.492577316239476" lon="11.696964064612985">
        <ele>1872.79</ele>
        <time>2018-03-03T10:45:44Z</time>
      </trkpt>
      <trkpt lat="46.492595756426454" lon="11.696934141218662">
        <ele>1872.79</ele>
        <time>2018-03-03T10:45:47Z</time>
      </trkpt>
      <trkpt lat="46.4926468860358" lon="11.696854932233691">
        <ele>1873.27</ele>
        <time>2018-03-03T10:45:56Z</time>
      </trkpt>
      <trkpt lat="46.492655100300908" lon="11.696838084608316">
        <ele>1873.27</ele>
        <time>2018-03-03T10:46:05Z</time>
      </trkpt>
      <trkpt lat="46.49266448803246" lon="11.696803383529186">
        <ele>1873.27</ele>
        <time>2018-03-03T10:46:10Z</time>
      </trkpt>
      <trkpt lat="46.492701033130288" lon="11.69669802300632">
        <ele>1873.75</ele>
        <time>2018-03-03T10:46:20Z</time>
      </trkpt>
      <trkpt lat="46.492713438346982" lon="11.696672290563583">
        <ele>1873.75</ele>
        <time>2018-03-03T10:46:23Z</time>
      </trkpt>
      <trkpt lat="46.492740176618099" lon="11.696620238944888">
        <ele>1874.23</ele>
        <time>2018-03-03T10:46:28Z</time>
      </trkpt>
      <trkpt lat="46.492753084748983" lon="11.696559973061085">
        <ele>1874.23</ele>
        <time>2018-03-03T10:46:37Z</time>
      </trkpt>
      <trkpt lat="46.49278761819005" lon="11.696514207869768">
        <ele>1874.23</ele>
        <time>2018-03-03T10:46:48Z</time>
      </trkpt>
      <trkpt lat="46.492821648716927" lon="11.696479674428701">
        <ele>1874.23</ele>
        <time>2018-03-03T10:46:54Z</time>
      </trkpt>
      <trkpt lat="46.492867162451148" lon="11.696393005549908">
        <ele>1874.71</ele>
        <time>2018-03-03T10:47:03Z</time>
      </trkpt>
      <trkpt lat="46.492895828559995" lon="11.696318071335554">
        <ele>1874.71</ele>
        <time>2018-03-03T10:47:11Z</time>
      </trkpt>
      <trkpt lat="46.492939917370677" lon="11.696261409670115">
        <ele>1875.6700000000001</ele>
        <time>2018-03-03T10:47:20Z</time>
      </trkpt>
      <trkpt lat="46.492930110543966" lon="11.696257973089814">
        <ele>1875.6700000000001</ele>
        <time>2018-03-03T10:47:31Z</time>
      </trkpt>
      <trkpt lat="46.492964141070843" lon="11.696213884279132">
        <ele>1876.1500000000001</ele>
        <time>2018-03-03T10:47:42Z</time>
      </trkpt>
      <trkpt lat="46.493007726967335" lon="11.696137692779303">
        <ele>1876.6300000000001</ele>
        <time>2018-03-03T10:47:51Z</time>
      </trkpt>
      <trkpt lat="46.49305391125381" lon="11.696161916479468">
        <ele>1876.6300000000001</ele>
        <time>2018-03-03T10:48:06Z</time>
      </trkpt>
      <trkpt lat="46.493039410561323" lon="11.696188151836395">
        <ele>1876.1500000000001</ele>
        <time>2018-03-03T10:48:14Z</time>
      </trkpt>
      <trkpt lat="46.493020551279187" lon="11.696207514032722">
        <ele>1876.1500000000001</ele>
        <time>2018-03-03T10:48:25Z</time>
      </trkpt>
      <trkpt lat="46.493042344227433" lon="11.696202401071787">
        <ele>1876.1500000000001</ele>
        <time>2018-03-03T10:48:43Z</time>
      </trkpt>
      <trkpt lat="46.493029352277517" lon="11.69617666862905">
        <ele>1876.1500000000001</ele>
        <time>2018-03-03T10:49:03Z</time>
      </trkpt>
      <trkpt lat="46.493020048364997" lon="11.696182284504175">
        <ele>1875.6700000000001</ele>
        <time>2018-03-03T10:49:29Z</time>
      </trkpt>
      <trkpt lat="46.493018371984363" lon="11.696193851530552">
        <ele>1876.1500000000001</ele>
        <time>2018-03-03T10:49:38Z</time>
      </trkpt>
      <trkpt lat="46.493023736402392" lon="11.696184882894158">
        <ele>1876.6300000000001</ele>
        <time>2018-03-03T10:49:54Z</time>
      </trkpt>
      <trkpt lat="46.493030274286866" lon="11.696184547618032">
        <ele>1876.1500000000001</ele>
        <time>2018-03-03T10:50:11Z</time>
      </trkpt>
      <trkpt lat="46.493047205731273" lon="11.696197539567947">
        <ele>1876.1500000000001</ele>
        <time>2018-03-03T10:50:37Z</time>
      </trkpt>
      <trkpt lat="46.493037650361657" lon="11.696164598688483">
        <ele>1876.1500000000001</ele>
        <time>2018-03-03T10:50:59Z</time>
      </trkpt>
      <trkpt lat="46.49304904974997" lon="11.696157725527883">
        <ele>1876.1500000000001</ele>
        <time>2018-03-03T10:51:12Z</time>
      </trkpt>
      <trkpt lat="46.493019042536616" lon="11.696159150451422">
        <ele>1876.1500000000001</ele>
        <time>2018-03-03T10:51:31Z</time>
      </trkpt>
      <trkpt lat="46.493019377812743" lon="11.696179350838065">
        <ele>1876.6300000000001</ele>
        <time>2018-03-03T10:51:58Z</time>
      </trkpt>
      <trkpt lat="46.493029687553644" lon="11.696160994470119">
        <ele>1877.5899999999999</ele>
        <time>2018-03-03T10:52:21Z</time>
      </trkpt>
      <trkpt lat="46.493019880726933" lon="11.69612193480134">
        <ele>1877.1099999999999</ele>
        <time>2018-03-03T10:52:35Z</time>
      </trkpt>
      <trkpt lat="46.493045277893543" lon="11.696121096611023">
        <ele>1876.6300000000001</ele>
        <time>2018-03-03T10:52:44Z</time>
      </trkpt>
      <trkpt lat="46.493082912638783" lon="11.696118665859103">
        <ele>1877.1099999999999</ele>
        <time>2018-03-03T10:52:59Z</time>
      </trkpt>
      <trkpt lat="46.493070172145963" lon="11.696175578981638">
        <ele>1877.1099999999999</ele>
        <time>2018-03-03T10:53:16Z</time>
      </trkpt>
      <trkpt lat="46.493069417774677" lon="11.696188570931554">
        <ele>1877.1099999999999</ele>
        <time>2018-03-03T10:53:17Z</time>
      </trkpt>
      <trkpt lat="46.493055168539286" lon="11.696521500125527">
        <ele>1877.5899999999999</ele>
        <time>2018-03-03T10:53:33Z</time>
      </trkpt>
      <trkpt lat="46.493082577362657" lon="11.69653968885541">
        <ele>1877.5899999999999</ele>
        <time>2018-03-03T10:53:47Z</time>
      </trkpt>
      <trkpt lat="46.493100682273507" lon="11.696512196213007">
        <ele>1877.5899999999999</ele>
        <time>2018-03-03T10:53:49Z</time>
      </trkpt>
      <trkpt lat="46.49305634200573" lon="11.696178009733558">
        <ele>1877.5899999999999</ele>
        <time>2018-03-03T10:59:17Z</time>
      </trkpt>
      <trkpt lat="46.493018874898553" lon="11.696216147392988">
        <ele>1878.0699999999999</ele>
        <time>2018-03-03T10:59:30Z</time>
      </trkpt>
      <trkpt lat="46.493053156882524" lon="11.69617373496294">
        <ele>1878.0699999999999</ele>
        <time>2018-03-03T10:59:48Z</time>
      </trkpt>
      <trkpt lat="46.493120463564992" lon="11.696175243705511">
        <ele>1878.55</ele>
        <time>2018-03-03T11:00:11Z</time>
      </trkpt>
      <trkpt lat="46.493099760264158" lon="11.696201981976628">
        <ele>1878.0699999999999</ele>
        <time>2018-03-03T11:00:33Z</time>
      </trkpt>
      <trkpt lat="46.493084002286196" lon="11.696232743561268">
        <ele>1878.55</ele>
        <time>2018-03-03T11:00:48Z</time>
      </trkpt>
      <trkpt lat="46.493083415552974" lon="11.696224948391318">
        <ele>1878.55</ele>
        <time>2018-03-03T11:01:04Z</time>
      </trkpt>
      <trkpt lat="46.493052989244461" lon="11.696226121857762">
        <ele>1878.55</ele>
        <time>2018-03-03T11:01:15Z</time>
      </trkpt>
      <trkpt lat="46.493031280115247" lon="11.69621136970818">
        <ele>1879.03</ele>
        <time>2018-03-03T11:01:23Z</time>
      </trkpt>
      <trkpt lat="46.493024406954646" lon="11.696195527911186">
        <ele>1878.55</ele>
        <time>2018-03-03T11:01:34Z</time>
      </trkpt>
      <trkpt lat="46.493027927353978" lon="11.696191756054759">
        <ele>1878.55</ele>
        <time>2018-03-03T11:01:44Z</time>
      </trkpt>
      <trkpt lat="46.493034716695547" lon="11.696190582588315">
        <ele>1878.55</ele>
        <time>2018-03-03T11:01:58Z</time>
      </trkpt>
      <trkpt lat="46.493035051971674" lon="11.696196030825377">
        <ele>1879.03</ele>
        <time>2018-03-03T11:02:10Z</time>
      </trkpt>
      <trkpt lat="46.493027927353978" lon="11.696203490719199">
        <ele>1878.0699999999999</ele>
        <time>2018-03-03T11:02:20Z</time>
      </trkpt>
      <trkpt lat="46.493038237094879" lon="11.696200305595994">
        <ele>1878.0699999999999</ele>
        <time>2018-03-03T11:02:31Z</time>
      </trkpt>
      <trkpt lat="46.493036728352308" lon="11.696178931742907">
        <ele>1878.0699999999999</ele>
        <time>2018-03-03T11:02:45Z</time>
      </trkpt>
      <trkpt lat="46.49303974583745" lon="11.696187313646078">
        <ele>1879.03</ele>
        <time>2018-03-03T11:03:00Z</time>
      </trkpt>
      <trkpt lat="46.493036728352308" lon="11.696175998076797">
        <ele>1879.03</ele>
        <time>2018-03-03T11:03:10Z</time>
      </trkpt>
      <trkpt lat="46.493032202124596" lon="11.696185134351254">
        <ele>1879.03</ele>
        <time>2018-03-03T11:03:24Z</time>
      </trkpt>
      <trkpt lat="46.493041086941957" lon="11.69618982821703">
        <ele>1878.55</ele>
        <time>2018-03-03T11:03:48Z</time>
      </trkpt>
      <trkpt lat="46.493059359490871" lon="11.696198210120201">
        <ele>1878.55</ele>
        <time>2018-03-03T11:04:18Z</time>
      </trkpt>
      <trkpt lat="46.492997584864497" lon="11.696175914257765">
        <ele>1878.55</ele>
        <time>2018-03-03T11:04:40Z</time>
      </trkpt>
      <trkpt lat="46.492998423054814" lon="11.696179686114192">
        <ele>1878.0699999999999</ele>
        <time>2018-03-03T11:05:00Z</time>
      </trkpt>
      <trkpt lat="46.493009403347969" lon="11.696193600073457">
        <ele>1878.55</ele>
        <time>2018-03-03T11:05:13Z</time>
      </trkpt>
      <trkpt lat="46.493009990081191" lon="11.6961879003793">
        <ele>1878.55</ele>
        <time>2018-03-03T11:05:22Z</time>
      </trkpt>
      <trkpt lat="46.493014097213745" lon="11.696216650307178">
        <ele>1879.03</ele>
        <time>2018-03-03T11:05:37Z</time>
      </trkpt>
      <trkpt lat="46.493012756109238" lon="11.69616837054491">
        <ele>1879.03</ele>
        <time>2018-03-03T11:05:50Z</time>
      </trkpt>
      <trkpt lat="46.4930060505867" lon="11.696159234270453">
        <ele>1879.03</ele>
        <time>2018-03-03T11:06:01Z</time>
      </trkpt>
      <trkpt lat="46.492990460246801" lon="11.696040546521544">
        <ele>1878.55</ele>
        <time>2018-03-03T11:06:11Z</time>
      </trkpt>
      <trkpt lat="46.493005631491542" lon="11.696032248437405">
        <ele>1878.0699999999999</ele>
        <time>2018-03-03T11:06:18Z</time>
      </trkpt>
      <trkpt lat="46.493028262630105" lon="11.696051862090826">
        <ele>1878.0699999999999</ele>
        <time>2018-03-03T11:06:27Z</time>
      </trkpt>
      <trkpt lat="46.492964643985033" lon="11.696017915382981">
        <ele>1878.0699999999999</ele>
        <time>2018-03-03T11:06:34Z</time>
      </trkpt>
      <trkpt lat="46.492945365607738" lon="11.695962175726891">
        <ele>1878.0699999999999</ele>
        <time>2018-03-03T11:06:44Z</time>
      </trkpt>
      <trkpt lat="46.49293958209455" lon="11.695967204868793">
        <ele>1878.55</ele>
        <time>2018-03-03T11:07:02Z</time>
      </trkpt>
      <trkpt lat="46.492939498275518" lon="11.695946753025055">
        <ele>1878.0699999999999</ele>
        <time>2018-03-03T11:07:04Z</time>
      </trkpt>
      <trkpt lat="46.492939246818423" lon="11.695840386673808">
        <ele>1879.51</ele>
        <time>2018-03-03T11:07:13Z</time>
      </trkpt>
      <trkpt lat="46.492936480790377" lon="11.69582974165678">
        <ele>1879.51</ele>
        <time>2018-03-03T11:07:15Z</time>
      </trkpt>
      <trkpt lat="46.492911754176021" lon="11.695808032527566">
        <ele>1879.51</ele>
        <time>2018-03-03T11:07:18Z</time>
      </trkpt>
      <trkpt lat="46.492825923487544" lon="11.69576377607882">
        <ele>1879.03</ele>
        <time>2018-03-03T11:07:29Z</time>
      </trkpt>
      <trkpt lat="46.49281301535666" lon="11.69573737308383">
        <ele>1879.03</ele>
        <time>2018-03-03T11:07:32Z</time>
      </trkpt>
      <trkpt lat="46.492755599319935" lon="11.695615667849779">
        <ele>1879.51</ele>
        <time>2018-03-03T11:07:43Z</time>
      </trkpt>
      <trkpt lat="46.492754425853491" lon="11.695554396137595">
        <ele>1878.55</ele>
        <time>2018-03-03T11:07:54Z</time>
      </trkpt>
      <trkpt lat="46.492737662047148" lon="11.695565460249782">
        <ele>1879.03</ele>
        <time>2018-03-03T11:08:04Z</time>
      </trkpt>
      <trkpt lat="46.49272701703012" lon="11.695549450814724">
        <ele>1879.03</ele>
        <time>2018-03-03T11:08:06Z</time>
      </trkpt>
      <trkpt lat="46.492681168019772" lon="11.695427913218737">
        <ele>1879.03</ele>
        <time>2018-03-03T11:08:15Z</time>
      </trkpt>
      <trkpt lat="46.492627523839474" lon="11.695305956527591">
        <ele>1879.03</ele>
        <time>2018-03-03T11:08:25Z</time>
      </trkpt>
      <trkpt lat="46.492614196613431" lon="11.695257844403386">
        <ele>1879.03</ele>
        <time>2018-03-03T11:08:28Z</time>
      </trkpt>
      <trkpt lat="46.492605730891228" lon="11.695229262113571">
        <ele>1879.03</ele>
        <time>2018-03-03T11:08:30Z</time>
      </trkpt>
      <trkpt lat="46.492594666779041" lon="11.695191543549299">
        <ele>1879.03</ele>
        <time>2018-03-03T11:08:33Z</time>
      </trkpt>
      <trkpt lat="46.492581591010094" lon="11.69510361738503">
        <ele>1878.55</ele>
        <time>2018-03-03T11:08:43Z</time>
      </trkpt>
      <trkpt lat="46.492593828588724" lon="11.69510311447084">
        <ele>1878.55</ele>
        <time>2018-03-03T11:08:53Z</time>
      </trkpt>
      <trkpt lat="46.492590978741646" lon="11.695022396743298">
        <ele>1878.55</ele>
        <time>2018-03-03T11:08:58Z</time>
      </trkpt>
      <trkpt lat="46.492588967084885" lon="11.694971770048141">
        <ele>1878.55</ele>
        <time>2018-03-03T11:09:01Z</time>
      </trkpt>
      <trkpt lat="46.49259022437036" lon="11.694886526092887">
        <ele>1879.03</ele>
        <time>2018-03-03T11:09:07Z</time>
      </trkpt>
      <trkpt lat="46.492597265169024" lon="11.694775465875864">
        <ele>1879.03</ele>
        <time>2018-03-03T11:09:14Z</time>
      </trkpt>
      <trkpt lat="46.492603048682213" lon="11.694742776453495">
        <ele>1879.51</ele>
        <time>2018-03-03T11:09:16Z</time>
      </trkpt>
      <trkpt lat="46.492605479434133" lon="11.694637667387724">
        <ele>1879.03</ele>
        <time>2018-03-03T11:09:23Z</time>
      </trkpt>
      <trkpt lat="46.49262735620141" lon="11.694531887769699">
        <ele>1879.51</ele>
        <time>2018-03-03T11:09:32Z</time>
      </trkpt>
      <trkpt lat="46.492643197998405" lon="11.694442871958017">
        <ele>1880</ele>
        <time>2018-03-03T11:09:38Z</time>
      </trkpt>
      <trkpt lat="46.492663314566016" lon="11.694344384595752">
        <ele>1880.48</ele>
        <time>2018-03-03T11:09:46Z</time>
      </trkpt>
      <trkpt lat="46.492682592943311" lon="11.694299289956689">
        <ele>1880.48</ele>
        <time>2018-03-03T11:09:57Z</time>
      </trkpt>
      <trkpt lat="46.4927021227777" lon="11.694295769557357">
        <ele>1880.48</ele>
        <time>2018-03-03T11:10:02Z</time>
      </trkpt>
      <trkpt lat="46.492721736431122" lon="11.694171717390418">
        <ele>1880.96</ele>
        <time>2018-03-03T11:10:10Z</time>
      </trkpt>
      <trkpt lat="46.492733219638467" lon="11.694140955805779">
        <ele>1880.96</ele>
        <time>2018-03-03T11:10:12Z</time>
      </trkpt>
      <trkpt lat="46.492747720330954" lon="11.694039534777403">
        <ele>1881.4400000000001</ele>
        <time>2018-03-03T11:10:20Z</time>
      </trkpt>
      <trkpt lat="46.492753168568015" lon="11.6940086055547">
        <ele>1881.4400000000001</ele>
        <time>2018-03-03T11:10:22Z</time>
      </trkpt>
      <trkpt lat="46.492757527157664" lon="11.693962421268225">
        <ele>1881.4400000000001</ele>
        <time>2018-03-03T11:10:25Z</time>
      </trkpt>
      <trkpt lat="46.492783175781369" lon="11.693866113200784">
        <ele>1881.9200000000001</ele>
        <time>2018-03-03T11:10:33Z</time>
      </trkpt>
      <trkpt lat="46.492793150246143" lon="11.69381900690496">
        <ele>1881.9200000000001</ele>
        <time>2018-03-03T11:10:41Z</time>
      </trkpt>
      <trkpt lat="46.492794826626778" lon="11.693808613345027">
        <ele>1881.9200000000001</ele>
        <time>2018-03-03T11:10:42Z</time>
      </trkpt>
      <trkpt lat="46.492803040891886" lon="11.693767290562391">
        <ele>1882.4000000000001</ele>
        <time>2018-03-03T11:10:45Z</time>
      </trkpt>
      <trkpt lat="46.492815027013421" lon="11.693651871755719">
        <ele>1882.8800000000001</ele>
        <time>2018-03-03T11:10:53Z</time>
      </trkpt>
      <trkpt lat="46.492822151631117" lon="11.693560760468245">
        <ele>1883.3599999999999</ele>
        <time>2018-03-03T11:10:59Z</time>
      </trkpt>
      <trkpt lat="46.492831455543637" lon="11.693489765748382">
        <ele>1883.3599999999999</ele>
        <time>2018-03-03T11:11:04Z</time>
      </trkpt>
      <trkpt lat="46.492834556847811" lon="11.693404605612159">
        <ele>1883.8399999999999</ele>
        <time>2018-03-03T11:11:10Z</time>
      </trkpt>
      <trkpt lat="46.492849728092551" lon="11.693346351385117">
        <ele>1883.8399999999999</ele>
        <time>2018-03-03T11:11:15Z</time>
      </trkpt>
      <trkpt lat="46.492858277633786" lon="11.693262197077274">
        <ele>1883.8399999999999</ele>
        <time>2018-03-03T11:11:20Z</time>
      </trkpt>
      <trkpt lat="46.492872945964336" lon="11.693224562332034">
        <ele>1883.8399999999999</ele>
        <time>2018-03-03T11:11:23Z</time>
      </trkpt>
      <trkpt lat="46.492884010076523" lon="11.693107383325696">
        <ele>1884.3199999999999</ele>
        <time>2018-03-03T11:11:31Z</time>
      </trkpt>
      <trkpt lat="46.49290538392961" lon="11.692984001711011">
        <ele>1884.3199999999999</ele>
        <time>2018-03-03T11:11:40Z</time>
      </trkpt>
      <trkpt lat="46.492907395586371" lon="11.692973943427205">
        <ele>1884.3199999999999</ele>
        <time>2018-03-03T11:11:41Z</time>
      </trkpt>
      <trkpt lat="46.492916531860828" lon="11.692954329773784">
        <ele>1884.3199999999999</ele>
        <time>2018-03-03T11:11:43Z</time>
      </trkpt>
      <trkpt lat="46.49292248301208" lon="11.69288283213973">
        <ele>1884.3199999999999</ele>
        <time>2018-03-03T11:11:48Z</time>
      </trkpt>
      <trkpt lat="46.492932541295886" lon="11.692800018936396">
        <ele>1884.8</ele>
        <time>2018-03-03T11:11:54Z</time>
      </trkpt>
      <trkpt lat="46.492964141070843" lon="11.692820973694324">
        <ele>1884.8</ele>
        <time>2018-03-03T11:12:04Z</time>
      </trkpt>
      <trkpt lat="46.492972020059824" lon="11.692842850461602">
        <ele>1884.8</ele>
        <time>2018-03-03T11:12:16Z</time>
      </trkpt>
      <trkpt lat="46.492976881563663" lon="11.692826254293323">
        <ele>1885.28</ele>
        <time>2018-03-03T11:12:31Z</time>
      </trkpt>
      <trkpt lat="46.49298601783812" lon="11.692734891548753">
        <ele>1885.28</ele>
        <time>2018-03-03T11:12:40Z</time>
      </trkpt>
      <trkpt lat="46.492993980646133" lon="11.692686779424548">
        <ele>1885.28</ele>
        <time>2018-03-03T11:12:43Z</time>
      </trkpt>
      <trkpt lat="46.493002530187368" lon="11.692663645371795">
        <ele>1885.28</ele>
        <time>2018-03-03T11:12:45Z</time>
      </trkpt>
      <trkpt lat="46.493018707260489" lon="11.692545209079981">
        <ele>1885.28</ele>
        <time>2018-03-03T11:12:54Z</time>
      </trkpt>
      <trkpt lat="46.493027759715915" lon="11.692498857155442">
        <ele>1885.28</ele>
        <time>2018-03-03T11:12:58Z</time>
      </trkpt>
      <trkpt lat="46.493057096377015" lon="11.692355778068304">
        <ele>1885.76</ele>
        <time>2018-03-03T11:13:08Z</time>
      </trkpt>
      <trkpt lat="46.493068831041455" lon="11.692314455285668">
        <ele>1885.76</ele>
        <time>2018-03-03T11:13:11Z</time>
      </trkpt>
      <trkpt lat="46.493085008114576" lon="11.692226026207209">
        <ele>1886.24</ele>
        <time>2018-03-03T11:13:18Z</time>
      </trkpt>
      <trkpt lat="46.493107220157981" lon="11.692100381478667">
        <ele>1886.24</ele>
        <time>2018-03-03T11:13:27Z</time>
      </trkpt>
      <trkpt lat="46.493133120238781" lon="11.691987058147788">
        <ele>1886.72</ele>
        <time>2018-03-03T11:13:37Z</time>
      </trkpt>
      <trkpt lat="46.493135299533606" lon="11.691964259371161">
        <ele>1886.72</ele>
        <time>2018-03-03T11:13:39Z</time>
      </trkpt>
      <trkpt lat="46.493150638416409" lon="11.691899718716741">
        <ele>1887.21</ele>
        <time>2018-03-03T11:13:44Z</time>
      </trkpt>
      <trkpt lat="46.493179136887193" lon="11.691759154200554">
        <ele>1888.1700000000001</ele>
        <time>2018-03-03T11:13:56Z</time>
      </trkpt>
      <trkpt lat="46.493216939270496" lon="11.691645747050643">
        <ele>1888.6500000000001</ele>
        <time>2018-03-03T11:14:07Z</time>
      </trkpt>
      <trkpt lat="46.49322054348886" lon="11.691630324348807">
        <ele>1888.6500000000001</ele>
        <time>2018-03-03T11:14:08Z</time>
      </trkpt>
      <trkpt lat="46.493237558752298" lon="11.691520353779197">
        <ele>1889.1300000000001</ele>
        <time>2018-03-03T11:14:16Z</time>
      </trkpt>
      <trkpt lat="46.493268320336938" lon="11.691412562504411">
        <ele>1889.1300000000001</ele>
        <time>2018-03-03T11:14:25Z</time>
      </trkpt>
      <trkpt lat="46.493280893191695" lon="11.691352631896734">
        <ele>1889.1300000000001</ele>
        <time>2018-03-03T11:14:29Z</time>
      </trkpt>
      <trkpt lat="46.493296315893531" lon="11.691309129819274">
        <ele>1889.1300000000001</ele>
        <time>2018-03-03T11:14:32Z</time>
      </trkpt>
      <trkpt lat="46.493304530158639" lon="11.691257329657674">
        <ele>1889.6099999999999</ele>
        <time>2018-03-03T11:14:36Z</time>
      </trkpt>
      <trkpt lat="46.493323892354965" lon="11.691174767911434">
        <ele>1889.6099999999999</ele>
        <time>2018-03-03T11:14:42Z</time>
      </trkpt>
      <trkpt lat="46.493334453552961" lon="11.691149538382888">
        <ele>1889.6099999999999</ele>
        <time>2018-03-03T11:14:44Z</time>
      </trkpt>
      <trkpt lat="46.4933514688164" lon="11.691027833148837">
        <ele>1890.0899999999999</ele>
        <time>2018-03-03T11:14:54Z</time>
      </trkpt>
      <trkpt lat="46.493363622575998" lon="11.690943846479058">
        <ele>1890.0899999999999</ele>
        <time>2018-03-03T11:15:01Z</time>
      </trkpt>
      <trkpt lat="46.493377955630422" lon="11.690885173156857">
        <ele>1890.0899999999999</ele>
        <time>2018-03-03T11:15:05Z</time>
      </trkpt>
      <trkpt lat="46.493390193209052" lon="11.690805209800601">
        <ele>1890.0899999999999</ele>
        <time>2018-03-03T11:15:12Z</time>
      </trkpt>
      <trkpt lat="46.493398239836097" lon="11.690699011087418">
        <ele>1890.5699999999999</ele>
        <time>2018-03-03T11:15:20Z</time>
      </trkpt>
      <trkpt lat="46.493403101339936" lon="11.690678056329489">
        <ele>1891.05</ele>
        <time>2018-03-03T11:15:30Z</time>
      </trkpt>
      <trkpt lat="46.493404358625412" lon="11.690649474039674">
        <ele>1891.05</ele>
        <time>2018-03-03T11:15:43Z</time>
      </trkpt>
      <trkpt lat="46.493411734700203" lon="11.69061946682632">
        <ele>1890.5699999999999</ele>
        <time>2018-03-03T11:15:52Z</time>
      </trkpt>
      <trkpt lat="46.493424223735929" lon="11.690568337216973">
        <ele>1891.05</ele>
        <time>2018-03-03T11:15:56Z</time>
      </trkpt>
      <trkpt lat="46.49342967197299" lon="11.690471777692437">
        <ele>1891.53</ele>
        <time>2018-03-03T11:16:02Z</time>
      </trkpt>
      <trkpt lat="46.493444507941604" lon="11.690335907042027">
        <ele>1891.53</ele>
        <time>2018-03-03T11:16:12Z</time>
      </trkpt>
      <trkpt lat="46.493452806025743" lon="11.690222583711147">
        <ele>1892.01</ele>
        <time>2018-03-03T11:16:21Z</time>
      </trkpt>
      <trkpt lat="46.493460768833756" lon="11.690077995881438">
        <ele>1892.01</ele>
        <time>2018-03-03T11:16:31Z</time>
      </trkpt>
      <trkpt lat="46.493459260091186" lon="11.690017394721508">
        <ele>1892.01</ele>
        <time>2018-03-03T11:16:35Z</time>
      </trkpt>
      <trkpt lat="46.493471581488848" lon="11.689894935116172">
        <ele>1892.49</ele>
        <time>2018-03-03T11:16:44Z</time>
      </trkpt>
      <trkpt lat="46.493478873744607" lon="11.689850594848394">
        <ele>1892.49</ele>
        <time>2018-03-03T11:16:47Z</time>
      </trkpt>
      <trkpt lat="46.493478119373322" lon="11.689831903204322">
        <ele>1892.49</ele>
        <time>2018-03-03T11:16:49Z</time>
      </trkpt>
      <trkpt lat="46.493489937856793" lon="11.689776917919517">
        <ele>1892.49</ele>
        <time>2018-03-03T11:16:53Z</time>
      </trkpt>
      <trkpt lat="46.493499744683504" lon="11.689670803025365">
        <ele>1892.97</ele>
        <time>2018-03-03T11:17:01Z</time>
      </trkpt>
      <trkpt lat="46.49350049905479" lon="11.689633084461093">
        <ele>1892.97</ele>
        <time>2018-03-03T11:17:04Z</time>
      </trkpt>
      <trkpt lat="46.493496308103204" lon="11.689597209915519">
        <ele>1893.45</ele>
        <time>2018-03-03T11:17:07Z</time>
      </trkpt>
      <trkpt lat="46.4935103058815" lon="11.689477935433388">
        <ele>1893.9300000000001</ele>
        <time>2018-03-03T11:17:17Z</time>
      </trkpt>
      <trkpt lat="46.493513993918896" lon="11.68946485966444">
        <ele>1893.45</ele>
        <time>2018-03-03T11:17:18Z</time>
      </trkpt>
      <trkpt lat="46.493523381650448" lon="11.689416412264109">
        <ele>1893.9300000000001</ele>
        <time>2018-03-03T11:17:22Z</time>
      </trkpt>
      <trkpt lat="46.493531093001366" lon="11.689367713406682">
        <ele>1893.9300000000001</ele>
        <time>2018-03-03T11:17:31Z</time>
      </trkpt>
      <trkpt lat="46.493531344458461" lon="11.689332174137235">
        <ele>1894.4200000000001</ele>
        <time>2018-03-03T11:17:40Z</time>
      </trkpt>
      <trkpt lat="46.493529248982668" lon="11.689231591299176">
        <ele>1894.4200000000001</ele>
        <time>2018-03-03T11:17:47Z</time>
      </trkpt>
      <trkpt lat="46.49353570304811" lon="11.689093625172973">
        <ele>1894.9000000000001</ele>
        <time>2018-03-03T11:17:58Z</time>
      </trkpt>
      <trkpt lat="46.493544336408377" lon="11.689049787819386">
        <ele>1895.3800000000001</ele>
        <time>2018-03-03T11:18:02Z</time>
      </trkpt>
      <trkpt lat="46.493547856807709" lon="11.688979798927903">
        <ele>1895.3800000000001</ele>
        <time>2018-03-03T11:18:07Z</time>
      </trkpt>
      <trkpt lat="46.493566799908876" lon="11.688885921612382">
        <ele>1895.8599999999999</ele>
        <time>2018-03-03T11:18:16Z</time>
      </trkpt>
      <trkpt lat="46.493580713868141" lon="11.688818782567978">
        <ele>1896.3399999999999</ele>
        <time>2018-03-03T11:18:22Z</time>
      </trkpt>
      <trkpt lat="46.493577696382999" lon="11.688704704865813">
        <ele>1896.3399999999999</ele>
        <time>2018-03-03T11:18:31Z</time>
      </trkpt>
      <trkpt lat="46.493585491552949" lon="11.688579898327589">
        <ele>1896.8199999999999</ele>
        <time>2018-03-03T11:18:40Z</time>
      </trkpt>
      <trkpt lat="46.49358943104744" lon="11.688537653535604">
        <ele>1896.8199999999999</ele>
        <time>2018-03-03T11:18:43Z</time>
      </trkpt>
      <trkpt lat="46.493589179590344" lon="11.688440507277846">
        <ele>1897.3</ele>
        <time>2018-03-03T11:18:50Z</time>
      </trkpt>
      <trkpt lat="46.493607619777322" lon="11.68827161192894">
        <ele>1897.3</ele>
        <time>2018-03-03T11:19:02Z</time>
      </trkpt>
      <trkpt lat="46.493609631434083" lon="11.688208663836122">
        <ele>1897.3</ele>
        <time>2018-03-03T11:19:07Z</time>
      </trkpt>
      <trkpt lat="46.493610050529242" lon="11.688147475942969">
        <ele>1897.78</ele>
        <time>2018-03-03T11:19:11Z</time>
      </trkpt>
      <trkpt lat="46.493609715253115" lon="11.688099363818765">
        <ele>1897.3</ele>
        <time>2018-03-03T11:19:14Z</time>
      </trkpt>
      <trkpt lat="46.493635531514883" lon="11.687973635271192">
        <ele>1897.78</ele>
        <time>2018-03-03T11:19:24Z</time>
      </trkpt>
      <trkpt lat="46.493654055520892" lon="11.687890738248825">
        <ele>1898.74</ele>
        <time>2018-03-03T11:19:32Z</time>
      </trkpt>
      <trkpt lat="46.493661012500525" lon="11.687823766842484">
        <ele>1898.74</ele>
        <time>2018-03-03T11:19:36Z</time>
      </trkpt>
      <trkpt lat="46.493675094097853" lon="11.687763584777713">
        <ele>1898.74</ele>
        <time>2018-03-03T11:19:46Z</time>
      </trkpt>
      <trkpt lat="46.493689510971308" lon="11.687776912003756">
        <ele>1898.26</ele>
        <time>2018-03-03T11:19:59Z</time>
      </trkpt>
      <trkpt lat="46.493692612275481" lon="11.68772486038506">
        <ele>1898.74</ele>
        <time>2018-03-03T11:20:06Z</time>
      </trkpt>
      <trkpt lat="46.493706190958619" lon="11.687644645571709">
        <ele>1899.22</ele>
        <time>2018-03-03T11:20:13Z</time>
      </trkpt>
      <trkpt lat="46.493720943108201" lon="11.687593851238489">
        <ele>1899.7</ele>
        <time>2018-03-03T11:20:19Z</time>
      </trkpt>
      <trkpt lat="46.493736868724227" lon="11.687478348612785">
        <ele>1900.1800000000001</ele>
        <time>2018-03-03T11:20:28Z</time>
      </trkpt>
      <trkpt lat="46.493741059675813" lon="11.68741112574935">
        <ele>1900.1800000000001</ele>
        <time>2018-03-03T11:20:33Z</time>
      </trkpt>
      <trkpt lat="46.493751369416714" lon="11.687314817681909">
        <ele>1900.6600000000001</ele>
        <time>2018-03-03T11:20:40Z</time>
      </trkpt>
      <trkpt lat="46.493741311132908" lon="11.687256982550025">
        <ele>1900.6600000000001</ele>
        <time>2018-03-03T11:20:45Z</time>
      </trkpt>
      <trkpt lat="46.493734018877149" lon="11.687210043892264">
        <ele>1900.6600000000001</ele>
        <time>2018-03-03T11:20:49Z</time>
      </trkpt>
      <trkpt lat="46.493722451850772" lon="11.687148353084922">
        <ele>1901.1400000000001</ele>
        <time>2018-03-03T11:20:53Z</time>
      </trkpt>
      <trkpt lat="46.493714321404696" lon="11.687034778296947">
        <ele>1901.1400000000001</ele>
        <time>2018-03-03T11:21:02Z</time>
      </trkpt>
      <trkpt lat="46.493712561205029" lon="11.687021031975746">
        <ele>1901.1400000000001</ele>
        <time>2018-03-03T11:21:03Z</time>
      </trkpt>
      <trkpt lat="46.493696384131908" lon="11.686931848526001">
        <ele>1900.6600000000001</ele>
        <time>2018-03-03T11:21:09Z</time>
      </trkpt>
      <trkpt lat="46.493696887046099" lon="11.686788517981768">
        <ele>1901.1400000000001</ele>
        <time>2018-03-03T11:21:19Z</time>
      </trkpt>
      <trkpt lat="46.493702251464128" lon="11.686712577939034">
        <ele>1901.1400000000001</ele>
        <time>2018-03-03T11:21:24Z</time>
      </trkpt>
      <trkpt lat="46.493703676387668" lon="11.686668572947383">
        <ele>1901.1400000000001</ele>
        <time>2018-03-03T11:21:27Z</time>
      </trkpt>
      <trkpt lat="46.493713231757283" lon="11.686598332598805">
        <ele>1902.1099999999999</ele>
        <time>2018-03-03T11:21:32Z</time>
      </trkpt>
      <trkpt lat="46.493726978078485" lon="11.686444440856576">
        <ele>1901.1400000000001</ele>
        <time>2018-03-03T11:21:42Z</time>
      </trkpt>
      <trkpt lat="46.493730498477817" lon="11.686426587402821">
        <ele>1901.1400000000001</ele>
        <time>2018-03-03T11:21:43Z</time>
      </trkpt>
      <trkpt lat="46.493727983906865" lon="11.68634888716042">
        <ele>1901.1400000000001</ele>
        <time>2018-03-03T11:21:47Z</time>
      </trkpt>
      <trkpt lat="46.493733935058117" lon="11.686224332079291">
        <ele>1901.1400000000001</ele>
        <time>2018-03-03T11:21:56Z</time>
      </trkpt>
      <trkpt lat="46.493751369416714" lon="11.68612165376544">
        <ele>1901.6300000000001</ele>
        <time>2018-03-03T11:22:03Z</time>
      </trkpt>
      <trkpt lat="46.493759583681822" lon="11.686032051220536">
        <ele>1901.6300000000001</ele>
        <time>2018-03-03T11:22:09Z</time>
      </trkpt>
      <trkpt lat="46.493779364973307" lon="11.685979245230556">
        <ele>1902.1099999999999</ele>
        <time>2018-03-03T11:22:13Z</time>
      </trkpt>
      <trkpt lat="46.493780706077814" lon="11.685913698747754">
        <ele>1902.5899999999999</ele>
        <time>2018-03-03T11:22:17Z</time>
      </trkpt>
      <trkpt lat="46.493790931999683" lon="11.685883775353432">
        <ele>1902.5899999999999</ele>
        <time>2018-03-03T11:22:20Z</time>
      </trkpt>
      <trkpt lat="46.493796296417713" lon="11.685816217213869">
        <ele>1902.5899999999999</ele>
        <time>2018-03-03T11:22:25Z</time>
      </trkpt>
      <trkpt lat="46.493801744654775" lon="11.685688644647598">
        <ele>1902.5899999999999</ele>
        <time>2018-03-03T11:22:35Z</time>
      </trkpt>
      <trkpt lat="46.493805265054107" lon="11.685675149783492">
        <ele>1902.5899999999999</ele>
        <time>2018-03-03T11:22:36Z</time>
      </trkpt>
      <trkpt lat="46.49382010102272" lon="11.685552354902029">
        <ele>1903.0699999999999</ele>
        <time>2018-03-03T11:22:45Z</time>
      </trkpt>
      <trkpt lat="46.493820603936911" lon="11.685541793704033">
        <ele>1903.0699999999999</ele>
        <time>2018-03-03T11:22:46Z</time>
      </trkpt>
      <trkpt lat="46.49382546544075" lon="11.685491921380162">
        <ele>1903.0699999999999</ele>
        <time>2018-03-03T11:22:50Z</time>
      </trkpt>
      <trkpt lat="46.493831919506192" lon="11.685340460389853">
        <ele>1903.55</ele>
        <time>2018-03-03T11:23:00Z</time>
      </trkpt>
      <trkpt lat="46.493853125721216" lon="11.685218336060643">
        <ele>1903.55</ele>
        <time>2018-03-03T11:23:09Z</time>
      </trkpt>
      <trkpt lat="46.493862848728895" lon="11.685186987742782">
        <ele>1904.03</ele>
        <time>2018-03-03T11:23:12Z</time>
      </trkpt>
      <trkpt lat="46.493893191218376" lon="11.685049273073673">
        <ele>1904.51</ele>
        <time>2018-03-03T11:23:23Z</time>
      </trkpt>
      <trkpt lat="46.493909535929561" lon="11.685006860643625">
        <ele>1904.51</ele>
        <time>2018-03-03T11:23:30Z</time>
      </trkpt>
      <trkpt lat="46.493935687467456" lon="11.685026222839952">
        <ele>1904.51</ele>
        <time>2018-03-03T11:23:45Z</time>
      </trkpt>
      <trkpt lat="46.493980446830392" lon="11.684923879802227">
        <ele>1904.51</ele>
        <time>2018-03-03T11:23:55Z</time>
      </trkpt>
      <trkpt lat="46.494000647217035" lon="11.684873001649976">
        <ele>1904.51</ele>
        <time>2018-03-03T11:23:59Z</time>
      </trkpt>
      <trkpt lat="46.494039706885815" lon="11.684739142656326">
        <ele>1904.51</ele>
        <time>2018-03-03T11:24:09Z</time>
      </trkpt>
      <trkpt lat="46.49404926225543" lon="11.684676697477698">
        <ele>1904.51</ele>
        <time>2018-03-03T11:24:13Z</time>
      </trkpt>
      <trkpt lat="46.494054710492492" lon="11.684631602838635">
        <ele>1904.51</ele>
        <time>2018-03-03T11:24:16Z</time>
      </trkpt>
      <trkpt lat="46.494075832888484" lon="11.684606540948153">
        <ele>1904.51</ele>
        <time>2018-03-03T11:24:25Z</time>
      </trkpt>
      <trkpt lat="46.494089579209685" lon="11.684453068301082">
        <ele>1904.51</ele>
        <time>2018-03-03T11:24:34Z</time>
      </trkpt>
      <trkpt lat="46.494102906435728" lon="11.684307307004929">
        <ele>1904.51</ele>
        <time>2018-03-03T11:24:44Z</time>
      </trkpt>
      <trkpt lat="46.494102738797665" lon="11.684183003380895">
        <ele>1905.47</ele>
        <time>2018-03-03T11:24:52Z</time>
      </trkpt>
      <trkpt lat="46.494105756282806" lon="11.684161964803934">
        <ele>1904.99</ele>
        <time>2018-03-03T11:24:54Z</time>
      </trkpt>
      <trkpt lat="46.494113299995661" lon="11.684106811881065">
        <ele>1905.47</ele>
        <time>2018-03-03T11:24:58Z</time>
      </trkpt>
      <trkpt lat="46.494111372157931" lon="11.68407772667706">
        <ele>1905.47</ele>
        <time>2018-03-03T11:25:00Z</time>
      </trkpt>
      <trkpt lat="46.494115395471454" lon="11.684036906808615">
        <ele>1905.47</ele>
        <time>2018-03-03T11:25:03Z</time>
      </trkpt>
      <trkpt lat="46.494113802909851" lon="11.683984436094761">
        <ele>1905.95</ele>
        <time>2018-03-03T11:25:06Z</time>
      </trkpt>
      <trkpt lat="46.494119167327881" lon="11.683960715308785">
        <ele>1905.95</ele>
        <time>2018-03-03T11:25:07Z</time>
      </trkpt>
      <trkpt lat="46.494133584201336" lon="11.683887289837003">
        <ele>1905.95</ele>
        <time>2018-03-03T11:25:12Z</time>
      </trkpt>
      <trkpt lat="46.494158646091819" lon="11.683788970112801">
        <ele>1906.4300000000001</ele>
        <time>2018-03-03T11:25:21Z</time>
      </trkpt>
      <trkpt lat="46.494166357442737" lon="11.683758795261383">
        <ele>1906.4300000000001</ele>
        <time>2018-03-03T11:25:24Z</time>
      </trkpt>
      <trkpt lat="46.494170632213354" lon="11.68365117162466">
        <ele>1907.8699999999999</ele>
        <time>2018-03-03T11:25:34Z</time>
      </trkpt>
      <trkpt lat="46.494153868407011" lon="11.683587301522493">
        <ele>1907.3900000000001</ele>
        <time>2018-03-03T11:25:39Z</time>
      </trkpt>
      <trkpt lat="46.494127800688148" lon="11.683461656793952">
        <ele>1907.3900000000001</ele>
        <time>2018-03-03T11:25:49Z</time>
      </trkpt>
      <trkpt lat="46.494129728525877" lon="11.683411030098796">
        <ele>1907.8699999999999</ele>
        <time>2018-03-03T11:25:53Z</time>
      </trkpt>
      <trkpt lat="46.494135847315192" lon="11.68329250998795">
        <ele>1908.8299999999999</ele>
        <time>2018-03-03T11:26:03Z</time>
      </trkpt>
      <trkpt lat="46.494128052145243" lon="11.683254204690456">
        <ele>1908.8299999999999</ele>
        <time>2018-03-03T11:26:06Z</time>
      </trkpt>
      <trkpt lat="46.494125286117196" lon="11.68320894241333">
        <ele>1909.3199999999999</ele>
        <time>2018-03-03T11:26:10Z</time>
      </trkpt>
      <trkpt lat="46.494119167327881" lon="11.68307357467711">
        <ele>1909.8</ele>
        <time>2018-03-03T11:26:20Z</time>
      </trkpt>
      <trkpt lat="46.49411765858531" lon="11.683017835021019">
        <ele>1909.8</ele>
        <time>2018-03-03T11:26:24Z</time>
      </trkpt>
      <trkpt lat="46.494113551452756" lon="11.682924879714847">
        <ele>1909.3199999999999</ele>
        <time>2018-03-03T11:26:30Z</time>
      </trkpt>
      <trkpt lat="46.494109779596329" lon="11.682821698486805">
        <ele>1909.8</ele>
        <time>2018-03-03T11:26:37Z</time>
      </trkpt>
      <trkpt lat="46.494099050760269" lon="11.682739304378629">
        <ele>1909.3199999999999</ele>
        <time>2018-03-03T11:26:43Z</time>
      </trkpt>
      <trkpt lat="46.494073234498501" lon="11.682633608579636">
        <ele>1909.8</ele>
        <time>2018-03-03T11:26:52Z</time>
      </trkpt>
      <trkpt lat="46.494042724370956" lon="11.682541742920876">
        <ele>1910.28</ele>
        <time>2018-03-03T11:27:00Z</time>
      </trkpt>
      <trkpt lat="46.494032666087151" lon="11.682518860325217">
        <ele>1910.28</ele>
        <time>2018-03-03T11:27:02Z</time>
      </trkpt>
      <trkpt lat="46.493991930037737" lon="11.682385168969631">
        <ele>1910.28</ele>
        <time>2018-03-03T11:27:13Z</time>
      </trkpt>
      <trkpt lat="46.493954630568624" lon="11.682280981913209">
        <ele>1910.76</ele>
        <time>2018-03-03T11:27:22Z</time>
      </trkpt>
      <trkpt lat="46.493944823741913" lon="11.682258015498519">
        <ele>1910.76</ele>
        <time>2018-03-03T11:27:24Z</time>
      </trkpt>
      <trkpt lat="46.493938956409693" lon="11.682214932516217">
        <ele>1911.24</ele>
        <time>2018-03-03T11:27:28Z</time>
      </trkpt>
      <trkpt lat="46.493910038843751" lon="11.682139663025737">
        <ele>1911.24</ele>
        <time>2018-03-03T11:27:34Z</time>
      </trkpt>
      <trkpt lat="46.493879361078143" lon="11.682026674970984">
        <ele>1911.24</ele>
        <time>2018-03-03T11:27:43Z</time>
      </trkpt>
      <trkpt lat="46.493873745203018" lon="11.681885523721576">
        <ele>1911.72</ele>
        <time>2018-03-03T11:27:53Z</time>
      </trkpt>
      <trkpt lat="46.493896124884486" lon="11.681886613368988">
        <ele>1911.72</ele>
        <time>2018-03-03T11:28:01Z</time>
      </trkpt>
      <trkpt lat="46.493883216753602" lon="11.681890888139606">
        <ele>1911.72</ele>
        <time>2018-03-03T11:28:10Z</time>
      </trkpt>
      <trkpt lat="46.49387676268816" lon="11.681859875097871">
        <ele>1911.72</ele>
        <time>2018-03-03T11:28:19Z</time>
      </trkpt>
      <trkpt lat="46.493868799880147" lon="11.681802794337273">
        <ele>1911.72</ele>
        <time>2018-03-03T11:28:23Z</time>
      </trkpt>
      <trkpt lat="46.493865279480815" lon="11.681768093258142">
        <ele>1912.2</ele>
        <time>2018-03-03T11:28:25Z</time>
      </trkpt>
      <trkpt lat="46.493869721889496" lon="11.681711263954639">
        <ele>1912.2</ele>
        <time>2018-03-03T11:28:29Z</time>
      </trkpt>
      <trkpt lat="46.493868296965957" lon="11.681664492934942">
        <ele>1912.2</ele>
        <time>2018-03-03T11:28:33Z</time>
      </trkpt>
      <trkpt lat="46.493867207318544" lon="11.681604562327266">
        <ele>1912.2</ele>
        <time>2018-03-03T11:28:37Z</time>
      </trkpt>
      <trkpt lat="46.493863938376307" lon="11.681470116600394">
        <ele>1912.6800000000001</ele>
        <time>2018-03-03T11:28:46Z</time>
      </trkpt>
      <trkpt lat="46.493866788223386" lon="11.681405995041132">
        <ele>1913.1600000000001</ele>
        <time>2018-03-03T11:28:50Z</time>
      </trkpt>
      <trkpt lat="46.493867877870798" lon="11.681328546255827">
        <ele>1913.1600000000001</ele>
        <time>2018-03-03T11:28:55Z</time>
      </trkpt>
      <trkpt lat="46.493860585615039" lon="11.681294180452824">
        <ele>1913.1600000000001</ele>
        <time>2018-03-03T11:28:57Z</time>
      </trkpt>
      <trkpt lat="46.493863267824054" lon="11.681259395554662">
        <ele>1913.1600000000001</ele>
        <time>2018-03-03T11:28:59Z</time>
      </trkpt>
      <trkpt lat="46.493860334157944" lon="11.681152526289225">
        <ele>1913.6400000000001</ele>
        <time>2018-03-03T11:29:07Z</time>
      </trkpt>
      <trkpt lat="46.49386796168983" lon="11.681098463013768">
        <ele>1913.6400000000001</ele>
        <time>2018-03-03T11:29:11Z</time>
      </trkpt>
      <trkpt lat="46.493865447118878" lon="11.68103308416903">
        <ele>1913.6400000000001</ele>
        <time>2018-03-03T11:29:16Z</time>
      </trkpt>
      <trkpt lat="46.493859076872468" lon="11.680917330086231">
        <ele>1914.1199999999999</ele>
        <time>2018-03-03T11:29:25Z</time>
      </trkpt>
      <trkpt lat="46.493858657777309" lon="11.680908529087901">
        <ele>1914.1199999999999</ele>
        <time>2018-03-03T11:29:26Z</time>
      </trkpt>
      <trkpt lat="46.493858322501183" lon="11.680781710892916">
        <ele>1915.5599999999999</ele>
        <time>2018-03-03T11:29:36Z</time>
      </trkpt>
      <trkpt lat="46.493855472654104" lon="11.680686576291919">
        <ele>1915.5599999999999</ele>
        <time>2018-03-03T11:29:45Z</time>
      </trkpt>
      <trkpt lat="46.493846168741584" lon="11.68055422604084">
        <ele>1917.01</ele>
        <time>2018-03-03T11:29:57Z</time>
      </trkpt>
      <trkpt lat="46.493849856778979" lon="11.680425060912967">
        <ele>1917.97</ele>
        <time>2018-03-03T11:30:08Z</time>
      </trkpt>
      <trkpt lat="46.493850694969296" lon="11.680403854697943">
        <ele>1917.97</ele>
        <time>2018-03-03T11:30:11Z</time>
      </trkpt>
      <trkpt lat="46.493848264217377" lon="11.680331435054541">
        <ele>1917.97</ele>
        <time>2018-03-03T11:30:21Z</time>
      </trkpt>
      <trkpt lat="46.493850024417043" lon="11.68031919747591">
        <ele>1917.97</ele>
        <time>2018-03-03T11:30:27Z</time>
      </trkpt>
      <trkpt lat="46.493834601715207" lon="11.680185003206134">
        <ele>1917.97</ele>
        <time>2018-03-03T11:30:37Z</time>
      </trkpt>
      <trkpt lat="46.493831081315875" lon="11.680142758414149">
        <ele>1917.97</ele>
        <time>2018-03-03T11:30:40Z</time>
      </trkpt>
      <trkpt lat="46.493826722726226" lon="11.680119708180428">
        <ele>1917.97</ele>
        <time>2018-03-03T11:30:42Z</time>
      </trkpt>
      <trkpt lat="46.493820939213037" lon="11.68004066683352">
        <ele>1917.97</ele>
        <time>2018-03-03T11:30:48Z</time>
      </trkpt>
      <trkpt lat="46.4938073605299" lon="11.679905382916331">
        <ele>1918.45</ele>
        <time>2018-03-03T11:30:58Z</time>
      </trkpt>
      <trkpt lat="46.493812641128898" lon="11.679873364046216">
        <ele>1918.45</ele>
        <time>2018-03-03T11:31:00Z</time>
      </trkpt>
      <trkpt lat="46.493830159306526" lon="11.679731961339712">
        <ele>1918.9300000000001</ele>
        <time>2018-03-03T11:31:10Z</time>
      </trkpt>
      <trkpt lat="46.493831081315875" lon="11.679716622456908">
        <ele>1919.4100000000001</ele>
        <time>2018-03-03T11:31:11Z</time>
      </trkpt>
      <trkpt lat="46.493859747424722" lon="11.679593324661255">
        <ele>1919.8900000000001</ele>
        <time>2018-03-03T11:31:21Z</time>
      </trkpt>
      <trkpt lat="46.493873242288828" lon="11.67946944013238">
        <ele>1920.8499999999999</ele>
        <time>2018-03-03T11:31:30Z</time>
      </trkpt>
      <trkpt lat="46.493894616141915" lon="11.679379502311349">
        <ele>1920.8499999999999</ele>
        <time>2018-03-03T11:31:36Z</time>
      </trkpt>
      <trkpt lat="46.493895789608359" lon="11.679328288882971">
        <ele>1921.3299999999999</ele>
        <time>2018-03-03T11:31:40Z</time>
      </trkpt>
      <trkpt lat="46.493911296129227" lon="11.679284702986479">
        <ele>1920.8499999999999</ele>
        <time>2018-03-03T11:31:43Z</time>
      </trkpt>
      <trkpt lat="46.493922360241413" lon="11.679237596690655">
        <ele>1920.8499999999999</ele>
        <time>2018-03-03T11:31:46Z</time>
      </trkpt>
      <trkpt lat="46.493929736316204" lon="11.679193256422877">
        <ele>1920.8499999999999</ele>
        <time>2018-03-03T11:31:49Z</time>
      </trkpt>
      <trkpt lat="46.493952954187989" lon="11.679100636392832">
        <ele>1920.3699999999999</ele>
        <time>2018-03-03T11:31:57Z</time>
      </trkpt>
      <trkpt lat="46.493981452658772" lon="11.678984127938747">
        <ele>1920.8499999999999</ele>
        <time>2018-03-03T11:32:06Z</time>
      </trkpt>
      <trkpt lat="46.493964605033398" lon="11.67897935025394">
        <ele>1920.8499999999999</ele>
        <time>2018-03-03T11:32:22Z</time>
      </trkpt>
      <trkpt lat="46.493961587548256" lon="11.678965101018548">
        <ele>1920.8499999999999</ele>
        <time>2018-03-03T11:32:29Z</time>
      </trkpt>
      <trkpt lat="46.493975250050426" lon="11.678815400227904">
        <ele>1920.8499999999999</ele>
        <time>2018-03-03T11:32:40Z</time>
      </trkpt>
      <trkpt lat="46.493994947522879" lon="11.678690258413553">
        <ele>1921.3299999999999</ele>
        <time>2018-03-03T11:32:48Z</time>
      </trkpt>
      <trkpt lat="46.493999976664782" lon="11.678660754114389">
        <ele>1921.3299999999999</ele>
        <time>2018-03-03T11:32:50Z</time>
      </trkpt>
      <trkpt lat="46.494000060483813" lon="11.678642397746444">
        <ele>1921.8099999999999</ele>
        <time>2018-03-03T11:32:51Z</time>
      </trkpt>
      <trkpt lat="46.494007352739573" lon="11.678570816293359">
        <ele>1921.8099999999999</ele>
        <time>2018-03-03T11:32:56Z</time>
      </trkpt>
      <trkpt lat="46.49402042850852" lon="11.678477609530091">
        <ele>1921.8099999999999</ele>
        <time>2018-03-03T11:33:03Z</time>
      </trkpt>
      <trkpt lat="46.494023110717535" lon="11.678427485749125">
        <ele>1921.8099999999999</ele>
        <time>2018-03-03T11:33:06Z</time>
      </trkpt>
      <trkpt lat="46.494029648602009" lon="11.678366884589195">
        <ele>1921.8099999999999</ele>
        <time>2018-03-03T11:33:11Z</time>
      </trkpt>
      <trkpt lat="46.494027888402343" lon="11.678314246237278">
        <ele>1921.8099999999999</ele>
        <time>2018-03-03T11:33:14Z</time>
      </trkpt>
      <trkpt lat="46.494028307497501" lon="11.678245682269335">
        <ele>1921.8099999999999</ele>
        <time>2018-03-03T11:33:18Z</time>
      </trkpt>
      <trkpt lat="46.494029648602009" lon="11.678198575973511">
        <ele>1921.8099999999999</ele>
        <time>2018-03-03T11:33:22Z</time>
      </trkpt>
      <trkpt lat="46.494012465700507" lon="11.678076786920428">
        <ele>1922.29</ele>
        <time>2018-03-03T11:33:32Z</time>
      </trkpt>
      <trkpt lat="46.494023445993662" lon="11.678044516593218">
        <ele>1922.77</ele>
        <time>2018-03-03T11:33:40Z</time>
      </trkpt>
      <trkpt lat="46.494031324982643" lon="11.678054826334119">
        <ele>1922.77</ele>
        <time>2018-03-03T11:33:54Z</time>
      </trkpt>
      <trkpt lat="46.49403945542872" lon="11.678097657859325">
        <ele>1922.77</ele>
        <time>2018-03-03T11:34:06Z</time>
      </trkpt>
      <trkpt lat="46.494023948907852" lon="11.678079552948475">
        <ele>1921.8099999999999</ele>
        <time>2018-03-03T11:34:18Z</time>
      </trkpt>
      <trkpt lat="46.494028558954597" lon="11.678082067519426">
        <ele>1922.77</ele>
        <time>2018-03-03T11:34:35Z</time>
      </trkpt>
      <trkpt lat="46.494023948907852" lon="11.678079972043633">
        <ele>1922.77</ele>
        <time>2018-03-03T11:34:52Z</time>
      </trkpt>
      <trkpt lat="46.494032917544246" lon="11.678089778870344">
        <ele>1922.29</ele>
        <time>2018-03-03T11:35:12Z</time>
      </trkpt>
      <trkpt lat="46.494035348296165" lon="11.67812230065465">
        <ele>1921.8099999999999</ele>
        <time>2018-03-03T11:35:16Z</time>
      </trkpt>
      <trkpt lat="46.494038281962276" lon="11.678175274282694">
        <ele>1922.29</ele>
        <time>2018-03-03T11:35:20Z</time>
      </trkpt>
      <trkpt lat="46.494056135416031" lon="11.678257416933775">
        <ele>1922.29</ele>
        <time>2018-03-03T11:35:25Z</time>
      </trkpt>
      <trkpt lat="46.49408932775259" lon="11.678340062499046">
        <ele>1922.29</ele>
        <time>2018-03-03T11:35:31Z</time>
      </trkpt>
      <trkpt lat="46.4940922614187" lon="11.678368812426925">
        <ele>1921.8099999999999</ele>
        <time>2018-03-03T11:35:33Z</time>
      </trkpt>
      <trkpt lat="46.494096536189318" lon="11.678416253998876">
        <ele>1921.8099999999999</ele>
        <time>2018-03-03T11:35:36Z</time>
      </trkpt>
      <trkpt lat="46.49410005658865" lon="11.678461013361812">
        <ele>1922.77</ele>
        <time>2018-03-03T11:35:39Z</time>
      </trkpt>
      <trkpt lat="46.494099218398333" lon="11.678476603701711">
        <ele>1921.3299999999999</ele>
        <time>2018-03-03T11:35:40Z</time>
      </trkpt>
      <trkpt lat="46.494092093780637" lon="11.678506024181843">
        <ele>1921.3299999999999</ele>
        <time>2018-03-03T11:35:42Z</time>
      </trkpt>
      <trkpt lat="46.494083292782307" lon="11.678569810464978">
        <ele>1921.3299999999999</ele>
        <time>2018-03-03T11:35:46Z</time>
      </trkpt>
      <trkpt lat="46.49406929500401" lon="11.678656311705709">
        <ele>1920.8499999999999</ele>
        <time>2018-03-03T11:35:52Z</time>
      </trkpt>
      <trkpt lat="46.494064265862107" lon="11.678689336404204">
        <ele>1920.8499999999999</ele>
        <time>2018-03-03T11:35:54Z</time>
      </trkpt>
      <trkpt lat="46.494068037718534" lon="11.678748931735754">
        <ele>1921.3299999999999</ele>
        <time>2018-03-03T11:35:58Z</time>
      </trkpt>
      <trkpt lat="46.494064601138234" lon="11.678766785189509">
        <ele>1920.8499999999999</ele>
        <time>2018-03-03T11:35:59Z</time>
      </trkpt>
      <trkpt lat="46.494064517319202" lon="11.678801150992513">
        <ele>1920.8499999999999</ele>
        <time>2018-03-03T11:36:02Z</time>
      </trkpt>
      <trkpt lat="46.494067786261439" lon="11.678855130448937">
        <ele>1920.8499999999999</ele>
        <time>2018-03-03T11:36:06Z</time>
      </trkpt>
      <trkpt lat="46.494027553126216" lon="11.678959988057613">
        <ele>1920.8499999999999</ele>
        <time>2018-03-03T11:36:13Z</time>
      </trkpt>
      <trkpt lat="46.494041383266449" lon="11.6790194157511">
        <ele>1920.3699999999999</ele>
        <time>2018-03-03T11:36:17Z</time>
      </trkpt>
      <trkpt lat="46.494042053818703" lon="11.679036933928728">
        <ele>1920.3699999999999</ele>
        <time>2018-03-03T11:36:18Z</time>
      </trkpt>
      <trkpt lat="46.49404632858932" lon="11.679054452106357">
        <ele>1920.3699999999999</ele>
        <time>2018-03-03T11:36:19Z</time>
      </trkpt>
      <trkpt lat="46.494044065475464" lon="11.679081190377474">
        <ele>1920.3699999999999</ele>
        <time>2018-03-03T11:36:20Z</time>
      </trkpt>
      <trkpt lat="46.494051944464445" lon="11.679098373278975">
        <ele>1920.3699999999999</ele>
        <time>2018-03-03T11:36:21Z</time>
      </trkpt>
      <trkpt lat="46.49404289200902" lon="11.679108431562781">
        <ele>1920.8499999999999</ele>
        <time>2018-03-03T11:36:22Z</time>
      </trkpt>
      <trkpt lat="46.494036102667451" lon="11.679142294451594">
        <ele>1920.3699999999999</ele>
        <time>2018-03-03T11:36:25Z</time>
      </trkpt>
      <trkpt lat="46.494033504277468" lon="11.679199710488319">
        <ele>1920.3699999999999</ele>
        <time>2018-03-03T11:36:29Z</time>
      </trkpt>
      <trkpt lat="46.494024116545916" lon="11.679234830662608">
        <ele>1920.3699999999999</ele>
        <time>2018-03-03T11:36:31Z</time>
      </trkpt>
      <trkpt lat="46.494010789319873" lon="11.679274896159768">
        <ele>1920.8499999999999</ele>
        <time>2018-03-03T11:36:34Z</time>
      </trkpt>
      <trkpt lat="46.49396033026278" lon="11.679391907528043">
        <ele>1920.8499999999999</ele>
        <time>2018-03-03T11:36:42Z</time>
      </trkpt>
      <trkpt lat="46.493951193988323" lon="11.679465752094984">
        <ele>1920.8499999999999</ele>
        <time>2018-03-03T11:36:47Z</time>
      </trkpt>
      <trkpt lat="46.493946500122547" lon="11.679496597498655">
        <ele>1920.8499999999999</ele>
        <time>2018-03-03T11:36:49Z</time>
      </trkpt>
      <trkpt lat="46.493953289464116" lon="11.679578488692641">
        <ele>1920.8499999999999</ele>
        <time>2018-03-03T11:36:55Z</time>
      </trkpt>
      <trkpt lat="46.493960916996002" lon="11.679645795375109">
        <ele>1919.8900000000001</ele>
        <time>2018-03-03T11:37:00Z</time>
      </trkpt>
      <trkpt lat="46.493976507335901" lon="11.679685274139047">
        <ele>1919.4100000000001</ele>
        <time>2018-03-03T11:37:02Z</time>
      </trkpt>
      <trkpt lat="46.493972735479474" lon="11.679740091785789">
        <ele>1918.9300000000001</ele>
        <time>2018-03-03T11:37:06Z</time>
      </trkpt>
      <trkpt lat="46.493953792378306" lon="11.679801447317004">
        <ele>1918.45</ele>
        <time>2018-03-03T11:37:10Z</time>
      </trkpt>
      <trkpt lat="46.493942309170961" lon="11.679866909980774">
        <ele>1918.9300000000001</ele>
        <time>2018-03-03T11:37:14Z</time>
      </trkpt>
      <trkpt lat="46.493942057713866" lon="11.679894402623177">
        <ele>1918.45</ele>
        <time>2018-03-03T11:37:16Z</time>
      </trkpt>
      <trkpt lat="46.493941470980644" lon="11.679925080388784">
        <ele>1918.45</ele>
        <time>2018-03-03T11:37:18Z</time>
      </trkpt>
      <trkpt lat="46.493961168453097" lon="11.680029099807143">
        <ele>1918.45</ele>
        <time>2018-03-03T11:37:25Z</time>
      </trkpt>
      <trkpt lat="46.493953205645084" lon="11.680094227194786">
        <ele>1917.97</ele>
        <time>2018-03-03T11:37:30Z</time>
      </trkpt>
      <trkpt lat="46.493949014693499" lon="11.680123144760728">
        <ele>1917.97</ele>
        <time>2018-03-03T11:37:32Z</time>
      </trkpt>
      <trkpt lat="46.493957815691829" lon="11.680139405652881">
        <ele>1917.97</ele>
        <time>2018-03-03T11:37:33Z</time>
      </trkpt>
      <trkpt lat="46.49395739659667" lon="11.680155247449875">
        <ele>1917.97</ele>
        <time>2018-03-03T11:37:34Z</time>
      </trkpt>
      <trkpt lat="46.493975752964616" lon="11.680266810581088">
        <ele>1917.97</ele>
        <time>2018-03-03T11:37:41Z</time>
      </trkpt>
      <trkpt lat="46.493976591154933" lon="11.680279634892941">
        <ele>1918.45</ele>
        <time>2018-03-03T11:37:42Z</time>
      </trkpt>
      <trkpt lat="46.493969717994332" lon="11.68032213114202">
        <ele>1918.45</ele>
        <time>2018-03-03T11:37:45Z</time>
      </trkpt>
      <trkpt lat="46.493977513164282" lon="11.680338643491268">
        <ele>1917.97</ele>
        <time>2018-03-03T11:37:46Z</time>
      </trkpt>
      <trkpt lat="46.493971142917871" lon="11.680353311821818">
        <ele>1918.45</ele>
        <time>2018-03-03T11:37:47Z</time>
      </trkpt>
      <trkpt lat="46.493974914774299" lon="11.680366219952703">
        <ele>1918.45</ele>
        <time>2018-03-03T11:37:48Z</time>
      </trkpt>
      <trkpt lat="46.493967790156603" lon="11.680413410067558">
        <ele>1918.45</ele>
        <time>2018-03-03T11:37:51Z</time>
      </trkpt>
      <trkpt lat="46.493958150967956" lon="11.680437298491597">
        <ele>1918.45</ele>
        <time>2018-03-03T11:37:53Z</time>
      </trkpt>
      <trkpt lat="46.4939627610147" lon="11.680483734235168">
        <ele>1917.97</ele>
        <time>2018-03-03T11:37:55Z</time>
      </trkpt>
      <trkpt lat="46.493951948359609" lon="11.680519944056869">
        <ele>1917.97</ele>
        <time>2018-03-03T11:37:58Z</time>
      </trkpt>
      <trkpt lat="46.493950774893165" lon="11.680592196062207">
        <ele>1917.49</ele>
        <time>2018-03-03T11:38:03Z</time>
      </trkpt>
      <trkpt lat="46.493954546749592" lon="11.680628908798099">
        <ele>1917.49</ele>
        <time>2018-03-03T11:38:05Z</time>
      </trkpt>
      <trkpt lat="46.493976507335901" lon="11.680700490251184">
        <ele>1916.53</ele>
        <time>2018-03-03T11:38:09Z</time>
      </trkpt>
      <trkpt lat="46.493998719379306" lon="11.680781207978725">
        <ele>1915.5599999999999</ele>
        <time>2018-03-03T11:38:14Z</time>
      </trkpt>
      <trkpt lat="46.494006598368287" lon="11.680869301781058">
        <ele>1915.0799999999999</ele>
        <time>2018-03-03T11:38:19Z</time>
      </trkpt>
      <trkpt lat="46.494004167616367" lon="11.680885227397084">
        <ele>1914.5999999999999</ele>
        <time>2018-03-03T11:38:20Z</time>
      </trkpt>
      <trkpt lat="46.494014896452427" lon="11.680934345349669">
        <ele>1914.5999999999999</ele>
        <time>2018-03-03T11:38:22Z</time>
      </trkpt>
      <trkpt lat="46.494015734642744" lon="11.680999724194407">
        <ele>1914.5999999999999</ele>
        <time>2018-03-03T11:38:26Z</time>
      </trkpt>
      <trkpt lat="46.494024200364947" lon="11.681019589304924">
        <ele>1914.1199999999999</ele>
        <time>2018-03-03T11:38:27Z</time>
      </trkpt>
      <trkpt lat="46.49397399276495" lon="11.681148670613766">
        <ele>1914.1199999999999</ele>
        <time>2018-03-03T11:38:36Z</time>
      </trkpt>
      <trkpt lat="46.493903752416372" lon="11.681317398324609">
        <ele>1913.6400000000001</ele>
        <time>2018-03-03T11:38:46Z</time>
      </trkpt>
      <trkpt lat="46.493895035237074" lon="11.681470535695553">
        <ele>1913.1600000000001</ele>
        <time>2018-03-03T11:38:56Z</time>
      </trkpt>
      <trkpt lat="46.493894448503852" lon="11.681485706940293">
        <ele>1913.1600000000001</ele>
        <time>2018-03-03T11:38:57Z</time>
      </trkpt>
      <trkpt lat="46.493901908397675" lon="11.681614117696881">
        <ele>1912.6800000000001</ele>
        <time>2018-03-03T11:39:05Z</time>
      </trkpt>
      <trkpt lat="46.493907943367958" lon="11.681842356920242">
        <ele>1912.2</ele>
        <time>2018-03-03T11:39:19Z</time>
      </trkpt>
      <trkpt lat="46.493915822356939" lon="11.681998763233423">
        <ele>1911.72</ele>
        <time>2018-03-03T11:39:29Z</time>
      </trkpt>
      <trkpt lat="46.493947925046086" lon="11.682155421003699">
        <ele>1911.72</ele>
        <time>2018-03-03T11:39:40Z</time>
      </trkpt>
      <trkpt lat="46.493970472365618" lon="11.682231612503529">
        <ele>1911.72</ele>
        <time>2018-03-03T11:39:46Z</time>
      </trkpt>
      <trkpt lat="46.493991678580642" lon="11.682309815660119">
        <ele>1911.24</ele>
        <time>2018-03-03T11:39:51Z</time>
      </trkpt>
      <trkpt lat="46.49404683150351" lon="11.682462282478809">
        <ele>1910.76</ele>
        <time>2018-03-03T11:40:02Z</time>
      </trkpt>
      <trkpt lat="46.49410835467279" lon="11.682634195312858">
        <ele>1910.28</ele>
        <time>2018-03-03T11:40:14Z</time>
      </trkpt>
      <trkpt lat="46.49411229416728" lon="11.682645427063107">
        <ele>1910.76</ele>
        <time>2018-03-03T11:40:15Z</time>
      </trkpt>
      <trkpt lat="46.494145905598998" lon="11.68280091136694">
        <ele>1910.28</ele>
        <time>2018-03-03T11:40:26Z</time>
      </trkpt>
      <trkpt lat="46.494147498160601" lon="11.682927226647735">
        <ele>1909.8</ele>
        <time>2018-03-03T11:40:36Z</time>
      </trkpt>
      <trkpt lat="46.494142301380634" lon="11.683083716779947">
        <ele>1909.8</ele>
        <time>2018-03-03T11:40:46Z</time>
      </trkpt>
      <trkpt lat="46.494151270017028" lon="11.683223694562912">
        <ele>1909.8</ele>
        <time>2018-03-03T11:40:55Z</time>
      </trkpt>
      <trkpt lat="46.494161747395992" lon="11.683402564376593">
        <ele>1908.8299999999999</ele>
        <time>2018-03-03T11:41:06Z</time>
      </trkpt>
      <trkpt lat="46.494186725467443" lon="11.683610687032342">
        <ele>1907.3900000000001</ele>
        <time>2018-03-03T11:41:18Z</time>
      </trkpt>
      <trkpt lat="46.494199130684137" lon="11.683751670643687">
        <ele>1906.9100000000001</ele>
        <time>2018-03-03T11:41:30Z</time>
      </trkpt>
      <trkpt lat="46.494200136512518" lon="11.683758711442351">
        <ele>1906.9100000000001</ele>
        <time>2018-03-03T11:41:32Z</time>
      </trkpt>
      <trkpt lat="46.494191503152251" lon="11.683900784701109">
        <ele>1906.4300000000001</ele>
        <time>2018-03-03T11:41:41Z</time>
      </trkpt>
      <trkpt lat="46.494163172319531" lon="11.684052832424641">
        <ele>1905.95</ele>
        <time>2018-03-03T11:41:51Z</time>
      </trkpt>
      <trkpt lat="46.494142636656761" lon="11.684219129383564">
        <ele>1905.95</ele>
        <time>2018-03-03T11:42:02Z</time>
      </trkpt>
      <trkpt lat="46.494120676070452" lon="11.684394478797913">
        <ele>1904.99</ele>
        <time>2018-03-03T11:42:13Z</time>
      </trkpt>
      <trkpt lat="46.49411765858531" lon="11.684459187090397">
        <ele>1904.51</ele>
        <time>2018-03-03T11:42:17Z</time>
      </trkpt>
      <trkpt lat="46.494102738797665" lon="11.684612575918436">
        <ele>1904.51</ele>
        <time>2018-03-03T11:42:26Z</time>
      </trkpt>
      <trkpt lat="46.494083376601338" lon="11.684711650013924">
        <ele>1904.51</ele>
        <time>2018-03-03T11:42:33Z</time>
      </trkpt>
      <trkpt lat="46.494065523147583" lon="11.684809634461999">
        <ele>1904.99</ele>
        <time>2018-03-03T11:42:40Z</time>
      </trkpt>
      <trkpt lat="46.494049932807684" lon="11.684835366904736">
        <ele>1904.51</ele>
        <time>2018-03-03T11:42:42Z</time>
      </trkpt>
      <trkpt lat="46.494023781269789" lon="11.684920527040958">
        <ele>1904.51</ele>
        <time>2018-03-03T11:42:49Z</time>
      </trkpt>
      <trkpt lat="46.493957061320543" lon="11.685066539794207">
        <ele>1904.51</ele>
        <time>2018-03-03T11:43:00Z</time>
      </trkpt>
      <trkpt lat="46.493916492909193" lon="11.685171397402883">
        <ele>1904.51</ele>
        <time>2018-03-03T11:43:08Z</time>
      </trkpt>
      <trkpt lat="46.493886653333902" lon="11.685333922505379">
        <ele>1904.03</ele>
        <time>2018-03-03T11:43:19Z</time>
      </trkpt>
      <trkpt lat="46.493858154863119" lon="11.685474570840597">
        <ele>1904.03</ele>
        <time>2018-03-03T11:43:29Z</time>
      </trkpt>
      <trkpt lat="46.493855556473136" lon="11.685585714876652">
        <ele>1903.55</ele>
        <time>2018-03-03T11:43:37Z</time>
      </trkpt>
      <trkpt lat="46.493844911456108" lon="11.685734409838915">
        <ele>1903.55</ele>
        <time>2018-03-03T11:43:47Z</time>
      </trkpt>
      <trkpt lat="46.49383133277297" lon="11.685884278267622">
        <ele>1903.0699999999999</ele>
        <time>2018-03-03T11:43:57Z</time>
      </trkpt>
      <trkpt lat="46.493819262832403" lon="11.686037415638566">
        <ele>1902.5899999999999</ele>
        <time>2018-03-03T11:44:07Z</time>
      </trkpt>
      <trkpt lat="46.493784058839083" lon="11.686207232996821">
        <ele>1902.1099999999999</ele>
        <time>2018-03-03T11:44:19Z</time>
      </trkpt>
      <trkpt lat="46.493765031918883" lon="11.686368836089969">
        <ele>1901.6300000000001</ele>
        <time>2018-03-03T11:44:30Z</time>
      </trkpt>
      <trkpt lat="46.493749022483826" lon="11.68650277890265">
        <ele>1902.1099999999999</ele>
        <time>2018-03-03T11:44:40Z</time>
      </trkpt>
      <trkpt lat="46.493741562590003" lon="11.68653404340148">
        <ele>1902.1099999999999</ele>
        <time>2018-03-03T11:44:42Z</time>
      </trkpt>
      <trkpt lat="46.493740389123559" lon="11.686631944030523">
        <ele>1901.6300000000001</ele>
        <time>2018-03-03T11:44:48Z</time>
      </trkpt>
      <trkpt lat="46.493740556761622" lon="11.686768652871251">
        <ele>1901.6300000000001</ele>
        <time>2018-03-03T11:44:57Z</time>
      </trkpt>
      <trkpt lat="46.493737539276481" lon="11.686938218772411">
        <ele>1901.6300000000001</ele>
        <time>2018-03-03T11:45:09Z</time>
      </trkpt>
      <trkpt lat="46.493737371638417" lon="11.687110969796777">
        <ele>1901.6300000000001</ele>
        <time>2018-03-03T11:45:21Z</time>
      </trkpt>
      <trkpt lat="46.493754470720887" lon="11.68724600225687">
        <ele>1901.1400000000001</ele>
        <time>2018-03-03T11:45:30Z</time>
      </trkpt>
      <trkpt lat="46.493753967806697" lon="11.687257485464215">
        <ele>1901.6300000000001</ele>
        <time>2018-03-03T11:45:31Z</time>
      </trkpt>
      <trkpt lat="46.49377953261137" lon="11.687385560944676">
        <ele>1900.6600000000001</ele>
        <time>2018-03-03T11:45:39Z</time>
      </trkpt>
      <trkpt lat="46.493758410215378" lon="11.687477929517627">
        <ele>1900.1800000000001</ele>
        <time>2018-03-03T11:45:46Z</time>
      </trkpt>
      <trkpt lat="46.493738712742925" lon="11.68766132555902">
        <ele>1899.7</ele>
        <time>2018-03-03T11:45:58Z</time>
      </trkpt>
      <trkpt lat="46.493710549548268" lon="11.687827203422785">
        <ele>1899.22</ele>
        <time>2018-03-03T11:46:08Z</time>
      </trkpt>
      <trkpt lat="46.493704682216048" lon="11.687873639166355">
        <ele>1898.74</ele>
        <time>2018-03-03T11:46:11Z</time>
      </trkpt>
      <trkpt lat="46.493690768256783" lon="11.687960810959339">
        <ele>1898.74</ele>
        <time>2018-03-03T11:46:16Z</time>
      </trkpt>
      <trkpt lat="46.493679955601692" lon="11.688070362433791">
        <ele>1898.26</ele>
        <time>2018-03-03T11:46:23Z</time>
      </trkpt>
      <trkpt lat="46.493651792407036" lon="11.688165999948978">
        <ele>1897.78</ele>
        <time>2018-03-03T11:46:29Z</time>
      </trkpt>
      <trkpt lat="46.493650618940592" lon="11.688291225582361">
        <ele>1897.78</ele>
        <time>2018-03-03T11:46:37Z</time>
      </trkpt>
      <trkpt lat="46.493645505979657" lon="11.688320813700557">
        <ele>1897.3</ele>
        <time>2018-03-03T11:46:39Z</time>
      </trkpt>
      <trkpt lat="46.493622791022062" lon="11.688483087345958">
        <ele>1897.3</ele>
        <time>2018-03-03T11:46:49Z</time>
      </trkpt>
      <trkpt lat="46.493616001680493" lon="11.688560452312231">
        <ele>1896.8199999999999</ele>
        <time>2018-03-03T11:46:54Z</time>
      </trkpt>
      <trkpt lat="46.493595968931913" lon="11.688718115910888">
        <ele>1896.3399999999999</ele>
        <time>2018-03-03T11:47:04Z</time>
      </trkpt>
      <trkpt lat="46.493588844314218" lon="11.688762791454792">
        <ele>1896.3399999999999</ele>
        <time>2018-03-03T11:47:07Z</time>
      </trkpt>
      <trkpt lat="46.493580378592014" lon="11.688878294080496">
        <ele>1896.3399999999999</ele>
        <time>2018-03-03T11:47:14Z</time>
      </trkpt>
      <trkpt lat="46.493570739403367" lon="11.688961442559958">
        <ele>1895.3800000000001</ele>
        <time>2018-03-03T11:47:19Z</time>
      </trkpt>
      <trkpt lat="46.493557915091515" lon="11.689150286838412">
        <ele>1895.3800000000001</ele>
        <time>2018-03-03T11:47:30Z</time>
      </trkpt>
      <trkpt lat="46.493542408570647" lon="11.689350865781307">
        <ele>1893.9300000000001</ele>
        <time>2018-03-03T11:47:42Z</time>
      </trkpt>
      <trkpt lat="46.493532769382" lon="11.689559826627374">
        <ele>1893.45</ele>
        <time>2018-03-03T11:47:54Z</time>
      </trkpt>
      <trkpt lat="46.493528829887509" lon="11.689710533246398">
        <ele>1892.49</ele>
        <time>2018-03-03T11:48:03Z</time>
      </trkpt>
      <trkpt lat="46.493525309488177" lon="11.689729476347566">
        <ele>1892.97</ele>
        <time>2018-03-03T11:48:04Z</time>
      </trkpt>
      <trkpt lat="46.493522962555289" lon="11.689780354499817">
        <ele>1892.49</ele>
        <time>2018-03-03T11:48:07Z</time>
      </trkpt>
      <trkpt lat="46.493517262861133" lon="11.689850930124521">
        <ele>1892.49</ele>
        <time>2018-03-03T11:48:11Z</time>
      </trkpt>
      <trkpt lat="46.493496894836426" lon="11.690012197941542">
        <ele>1892.01</ele>
        <time>2018-03-03T11:48:21Z</time>
      </trkpt>
      <trkpt lat="46.493497313931584" lon="11.690029297024012">
        <ele>1892.49</ele>
        <time>2018-03-03T11:48:22Z</time>
      </trkpt>
      <trkpt lat="46.493483316153288" lon="11.690136669203639">
        <ele>1892.01</ele>
        <time>2018-03-03T11:48:29Z</time>
      </trkpt>
      <trkpt lat="46.493475520983338" lon="11.690298523753881">
        <ele>1891.53</ele>
        <time>2018-03-03T11:48:39Z</time>
      </trkpt>
      <trkpt lat="46.493459427729249" lon="11.690437076613307">
        <ele>1891.53</ele>
        <time>2018-03-03T11:48:47Z</time>
      </trkpt>
      <trkpt lat="46.493444843217731" lon="11.690591387450695">
        <ele>1891.05</ele>
        <time>2018-03-03T11:48:57Z</time>
      </trkpt>
      <trkpt lat="46.493430007249117" lon="11.69070940464735">
        <ele>1890.5699999999999</ele>
        <time>2018-03-03T11:49:05Z</time>
      </trkpt>
      <trkpt lat="46.4934291690588" lon="11.690744441002607">
        <ele>1890.5699999999999</ele>
        <time>2018-03-03T11:49:07Z</time>
      </trkpt>
      <trkpt lat="46.493411734700203" lon="11.690907049924135">
        <ele>1890.0899999999999</ele>
        <time>2018-03-03T11:49:17Z</time>
      </trkpt>
      <trkpt lat="46.493399161845446" lon="11.691039316356182">
        <ele>1889.6099999999999</ele>
        <time>2018-03-03T11:49:25Z</time>
      </trkpt>
      <trkpt lat="46.493373513221741" lon="11.691210810095072">
        <ele>1890.0899999999999</ele>
        <time>2018-03-03T11:49:36Z</time>
      </trkpt>
      <trkpt lat="46.493363874033093" lon="11.691281385719776">
        <ele>1889.6099999999999</ele>
        <time>2018-03-03T11:49:40Z</time>
      </trkpt>
      <trkpt lat="46.493348451331258" lon="11.691345172002912">
        <ele>1889.6099999999999</ele>
        <time>2018-03-03T11:49:44Z</time>
      </trkpt>
      <trkpt lat="46.493294136598706" lon="11.691525466740131">
        <ele>1889.1300000000001</ele>
        <time>2018-03-03T11:49:56Z</time>
      </trkpt>
      <trkpt lat="46.493250802159309" lon="11.691683297976851">
        <ele>1888.6500000000001</ele>
        <time>2018-03-03T11:50:06Z</time>
      </trkpt>
      <trkpt lat="46.493203025311232" lon="11.691874489188194">
        <ele>1888.1700000000001</ele>
        <time>2018-03-03T11:50:18Z</time>
      </trkpt>
      <trkpt lat="46.493202019482851" lon="11.691894689574838">
        <ele>1888.1700000000001</ele>
        <time>2018-03-03T11:50:19Z</time>
      </trkpt>
      <trkpt lat="46.493166144937277" lon="11.692042797803879">
        <ele>1887.21</ele>
        <time>2018-03-03T11:50:28Z</time>
      </trkpt>
      <trkpt lat="46.4931511413306" lon="11.692144302651286">
        <ele>1886.72</ele>
        <time>2018-03-03T11:50:34Z</time>
      </trkpt>
      <trkpt lat="46.493121469393373" lon="11.69223147444427">
        <ele>1886.72</ele>
        <time>2018-03-03T11:50:40Z</time>
      </trkpt>
      <trkpt lat="46.493115769699216" lon="11.6922627389431">
        <ele>1886.72</ele>
        <time>2018-03-03T11:50:42Z</time>
      </trkpt>
      <trkpt lat="46.493082828819752" lon="11.692416798323393">
        <ele>1886.24</ele>
        <time>2018-03-03T11:50:52Z</time>
      </trkpt>
      <trkpt lat="46.493044104427099" lon="11.692566499114037">
        <ele>1885.76</ele>
        <time>2018-03-03T11:51:02Z</time>
      </trkpt>
      <trkpt lat="46.493043266236782" lon="11.69258619658649">
        <ele>1885.76</ele>
        <time>2018-03-03T11:51:03Z</time>
      </trkpt>
      <trkpt lat="46.493024490773678" lon="11.692691305652261">
        <ele>1885.76</ele>
        <time>2018-03-03T11:51:10Z</time>
      </trkpt>
      <trkpt lat="46.492985179647803" lon="11.6928412579">
        <ele>1885.28</ele>
        <time>2018-03-03T11:51:20Z</time>
      </trkpt>
      <trkpt lat="46.492961458861828" lon="11.692938320338726">
        <ele>1885.28</ele>
        <time>2018-03-03T11:51:26Z</time>
      </trkpt>
      <trkpt lat="46.492951484397054" lon="11.693013673648238">
        <ele>1884.8</ele>
        <time>2018-03-03T11:51:31Z</time>
      </trkpt>
      <trkpt lat="46.492916280403733" lon="11.693189861252904">
        <ele>1884.8</ele>
        <time>2018-03-03T11:51:43Z</time>
      </trkpt>
      <trkpt lat="46.492915945127606" lon="11.693207798525691">
        <ele>1884.3199999999999</ele>
        <time>2018-03-03T11:51:44Z</time>
      </trkpt>
      <trkpt lat="46.492891386151314" lon="11.693319194018841">
        <ele>1884.3199999999999</ele>
        <time>2018-03-03T11:51:51Z</time>
      </trkpt>
      <trkpt lat="46.49287847802043" lon="11.693408545106649">
        <ele>1884.3199999999999</ele>
        <time>2018-03-03T11:51:57Z</time>
      </trkpt>
      <trkpt lat="46.492855008691549" lon="11.693568220362067">
        <ele>1883.8399999999999</ele>
        <time>2018-03-03T11:52:07Z</time>
      </trkpt>
      <trkpt lat="46.4928506501019" lon="11.693620355799794">
        <ele>1883.8399999999999</ele>
        <time>2018-03-03T11:52:10Z</time>
      </trkpt>
      <trkpt lat="46.492820810526609" lon="11.69372420758009">
        <ele>1882.8800000000001</ele>
        <time>2018-03-03T11:52:16Z</time>
      </trkpt>
      <trkpt lat="46.492790384218097" lon="11.693915985524654">
        <ele>1882.4000000000001</ele>
        <time>2018-03-03T11:52:28Z</time>
      </trkpt>
      <trkpt lat="46.492777476087213" lon="11.694012628868222">
        <ele>1881.9200000000001</ele>
        <time>2018-03-03T11:52:34Z</time>
      </trkpt>
      <trkpt lat="46.492750653997064" lon="11.694143386557698">
        <ele>1881.4400000000001</ele>
        <time>2018-03-03T11:52:42Z</time>
      </trkpt>
      <trkpt lat="46.492715952917933" lon="11.694274730980396">
        <ele>1880.96</ele>
        <time>2018-03-03T11:52:50Z</time>
      </trkpt>
      <trkpt lat="46.492701955139637" lon="11.69431496411562">
        <ele>1881.4400000000001</ele>
        <time>2018-03-03T11:52:53Z</time>
      </trkpt>
      <trkpt lat="46.49265761487186" lon="11.694508502259851">
        <ele>1880.48</ele>
        <time>2018-03-03T11:53:05Z</time>
      </trkpt>
      <trkpt lat="46.492651328444481" lon="11.694534067064524">
        <ele>1880</ele>
        <time>2018-03-03T11:53:07Z</time>
      </trkpt>
      <trkpt lat="46.492619225755334" lon="11.69467949308455">
        <ele>1879.51</ele>
        <time>2018-03-03T11:53:16Z</time>
      </trkpt>
      <trkpt lat="46.492612017318606" lon="11.69478845782578">
        <ele>1879.51</ele>
        <time>2018-03-03T11:53:23Z</time>
      </trkpt>
      <trkpt lat="46.492605060338974" lon="11.694813016802073">
        <ele>1879.51</ele>
        <time>2018-03-03T11:53:25Z</time>
      </trkpt>
      <trkpt lat="46.492596007883549" lon="11.694995323196054">
        <ele>1879.03</ele>
        <time>2018-03-03T11:53:36Z</time>
      </trkpt>
      <trkpt lat="46.492594080045819" lon="11.695014350116253">
        <ele>1879.51</ele>
        <time>2018-03-03T11:53:37Z</time>
      </trkpt>
      <trkpt lat="46.492601120844483" lon="11.695104874670506">
        <ele>1879.03</ele>
        <time>2018-03-03T11:53:46Z</time>
      </trkpt>
      <trkpt lat="46.492632972076535" lon="11.695257173851132">
        <ele>1879.03</ele>
        <time>2018-03-03T11:53:56Z</time>
      </trkpt>
      <trkpt lat="46.492641856893897" lon="11.695302436128259">
        <ele>1879.03</ele>
        <time>2018-03-03T11:54:05Z</time>
      </trkpt>
      <trkpt lat="46.492668762803078" lon="11.69535574503243">
        <ele>1879.51</ele>
        <time>2018-03-03T11:54:18Z</time>
      </trkpt>
      <trkpt lat="46.492741852998734" lon="11.695517264306545">
        <ele>1879.51</ele>
        <time>2018-03-03T11:54:31Z</time>
      </trkpt>
      <trkpt lat="46.492793401703238" lon="11.695668054744601">
        <ele>1879.51</ele>
        <time>2018-03-03T11:54:42Z</time>
      </trkpt>
      <trkpt lat="46.492855930700898" lon="11.695795711129904">
        <ele>1879.03</ele>
        <time>2018-03-03T11:54:52Z</time>
      </trkpt>
      <trkpt lat="46.492902198806405" lon="11.695930659770966">
        <ele>1879.03</ele>
        <time>2018-03-03T11:55:02Z</time>
      </trkpt>
      <trkpt lat="46.492974534630775" lon="11.696042725816369">
        <ele>1879.03</ele>
        <time>2018-03-03T11:55:11Z</time>
      </trkpt>
      <trkpt lat="46.493028849363327" lon="11.6961136367172">
        <ele>1879.03</ele>
        <time>2018-03-03T11:55:20Z</time>
      </trkpt>
      <trkpt lat="46.49304267950356" lon="11.696104165166616">
        <ele>1879.03</ele>
        <time>2018-03-03T11:55:30Z</time>
      </trkpt>
      <trkpt lat="46.493035387247801" lon="11.696114307269454">
        <ele>1878.55</ele>
        <time>2018-03-03T11:55:43Z</time>
      </trkpt>
      <trkpt lat="46.493001105263829" lon="11.696116905659437">
        <ele>1878.0699999999999</ele>
        <time>2018-03-03T11:56:01Z</time>
      </trkpt>
      <trkpt lat="46.492995405569673" lon="11.696096872910857">
        <ele>1878.0699999999999</ele>
        <time>2018-03-03T11:56:21Z</time>
      </trkpt>
      <trkpt lat="46.49299381300807" lon="11.696105506271124">
        <ele>1878.55</ele>
        <time>2018-03-03T11:56:39Z</time>
      </trkpt>
      <trkpt lat="46.493024909868836" lon="11.696118582040071">
        <ele>1878.0699999999999</ele>
        <time>2018-03-03T11:56:57Z</time>
      </trkpt>
      <trkpt lat="46.493035554885864" lon="11.696102740243077">
        <ele>1879.03</ele>
        <time>2018-03-03T11:57:09Z</time>
      </trkpt>
      <trkpt lat="46.493047121912241" lon="11.696081617847085">
        <ele>1879.03</ele>
        <time>2018-03-03T11:57:31Z</time>
      </trkpt>
      <trkpt lat="46.493049133569002" lon="11.696082120761275">
        <ele>1878.55</ele>
        <time>2018-03-03T11:57:57Z</time>
      </trkpt>
      <trkpt lat="46.493033459410071" lon="11.69607013463974">
        <ele>1878.55</ele>
        <time>2018-03-03T11:58:19Z</time>
      </trkpt>
      <trkpt lat="46.49303044192493" lon="11.696071559563279">
        <ele>1878.55</ele>
        <time>2018-03-03T11:58:20Z</time>
      </trkpt>
      <trkpt lat="46.492998171597719" lon="11.696113469079137">
        <ele>1878.55</ele>
        <time>2018-03-03T11:58:29Z</time>
      </trkpt>
      <trkpt lat="46.493015019223094" lon="11.696112295612693">
        <ele>1878.55</ele>
        <time>2018-03-03T11:58:46Z</time>
      </trkpt>
      <trkpt lat="46.493013594299555" lon="11.696094861254096">
        <ele>1878.0699999999999</ele>
        <time>2018-03-03T11:58:59Z</time>
      </trkpt>
      <trkpt lat="46.493027005344629" lon="11.696089413017035">
        <ele>1878.55</ele>
        <time>2018-03-03T11:59:18Z</time>
      </trkpt>
      <trkpt lat="46.493044272065163" lon="11.69609360396862">
        <ele>1879.51</ele>
        <time>2018-03-03T11:59:50Z</time>
      </trkpt>
      <trkpt lat="46.493073524907231" lon="11.696089245378971">
        <ele>1878.55</ele>
        <time>2018-03-03T12:00:18Z</time>
      </trkpt>
      <trkpt lat="46.49307151325047" lon="11.696078600361943">
        <ele>1878.0699999999999</ele>
        <time>2018-03-03T12:00:45Z</time>
      </trkpt>
      <trkpt lat="46.493061622604728" lon="11.696082791313529">
        <ele>1878.0699999999999</ele>
        <time>2018-03-03T12:01:07Z</time>
      </trkpt>
      <trkpt lat="46.493054078891873" lon="11.696120426058769">
        <ele>1878.0699999999999</ele>
        <time>2018-03-03T12:01:30Z</time>
      </trkpt>
      <trkpt lat="46.493076710030437" lon="11.696113888174295">
        <ele>1877.5899999999999</ele>
        <time>2018-03-03T12:01:59Z</time>
      </trkpt>
      <trkpt lat="46.493083415552974" lon="11.696108607575297">
        <ele>1877.5899999999999</ele>
        <time>2018-03-03T12:02:18Z</time>
      </trkpt>
      <trkpt lat="46.493053073063493" lon="11.696123359724879">
        <ele>1877.1099999999999</ele>
        <time>2018-03-03T12:02:42Z</time>
      </trkpt>
      <trkpt lat="46.493045277893543" lon="11.696092933416367">
        <ele>1877.1099999999999</ele>
        <time>2018-03-03T12:03:08Z</time>
      </trkpt>
      <trkpt lat="46.493070339784026" lon="11.696114055812359">
        <ele>1877.1099999999999</ele>
        <time>2018-03-03T12:03:35Z</time>
      </trkpt>
      <trkpt lat="46.493032788857818" lon="11.696105757728219">
        <ele>1877.1099999999999</ele>
        <time>2018-03-03T12:04:08Z</time>
      </trkpt>
      <trkpt lat="46.49302457459271" lon="11.696098297834396">
        <ele>1877.1099999999999</ele>
        <time>2018-03-03T12:04:31Z</time>
      </trkpt>
      <trkpt lat="46.493040164932609" lon="11.696108523756266">
        <ele>1877.1099999999999</ele>
        <time>2018-03-03T12:04:54Z</time>
      </trkpt>
      <trkpt lat="46.493035135790706" lon="11.696134256199002">
        <ele>1877.1099999999999</ele>
        <time>2018-03-03T12:05:17Z</time>
      </trkpt>
      <trkpt lat="46.493032956495881" lon="11.696125706657767">
        <ele>1877.1099999999999</ele>
        <time>2018-03-03T12:05:43Z</time>
      </trkpt>
      <trkpt lat="46.493055168539286" lon="11.696150433272123">
        <ele>1876.6300000000001</ele>
        <time>2018-03-03T12:06:05Z</time>
      </trkpt>
      <trkpt lat="46.493054581806064" lon="11.696112295612693">
        <ele>1877.1099999999999</ele>
        <time>2018-03-03T12:06:29Z</time>
      </trkpt>
      <trkpt lat="46.493047289550304" lon="11.696114558726549">
        <ele>1876.6300000000001</ele>
        <time>2018-03-03T12:06:56Z</time>
      </trkpt>
      <trkpt lat="46.493034297600389" lon="11.696139117702842">
        <ele>1876.6300000000001</ele>
        <time>2018-03-03T12:07:27Z</time>
      </trkpt>
      <trkpt lat="46.493035135790706" lon="11.696131154894829">
        <ele>1876.6300000000001</ele>
        <time>2018-03-03T12:08:00Z</time>
      </trkpt>
      <trkpt lat="46.493031783029437" lon="11.696134675294161">
        <ele>1876.6300000000001</ele>
        <time>2018-03-03T12:08:18Z</time>
      </trkpt>
      <trkpt lat="46.493017198517919" lon="11.696131490170956">
        <ele>1876.1500000000001</ele>
        <time>2018-03-03T12:08:45Z</time>
      </trkpt>
      <trkpt lat="46.493044355884194" lon="11.696128388866782">
        <ele>1876.1500000000001</ele>
        <time>2018-03-03T12:09:11Z</time>
      </trkpt>
      <trkpt lat="46.493050726130605" lon="11.69610433280468">
        <ele>1876.1500000000001</ele>
        <time>2018-03-03T12:09:44Z</time>
      </trkpt>
      <trkpt lat="46.493029100820422" lon="11.696112379431725">
        <ele>1876.1500000000001</ele>
        <time>2018-03-03T12:10:14Z</time>
      </trkpt>
      <trkpt lat="46.493044272065163" lon="11.6960843000561">
        <ele>1876.1500000000001</ele>
        <time>2018-03-03T12:10:44Z</time>
      </trkpt>
      <trkpt lat="46.493062963709235" lon="11.696095447987318">
        <ele>1876.1500000000001</ele>
        <time>2018-03-03T12:11:08Z</time>
      </trkpt>
      <trkpt lat="46.493035890161991" lon="11.696117408573627">
        <ele>1876.1500000000001</ele>
        <time>2018-03-03T12:11:39Z</time>
      </trkpt>
      <trkpt lat="46.493044104427099" lon="11.696130484342575">
        <ele>1876.1500000000001</ele>
        <time>2018-03-03T12:12:15Z</time>
      </trkpt>
      <trkpt lat="46.493054581806064" lon="11.696100477129221">
        <ele>1876.1500000000001</ele>
        <time>2018-03-03T12:12:46Z</time>
      </trkpt>
      <trkpt lat="46.493042847141623" lon="11.696119587868452">
        <ele>1876.1500000000001</ele>
        <time>2018-03-03T12:13:23Z</time>
      </trkpt>
      <trkpt lat="46.493066735565662" lon="11.696119839325547">
        <ele>1876.1500000000001</ele>
        <time>2018-03-03T12:13:53Z</time>
      </trkpt>
      <trkpt lat="46.493033962324262" lon="11.696122940629721">
        <ele>1876.1500000000001</ele>
        <time>2018-03-03T12:14:24Z</time>
      </trkpt>
      <trkpt lat="46.493029100820422" lon="11.696114558726549">
        <ele>1876.1500000000001</ele>
        <time>2018-03-03T12:14:52Z</time>
      </trkpt>
      <trkpt lat="46.49305148050189" lon="11.696101315319538">
        <ele>1876.1500000000001</ele>
        <time>2018-03-03T12:15:19Z</time>
      </trkpt>
      <trkpt lat="46.493056593462825" lon="11.696098381653428">
        <ele>1876.1500000000001</ele>
        <time>2018-03-03T12:15:42Z</time>
      </trkpt>
      <trkpt lat="46.493065981194377" lon="11.696085473522544">
        <ele>1876.1500000000001</ele>
        <time>2018-03-03T12:16:07Z</time>
      </trkpt>
      <trkpt lat="46.493068747222424" lon="11.696086395531893">
        <ele>1875.6700000000001</ele>
        <time>2018-03-03T12:16:37Z</time>
      </trkpt>
      <trkpt lat="46.493081655353308" lon="11.696103578433394">
        <ele>1875.6700000000001</ele>
        <time>2018-03-03T12:17:03Z</time>
      </trkpt>
      <trkpt lat="46.493077212944627" lon="11.69607943855226">
        <ele>1875.6700000000001</ele>
        <time>2018-03-03T12:17:36Z</time>
      </trkpt>
      <trkpt lat="46.493058269843459" lon="11.696082791313529">
        <ele>1875.1900000000001</ele>
        <time>2018-03-03T12:18:09Z</time>
      </trkpt>
      <trkpt lat="46.493070088326931" lon="11.696109864860773">
        <ele>1875.1900000000001</ele>
        <time>2018-03-03T12:18:40Z</time>
      </trkpt>
      <trkpt lat="46.493045948445797" lon="11.696114810183644">
        <ele>1875.1900000000001</ele>
        <time>2018-03-03T12:19:11Z</time>
      </trkpt>
      <trkpt lat="46.493057599291205" lon="11.696104165166616">
        <ele>1875.1900000000001</ele>
        <time>2018-03-03T12:19:38Z</time>
      </trkpt>
      <trkpt lat="46.493058437481523" lon="11.696109781041741">
        <ele>1875.1900000000001</ele>
        <time>2018-03-03T12:20:06Z</time>
      </trkpt>
      <trkpt lat="46.493057096377015" lon="11.696068542078137">
        <ele>1875.1900000000001</ele>
        <time>2018-03-03T12:20:39Z</time>
      </trkpt>
      <trkpt lat="46.493062544614077" lon="11.696091005578637">
        <ele>1875.1900000000001</ele>
        <time>2018-03-03T12:21:07Z</time>
      </trkpt>
      <trkpt lat="46.49307201616466" lon="11.696065692231059">
        <ele>1875.1900000000001</ele>
        <time>2018-03-03T12:21:38Z</time>
      </trkpt>
      <trkpt lat="46.493068495765328" lon="11.696093855425715">
        <ele>1875.1900000000001</ele>
        <time>2018-03-03T12:22:09Z</time>
      </trkpt>
      <trkpt lat="46.493052570149302" lon="11.696093184873462">
        <ele>1875.1900000000001</ele>
        <time>2018-03-03T12:22:38Z</time>
      </trkpt>
      <trkpt lat="46.493039410561323" lon="11.696091424673796">
        <ele>1874.71</ele>
        <time>2018-03-03T12:23:10Z</time>
      </trkpt>
      <trkpt lat="46.493049804121256" lon="11.696071391925216">
        <ele>1874.71</ele>
        <time>2018-03-03T12:23:38Z</time>
      </trkpt>
      <trkpt lat="46.49303144775331" lon="11.696081198751926">
        <ele>1874.71</ele>
        <time>2018-03-03T12:24:09Z</time>
      </trkpt>
      <trkpt lat="46.493034297600389" lon="11.696094274520874">
        <ele>1874.71</ele>
        <time>2018-03-03T12:24:37Z</time>
      </trkpt>
      <trkpt lat="46.493024993687868" lon="11.696069883182645">
        <ele>1874.71</ele>
        <time>2018-03-03T12:25:02Z</time>
      </trkpt>
      <trkpt lat="46.493030777201056" lon="11.69609553180635">
        <ele>1874.23</ele>
        <time>2018-03-03T12:25:30Z</time>
      </trkpt>
      <trkpt lat="46.493032202124596" lon="11.696099219843745">
        <ele>1874.71</ele>
        <time>2018-03-03T12:25:57Z</time>
      </trkpt>
      <trkpt lat="46.493009570986032" lon="11.69608480297029">
        <ele>1874.71</ele>
        <time>2018-03-03T12:26:25Z</time>
      </trkpt>
      <trkpt lat="46.493026167154312" lon="11.696091592311859">
        <ele>1874.71</ele>
        <time>2018-03-03T12:26:49Z</time>
      </trkpt>
      <trkpt lat="46.493031531572342" lon="11.696070553734899">
        <ele>1874.23</ele>
        <time>2018-03-03T12:27:22Z</time>
      </trkpt>
      <trkpt lat="46.49300848133862" lon="11.696094609797001">
        <ele>1874.71</ele>
        <time>2018-03-03T12:27:54Z</time>
      </trkpt>
      <trkpt lat="46.493009151890874" lon="11.696069464087486">
        <ele>1874.71</ele>
        <time>2018-03-03T12:28:12Z</time>
      </trkpt>
      <trkpt lat="46.493030190467834" lon="11.696078516542912">
        <ele>1874.23</ele>
        <time>2018-03-03T12:28:34Z</time>
      </trkpt>
      <trkpt lat="46.493040751665831" lon="11.696083880960941">
        <ele>1874.23</ele>
        <time>2018-03-03T12:28:59Z</time>
      </trkpt>
      <trkpt lat="46.492991130799055" lon="11.696081198751926">
        <ele>1874.71</ele>
        <time>2018-03-03T12:29:25Z</time>
      </trkpt>
      <trkpt lat="46.493015941232443" lon="11.696072146296501">
        <ele>1874.71</ele>
        <time>2018-03-03T12:29:51Z</time>
      </trkpt>
      <trkpt lat="46.493030609562993" lon="11.696086227893829">
        <ele>1874.71</ele>
        <time>2018-03-03T12:30:24Z</time>
      </trkpt>
      <trkpt lat="46.493040500208735" lon="11.696099555119872">
        <ele>1874.71</ele>
        <time>2018-03-03T12:30:47Z</time>
      </trkpt>
      <trkpt lat="46.493029939010739" lon="11.696085808798671">
        <ele>1874.71</ele>
        <time>2018-03-03T12:31:18Z</time>
      </trkpt>
      <trkpt lat="46.493054414168" lon="11.696076169610023">
        <ele>1874.23</ele>
        <time>2018-03-03T12:31:49Z</time>
      </trkpt>
      <trkpt lat="46.493017030879855" lon="11.696085222065449">
        <ele>1874.23</ele>
        <time>2018-03-03T12:32:16Z</time>
      </trkpt>
      <trkpt lat="46.49301040917635" lon="11.6960843000561">
        <ele>1874.23</ele>
        <time>2018-03-03T12:32:35Z</time>
      </trkpt>
      <trkpt lat="46.493018120527267" lon="11.69608673080802">
        <ele>1874.23</ele>
        <time>2018-03-03T12:33:07Z</time>
      </trkpt>
      <trkpt lat="46.493027759715915" lon="11.696050772443414">
        <ele>1874.23</ele>
        <time>2018-03-03T12:33:30Z</time>
      </trkpt>
      <trkpt lat="46.493043601512909" lon="11.696072816848755">
        <ele>1874.23</ele>
        <time>2018-03-03T12:33:58Z</time>
      </trkpt>
      <trkpt lat="46.493025412783027" lon="11.696061668917537">
        <ele>1874.23</ele>
        <time>2018-03-03T12:34:26Z</time>
      </trkpt>
      <trkpt lat="46.493029939010739" lon="11.696041719987988">
        <ele>1874.23</ele>
        <time>2018-03-03T12:34:54Z</time>
      </trkpt>
      <trkpt lat="46.493046618998051" lon="11.696049766615033">
        <ele>1873.75</ele>
        <time>2018-03-03T12:35:21Z</time>
      </trkpt>
      <trkpt lat="46.49306564591825" lon="11.696070972830057">
        <ele>1874.23</ele>
        <time>2018-03-03T12:35:46Z</time>
      </trkpt>
      <trkpt lat="46.493075285106897" lon="11.69608723372221">
        <ele>1875.1900000000001</ele>
        <time>2018-03-03T12:36:06Z</time>
      </trkpt>
      <trkpt lat="46.493043769150972" lon="11.696052197366953">
        <ele>1874.23</ele>
        <time>2018-03-03T12:36:31Z</time>
      </trkpt>
      <trkpt lat="46.493041422218084" lon="11.696073403581977">
        <ele>1874.23</ele>
        <time>2018-03-03T12:36:50Z</time>
      </trkpt>
      <trkpt lat="46.493034968152642" lon="11.696064854040742">
        <ele>1874.23</ele>
        <time>2018-03-03T12:37:14Z</time>
      </trkpt>
      <trkpt lat="46.49305634200573" lon="11.696094609797001">
        <ele>1874.23</ele>
        <time>2018-03-03T12:37:40Z</time>
      </trkpt>
      <trkpt lat="46.493041422218084" lon="11.696089496836066">
        <ele>1874.23</ele>
        <time>2018-03-03T12:38:00Z</time>
      </trkpt>
      <trkpt lat="46.493041673675179" lon="11.696097208186984">
        <ele>1874.23</ele>
        <time>2018-03-03T12:38:27Z</time>
      </trkpt>
      <trkpt lat="46.493038991466165" lon="11.69612386263907">
        <ele>1874.23</ele>
        <time>2018-03-03T12:38:50Z</time>
      </trkpt>
      <trkpt lat="46.493006888777018" lon="11.696080360561609">
        <ele>1873.75</ele>
        <time>2018-03-03T12:39:19Z</time>
      </trkpt>
      <trkpt lat="46.492996495217085" lon="11.69606770388782">
        <ele>1874.23</ele>
        <time>2018-03-03T12:39:52Z</time>
      </trkpt>
      <trkpt lat="46.492970595136285" lon="11.696052281185985">
        <ele>1873.75</ele>
        <time>2018-03-03T12:40:23Z</time>
      </trkpt>
      <trkpt lat="46.493006218224764" lon="11.696027051657438">
        <ele>1873.75</ele>
        <time>2018-03-03T12:40:56Z</time>
      </trkpt>
      <trkpt lat="46.492983754724264" lon="11.696055131033063">
        <ele>1873.75</ele>
        <time>2018-03-03T12:41:22Z</time>
      </trkpt>
      <trkpt lat="46.492986436933279" lon="11.696072984486818">
        <ele>1873.75</ele>
        <time>2018-03-03T12:41:48Z</time>
      </trkpt>
      <trkpt lat="46.492993561550975" lon="11.696039624512196">
        <ele>1874.23</ele>
        <time>2018-03-03T12:42:15Z</time>
      </trkpt>
      <trkpt lat="46.492993980646133" lon="11.696074744686484">
        <ele>1874.23</ele>
        <time>2018-03-03T12:42:44Z</time>
      </trkpt>
      <trkpt lat="46.492998590692878" lon="11.696086814627051">
        <ele>1874.23</ele>
        <time>2018-03-03T12:43:05Z</time>
      </trkpt>
      <trkpt lat="46.493048882111907" lon="11.696089245378971">
        <ele>1874.23</ele>
        <time>2018-03-03T12:43:25Z</time>
      </trkpt>
      <trkpt lat="46.493053156882524" lon="11.696092681959271">
        <ele>1874.23</ele>
        <time>2018-03-03T12:43:46Z</time>
      </trkpt>
      <trkpt lat="46.493023484945297" lon="11.696088742464781">
        <ele>1874.23</ele>
        <time>2018-03-03T12:44:08Z</time>
      </trkpt>
      <trkpt lat="46.493012420833111" lon="11.696065776050091">
        <ele>1874.23</ele>
        <time>2018-03-03T12:44:34Z</time>
      </trkpt>
      <trkpt lat="46.4930026140064" lon="11.696061249822378">
        <ele>1874.23</ele>
        <time>2018-03-03T12:44:56Z</time>
      </trkpt>
      <trkpt lat="46.492997417226434" lon="11.696031158789992">
        <ele>1874.23</ele>
        <time>2018-03-03T12:45:17Z</time>
      </trkpt>
      <trkpt lat="46.49302901700139" lon="11.696039037778974">
        <ele>1874.23</ele>
        <time>2018-03-03T12:45:41Z</time>
      </trkpt>
      <trkpt lat="46.493028094992042" lon="11.696057645604014">
        <ele>1874.23</ele>
        <time>2018-03-03T12:46:09Z</time>
      </trkpt>
      <trkpt lat="46.493030190467834" lon="11.695995451882482">
        <ele>1874.23</ele>
        <time>2018-03-03T12:46:38Z</time>
      </trkpt>
      <trkpt lat="46.493032369762659" lon="11.695989333093166">
        <ele>1874.23</ele>
        <time>2018-03-03T12:47:02Z</time>
      </trkpt>
      <trkpt lat="46.493034716695547" lon="11.696019759401679">
        <ele>1874.23</ele>
        <time>2018-03-03T12:47:30Z</time>
      </trkpt>
      <trkpt lat="46.493045445531607" lon="11.696040127426386">
        <ele>1873.75</ele>
        <time>2018-03-03T12:47:55Z</time>
      </trkpt>
      <trkpt lat="46.493016611784697" lon="11.696033254265785">
        <ele>1873.75</ele>
        <time>2018-03-03T12:48:22Z</time>
      </trkpt>
      <trkpt lat="46.493051229044795" lon="11.696052700281143">
        <ele>1873.75</ele>
        <time>2018-03-03T12:48:51Z</time>
      </trkpt>
      <trkpt lat="46.493067238479853" lon="11.696054209023714">
        <ele>1873.75</ele>
        <time>2018-03-03T12:49:13Z</time>
      </trkpt>
      <trkpt lat="46.493067238479853" lon="11.696057226508856">
        <ele>1873.75</ele>
        <time>2018-03-03T12:49:43Z</time>
      </trkpt>
      <trkpt lat="46.493066232651472" lon="11.69609796255827">
        <ele>1873.27</ele>
        <time>2018-03-03T12:50:06Z</time>
      </trkpt>
      <trkpt lat="46.493036393076181" lon="11.696090921759605">
        <ele>1873.27</ele>
        <time>2018-03-03T12:50:31Z</time>
      </trkpt>
      <trkpt lat="46.493018288165331" lon="11.696089161559939">
        <ele>1873.27</ele>
        <time>2018-03-03T12:50:58Z</time>
      </trkpt>
      <trkpt lat="46.493017533794045" lon="11.696103997528553">
        <ele>1873.27</ele>
        <time>2018-03-03T12:51:29Z</time>
      </trkpt>
      <trkpt lat="46.493022730574012" lon="11.696087317541242">
        <ele>1873.27</ele>
        <time>2018-03-03T12:51:51Z</time>
      </trkpt>
      <trkpt lat="46.493000937625766" lon="11.696054544299841">
        <ele>1873.27</ele>
        <time>2018-03-03T12:52:23Z</time>
      </trkpt>
      <trkpt lat="46.493018204346299" lon="11.696064602583647">
        <ele>1873.27</ele>
        <time>2018-03-03T12:52:53Z</time>
      </trkpt>
      <trkpt lat="46.493001105263829" lon="11.696079941466451">
        <ele>1872.79</ele>
        <time>2018-03-03T12:53:18Z</time>
      </trkpt>
      <trkpt lat="46.493010660633445" lon="11.696069715544581">
        <ele>1873.27</ele>
        <time>2018-03-03T12:53:45Z</time>
      </trkpt>
      <trkpt lat="46.493037231266499" lon="11.69607549905777">
        <ele>1873.27</ele>
        <time>2018-03-03T12:54:18Z</time>
      </trkpt>
      <trkpt lat="46.493040751665831" lon="11.696092262864113">
        <ele>1873.27</ele>
        <time>2018-03-03T12:54:51Z</time>
      </trkpt>
      <trkpt lat="46.493046954274178" lon="11.696063345298171">
        <ele>1873.27</ele>
        <time>2018-03-03T12:55:19Z</time>
      </trkpt>
      <trkpt lat="46.493033962324262" lon="11.696094106882811">
        <ele>1872.79</ele>
        <time>2018-03-03T12:55:50Z</time>
      </trkpt>
      <trkpt lat="46.493039410561323" lon="11.696104248985648">
        <ele>1872.79</ele>
        <time>2018-03-03T12:56:26Z</time>
      </trkpt>
      <trkpt lat="46.493033124133945" lon="11.696075582876801">
        <ele>1872.79</ele>
        <time>2018-03-03T12:56:55Z</time>
      </trkpt>
      <trkpt lat="46.493039410561323" lon="11.696093436330557">
        <ele>1872.79</ele>
        <time>2018-03-03T12:57:25Z</time>
      </trkpt>
      <trkpt lat="46.49302021600306" lon="11.69612092897296">
        <ele>1872.3</ele>
        <time>2018-03-03T12:57:53Z</time>
      </trkpt>
      <trkpt lat="46.49303337559104" lon="11.696092346683145">
        <ele>1872.79</ele>
        <time>2018-03-03T12:58:12Z</time>
      </trkpt>
      <trkpt lat="46.493058437481523" lon="11.696104919537902">
        <ele>1872.79</ele>
        <time>2018-03-03T12:58:33Z</time>
      </trkpt>
      <trkpt lat="46.493097580969334" lon="11.696114894002676">
        <ele>1872.79</ele>
        <time>2018-03-03T12:58:55Z</time>
      </trkpt>
      <trkpt lat="46.493069669231772" lon="11.696132244542241">
        <ele>1872.79</ele>
        <time>2018-03-03T12:59:14Z</time>
      </trkpt>
      <trkpt lat="46.493083750829101" lon="11.696123443543911">
        <ele>1872.79</ele>
        <time>2018-03-03T12:59:33Z</time>
      </trkpt>
      <trkpt lat="46.493009990081191" lon="11.696127215400338">
        <ele>1872.3</ele>
        <time>2018-03-03T12:59:54Z</time>
      </trkpt>
      <trkpt lat="46.492996662855148" lon="11.696157976984978">
        <ele>1872.79</ele>
        <time>2018-03-03T13:00:11Z</time>
      </trkpt>
      <trkpt lat="46.49309498257935" lon="11.69617373496294">
        <ele>1872.79</ele>
        <time>2018-03-03T13:00:24Z</time>
      </trkpt>
      <trkpt lat="46.493071261793375" lon="11.696168035268784">
        <ele>1872.3</ele>
        <time>2018-03-03T13:00:33Z</time>
      </trkpt>
      <trkpt lat="46.493054162710905" lon="11.69614490121603">
        <ele>1872.3</ele>
        <time>2018-03-03T13:00:41Z</time>
      </trkpt>
      <trkpt lat="46.493032872676849" lon="11.696157809346914">
        <ele>1873.27</ele>
        <time>2018-03-03T13:00:54Z</time>
      </trkpt>
      <trkpt lat="46.49305684491992" lon="11.696120006963611">
        <ele>1873.27</ele>
        <time>2018-03-03T13:01:17Z</time>
      </trkpt>
      <trkpt lat="46.493071932345629" lon="11.696142554283142">
        <ele>1873.27</ele>
        <time>2018-03-03T13:01:34Z</time>
      </trkpt>
      <trkpt lat="46.493062041699886" lon="11.696155965328217">
        <ele>1873.27</ele>
        <time>2018-03-03T13:01:55Z</time>
      </trkpt>
      <trkpt lat="46.493045445531607" lon="11.696137608960271">
        <ele>1873.27</ele>
        <time>2018-03-03T13:02:13Z</time>
      </trkpt>
      <trkpt lat="46.493056090548635" lon="11.696136435493827">
        <ele>1873.75</ele>
        <time>2018-03-03T13:02:27Z</time>
      </trkpt>
      <trkpt lat="46.493069920688868" lon="11.696147751063108">
        <ele>1873.75</ele>
        <time>2018-03-03T13:02:47Z</time>
      </trkpt>
      <trkpt lat="46.493071094155312" lon="11.69614247046411">
        <ele>1873.75</ele>
        <time>2018-03-03T13:03:09Z</time>
      </trkpt>
      <trkpt lat="46.493089953437448" lon="11.69615956954658">
        <ele>1874.23</ele>
        <time>2018-03-03T13:03:34Z</time>
      </trkpt>
      <trkpt lat="46.493079895153642" lon="11.696169460192323">
        <ele>1874.23</ele>
        <time>2018-03-03T13:03:51Z</time>
      </trkpt>
      <trkpt lat="46.493066400289536" lon="11.696185134351254">
        <ele>1875.1900000000001</ele>
        <time>2018-03-03T13:03:59Z</time>
      </trkpt>
      <trkpt lat="46.493044942617416" lon="11.69618153013289">
        <ele>1875.1900000000001</ele>
        <time>2018-03-03T13:04:09Z</time>
      </trkpt>
      <trkpt lat="46.493041757494211" lon="11.696211704984307">
        <ele>1875.1900000000001</ele>
        <time>2018-03-03T13:04:27Z</time>
      </trkpt>
      <trkpt lat="46.493040751665831" lon="11.696167113259435">
        <ele>1875.1900000000001</ele>
        <time>2018-03-03T13:04:44Z</time>
      </trkpt>
      <trkpt lat="46.493048127740622" lon="11.696173651143909">
        <ele>1875.1900000000001</ele>
        <time>2018-03-03T13:04:55Z</time>
      </trkpt>
      <trkpt lat="46.493045948445797" lon="11.696174740791321">
        <ele>1875.1900000000001</ele>
        <time>2018-03-03T13:05:10Z</time>
      </trkpt>
      <trkpt lat="46.493045026436448" lon="11.696190079674125">
        <ele>1875.1900000000001</ele>
        <time>2018-03-03T13:05:20Z</time>
      </trkpt>
      <trkpt lat="46.493035722523928" lon="11.696192678064108">
        <ele>1875.1900000000001</ele>
        <time>2018-03-03T13:05:32Z</time>
      </trkpt>
      <trkpt lat="46.493060030043125" lon="11.696189995855093">
        <ele>1875.1900000000001</ele>
        <time>2018-03-03T13:05:50Z</time>
      </trkpt>
      <trkpt lat="46.493024658411741" lon="11.69612243771553">
        <ele>1875.6700000000001</ele>
        <time>2018-03-03T13:06:04Z</time>
      </trkpt>
      <trkpt lat="46.493031699210405" lon="11.696146493777633">
        <ele>1875.6700000000001</ele>
        <time>2018-03-03T13:06:16Z</time>
      </trkpt>
      <trkpt lat="46.493025664240122" lon="11.696159485727549">
        <ele>1875.1900000000001</ele>
        <time>2018-03-03T13:06:30Z</time>
      </trkpt>
      <trkpt lat="46.493017952889204" lon="11.696184882894158">
        <ele>1875.6700000000001</ele>
        <time>2018-03-03T13:06:44Z</time>
      </trkpt>
      <trkpt lat="46.493014181032777" lon="11.69618840329349">
        <ele>1875.6700000000001</ele>
        <time>2018-03-03T13:06:54Z</time>
      </trkpt>
      <trkpt lat="46.493032453581691" lon="11.696177758276463">
        <ele>1875.6700000000001</ele>
        <time>2018-03-03T13:07:05Z</time>
      </trkpt>
      <trkpt lat="46.493023233488202" lon="11.696186726912856">
        <ele>1875.6700000000001</ele>
        <time>2018-03-03T13:07:20Z</time>
      </trkpt>
      <trkpt lat="46.493037231266499" lon="11.696195024996996">
        <ele>1876.1500000000001</ele>
        <time>2018-03-03T13:07:40Z</time>
      </trkpt>
      <trkpt lat="46.493037566542625" lon="11.696176249533892">
        <ele>1876.1500000000001</ele>
        <time>2018-03-03T13:07:58Z</time>
      </trkpt>
      <trkpt lat="46.493015522137284" lon="11.696220086887479">
        <ele>1875.6700000000001</ele>
        <time>2018-03-03T13:08:10Z</time>
      </trkpt>
      <trkpt lat="46.492972606793046" lon="11.696243556216359">
        <ele>1875.1900000000001</ele>
        <time>2018-03-03T13:08:18Z</time>
      </trkpt>
      <trkpt lat="46.492963302880526" lon="11.696275575086474">
        <ele>1875.1900000000001</ele>
        <time>2018-03-03T13:08:20Z</time>
      </trkpt>
      <trkpt lat="46.492872107774019" lon="11.696381689980626">
        <ele>1873.75</ele>
        <time>2018-03-03T13:08:32Z</time>
      </trkpt>
      <trkpt lat="46.492810919880867" lon="11.696426700800657">
        <ele>1873.75</ele>
        <time>2018-03-03T13:08:38Z</time>
      </trkpt>
      <trkpt lat="46.492790970951319" lon="11.69642485678196">
        <ele>1873.75</ele>
        <time>2018-03-03T13:08:40Z</time>
      </trkpt>
      <trkpt lat="46.492732213810086" lon="11.69646785594523">
        <ele>1873.27</ele>
        <time>2018-03-03T13:08:44Z</time>
      </trkpt>
      <trkpt lat="46.492698015645146" lon="11.696492917835712">
        <ele>1873.75</ele>
        <time>2018-03-03T13:08:48Z</time>
      </trkpt>
      <trkpt lat="46.492629703134298" lon="11.696610767394304">
        <ele>1873.27</ele>
        <time>2018-03-03T13:08:59Z</time>
      </trkpt>
      <trkpt lat="46.492595756426454" lon="11.696701627224684">
        <ele>1873.27</ele>
        <time>2018-03-03T13:09:06Z</time>
      </trkpt>
      <trkpt lat="46.492542615160346" lon="11.696867337450385">
        <ele>1872.3</ele>
        <time>2018-03-03T13:09:17Z</time>
      </trkpt>
      <trkpt lat="46.492509255185723" lon="11.696949312463403">
        <ele>1871.8199999999999</ele>
        <time>2018-03-03T13:09:23Z</time>
      </trkpt>
      <trkpt lat="46.49245779030025" lon="11.697100102901459">
        <ele>1871.3399999999999</ele>
        <time>2018-03-03T13:09:33Z</time>
      </trkpt>
      <trkpt lat="46.492433985695243" lon="11.697174366563559">
        <ele>1871.3399999999999</ele>
        <time>2018-03-03T13:09:38Z</time>
      </trkpt>
      <trkpt lat="46.492415042594075" lon="11.697263298556209">
        <ele>1871.3399999999999</ele>
        <time>2018-03-03T13:09:44Z</time>
      </trkpt>
      <trkpt lat="46.492386544123292" lon="11.697356840595603">
        <ele>1871.3399999999999</ele>
        <time>2018-03-03T13:09:50Z</time>
      </trkpt>
      <trkpt lat="46.492332648485899" lon="11.697491789236665">
        <ele>1869.9000000000001</ele>
        <time>2018-03-03T13:09:58Z</time>
      </trkpt>
      <trkpt lat="46.492311442270875" lon="11.697542583569884">
        <ele>1869.9000000000001</ele>
        <time>2018-03-03T13:10:02Z</time>
      </trkpt>
      <trkpt lat="46.492289314046502" lon="11.69768113642931">
        <ele>1869.4200000000001</ele>
        <time>2018-03-03T13:10:12Z</time>
      </trkpt>
      <trkpt lat="46.492292834445834" lon="11.697699995711446">
        <ele>1869.4200000000001</ele>
        <time>2018-03-03T13:10:13Z</time>
      </trkpt>
      <trkpt lat="46.492287050932646" lon="11.697909878566861">
        <ele>1869.4200000000001</ele>
        <time>2018-03-03T13:10:25Z</time>
      </trkpt>
      <trkpt lat="46.492290571331978" lon="11.697942316532135">
        <ele>1869.4200000000001</ele>
        <time>2018-03-03T13:10:27Z</time>
      </trkpt>
      <trkpt lat="46.4922877214849" lon="11.697973161935806">
        <ele>1869.4200000000001</ele>
        <time>2018-03-03T13:10:29Z</time>
      </trkpt>
      <trkpt lat="46.492291493341327" lon="11.697988752275705">
        <ele>1869.4200000000001</ele>
        <time>2018-03-03T13:10:30Z</time>
      </trkpt>
      <trkpt lat="46.492287889122963" lon="11.698012892156839">
        <ele>1869.9000000000001</ele>
        <time>2018-03-03T13:10:32Z</time>
      </trkpt>
      <trkpt lat="46.492292918264866" lon="11.698026387020946">
        <ele>1869.4200000000001</ele>
        <time>2018-03-03T13:10:33Z</time>
      </trkpt>
      <trkpt lat="46.492294846102595" lon="11.698048179969192">
        <ele>1869.9000000000001</ele>
        <time>2018-03-03T13:10:36Z</time>
      </trkpt>
      <trkpt lat="46.492301551625133" lon="11.698057232424617">
        <ele>1869.9000000000001</ele>
        <time>2018-03-03T13:10:39Z</time>
      </trkpt>
      <trkpt lat="46.49228923022747" lon="11.698287818580866">
        <ele>1868.46</ele>
        <time>2018-03-03T13:10:52Z</time>
      </trkpt>
      <trkpt lat="46.492304233834147" lon="11.698485463857651">
        <ele>1867.02</ele>
        <time>2018-03-03T13:11:03Z</time>
      </trkpt>
      <trkpt lat="46.492301551625133" lon="11.698527541011572">
        <ele>1866.54</ele>
        <time>2018-03-03T13:11:05Z</time>
      </trkpt>
      <trkpt lat="46.492294343188405" lon="11.698709344491363">
        <ele>1866.0599999999999</ele>
        <time>2018-03-03T13:11:16Z</time>
      </trkpt>
      <trkpt lat="46.492289816960692" lon="11.698727952316403">
        <ele>1866.54</ele>
        <time>2018-03-03T13:11:17Z</time>
      </trkpt>
      <trkpt lat="46.492292247712612" lon="11.698741866275668">
        <ele>1866.0599999999999</ele>
        <time>2018-03-03T13:11:18Z</time>
      </trkpt>
      <trkpt lat="46.49227405898273" lon="11.698837671428919">
        <ele>1866.0599999999999</ele>
        <time>2018-03-03T13:11:24Z</time>
      </trkpt>
      <trkpt lat="46.492274813354015" lon="11.698855105787516">
        <ele>1866.0599999999999</ele>
        <time>2018-03-03T13:11:25Z</time>
      </trkpt>
      <trkpt lat="46.492259139195085" lon="11.698977397754788">
        <ele>1865.5799999999999</ele>
        <time>2018-03-03T13:11:32Z</time>
      </trkpt>
      <trkpt lat="46.492248577997088" lon="11.699044285342097">
        <ele>1865.5799999999999</ele>
        <time>2018-03-03T13:11:36Z</time>
      </trkpt>
      <trkpt lat="46.492213625460863" lon="11.699208905920386">
        <ele>1865.0899999999999</ele>
        <time>2018-03-03T13:11:47Z</time>
      </trkpt>
      <trkpt lat="46.492181606590748" lon="11.699376292526722">
        <ele>1864.6099999999999</ele>
        <time>2018-03-03T13:11:57Z</time>
      </trkpt>
      <trkpt lat="46.492180516943336" lon="11.699417699128389">
        <ele>1865.0899999999999</ele>
        <time>2018-03-03T13:11:59Z</time>
      </trkpt>
      <trkpt lat="46.492166016250849" lon="11.699456255882978">
        <ele>1864.6099999999999</ele>
        <time>2018-03-03T13:12:02Z</time>
      </trkpt>
      <trkpt lat="46.492140702903271" lon="11.699613584205508">
        <ele>1865.0899999999999</ele>
        <time>2018-03-03T13:12:13Z</time>
      </trkpt>
      <trkpt lat="46.492138523608446" lon="11.699644261971116">
        <ele>1864.6099999999999</ele>
        <time>2018-03-03T13:12:15Z</time>
      </trkpt>
      <trkpt lat="46.49211572483182" lon="11.699748365208507">
        <ele>1865.0899999999999</ele>
        <time>2018-03-03T13:12:24Z</time>
      </trkpt>
      <trkpt lat="46.492093512788415" lon="11.699805445969105">
        <ele>1865.0899999999999</ele>
        <time>2018-03-03T13:12:28Z</time>
      </trkpt>
      <trkpt lat="46.492072138935328" lon="11.69985163025558">
        <ele>1864.6099999999999</ele>
        <time>2018-03-03T13:12:31Z</time>
      </trkpt>
      <trkpt lat="46.491986978799105" lon="11.699965037405491">
        <ele>1864.1300000000001</ele>
        <time>2018-03-03T13:12:41Z</time>
      </trkpt>
      <trkpt lat="46.491979267448187" lon="11.699975179508328">
        <ele>1864.6099999999999</ele>
        <time>2018-03-03T13:12:42Z</time>
      </trkpt>
      <trkpt lat="46.491918163374066" lon="11.700047263875604">
        <ele>1864.1300000000001</ele>
        <time>2018-03-03T13:12:49Z</time>
      </trkpt>
      <trkpt lat="46.491835014894605" lon="11.700175842270255">
        <ele>1863.1700000000001</ele>
        <time>2018-03-03T13:13:00Z</time>
      </trkpt>
      <trkpt lat="46.491829063743353" lon="11.700188163667917">
        <ele>1863.6500000000001</ele>
        <time>2018-03-03T13:13:01Z</time>
      </trkpt>
      <trkpt lat="46.491779861971736" lon="11.700327722355723">
        <ele>1863.6500000000001</ele>
        <time>2018-03-03T13:13:11Z</time>
      </trkpt>
      <trkpt lat="46.491750776767731" lon="11.700492594391108">
        <ele>1862.6900000000001</ele>
        <time>2018-03-03T13:13:22Z</time>
      </trkpt>
      <trkpt lat="46.491745747625828" lon="11.700634667649865">
        <ele>1862.6900000000001</ele>
        <time>2018-03-03T13:13:31Z</time>
      </trkpt>
      <trkpt lat="46.49174977093935" lon="11.700652521103621">
        <ele>1862.21</ele>
        <time>2018-03-03T13:13:32Z</time>
      </trkpt>
      <trkpt lat="46.49177030660212" lon="11.700854273512959">
        <ele>1862.21</ele>
        <time>2018-03-03T13:13:45Z</time>
      </trkpt>
      <trkpt lat="46.49177466519177" lon="11.700866930186749">
        <ele>1862.21</ele>
        <time>2018-03-03T13:13:46Z</time>
      </trkpt>
      <trkpt lat="46.491780113428831" lon="11.700884867459536">
        <ele>1861.73</ele>
        <time>2018-03-03T13:13:47Z</time>
      </trkpt>
      <trkpt lat="46.491779610514641" lon="11.700920322909951">
        <ele>1862.21</ele>
        <time>2018-03-03T13:13:49Z</time>
      </trkpt>
      <trkpt lat="46.491785310208797" lon="11.700938008725643">
        <ele>1861.73</ele>
        <time>2018-03-03T13:13:50Z</time>
      </trkpt>
      <trkpt lat="46.491782711818814" lon="11.700972206890583">
        <ele>1862.21</ele>
        <time>2018-03-03T13:13:51Z</time>
      </trkpt>
      <trkpt lat="46.491795284673572" lon="11.701032053679228">
        <ele>1862.21</ele>
        <time>2018-03-03T13:13:55Z</time>
      </trkpt>
      <trkpt lat="46.491799559444189" lon="11.701046135276556">
        <ele>1861.73</ele>
        <time>2018-03-03T13:13:56Z</time>
      </trkpt>
      <trkpt lat="46.491796625778079" lon="11.701226765289903">
        <ele>1861.25</ele>
        <time>2018-03-03T13:14:07Z</time>
      </trkpt>
      <trkpt lat="46.491801654919982" lon="11.701244954019785">
        <ele>1861.25</ele>
        <time>2018-03-03T13:14:08Z</time>
      </trkpt>
      <trkpt lat="46.491798888891935" lon="11.701291305944324">
        <ele>1861.25</ele>
        <time>2018-03-03T13:14:11Z</time>
      </trkpt>
      <trkpt lat="46.491791345179081" lon="11.701467745006084">
        <ele>1861.25</ele>
        <time>2018-03-03T13:14:21Z</time>
      </trkpt>
      <trkpt lat="46.491781370714307" lon="11.701518455520272">
        <ele>1860.77</ele>
        <time>2018-03-03T13:14:24Z</time>
      </trkpt>
      <trkpt lat="46.491768881678581" lon="11.701631778851151">
        <ele>1860.77</ele>
        <time>2018-03-03T13:14:32Z</time>
      </trkpt>
      <trkpt lat="46.491749519482255" lon="11.701714592054486">
        <ele>1860.77</ele>
        <time>2018-03-03T13:14:36Z</time>
      </trkpt>
      <trkpt lat="46.491748681291938" lon="11.70173479244113">
        <ele>1860.77</ele>
        <time>2018-03-03T13:14:37Z</time>
      </trkpt>
      <trkpt lat="46.491743149235845" lon="11.701745018362999">
        <ele>1860.77</ele>
        <time>2018-03-03T13:14:38Z</time>
      </trkpt>
      <trkpt lat="46.49172630161047" lon="11.701837973669171">
        <ele>1861.25</ele>
        <time>2018-03-03T13:14:45Z</time>
      </trkpt>
      <trkpt lat="46.491728816181421" lon="11.701850043609738">
        <ele>1861.25</ele>
        <time>2018-03-03T13:14:46Z</time>
      </trkpt>
      <trkpt lat="46.491728397086263" lon="11.701894467696548">
        <ele>1861.73</ele>
        <time>2018-03-03T13:14:49Z</time>
      </trkpt>
      <trkpt lat="46.491765445098281" lon="11.702014328911901">
        <ele>1861.73</ele>
        <time>2018-03-03T13:14:59Z</time>
      </trkpt>
      <trkpt lat="46.491773324087262" lon="11.702027656137943">
        <ele>1861.73</ele>
        <time>2018-03-03T13:15:00Z</time>
      </trkpt>
      <trkpt lat="46.491793440654874" lon="11.702060345560312">
        <ele>1862.21</ele>
        <time>2018-03-03T13:15:03Z</time>
      </trkpt>
      <trkpt lat="46.491802996024489" lon="11.702071074396372">
        <ele>1862.21</ele>
        <time>2018-03-03T13:15:04Z</time>
      </trkpt>
      <trkpt lat="46.491873236373067" lon="11.702178362756968">
        <ele>1861.73</ele>
        <time>2018-03-03T13:15:14Z</time>
      </trkpt>
      <trkpt lat="46.491906428709626" lon="11.702238461002707">
        <ele>1861.73</ele>
        <time>2018-03-03T13:15:19Z</time>
      </trkpt>
      <trkpt lat="46.491914559155703" lon="11.702250950038433">
        <ele>1861.25</ele>
        <time>2018-03-03T13:15:20Z</time>
      </trkpt>
      <trkpt lat="46.491924868896604" lon="11.702276347205043">
        <ele>1861.25</ele>
        <time>2018-03-03T13:15:22Z</time>
      </trkpt>
      <trkpt lat="46.491935178637505" lon="11.702287495136261">
        <ele>1861.25</ele>
        <time>2018-03-03T13:15:23Z</time>
      </trkpt>
      <trkpt lat="46.491950852796435" lon="11.702326387166977">
        <ele>1861.25</ele>
        <time>2018-03-03T13:15:26Z</time>
      </trkpt>
      <trkpt lat="46.491962252184749" lon="11.702348263934255">
        <ele>1861.25</ele>
        <time>2018-03-03T13:15:27Z</time>
      </trkpt>
      <trkpt lat="46.491970466449857" lon="11.702361004427075">
        <ele>1860.77</ele>
        <time>2018-03-03T13:15:28Z</time>
      </trkpt>
      <trkpt lat="46.491998378187418" lon="11.702476758509874">
        <ele>1860.29</ele>
        <time>2018-03-03T13:15:35Z</time>
      </trkpt>
      <trkpt lat="46.49201849475503" lon="11.70260407961905">
        <ele>1859.8099999999999</ele>
        <time>2018-03-03T13:15:43Z</time>
      </trkpt>
      <trkpt lat="46.491997288540006" lon="11.702693849802017">
        <ele>1859.8099999999999</ele>
        <time>2018-03-03T13:15:49Z</time>
      </trkpt>
      <trkpt lat="46.492001647129655" lon="11.70271011069417">
        <ele>1859.3299999999999</ele>
        <time>2018-03-03T13:15:50Z</time>
      </trkpt>
      <trkpt lat="46.492000808939338" lon="11.702754702419043">
        <ele>1859.8099999999999</ele>
        <time>2018-03-03T13:15:52Z</time>
      </trkpt>
      <trkpt lat="46.49196962825954" lon="11.702914042398334">
        <ele>1859.8099999999999</ele>
        <time>2018-03-03T13:16:03Z</time>
      </trkpt>
      <trkpt lat="46.491951607167721" lon="11.702988892793655">
        <ele>1859.3299999999999</ele>
        <time>2018-03-03T13:16:11Z</time>
      </trkpt>
      <trkpt lat="46.491960743442178" lon="11.702985540032387">
        <ele>1859.3299999999999</ele>
        <time>2018-03-03T13:16:18Z</time>
      </trkpt>
      <trkpt lat="46.491960911080241" lon="11.702993838116527">
        <ele>1859.3299999999999</ele>
        <time>2018-03-03T13:16:33Z</time>
      </trkpt>
      <trkpt lat="46.491974154487252" lon="11.702996687963605">
        <ele>1859.8099999999999</ele>
        <time>2018-03-03T13:16:42Z</time>
      </trkpt>
      <trkpt lat="46.491961581632495" lon="11.70299937017262">
        <ele>1859.3299999999999</ele>
        <time>2018-03-03T13:16:59Z</time>
      </trkpt>
      <trkpt lat="46.491986392065883" lon="11.702964333817363">
        <ele>1859.3299999999999</ele>
        <time>2018-03-03T13:17:20Z</time>
      </trkpt>
      <trkpt lat="46.491992427036166" lon="11.702951760962605">
        <ele>1859.3299999999999</ele>
        <time>2018-03-03T13:17:30Z</time>
      </trkpt>
      <trkpt lat="46.491974489763379" lon="11.702948911115527">
        <ele>1859.3299999999999</ele>
        <time>2018-03-03T13:17:32Z</time>
      </trkpt>
      <trkpt lat="46.491941967979074" lon="11.702964501455426">
        <ele>1859.3299999999999</ele>
        <time>2018-03-03T13:17:34Z</time>
      </trkpt>
      <trkpt lat="46.491896035149693" lon="11.703111352398992">
        <ele>1859.3299999999999</ele>
        <time>2018-03-03T13:17:43Z</time>
      </trkpt>
      <trkpt lat="46.491841720417142" lon="11.703303214162588">
        <ele>1858.3699999999999</ele>
        <time>2018-03-03T13:17:55Z</time>
      </trkpt>
      <trkpt lat="46.491813138127327" lon="11.703465655446053">
        <ele>1857.8900000000001</ele>
        <time>2018-03-03T13:18:05Z</time>
      </trkpt>
      <trkpt lat="46.491799978539348" lon="11.703542685136199">
        <ele>1857.8900000000001</ele>
        <time>2018-03-03T13:18:10Z</time>
      </trkpt>
      <trkpt lat="46.491753123700619" lon="11.70374016277492">
        <ele>1857.4000000000001</ele>
        <time>2018-03-03T13:18:22Z</time>
      </trkpt>
      <trkpt lat="46.491729486733675" lon="11.703821215778589">
        <ele>1856.9200000000001</ele>
        <time>2018-03-03T13:18:27Z</time>
      </trkpt>
      <trkpt lat="46.491696210578084" lon="11.703976029530168">
        <ele>1857.4000000000001</ele>
        <time>2018-03-03T13:18:37Z</time>
      </trkpt>
      <trkpt lat="46.491661593317986" lon="11.704139309003949">
        <ele>1856.9200000000001</ele>
        <time>2018-03-03T13:18:47Z</time>
      </trkpt>
      <trkpt lat="46.49162270128727" lon="11.704276856034994">
        <ele>1856.4400000000001</ele>
        <time>2018-03-03T13:18:56Z</time>
      </trkpt>
      <trkpt lat="46.491570146754384" lon="11.704425299540162">
        <ele>1856.9200000000001</ele>
        <time>2018-03-03T13:19:06Z</time>
      </trkpt>
      <trkpt lat="46.491545839235187" lon="11.704529067501426">
        <ele>1856.4400000000001</ele>
        <time>2018-03-03T13:19:13Z</time>
      </trkpt>
      <trkpt lat="46.49148540571332" lon="11.704715816304088">
        <ele>1856.4400000000001</ele>
        <time>2018-03-03T13:19:25Z</time>
      </trkpt>
      <trkpt lat="46.491479873657227" lon="11.70473400503397">
        <ele>1856.4400000000001</ele>
        <time>2018-03-03T13:19:26Z</time>
      </trkpt>
      <trkpt lat="46.491452297195792" lon="11.704836180433631">
        <ele>1855.96</ele>
        <time>2018-03-03T13:19:33Z</time>
      </trkpt>
      <trkpt lat="46.491440897807479" lon="11.704856380820274">
        <ele>1855.96</ele>
        <time>2018-03-03T13:19:42Z</time>
      </trkpt>
      <trkpt lat="46.491440227255225" lon="11.704866103827953">
        <ele>1855.96</ele>
        <time>2018-03-03T13:19:43Z</time>
      </trkpt>
      <trkpt lat="46.491375435143709" lon="11.705066096037626">
        <ele>1855.48</ele>
        <time>2018-03-03T13:19:55Z</time>
      </trkpt>
      <trkpt lat="46.491361437365413" lon="11.705112867057323">
        <ele>1855.48</ele>
        <time>2018-03-03T13:19:58Z</time>
      </trkpt>
      <trkpt lat="46.491345427930355" lon="11.705179503187537">
        <ele>1855.48</ele>
        <time>2018-03-03T13:20:02Z</time>
      </trkpt>
      <trkpt lat="46.49131441488862" lon="11.705270782113075">
        <ele>1855.48</ele>
        <time>2018-03-03T13:20:08Z</time>
      </trkpt>
      <trkpt lat="46.491303937509656" lon="11.705299029126763">
        <ele>1855.48</ele>
        <time>2018-03-03T13:20:10Z</time>
      </trkpt>
      <trkpt lat="46.491252137348056" lon="11.705409670248628">
        <ele>1855</ele>
        <time>2018-03-03T13:20:18Z</time>
      </trkpt>
      <trkpt lat="46.491237804293633" lon="11.705431966111064">
        <ele>1855</ele>
        <time>2018-03-03T13:20:20Z</time>
      </trkpt>
      <trkpt lat="46.49122254922986" lon="11.705460045486689">
        <ele>1855</ele>
        <time>2018-03-03T13:20:22Z</time>
      </trkpt>
      <trkpt lat="46.491202600300312" lon="11.70553782954812">
        <ele>1855</ele>
        <time>2018-03-03T13:20:27Z</time>
      </trkpt>
      <trkpt lat="46.491155242547393" lon="11.705725500360131">
        <ele>1854.52</ele>
        <time>2018-03-03T13:20:39Z</time>
      </trkpt>
      <trkpt lat="46.491137221455574" lon="11.705818874761462">
        <ele>1854.52</ele>
        <time>2018-03-03T13:20:45Z</time>
      </trkpt>
      <trkpt lat="46.491101682186127" lon="11.705978298559785">
        <ele>1854.04</ele>
        <time>2018-03-03T13:20:55Z</time>
      </trkpt>
      <trkpt lat="46.491096569225192" lon="11.705993553623557">
        <ele>1854.04</ele>
        <time>2018-03-03T13:20:56Z</time>
      </trkpt>
      <trkpt lat="46.491087013855577" lon="11.706040073186159">
        <ele>1854.04</ele>
        <time>2018-03-03T13:20:59Z</time>
      </trkpt>
      <trkpt lat="46.491042505949736" lon="11.706226402893662">
        <ele>1853.5599999999999</ele>
        <time>2018-03-03T13:21:11Z</time>
      </trkpt>
      <trkpt lat="46.491005206480622" lon="11.706348862498999">
        <ele>1853.5599999999999</ele>
        <time>2018-03-03T13:21:19Z</time>
      </trkpt>
      <trkpt lat="46.490970756858587" lon="11.706459503620863">
        <ele>1853.5599999999999</ele>
        <time>2018-03-03T13:21:27Z</time>
      </trkpt>
      <trkpt lat="46.49094401858747" lon="11.706586992368102">
        <ele>1855</ele>
        <time>2018-03-03T13:21:37Z</time>
      </trkpt>
      <trkpt lat="46.490923734381795" lon="11.706645833328366">
        <ele>1855</ele>
        <time>2018-03-03T13:21:42Z</time>
      </trkpt>
      <trkpt lat="46.490880064666271" lon="11.706785978749394">
        <ele>1855</ele>
        <time>2018-03-03T13:21:53Z</time>
      </trkpt>
      <trkpt lat="46.490859696641564" lon="11.706895362585783">
        <ele>1855.96</ele>
        <time>2018-03-03T13:22:02Z</time>
      </trkpt>
      <trkpt lat="46.490841340273619" lon="11.706942887976766">
        <ele>1856.4400000000001</ele>
        <time>2018-03-03T13:22:06Z</time>
      </trkpt>
      <trkpt lat="46.490837736055255" lon="11.70698756352067">
        <ele>1856.4400000000001</ele>
        <time>2018-03-03T13:22:09Z</time>
      </trkpt>
      <trkpt lat="46.490793647244573" lon="11.707054534927011">
        <ele>1856.9200000000001</ele>
        <time>2018-03-03T13:22:20Z</time>
      </trkpt>
      <trkpt lat="46.490782499313354" lon="11.707061156630516">
        <ele>1856.9200000000001</ele>
        <time>2018-03-03T13:22:23Z</time>
      </trkpt>
      <trkpt lat="46.490793479606509" lon="11.707224184647202">
        <ele>1856.9200000000001</ele>
        <time>2018-03-03T13:22:33Z</time>
      </trkpt>
      <trkpt lat="46.490786019712687" lon="11.707376483827829">
        <ele>1856.9200000000001</ele>
        <time>2018-03-03T13:22:43Z</time>
      </trkpt>
      <trkpt lat="46.490751150995493" lon="11.707422081381083">
        <ele>1856.4400000000001</ele>
        <time>2018-03-03T13:22:46Z</time>
      </trkpt>
      <trkpt lat="46.490642270073295" lon="11.707490812987089">
        <ele>1855.96</ele>
        <time>2018-03-03T13:22:57Z</time>
      </trkpt>
      <trkpt lat="46.490632798522711" lon="11.707499027252197">
        <ele>1856.4400000000001</ele>
        <time>2018-03-03T13:22:58Z</time>
      </trkpt>
      <trkpt lat="46.490610335022211" lon="11.707505565136671">
        <ele>1856.4400000000001</ele>
        <time>2018-03-03T13:23:00Z</time>
      </trkpt>
      <trkpt lat="46.490601114928722" lon="11.707516964524984">
        <ele>1855.96</ele>
        <time>2018-03-03T13:23:01Z</time>
      </trkpt>
      <trkpt lat="46.490499274805188" lon="11.707550492137671">
        <ele>1855</ele>
        <time>2018-03-03T13:23:10Z</time>
      </trkpt>
      <trkpt lat="46.490401457995176" lon="11.707640094682574">
        <ele>1854.52</ele>
        <time>2018-03-03T13:23:21Z</time>
      </trkpt>
      <trkpt lat="46.490354519337416" lon="11.707727434113622">
        <ele>1855</ele>
        <time>2018-03-03T13:23:29Z</time>
      </trkpt>
      <trkpt lat="46.490276232361794" lon="11.707874871790409">
        <ele>1854.52</ele>
        <time>2018-03-03T13:23:40Z</time>
      </trkpt>
      <trkpt lat="46.490269275382161" lon="11.707887444645166">
        <ele>1854.52</ele>
        <time>2018-03-03T13:23:41Z</time>
      </trkpt>
      <trkpt lat="46.49024966172874" lon="11.707947542890906">
        <ele>1854.04</ele>
        <time>2018-03-03T13:23:45Z</time>
      </trkpt>
      <trkpt lat="46.490237675607204" lon="11.707976628094912">
        <ele>1854.04</ele>
        <time>2018-03-03T13:23:47Z</time>
      </trkpt>
      <trkpt lat="46.490231137722731" lon="11.708007054403424">
        <ele>1854.04</ele>
        <time>2018-03-03T13:23:49Z</time>
      </trkpt>
      <trkpt lat="46.490210182964802" lon="11.707981070503592">
        <ele>1854.04</ele>
        <time>2018-03-03T13:23:58Z</time>
      </trkpt>
      <trkpt lat="46.490218983963132" lon="11.707940250635147">
        <ele>1853.5599999999999</ele>
        <time>2018-03-03T13:24:03Z</time>
      </trkpt>
      <trkpt lat="46.490244213491678" lon="11.707819802686572">
        <ele>1854.04</ele>
        <time>2018-03-03T13:24:12Z</time>
      </trkpt>
      <trkpt lat="46.490249997004867" lon="11.707806726917624">
        <ele>1854.04</ele>
        <time>2018-03-03T13:24:13Z</time>
      </trkpt>
      <trkpt lat="46.490273298695683" lon="11.707764565944672">
        <ele>1854.52</ele>
        <time>2018-03-03T13:24:17Z</time>
      </trkpt>
      <trkpt lat="46.490315124392509" lon="11.707684099674225">
        <ele>1855</ele>
        <time>2018-03-03T13:24:25Z</time>
      </trkpt>
      <trkpt lat="46.490346053615212" lon="11.70765015296638">
        <ele>1855.48</ele>
        <time>2018-03-03T13:24:33Z</time>
      </trkpt>
      <trkpt lat="46.490338509902358" lon="11.707642776891589">
        <ele>1855</ele>
        <time>2018-03-03T13:24:45Z</time>
      </trkpt>
      <trkpt lat="46.490355525165796" lon="11.707627940922976">
        <ele>1855</ele>
        <time>2018-03-03T13:25:02Z</time>
      </trkpt>
      <trkpt lat="46.49037572555244" lon="11.707682339474559">
        <ele>1855</ele>
        <time>2018-03-03T13:25:18Z</time>
      </trkpt>
      <trkpt lat="46.490300204604864" lon="11.70782407745719">
        <ele>1854.52</ele>
        <time>2018-03-03T13:25:28Z</time>
      </trkpt>
      <trkpt lat="46.490280842408538" lon="11.707865316420794">
        <ele>1854.04</ele>
        <time>2018-03-03T13:25:31Z</time>
      </trkpt>
      <trkpt lat="46.490236753597856" lon="11.707941340282559">
        <ele>1854.04</ele>
        <time>2018-03-03T13:25:37Z</time>
      </trkpt>
      <trkpt lat="46.49022082798183" lon="11.707991380244493">
        <ele>1854.04</ele>
        <time>2018-03-03T13:25:40Z</time>
      </trkpt>
      <trkpt lat="46.490210434421897" lon="11.708037983626127">
        <ele>1853.5599999999999</ele>
        <time>2018-03-03T13:25:43Z</time>
      </trkpt>
      <trkpt lat="46.490186294540763" lon="11.708110319450498">
        <ele>1853.5599999999999</ele>
        <time>2018-03-03T13:25:48Z</time>
      </trkpt>
      <trkpt lat="46.490176739171147" lon="11.708136387169361">
        <ele>1853.0799999999999</ele>
        <time>2018-03-03T13:25:50Z</time>
      </trkpt>
      <trkpt lat="46.490159807726741" lon="11.708280304446816">
        <ele>1852.1199999999999</ele>
        <time>2018-03-03T13:25:58Z</time>
      </trkpt>
      <trkpt lat="46.490128375589848" lon="11.70850133523345">
        <ele>1851.6400000000001</ele>
        <time>2018-03-03T13:26:11Z</time>
      </trkpt>
      <trkpt lat="46.490115551277995" lon="11.708693951368332">
        <ele>1851.1600000000001</ele>
        <time>2018-03-03T13:26:22Z</time>
      </trkpt>
      <trkpt lat="46.490105325356126" lon="11.708812387660146">
        <ele>1851.1600000000001</ele>
        <time>2018-03-03T13:26:29Z</time>
      </trkpt>
      <trkpt lat="46.49010457098484" lon="11.708935266360641">
        <ele>1850.6800000000001</ele>
        <time>2018-03-03T13:26:36Z</time>
      </trkpt>
      <trkpt lat="46.490120161324739" lon="11.709114303812385">
        <ele>1851.1600000000001</ele>
        <time>2018-03-03T13:26:47Z</time>
      </trkpt>
      <trkpt lat="46.490134075284004" lon="11.709203151986003">
        <ele>1851.1600000000001</ele>
        <time>2018-03-03T13:26:53Z</time>
      </trkpt>
      <trkpt lat="46.490143379196525" lon="11.709293927997351">
        <ele>1851.1600000000001</ele>
        <time>2018-03-03T13:26:59Z</time>
      </trkpt>
      <trkpt lat="46.4901636634022" lon="11.70946248807013">
        <ele>1850.1900000000001</ele>
        <time>2018-03-03T13:27:09Z</time>
      </trkpt>
      <trkpt lat="46.490166764706373" lon="11.70958218164742">
        <ele>1848.75</ele>
        <time>2018-03-03T13:27:16Z</time>
      </trkpt>
      <trkpt lat="46.490162322297692" lon="11.709792399778962">
        <ele>1846.8299999999999</ele>
        <time>2018-03-03T13:27:28Z</time>
      </trkpt>
      <trkpt lat="46.490209847688675" lon="11.70994671061635">
        <ele>1845.8699999999999</ele>
        <time>2018-03-03T13:27:38Z</time>
      </trkpt>
      <trkpt lat="46.490245219320059" lon="11.710117282345891">
        <ele>1844.9100000000001</ele>
        <time>2018-03-03T13:27:49Z</time>
      </trkpt>
      <trkpt lat="46.490246644243598" lon="11.7101323697716">
        <ele>1844.4300000000001</ele>
        <time>2018-03-03T13:27:50Z</time>
      </trkpt>
      <trkpt lat="46.490249410271645" lon="11.710163298994303">
        <ele>1844.9100000000001</ele>
        <time>2018-03-03T13:27:52Z</time>
      </trkpt>
      <trkpt lat="46.490281093865633" lon="11.710348706692457">
        <ele>1843.47</ele>
        <time>2018-03-03T13:28:03Z</time>
      </trkpt>
      <trkpt lat="46.490304982289672" lon="11.710528833791614">
        <ele>1842.5</ele>
        <time>2018-03-03T13:28:14Z</time>
      </trkpt>
      <trkpt lat="46.490293582901359" lon="11.710563786327839">
        <ele>1842.02</ele>
        <time>2018-03-03T13:28:16Z</time>
      </trkpt>
      <trkpt lat="46.49027899838984" lon="11.710773753002286">
        <ele>1841.0599999999999</ele>
        <time>2018-03-03T13:28:28Z</time>
      </trkpt>
      <trkpt lat="46.490274220705032" lon="11.710794623941183">
        <ele>1841.0599999999999</ele>
        <time>2018-03-03T13:28:29Z</time>
      </trkpt>
      <trkpt lat="46.490272711962461" lon="11.71096209436655">
        <ele>1839.6199999999999</ele>
        <time>2018-03-03T13:28:40Z</time>
      </trkpt>
      <trkpt lat="46.490303473547101" lon="11.71117122285068">
        <ele>1836.26</ele>
        <time>2018-03-03T13:28:52Z</time>
      </trkpt>
      <trkpt lat="46.490303389728069" lon="11.711189495399594">
        <ele>1835.77</ele>
        <time>2018-03-03T13:28:53Z</time>
      </trkpt>
      <trkpt lat="46.490323422476649" lon="11.711341040208936">
        <ele>1833.3699999999999</ele>
        <time>2018-03-03T13:29:02Z</time>
      </trkpt>
      <trkpt lat="46.490339431911707" lon="11.711461991071701">
        <ele>1831.9300000000001</ele>
        <time>2018-03-03T13:29:09Z</time>
      </trkpt>
      <trkpt lat="46.490346472710371" lon="11.711556371301413">
        <ele>1830.01</ele>
        <time>2018-03-03T13:29:14Z</time>
      </trkpt>
      <trkpt lat="46.49035619571805" lon="11.711690733209252">
        <ele>1828.0799999999999</ele>
        <time>2018-03-03T13:29:22Z</time>
      </trkpt>
      <trkpt lat="46.490379329770803" lon="11.711851498112082">
        <ele>1825.6800000000001</ele>
        <time>2018-03-03T13:29:31Z</time>
      </trkpt>
      <trkpt lat="46.490437751635909" lon="11.712015951052308">
        <ele>1822.8</ele>
        <time>2018-03-03T13:29:43Z</time>
      </trkpt>
      <trkpt lat="46.490462394431233" lon="11.712114186957479">
        <ele>1820.3900000000001</ele>
        <time>2018-03-03T13:29:50Z</time>
      </trkpt>
      <trkpt lat="46.490498268976808" lon="11.71229112893343">
        <ele>1817.03</ele>
        <time>2018-03-03T13:30:01Z</time>
      </trkpt>
      <trkpt lat="46.490532215684652" lon="11.712467400357127">
        <ele>1814.1500000000001</ele>
        <time>2018-03-03T13:30:12Z</time>
      </trkpt>
      <trkpt lat="46.490597426891327" lon="11.712641492486">
        <ele>1811.26</ele>
        <time>2018-03-03T13:30:24Z</time>
      </trkpt>
      <trkpt lat="46.490678144618869" lon="11.712808627635241">
        <ele>1808.8599999999999</ele>
        <time>2018-03-03T13:30:37Z</time>
      </trkpt>
      <trkpt lat="46.490755090489984" lon="11.713005853816867">
        <ele>1805.97</ele>
        <time>2018-03-03T13:30:50Z</time>
      </trkpt>
      <trkpt lat="46.490792473778129" lon="11.713171815499663">
        <ele>1804.53</ele>
        <time>2018-03-03T13:31:00Z</time>
      </trkpt>
      <trkpt lat="46.490853074938059" lon="11.713364263996482">
        <ele>1802.1300000000001</ele>
        <time>2018-03-03T13:31:12Z</time>
      </trkpt>
      <trkpt lat="46.490943264216185" lon="11.713552018627524">
        <ele>1800.21</ele>
        <time>2018-03-03T13:31:25Z</time>
      </trkpt>
      <trkpt lat="46.490967739373446" lon="11.713598370552063">
        <ele>1799.73</ele>
        <time>2018-03-03T13:31:28Z</time>
      </trkpt>
      <trkpt lat="46.491093635559082" lon="11.713703982532024">
        <ele>1797.8</ele>
        <time>2018-03-03T13:31:41Z</time>
      </trkpt>
      <trkpt lat="46.49113361723721" lon="11.713716555386782">
        <ele>1796.8399999999999</ele>
        <time>2018-03-03T13:31:45Z</time>
      </trkpt>
      <trkpt lat="46.491176281124353" lon="11.713777240365744">
        <ele>1796.3599999999999</ele>
        <time>2018-03-03T13:31:50Z</time>
      </trkpt>
      <trkpt lat="46.491235289722681" lon="11.71399986371398">
        <ele>1795.8800000000001</ele>
        <time>2018-03-03T13:32:02Z</time>
      </trkpt>
      <trkpt lat="46.491248533129692" lon="11.714025679975748">
        <ele>1795.4000000000001</ele>
        <time>2018-03-03T13:32:04Z</time>
      </trkpt>
      <trkpt lat="46.491235792636871" lon="11.714258529245853">
        <ele>1794.9200000000001</ele>
        <time>2018-03-03T13:32:17Z</time>
      </trkpt>
      <trkpt lat="46.491183489561081" lon="11.714457850903273">
        <ele>1794.4400000000001</ele>
        <time>2018-03-03T13:32:29Z</time>
      </trkpt>
      <trkpt lat="46.49115851148963" lon="11.714601516723633">
        <ele>1794.4400000000001</ele>
        <time>2018-03-03T13:32:40Z</time>
      </trkpt>
      <trkpt lat="46.491153063252568" lon="11.714635798707604">
        <ele>1793.96</ele>
        <time>2018-03-03T13:32:42Z</time>
      </trkpt>
      <trkpt lat="46.491154655814171" lon="11.714769825339317">
        <ele>1793</ele>
        <time>2018-03-03T13:32:50Z</time>
      </trkpt>
      <trkpt lat="46.491189524531364" lon="11.714953975751996">
        <ele>1790.5899999999999</ele>
        <time>2018-03-03T13:33:02Z</time>
      </trkpt>
      <trkpt lat="46.491211652755737" lon="11.715126223862171">
        <ele>1788.1900000000001</ele>
        <time>2018-03-03T13:33:12Z</time>
      </trkpt>
      <trkpt lat="46.491211149841547" lon="11.715169893577695">
        <ele>1787.71</ele>
        <time>2018-03-03T13:33:15Z</time>
      </trkpt>
      <trkpt lat="46.491219699382782" lon="11.715366700664163">
        <ele>1785.79</ele>
        <time>2018-03-03T13:33:26Z</time>
      </trkpt>
      <trkpt lat="46.4912015106529" lon="11.715534841641784">
        <ele>1784.3399999999999</ele>
        <time>2018-03-03T13:33:36Z</time>
      </trkpt>
      <trkpt lat="46.491179466247559" lon="11.715769954025745">
        <ele>1781.9400000000001</ele>
        <time>2018-03-03T13:33:50Z</time>
      </trkpt>
      <trkpt lat="46.49116488173604" lon="11.715927366167307">
        <ele>1780.5</ele>
        <time>2018-03-03T13:33:59Z</time>
      </trkpt>
      <trkpt lat="46.491208216175437" lon="11.71609559096396">
        <ele>1778.0999999999999</ele>
        <time>2018-03-03T13:34:11Z</time>
      </trkpt>
      <trkpt lat="46.491239480674267" lon="11.71615426428616">
        <ele>1777.1300000000001</ele>
        <time>2018-03-03T13:34:17Z</time>
      </trkpt>
      <trkpt lat="46.491257585585117" lon="11.716197598725557">
        <ele>1776.1700000000001</ele>
        <time>2018-03-03T13:34:21Z</time>
      </trkpt>
      <trkpt lat="46.491273595020175" lon="11.716256020590663">
        <ele>1775.21</ele>
        <time>2018-03-03T13:34:25Z</time>
      </trkpt>
      <trkpt lat="46.491295555606484" lon="11.716448301449418">
        <ele>1773.29</ele>
        <time>2018-03-03T13:34:36Z</time>
      </trkpt>
      <trkpt lat="46.491305697709322" lon="11.71666145324707">
        <ele>1770.8900000000001</ele>
        <time>2018-03-03T13:34:49Z</time>
      </trkpt>
      <trkpt lat="46.491314498707652" lon="11.716834371909499">
        <ele>1768</ele>
        <time>2018-03-03T13:35:01Z</time>
      </trkpt>
      <trkpt lat="46.491301339119673" lon="11.71703034080565">
        <ele>1765.1199999999999</ele>
        <time>2018-03-03T13:35:13Z</time>
      </trkpt>
      <trkpt lat="46.491217017173767" lon="11.717195129022002">
        <ele>1762.71</ele>
        <time>2018-03-03T13:35:24Z</time>
      </trkpt>
      <trkpt lat="46.491162702441216" lon="11.717284815385938">
        <ele>1760.79</ele>
        <time>2018-03-03T13:35:31Z</time>
      </trkpt>
      <trkpt lat="46.491115260869265" lon="11.717390427365899">
        <ele>1758.8699999999999</ele>
        <time>2018-03-03T13:35:38Z</time>
      </trkpt>
      <trkpt lat="46.491104867309332" lon="11.717542475089431">
        <ele>1756.47</ele>
        <time>2018-03-03T13:35:47Z</time>
      </trkpt>
      <trkpt lat="46.491123056039214" lon="11.717748502269387">
        <ele>1753.0999999999999</ele>
        <time>2018-03-03T13:36:00Z</time>
      </trkpt>
      <trkpt lat="46.491152979433537" lon="11.717898873612285">
        <ele>1750.7</ele>
        <time>2018-03-03T13:36:09Z</time>
      </trkpt>
      <trkpt lat="46.491130264475942" lon="11.718007419258356">
        <ele>1749.74</ele>
        <time>2018-03-03T13:36:16Z</time>
      </trkpt>
      <trkpt lat="46.491127666085958" lon="11.718041282147169">
        <ele>1748.78</ele>
        <time>2018-03-03T13:36:19Z</time>
      </trkpt>
      <trkpt lat="46.491080056875944" lon="11.718259463086724">
        <ele>1745.8900000000001</ele>
        <time>2018-03-03T13:36:31Z</time>
      </trkpt>
      <trkpt lat="46.491040494292974" lon="11.718447469174862">
        <ele>1742.53</ele>
        <time>2018-03-03T13:36:43Z</time>
      </trkpt>
      <trkpt lat="46.491034207865596" lon="11.718557104468346">
        <ele>1741.0799999999999</ele>
        <time>2018-03-03T13:36:50Z</time>
      </trkpt>
      <trkpt lat="46.491019707173109" lon="11.718720886856318">
        <ele>1738.2</ele>
        <time>2018-03-03T13:37:00Z</time>
      </trkpt>
      <trkpt lat="46.491000261157751" lon="11.718818536028266">
        <ele>1736.28</ele>
        <time>2018-03-03T13:37:07Z</time>
      </trkpt>
      <trkpt lat="46.490984922274947" lon="11.7188426759094">
        <ele>1735.8</ele>
        <time>2018-03-03T13:37:09Z</time>
      </trkpt>
      <trkpt lat="46.490980060771108" lon="11.718874527141452">
        <ele>1735.3199999999999</ele>
        <time>2018-03-03T13:37:11Z</time>
      </trkpt>
      <trkpt lat="46.490964973345399" lon="11.718964632600546">
        <ele>1733.8800000000001</ele>
        <time>2018-03-03T13:37:16Z</time>
      </trkpt>
      <trkpt lat="46.490922058001161" lon="11.71912606805563">
        <ele>1730.99</ele>
        <time>2018-03-03T13:37:27Z</time>
      </trkpt>
      <trkpt lat="46.490904958918691" lon="11.71920133754611">
        <ele>1730.03</ele>
        <time>2018-03-03T13:37:32Z</time>
      </trkpt>
      <trkpt lat="46.490894565358758" lon="11.719223046675324">
        <ele>1729.55</ele>
        <time>2018-03-03T13:37:33Z</time>
      </trkpt>
      <trkpt lat="46.490861205384135" lon="11.719411304220557">
        <ele>1727.1500000000001</ele>
        <time>2018-03-03T13:37:44Z</time>
      </trkpt>
      <trkpt lat="46.490850141271949" lon="11.719493614509702">
        <ele>1725.7</ele>
        <time>2018-03-03T13:37:49Z</time>
      </trkpt>
      <trkpt lat="46.490848548710346" lon="11.719522280618548">
        <ele>1724.74</ele>
        <time>2018-03-03T13:37:51Z</time>
      </trkpt>
      <trkpt lat="46.490820553153753" lon="11.719624875113368">
        <ele>1723.3</ele>
        <time>2018-03-03T13:37:58Z</time>
      </trkpt>
      <trkpt lat="46.490755509585142" lon="11.719798967242241">
        <ele>1720.9000000000001</ele>
        <time>2018-03-03T13:38:09Z</time>
      </trkpt>
      <trkpt lat="46.4907524921" lon="11.719829393550754">
        <ele>1720.4200000000001</ele>
        <time>2018-03-03T13:38:11Z</time>
      </trkpt>
      <trkpt lat="46.490719802677631" lon="11.71988295391202">
        <ele>1719.46</ele>
        <time>2018-03-03T13:38:15Z</time>
      </trkpt>
      <trkpt lat="46.490560965612531" lon="11.720056962221861">
        <ele>1716.5699999999999</ele>
        <time>2018-03-03T13:38:29Z</time>
      </trkpt>
      <trkpt lat="46.490515116602182" lon="11.72024454921484">
        <ele>1713.6900000000001</ele>
        <time>2018-03-03T13:38:41Z</time>
      </trkpt>
      <trkpt lat="46.490476140752435" lon="11.720375725999475">
        <ele>1712.25</ele>
        <time>2018-03-03T13:38:50Z</time>
      </trkpt>
      <trkpt lat="46.490441607311368" lon="11.720574460923672">
        <ele>1709.8399999999999</ele>
        <time>2018-03-03T13:39:02Z</time>
      </trkpt>
      <trkpt lat="46.490407744422555" lon="11.720729358494282">
        <ele>1707.9200000000001</ele>
        <time>2018-03-03T13:39:12Z</time>
      </trkpt>
      <trkpt lat="46.490397350862622" lon="11.720773782581091">
        <ele>1707.4400000000001</ele>
        <time>2018-03-03T13:39:15Z</time>
      </trkpt>
      <trkpt lat="46.49038159288466" lon="11.720964219421148">
        <ele>1705.04</ele>
        <time>2018-03-03T13:39:26Z</time>
      </trkpt>
      <trkpt lat="46.490374719724059" lon="11.720978887751698">
        <ele>1705.04</ele>
        <time>2018-03-03T13:39:27Z</time>
      </trkpt>
      <trkpt lat="46.490369271486998" lon="11.721031274646521">
        <ele>1704.55</ele>
        <time>2018-03-03T13:39:30Z</time>
      </trkpt>
      <trkpt lat="46.490358794108033" lon="11.72116857022047">
        <ele>1702.6300000000001</ele>
        <time>2018-03-03T13:39:40Z</time>
      </trkpt>
      <trkpt lat="46.490348484367132" lon="11.721324976533651">
        <ele>1700.71</ele>
        <time>2018-03-03T13:39:50Z</time>
      </trkpt>
      <trkpt lat="46.490376060828567" lon="11.721483897417784">
        <ele>1698.3099999999999</ele>
        <time>2018-03-03T13:40:02Z</time>
      </trkpt>
      <trkpt lat="46.490409839898348" lon="11.721639716997743">
        <ele>1696.3800000000001</ele>
        <time>2018-03-03T13:40:13Z</time>
      </trkpt>
      <trkpt lat="46.490406822413206" lon="11.721695456653833">
        <ele>1695.4200000000001</ele>
        <time>2018-03-03T13:40:17Z</time>
      </trkpt>
      <trkpt lat="46.490415874868631" lon="11.721708448603749">
        <ele>1694.9400000000001</ele>
        <time>2018-03-03T13:40:18Z</time>
      </trkpt>
      <trkpt lat="46.490427358075976" lon="11.721738120540977">
        <ele>1694.46</ele>
        <time>2018-03-03T13:40:20Z</time>
      </trkpt>
      <trkpt lat="46.490432303398848" lon="11.721918415278196">
        <ele>1692.54</ele>
        <time>2018-03-03T13:40:32Z</time>
      </trkpt>
      <trkpt lat="46.490425681695342" lon="11.722043054178357">
        <ele>1691.0999999999999</ele>
        <time>2018-03-03T13:40:39Z</time>
      </trkpt>
      <trkpt lat="46.4904226642102" lon="11.722070882096887">
        <ele>1690.6199999999999</ele>
        <time>2018-03-03T13:40:41Z</time>
      </trkpt>
      <trkpt lat="46.490389974787831" lon="11.722243214026093">
        <ele>1689.1700000000001</ele>
        <time>2018-03-03T13:40:53Z</time>
      </trkpt>
      <trkpt lat="46.490309257060289" lon="11.722382353618741">
        <ele>1686.77</ele>
        <time>2018-03-03T13:41:04Z</time>
      </trkpt>
      <trkpt lat="46.490167267620564" lon="11.722507998347282">
        <ele>1684.8499999999999</ele>
        <time>2018-03-03T13:41:17Z</time>
      </trkpt>
      <trkpt lat="46.490123849362135" lon="11.722543286159635">
        <ele>1683.8900000000001</ele>
        <time>2018-03-03T13:41:21Z</time>
      </trkpt>
      <trkpt lat="46.490070037543774" lon="11.722596595063806">
        <ele>1683.4100000000001</ele>
        <time>2018-03-03T13:41:27Z</time>
      </trkpt>
      <trkpt lat="46.49002879858017" lon="11.722703212872148">
        <ele>1681.48</ele>
        <time>2018-03-03T13:41:38Z</time>
      </trkpt>
      <trkpt lat="46.489944308996201" lon="11.722831623628736">
        <ele>1680.04</ele>
        <time>2018-03-03T13:41:50Z</time>
      </trkpt>
      <trkpt lat="46.489941207692027" lon="11.72286263667047">
        <ele>1679.5599999999999</ele>
        <time>2018-03-03T13:41:52Z</time>
      </trkpt>
      <trkpt lat="46.489947661757469" lon="11.722886944189668">
        <ele>1679.0799999999999</ele>
        <time>2018-03-03T13:41:54Z</time>
      </trkpt>
      <trkpt lat="46.489941962063313" lon="11.722914101555943">
        <ele>1678.5999999999999</ele>
        <time>2018-03-03T13:41:56Z</time>
      </trkpt>
      <trkpt lat="46.489944560453296" lon="11.723066149279475">
        <ele>1676.6800000000001</ele>
        <time>2018-03-03T13:42:07Z</time>
      </trkpt>
      <trkpt lat="46.489920085296035" lon="11.723123900592327">
        <ele>1675.72</ele>
        <time>2018-03-03T13:42:11Z</time>
      </trkpt>
      <trkpt lat="46.489921594038606" lon="11.723149633035064">
        <ele>1675.23</ele>
        <time>2018-03-03T13:42:12Z</time>
      </trkpt>
      <trkpt lat="46.489779856055975" lon="11.723327413201332">
        <ele>1672.8299999999999</ele>
        <time>2018-03-03T13:42:26Z</time>
      </trkpt>
      <trkpt lat="46.48974590934813" lon="11.723374100401998">
        <ele>1671.8699999999999</ele>
        <time>2018-03-03T13:42:30Z</time>
      </trkpt>
      <trkpt lat="46.489689080044627" lon="11.723525812849402">
        <ele>1668.99</ele>
        <time>2018-03-03T13:42:42Z</time>
      </trkpt>
      <trkpt lat="46.489638369530439" lon="11.723723541945219">
        <ele>1665.6199999999999</ele>
        <time>2018-03-03T13:42:55Z</time>
      </trkpt>
      <trkpt lat="46.489596460014582" lon="11.723824292421341">
        <ele>1664.1800000000001</ele>
        <time>2018-03-03T13:43:02Z</time>
      </trkpt>
      <trkpt lat="46.489568380638957" lon="11.723823957145214">
        <ele>1663.7</ele>
        <time>2018-03-03T13:43:05Z</time>
      </trkpt>
      <trkpt lat="46.489528231322765" lon="11.723988829180598">
        <ele>1661.3</ele>
        <time>2018-03-03T13:43:16Z</time>
      </trkpt>
      <trkpt lat="46.48940677754581" lon="11.72417163848877">
        <ele>1658.8900000000001</ele>
        <time>2018-03-03T13:43:30Z</time>
      </trkpt>
      <trkpt lat="46.489302171394229" lon="11.724337600171566">
        <ele>1656.49</ele>
        <time>2018-03-03T13:43:43Z</time>
      </trkpt>
      <trkpt lat="46.489233104512095" lon="11.724456874653697">
        <ele>1655.05</ele>
        <time>2018-03-03T13:43:53Z</time>
      </trkpt>
      <trkpt lat="46.489122128114104" lon="11.724583357572556">
        <ele>1652.6400000000001</ele>
        <time>2018-03-03T13:44:05Z</time>
      </trkpt>
      <trkpt lat="46.489007463678718" lon="11.724703051149845">
        <ele>1652.1600000000001</ele>
        <time>2018-03-03T13:44:17Z</time>
      </trkpt>
      <trkpt lat="46.488929428160191" lon="11.724800700321794">
        <ele>1649.28</ele>
        <time>2018-03-03T13:44:26Z</time>
      </trkpt>
      <trkpt lat="46.488886345177889" lon="11.724858367815614">
        <ele>1648.3199999999999</ele>
        <time>2018-03-03T13:44:31Z</time>
      </trkpt>
      <trkpt lat="46.48882725276053" lon="11.72495836392045">
        <ele>1647.3599999999999</ele>
        <time>2018-03-03T13:44:39Z</time>
      </trkpt>
      <trkpt lat="46.488711917772889" lon="11.725154081359506">
        <ele>1644.47</ele>
        <time>2018-03-03T13:44:53Z</time>
      </trkpt>
      <trkpt lat="46.488613011315465" lon="11.725300597026944">
        <ele>1642.55</ele>
        <time>2018-03-03T13:45:05Z</time>
      </trkpt>
      <trkpt lat="46.488496502861381" lon="11.725466307252645">
        <ele>1640.6300000000001</ele>
        <time>2018-03-03T13:45:18Z</time>
      </trkpt>
      <trkpt lat="46.488366164267063" lon="11.725655235350132">
        <ele>1638.22</ele>
        <time>2018-03-03T13:45:32Z</time>
      </trkpt>
      <trkpt lat="46.488270694389939" lon="11.725828908383846">
        <ele>1636.3</ele>
        <time>2018-03-03T13:45:44Z</time>
      </trkpt>
      <trkpt lat="46.488195508718491" lon="11.725965952500701">
        <ele>1634.3800000000001</ele>
        <time>2018-03-03T13:45:55Z</time>
      </trkpt>
      <trkpt lat="46.488128872588277" lon="11.726149767637253">
        <ele>1631.98</ele>
        <time>2018-03-03T13:46:07Z</time>
      </trkpt>
      <trkpt lat="46.488069193437696" lon="11.726324865594506">
        <ele>1630.05</ele>
        <time>2018-03-03T13:46:18Z</time>
      </trkpt>
      <trkpt lat="46.487971125170588" lon="11.726513039320707">
        <ele>1627.6500000000001</ele>
        <time>2018-03-03T13:46:31Z</time>
      </trkpt>
      <trkpt lat="46.487869787961245" lon="11.726713282987475">
        <ele>1625.25</ele>
        <time>2018-03-03T13:46:45Z</time>
      </trkpt>
      <trkpt lat="46.487801559269428" lon="11.72686985693872">
        <ele>1623.3199999999999</ele>
        <time>2018-03-03T13:46:56Z</time>
      </trkpt>
      <trkpt lat="46.487754369154572" lon="11.72696859575808">
        <ele>1622.8399999999999</ele>
        <time>2018-03-03T13:47:03Z</time>
      </trkpt>
      <trkpt lat="46.487682536244392" lon="11.727136317640543">
        <ele>1620.9200000000001</ele>
        <time>2018-03-03T13:47:15Z</time>
      </trkpt>
      <trkpt lat="46.487602153792977" lon="11.727316863834858">
        <ele>1619.48</ele>
        <time>2018-03-03T13:47:27Z</time>
      </trkpt>
      <trkpt lat="46.487533170729876" lon="11.727444939315319">
        <ele>1618.04</ele>
        <time>2018-03-03T13:47:38Z</time>
      </trkpt>
      <trkpt lat="46.487465528771281" lon="11.727550216019154">
        <ele>1617.0699999999999</ele>
        <time>2018-03-03T13:47:48Z</time>
      </trkpt>
      <trkpt lat="46.487362431362271" lon="11.72765851020813">
        <ele>1616.1099999999999</ele>
        <time>2018-03-03T13:48:01Z</time>
      </trkpt>
      <trkpt lat="46.487284060567617" lon="11.727694636210799">
        <ele>1614.6700000000001</ele>
        <time>2018-03-03T13:48:11Z</time>
      </trkpt>
      <trkpt lat="46.487215328961611" lon="11.727793123573065">
        <ele>1613.23</ele>
        <time>2018-03-03T13:48:22Z</time>
      </trkpt>
      <trkpt lat="46.487167300656438" lon="11.72783050686121">
        <ele>1612.75</ele>
        <time>2018-03-03T13:48:34Z</time>
      </trkpt>
      <trkpt lat="46.48708138614893" lon="11.727891527116299">
        <ele>1611.3099999999999</ele>
        <time>2018-03-03T13:48:44Z</time>
      </trkpt>
      <trkpt lat="46.487015504390001" lon="11.727958498522639">
        <ele>1610.3499999999999</ele>
        <time>2018-03-03T13:48:52Z</time>
      </trkpt>
      <trkpt lat="46.486966386437416" lon="11.727986242622137">
        <ele>1609.3800000000001</ele>
        <time>2018-03-03T13:48:57Z</time>
      </trkpt>
      <trkpt lat="46.486862199380994" lon="11.728089256212115">
        <ele>1607.46</ele>
        <time>2018-03-03T13:49:10Z</time>
      </trkpt>
      <trkpt lat="46.486769327893853" lon="11.728160670027137">
        <ele>1605.0599999999999</ele>
        <time>2018-03-03T13:49:22Z</time>
      </trkpt>
      <trkpt lat="46.486742254346609" lon="11.728203417733312">
        <ele>1604.0999999999999</ele>
        <time>2018-03-03T13:49:27Z</time>
      </trkpt>
      <trkpt lat="46.486685760319233" lon="11.728243231773376">
        <ele>1603.1400000000001</ele>
        <time>2018-03-03T13:49:33Z</time>
      </trkpt>
      <trkpt lat="46.486626751720905" lon="11.728303916752338">
        <ele>1602.1700000000001</ele>
        <time>2018-03-03T13:49:40Z</time>
      </trkpt>
      <trkpt lat="46.486512757837772" lon="11.728421179577708">
        <ele>1600.25</ele>
        <time>2018-03-03T13:49:54Z</time>
      </trkpt>
      <trkpt lat="46.486435895785689" lon="11.728515895083547">
        <ele>1598.8099999999999</ele>
        <time>2018-03-03T13:50:07Z</time>
      </trkpt>
      <trkpt lat="46.486410163342953" lon="11.728527881205082">
        <ele>1599.29</ele>
        <time>2018-03-03T13:50:26Z</time>
      </trkpt>
      <trkpt lat="46.486373115330935" lon="11.728597283363342">
        <ele>1598.3299999999999</ele>
        <time>2018-03-03T13:50:41Z</time>
      </trkpt>
      <trkpt lat="46.486303880810738" lon="11.728723179548979">
        <ele>1597.3699999999999</ele>
        <time>2018-03-03T13:50:52Z</time>
      </trkpt>
      <trkpt lat="46.486296588554978" lon="11.728736506775022">
        <ele>1597.3699999999999</ele>
        <time>2018-03-03T13:50:53Z</time>
      </trkpt>
      <trkpt lat="46.486258702352643" lon="11.728788474574685">
        <ele>1596.4100000000001</ele>
        <time>2018-03-03T13:50:58Z</time>
      </trkpt>
      <trkpt lat="46.486164070665836" lon="11.728884615004063">
        <ele>1594.96</ele>
        <time>2018-03-03T13:51:09Z</time>
      </trkpt>
      <trkpt lat="46.486050328239799" lon="11.728980001062155">
        <ele>1593.04</ele>
        <time>2018-03-03T13:51:22Z</time>
      </trkpt>
      <trkpt lat="46.485975394025445" lon="11.729071950539947">
        <ele>1592.0799999999999</ele>
        <time>2018-03-03T13:51:32Z</time>
      </trkpt>
      <trkpt lat="46.485896855592728" lon="11.729271104559302">
        <ele>1589.6800000000001</ele>
        <time>2018-03-03T13:51:45Z</time>
      </trkpt>
      <trkpt lat="46.48581781424582" lon="11.729447627440095">
        <ele>1587.75</ele>
        <time>2018-03-03T13:51:58Z</time>
      </trkpt>
      <trkpt lat="46.485768361017108" lon="11.729599423706532">
        <ele>1586.3099999999999</ele>
        <time>2018-03-03T13:52:08Z</time>
      </trkpt>
      <trkpt lat="46.485701389610767" lon="11.729759015142918">
        <ele>1584.8699999999999</ele>
        <time>2018-03-03T13:52:19Z</time>
      </trkpt>
      <trkpt lat="46.485642632469535" lon="11.729933442547917">
        <ele>1582.47</ele>
        <time>2018-03-03T13:52:30Z</time>
      </trkpt>
      <trkpt lat="46.485618827864528" lon="11.730124969035387">
        <ele>1580.54</ele>
        <time>2018-03-03T13:52:41Z</time>
      </trkpt>
      <trkpt lat="46.485582953318954" lon="11.730327140539885">
        <ele>1578.6199999999999</ele>
        <time>2018-03-03T13:52:53Z</time>
      </trkpt>
      <trkpt lat="46.485497206449509" lon="11.730457060039043">
        <ele>1577.1800000000001</ele>
        <time>2018-03-03T13:53:04Z</time>
      </trkpt>
      <trkpt lat="46.485410956665874" lon="11.730572562664747">
        <ele>1576.7</ele>
        <time>2018-03-03T13:53:14Z</time>
      </trkpt>
      <trkpt lat="46.485376004129648" lon="11.730641210451722">
        <ele>1575.74</ele>
        <time>2018-03-03T13:53:19Z</time>
      </trkpt>
      <trkpt lat="46.485369130969048" lon="11.730668870732188">
        <ele>1575.74</ele>
        <time>2018-03-03T13:53:21Z</time>
      </trkpt>
      <trkpt lat="46.485300315544009" lon="11.730841035023332">
        <ele>1573.8199999999999</ele>
        <time>2018-03-03T13:53:34Z</time>
      </trkpt>
      <trkpt lat="46.485240133479238" lon="11.730988472700119">
        <ele>1573.8199999999999</ele>
        <time>2018-03-03T13:53:45Z</time>
      </trkpt>
      <trkpt lat="46.485205683857203" lon="11.731082517653704">
        <ele>1573.3299999999999</ele>
        <time>2018-03-03T13:53:52Z</time>
      </trkpt>
      <trkpt lat="46.485201576724648" lon="11.731120320037007">
        <ele>1572.8499999999999</ele>
        <time>2018-03-03T13:53:55Z</time>
      </trkpt>
      <trkpt lat="46.485178945586085" lon="11.731303548440337">
        <ele>1570.9300000000001</ele>
        <time>2018-03-03T13:54:07Z</time>
      </trkpt>
      <trkpt lat="46.48512102663517" lon="11.731411758810282">
        <ele>1569.97</ele>
        <time>2018-03-03T13:54:15Z</time>
      </trkpt>
      <trkpt lat="46.485105855390429" lon="11.731455931439996">
        <ele>1569.49</ele>
        <time>2018-03-03T13:54:18Z</time>
      </trkpt>
      <trkpt lat="46.485049361363053" lon="11.731633460149169">
        <ele>1568.05</ele>
        <time>2018-03-03T13:54:30Z</time>
      </trkpt>
      <trkpt lat="46.484983814880252" lon="11.731778802350163">
        <ele>1566.6099999999999</ele>
        <time>2018-03-03T13:54:41Z</time>
      </trkpt>
      <trkpt lat="46.484895218163729" lon="11.731934705749154">
        <ele>1565.6400000000001</ele>
        <time>2018-03-03T13:54:51Z</time>
      </trkpt>
      <trkpt lat="46.484873928129673" lon="11.732013495638967">
        <ele>1565.6400000000001</ele>
        <time>2018-03-03T13:54:56Z</time>
      </trkpt>
      <trkpt lat="46.484846854582429" lon="11.732062110677361">
        <ele>1565.6400000000001</ele>
        <time>2018-03-03T13:55:00Z</time>
      </trkpt>
      <trkpt lat="46.484817853197455" lon="11.73213142901659">
        <ele>1565.1600000000001</ele>
        <time>2018-03-03T13:55:05Z</time>
      </trkpt>
      <trkpt lat="46.484774434939027" lon="11.73229806125164">
        <ele>1564.2</ele>
        <time>2018-03-03T13:55:16Z</time>
      </trkpt>
      <trkpt lat="46.48474769666791" lon="11.732467291876674">
        <ele>1563.72</ele>
        <time>2018-03-03T13:55:26Z</time>
      </trkpt>
      <trkpt lat="46.484677540138364" lon="11.732595786452293">
        <ele>1562.76</ele>
        <time>2018-03-03T13:55:36Z</time>
      </trkpt>
      <trkpt lat="46.484642755240202" lon="11.73272411338985">
        <ele>1562.28</ele>
        <time>2018-03-03T13:55:43Z</time>
      </trkpt>
      <trkpt lat="46.484600342810154" lon="11.732872137799859">
        <ele>1561.8</ele>
        <time>2018-03-03T13:55:52Z</time>
      </trkpt>
      <trkpt lat="46.484553320333362" lon="11.733030471950769">
        <ele>1561.3199999999999</ele>
        <time>2018-03-03T13:56:03Z</time>
      </trkpt>
      <trkpt lat="46.484548961743712" lon="11.733046229928732">
        <ele>1561.3199999999999</ele>
        <time>2018-03-03T13:56:04Z</time>
      </trkpt>
      <trkpt lat="46.484468160197139" lon="11.733254017308354">
        <ele>1560.8399999999999</ele>
        <time>2018-03-03T13:56:17Z</time>
      </trkpt>
      <trkpt lat="46.48438467644155" lon="11.733404388651252">
        <ele>1559.8800000000001</ele>
        <time>2018-03-03T13:56:28Z</time>
      </trkpt>
      <trkpt lat="46.484290463849902" lon="11.733559370040894">
        <ele>1558.9200000000001</ele>
        <time>2018-03-03T13:56:40Z</time>
      </trkpt>
      <trkpt lat="46.484197592362761" lon="11.733698844909668">
        <ele>1558.4300000000001</ele>
        <time>2018-03-03T13:56:52Z</time>
      </trkpt>
      <trkpt lat="46.484108241274953" lon="11.733833625912666">
        <ele>1556.99</ele>
        <time>2018-03-03T13:57:02Z</time>
      </trkpt>
      <trkpt lat="46.484010256826878" lon="11.734006879851222">
        <ele>1556.03</ele>
        <time>2018-03-03T13:57:12Z</time>
      </trkpt>
      <trkpt lat="46.483995756134391" lon="11.734091034159064">
        <ele>1555.55</ele>
        <time>2018-03-03T13:57:18Z</time>
      </trkpt>
      <trkpt lat="46.483927275985479" lon="11.734210308641195">
        <ele>1555.0699999999999</ele>
        <time>2018-03-03T13:57:26Z</time>
      </trkpt>
      <trkpt lat="46.483831806108356" lon="11.734386328607798">
        <ele>1554.5899999999999</ele>
        <time>2018-03-03T13:57:39Z</time>
      </trkpt>
      <trkpt lat="46.483752261847258" lon="11.734556397423148">
        <ele>1553.1500000000001</ele>
        <time>2018-03-03T13:57:51Z</time>
      </trkpt>
      <trkpt lat="46.483682272955775" lon="11.734692351892591">
        <ele>1552.1900000000001</ele>
        <time>2018-03-03T13:58:01Z</time>
      </trkpt>
      <trkpt lat="46.483672633767128" lon="11.734721353277564">
        <ele>1552.1900000000001</ele>
        <time>2018-03-03T13:58:03Z</time>
      </trkpt>
      <trkpt lat="46.483548330143094" lon="11.734864851459861">
        <ele>1551.22</ele>
        <time>2018-03-03T13:58:16Z</time>
      </trkpt>
      <trkpt lat="46.483398713171482" lon="11.734990160912275">
        <ele>1550.26</ele>
        <time>2018-03-03T13:58:28Z</time>
      </trkpt>
      <trkpt lat="46.483294358476996" lon="11.73511253669858">
        <ele>1549.3</ele>
        <time>2018-03-03T13:58:40Z</time>
      </trkpt>
      <trkpt lat="46.483195200562477" lon="11.735253017395735">
        <ele>1547.8599999999999</ele>
        <time>2018-03-03T13:58:52Z</time>
      </trkpt>
      <trkpt lat="46.483173910528421" lon="11.735296938568354">
        <ele>1546.9000000000001</ele>
        <time>2018-03-03T13:58:55Z</time>
      </trkpt>
      <trkpt lat="46.48309956304729" lon="11.735434737056494">
        <ele>1544.5</ele>
        <time>2018-03-03T13:59:06Z</time>
      </trkpt>
      <trkpt lat="46.48306192830205" lon="11.735548228025436">
        <ele>1543.05</ele>
        <time>2018-03-03T13:59:14Z</time>
      </trkpt>
      <trkpt lat="46.483051786199212" lon="11.735594663769007">
        <ele>1542.5699999999999</ele>
        <time>2018-03-03T13:59:17Z</time>
      </trkpt>
      <trkpt lat="46.483028903603554" lon="11.735662976279855">
        <ele>1541.1300000000001</ele>
        <time>2018-03-03T13:59:22Z</time>
      </trkpt>
      <trkpt lat="46.482990849763155" lon="11.735730115324259">
        <ele>1540.6500000000001</ele>
        <time>2018-03-03T13:59:27Z</time>
      </trkpt>
      <trkpt lat="46.482942989096045" lon="11.735817370936275">
        <ele>1538.73</ele>
        <time>2018-03-03T13:59:35Z</time>
      </trkpt>
      <trkpt lat="46.482865707948804" lon="11.735917450860143">
        <ele>1535.3599999999999</ele>
        <time>2018-03-03T13:59:47Z</time>
      </trkpt>
      <trkpt lat="46.482825307175517" lon="11.735978806391358">
        <ele>1533.9200000000001</ele>
        <time>2018-03-03T13:59:55Z</time>
      </trkpt>
      <trkpt lat="46.482748193666339" lon="11.736102607101202">
        <ele>1530.5599999999999</ele>
        <time>2018-03-03T14:00:07Z</time>
      </trkpt>
      <trkpt lat="46.482688263058662" lon="11.736193718388677">
        <ele>1527.1900000000001</ele>
        <time>2018-03-03T14:00:19Z</time>
      </trkpt>
      <trkpt lat="46.482615089043975" lon="11.736264545470476">
        <ele>1524.79</ele>
        <time>2018-03-03T14:00:29Z</time>
      </trkpt>
      <trkpt lat="46.482551386579871" lon="11.736319614574313">
        <ele>1522.3900000000001</ele>
        <time>2018-03-03T14:00:38Z</time>
      </trkpt>
      <trkpt lat="46.482499167323112" lon="11.736404607072473">
        <ele>1519.02</ele>
        <time>2018-03-03T14:00:49Z</time>
      </trkpt>
      <trkpt lat="46.482444265857339" lon="11.73647828400135">
        <ele>1516.6199999999999</ele>
        <time>2018-03-03T14:00:59Z</time>
      </trkpt>
      <trkpt lat="46.482392130419612" lon="11.736564366146922">
        <ele>1514.21</ele>
        <time>2018-03-03T14:01:09Z</time>
      </trkpt>
      <trkpt lat="46.482375031337142" lon="11.736590852960944">
        <ele>1513.73</ele>
        <time>2018-03-03T14:01:12Z</time>
      </trkpt>
      <trkpt lat="46.482364470139146" lon="11.736609293147922">
        <ele>1513.25</ele>
        <time>2018-03-03T14:01:14Z</time>
      </trkpt>
      <trkpt lat="46.482341671362519" lon="11.736748935654759">
        <ele>1510.3699999999999</ele>
        <time>2018-03-03T14:01:26Z</time>
      </trkpt>
      <trkpt lat="46.48230554535985" lon="11.736887823790312">
        <ele>1508.45</ele>
        <time>2018-03-03T14:01:37Z</time>
      </trkpt>
      <trkpt lat="46.482291212305427" lon="11.737016988918185">
        <ele>1506.52</ele>
        <time>2018-03-03T14:01:48Z</time>
      </trkpt>
      <trkpt lat="46.482291212305427" lon="11.737029980868101">
        <ele>1506.04</ele>
        <time>2018-03-03T14:01:49Z</time>
      </trkpt>
      <trkpt lat="46.482213595882058" lon="11.737201474606991">
        <ele>1503.1600000000001</ele>
        <time>2018-03-03T14:02:02Z</time>
      </trkpt>
      <trkpt lat="46.482166154310107" lon="11.737309768795967">
        <ele>1502.2</ele>
        <time>2018-03-03T14:02:10Z</time>
      </trkpt>
      <trkpt lat="46.48210278712213" lon="11.737470449879766">
        <ele>1500.27</ele>
        <time>2018-03-03T14:02:21Z</time>
      </trkpt>
      <trkpt lat="46.482006479054689" lon="11.737590981647372">
        <ele>1498.8299999999999</ele>
        <time>2018-03-03T14:02:31Z</time>
      </trkpt>
      <trkpt lat="46.481883265078068" lon="11.737676225602627">
        <ele>1498.8299999999999</ele>
        <time>2018-03-03T14:02:42Z</time>
      </trkpt>
      <trkpt lat="46.481762398034334" lon="11.737742274999619">
        <ele>1498.3499999999999</ele>
        <time>2018-03-03T14:02:53Z</time>
      </trkpt>
      <trkpt lat="46.481644297018647" lon="11.737796170637012">
        <ele>1497.3900000000001</ele>
        <time>2018-03-03T14:03:03Z</time>
      </trkpt>
      <trkpt lat="46.481517730280757" lon="11.737855514511466">
        <ele>1495.95</ele>
        <time>2018-03-03T14:03:14Z</time>
      </trkpt>
      <trkpt lat="46.481386637315154" lon="11.737922569736838">
        <ele>1493.55</ele>
        <time>2018-03-03T14:03:25Z</time>
      </trkpt>
      <trkpt lat="46.48125839419663" lon="11.738001191988587">
        <ele>1492.0999999999999</ele>
        <time>2018-03-03T14:03:35Z</time>
      </trkpt>
      <trkpt lat="46.48116216994822" lon="11.738068414852023">
        <ele>1490.6600000000001</ele>
        <time>2018-03-03T14:03:44Z</time>
      </trkpt>
      <trkpt lat="46.481016157194972" lon="11.738174445927143">
        <ele>1489.22</ele>
        <time>2018-03-03T14:03:57Z</time>
      </trkpt>
      <trkpt lat="46.480943821370602" lon="11.738293217495084">
        <ele>1488.26</ele>
        <time>2018-03-03T14:04:08Z</time>
      </trkpt>
      <trkpt lat="46.480856398120522" lon="11.738417102023959">
        <ele>1486.8199999999999</ele>
        <time>2018-03-03T14:04:19Z</time>
      </trkpt>
      <trkpt lat="46.480752713978291" lon="11.738540818914771">
        <ele>1484.8900000000001</ele>
        <time>2018-03-03T14:04:29Z</time>
      </trkpt>
      <trkpt lat="46.480722539126873" lon="11.738576358184218">
        <ele>1483.9300000000001</ele>
        <time>2018-03-03T14:04:34Z</time>
      </trkpt>
      <trkpt lat="46.480672834441066" lon="11.738596642389894">
        <ele>1484.4100000000001</ele>
        <time>2018-03-03T14:04:39Z</time>
      </trkpt>
      <trkpt lat="46.480648359283805" lon="11.738601587712765">
        <ele>1482.49</ele>
        <time>2018-03-03T14:04:41Z</time>
      </trkpt>
      <trkpt lat="46.480574766173959" lon="11.738659841939807">
        <ele>1481.05</ele>
        <time>2018-03-03T14:04:48Z</time>
      </trkpt>
      <trkpt lat="46.480530509725213" lon="11.73870887607336">
        <ele>1479.6099999999999</ele>
        <time>2018-03-03T14:04:53Z</time>
      </trkpt>
      <trkpt lat="46.480417354032397" lon="11.738865366205573">
        <ele>1476.72</ele>
        <time>2018-03-03T14:05:05Z</time>
      </trkpt>
      <trkpt lat="46.480293469503522" lon="11.738952370360494">
        <ele>1474.8</ele>
        <time>2018-03-03T14:05:16Z</time>
      </trkpt>
      <trkpt lat="46.480190791189671" lon="11.73900886438787">
        <ele>1474.3199999999999</ele>
        <time>2018-03-03T14:05:25Z</time>
      </trkpt>
      <trkpt lat="46.480068750679493" lon="11.739089917391539">
        <ele>1472.8800000000001</ele>
        <time>2018-03-03T14:05:36Z</time>
      </trkpt>
      <trkpt lat="46.479981662705541" lon="11.739181950688362">
        <ele>1471.4400000000001</ele>
        <time>2018-03-03T14:05:47Z</time>
      </trkpt>
      <trkpt lat="46.479893065989017" lon="11.739284545183182">
        <ele>1469.03</ele>
        <time>2018-03-03T14:05:58Z</time>
      </trkpt>
      <trkpt lat="46.479810420423746" lon="11.739374063909054">
        <ele>1468.0699999999999</ele>
        <time>2018-03-03T14:06:09Z</time>
      </trkpt>
      <trkpt lat="46.479796506464481" lon="11.739389151334763">
        <ele>1467.5899999999999</ele>
        <time>2018-03-03T14:06:20Z</time>
      </trkpt>
      <trkpt lat="46.479790303856134" lon="11.73937582410872">
        <ele>1467.5899999999999</ele>
        <time>2018-03-03T14:06:37Z</time>
      </trkpt>
      <trkpt lat="46.479787454009056" lon="11.739364257082343">
        <ele>1467.5899999999999</ele>
        <time>2018-03-03T14:06:39Z</time>
      </trkpt>
      <trkpt lat="46.479768930003047" lon="11.739365598186851">
        <ele>1466.6300000000001</ele>
        <time>2018-03-03T14:06:50Z</time>
      </trkpt>
      <trkpt lat="46.47975635714829" lon="11.739385798573494">
        <ele>1466.6300000000001</ele>
        <time>2018-03-03T14:07:08Z</time>
      </trkpt>
      <trkpt lat="46.479771276935935" lon="11.739334166049957">
        <ele>1466.6300000000001</ele>
        <time>2018-03-03T14:07:30Z</time>
      </trkpt>
      <trkpt lat="46.479747388511896" lon="11.739273061975837">
        <ele>1466.6300000000001</ele>
        <time>2018-03-03T14:07:49Z</time>
      </trkpt>
      <trkpt lat="46.479747723788023" lon="11.739277839660645">
        <ele>1466.6300000000001</ele>
        <time>2018-03-03T14:08:08Z</time>
      </trkpt>
      <trkpt lat="46.479736743494868" lon="11.73924095928669">
        <ele>1467.1099999999999</ele>
        <time>2018-03-03T14:08:23Z</time>
      </trkpt>
      <trkpt lat="46.479735234752297" lon="11.739267027005553">
        <ele>1467.1099999999999</ele>
        <time>2018-03-03T14:08:44Z</time>
      </trkpt>
      <trkpt lat="46.479749986901879" lon="11.739351851865649">
        <ele>1467.1099999999999</ele>
        <time>2018-03-03T14:09:01Z</time>
      </trkpt>
      <trkpt lat="46.479713693261147" lon="11.739357635378838">
        <ele>1467.5899999999999</ele>
        <time>2018-03-03T14:09:20Z</time>
      </trkpt>
      <trkpt lat="46.479701958596706" lon="11.739276917651296">
        <ele>1468.0699999999999</ele>
        <time>2018-03-03T14:09:42Z</time>
      </trkpt>
      <trkpt lat="46.479671448469162" lon="11.739225117489696">
        <ele>1468.55</ele>
        <time>2018-03-03T14:10:02Z</time>
      </trkpt>
      <trkpt lat="46.479602800682187" lon="11.739192176610231">
        <ele>1469.03</ele>
        <time>2018-03-03T14:10:18Z</time>
      </trkpt>
      <trkpt lat="46.479586539790034" lon="11.739293010905385">
        <ele>1469.03</ele>
        <time>2018-03-03T14:10:39Z</time>
      </trkpt>
      <trkpt lat="46.479642698541284" lon="11.739417901262641">
        <ele>1469.51</ele>
        <time>2018-03-03T14:11:00Z</time>
      </trkpt>
      <trkpt lat="46.479621073231101" lon="11.739360149949789">
        <ele>1470.47</ele>
        <time>2018-03-03T14:11:22Z</time>
      </trkpt>
      <trkpt lat="46.479578576982021" lon="11.739400131627917">
        <ele>1470.47</ele>
        <time>2018-03-03T14:11:41Z</time>
      </trkpt>
      <trkpt lat="46.479528285562992" lon="11.73947406001389">
        <ele>1471.4400000000001</ele>
        <time>2018-03-03T14:12:04Z</time>
      </trkpt>
      <trkpt lat="46.479521580040455" lon="11.739324443042278">
        <ele>1471.9200000000001</ele>
        <time>2018-03-03T14:12:29Z</time>
      </trkpt>
      <trkpt lat="46.479518478736281" lon="11.739233080297709">
        <ele>1472.4000000000001</ele>
        <time>2018-03-03T14:12:39Z</time>
      </trkpt>
      <trkpt lat="46.479505738243461" lon="11.739195948466659">
        <ele>1472.8800000000001</ele>
        <time>2018-03-03T14:12:59Z</time>
      </trkpt>
      <trkpt lat="46.479498278349638" lon="11.739237941801548">
        <ele>1473.8399999999999</ele>
        <time>2018-03-03T14:13:20Z</time>
      </trkpt>
      <trkpt lat="46.479490734636784" lon="11.739303153008223">
        <ele>1474.8</ele>
        <time>2018-03-03T14:13:43Z</time>
      </trkpt>
      <trkpt lat="46.479480508714914" lon="11.739209024235606">
        <ele>1475.28</ele>
        <time>2018-03-03T14:14:00Z</time>
      </trkpt>
      <trkpt lat="46.479448238387704" lon="11.739359479397535">
        <ele>1476.24</ele>
        <time>2018-03-03T14:14:17Z</time>
      </trkpt>
      <trkpt lat="46.479420326650143" lon="11.739333411678672">
        <ele>1476.72</ele>
        <time>2018-03-03T14:14:38Z</time>
      </trkpt>
      <trkpt lat="46.479438599199057" lon="11.739235846325755">
        <ele>1477.6800000000001</ele>
        <time>2018-03-03T14:15:04Z</time>
      </trkpt>
      <trkpt lat="46.479428457096219" lon="11.739249676465988">
        <ele>1478.6500000000001</ele>
        <time>2018-03-03T14:15:26Z</time>
      </trkpt>
      <trkpt lat="46.479442873969674" lon="11.739257220178843">
        <ele>1479.6099999999999</ele>
        <time>2018-03-03T14:15:30Z</time>
      </trkpt>
      <trkpt lat="46.4794587995857" lon="11.739266943186522">
        <ele>1479.6099999999999</ele>
        <time>2018-03-03T14:15:38Z</time>
      </trkpt>
      <trkpt lat="46.479472378268838" lon="11.739260824397206">
        <ele>1479.6099999999999</ele>
        <time>2018-03-03T14:15:47Z</time>
      </trkpt>
      <trkpt lat="46.479488052427769" lon="11.739345900714397">
        <ele>1480.0899999999999</ele>
        <time>2018-03-03T14:16:01Z</time>
      </trkpt>
      <trkpt lat="46.479476150125265" lon="11.739360820502043">
        <ele>1480.0899999999999</ele>
        <time>2018-03-03T14:16:15Z</time>
      </trkpt>
      <trkpt lat="46.479472545906901" lon="11.739267697557807">
        <ele>1480.0899999999999</ele>
        <time>2018-03-03T14:16:29Z</time>
      </trkpt>
      <trkpt lat="46.479472378268838" lon="11.739302901551127">
        <ele>1480.5699999999999</ele>
        <time>2018-03-03T14:16:48Z</time>
      </trkpt>
      <trkpt lat="46.479505654424429" lon="11.739231906831264">
        <ele>1480.5699999999999</ele>
        <time>2018-03-03T14:17:02Z</time>
      </trkpt>
      <trkpt lat="46.479513365775347" lon="11.739176837727427">
        <ele>1481.05</ele>
        <time>2018-03-03T14:17:19Z</time>
      </trkpt>
      <trkpt lat="46.479481849819422" lon="11.739202486351132">
        <ele>1480.5699999999999</ele>
        <time>2018-03-03T14:17:33Z</time>
      </trkpt>
      <trkpt lat="46.479488555341959" lon="11.739195948466659">
        <ele>1480.5699999999999</ele>
        <time>2018-03-03T14:17:42Z</time>
      </trkpt>
      <trkpt lat="46.479542618617415" lon="11.739212879911065">
        <ele>1480.5699999999999</ele>
        <time>2018-03-03T14:17:57Z</time>
      </trkpt>
      <trkpt lat="46.479540858417749" lon="11.739222267642617">
        <ele>1480.5699999999999</ele>
        <time>2018-03-03T14:18:12Z</time>
      </trkpt>
      <trkpt lat="46.479528285562992" lon="11.739410776644945">
        <ele>1481.53</ele>
        <time>2018-03-03T14:18:31Z</time>
      </trkpt>
      <trkpt lat="46.479528872296214" lon="11.739391917362809">
        <ele>1481.53</ele>
        <time>2018-03-03T14:18:45Z</time>
      </trkpt>
      <trkpt lat="46.47952820174396" lon="11.739390827715397">
        <ele>1483.45</ele>
        <time>2018-03-03T14:18:47Z</time>
      </trkpt>
      <trkpt lat="46.479523340240121" lon="11.739400634542108">
        <ele>1482.01</ele>
        <time>2018-03-03T14:18:48Z</time>
      </trkpt>
      <trkpt lat="46.479515209794044" lon="11.739364843815565">
        <ele>1482.01</ele>
        <time>2018-03-03T14:19:09Z</time>
      </trkpt>
      <trkpt lat="46.47949249483645" lon="11.739276750013232">
        <ele>1482.97</ele>
        <time>2018-03-03T14:19:21Z</time>
      </trkpt>
      <trkpt lat="46.479445472359657" lon="11.739283371716738">
        <ele>1482.97</ele>
        <time>2018-03-03T14:19:32Z</time>
      </trkpt>
      <trkpt lat="46.47943239659071" lon="11.739274654537439">
        <ele>1483.45</ele>
        <time>2018-03-03T14:19:48Z</time>
      </trkpt>
      <trkpt lat="46.479408005252481" lon="11.739317402243614">
        <ele>1483.45</ele>
        <time>2018-03-03T14:20:03Z</time>
      </trkpt>
      <trkpt lat="46.479399707168341" lon="11.739327544346452">
        <ele>1483.45</ele>
        <time>2018-03-03T14:20:04Z</time>
      </trkpt>
      <trkpt lat="46.47936643101275" lon="11.739334417507052">
        <ele>1482.97</ele>
        <time>2018-03-03T14:20:07Z</time>
      </trkpt>
      <trkpt lat="46.479359557852149" lon="11.73961915075779">
        <ele>1482.01</ele>
        <time>2018-03-03T14:20:19Z</time>
      </trkpt>
      <trkpt lat="46.479257298633456" lon="11.739770695567131">
        <ele>1480.5699999999999</ele>
        <time>2018-03-03T14:20:33Z</time>
      </trkpt>
      <trkpt lat="46.47916124202311" lon="11.73983808606863">
        <ele>1479.6099999999999</ele>
        <time>2018-03-03T14:20:43Z</time>
      </trkpt>
      <trkpt lat="46.479175826534629" lon="11.73981268890202">
        <ele>1477.6800000000001</ele>
        <time>2018-03-03T14:20:53Z</time>
      </trkpt>
      <trkpt lat="46.479057976976037" lon="11.739819394424558">
        <ele>1475.28</ele>
        <time>2018-03-03T14:21:05Z</time>
      </trkpt>
      <trkpt lat="46.478967368602753" lon="11.739908829331398">
        <ele>1473.8399999999999</ele>
        <time>2018-03-03T14:21:17Z</time>
      </trkpt>
      <trkpt lat="46.478981534019113" lon="11.740000443533063">
        <ele>1472.4000000000001</ele>
        <time>2018-03-03T14:21:29Z</time>
      </trkpt>
      <trkpt lat="46.478954376652837" lon="11.740048304200172">
        <ele>1470.95</ele>
        <time>2018-03-03T14:21:36Z</time>
      </trkpt>
      <trkpt lat="46.478784559294581" lon="11.740129441022873">
        <ele>1468.55</ele>
        <time>2018-03-03T14:21:49Z</time>
      </trkpt>
      <trkpt lat="46.478702332824469" lon="11.740206135436893">
        <ele>1466.6300000000001</ele>
        <time>2018-03-03T14:21:59Z</time>
      </trkpt>
      <trkpt lat="46.478690095245838" lon="11.740234466269612">
        <ele>1466.1500000000001</ele>
        <time>2018-03-03T14:22:06Z</time>
      </trkpt>
      <trkpt lat="46.478613149374723" lon="11.74035994336009">
        <ele>1464.23</ele>
        <time>2018-03-03T14:22:19Z</time>
      </trkpt>
      <trkpt lat="46.478549530729651" lon="11.740443846210837">
        <ele>1462.78</ele>
        <time>2018-03-03T14:22:29Z</time>
      </trkpt>
      <trkpt lat="46.478418437764049" lon="11.74053143709898">
        <ele>1461.3399999999999</ele>
        <time>2018-03-03T14:22:41Z</time>
      </trkpt>
      <trkpt lat="46.478284830227494" lon="11.740625901147723">
        <ele>1460.3800000000001</ele>
        <time>2018-03-03T14:22:54Z</time>
      </trkpt>
      <trkpt lat="46.478261025622487" lon="11.740656411275268">
        <ele>1459.9000000000001</ele>
        <time>2018-03-03T14:22:57Z</time>
      </trkpt>
      <trkpt lat="46.478250967338681" lon="11.740658590570092">
        <ele>1459.9000000000001</ele>
        <time>2018-03-03T14:22:58Z</time>
      </trkpt>
      <trkpt lat="46.478164969012141" lon="11.740718856453896">
        <ele>1458.9400000000001</ele>
        <time>2018-03-03T14:23:06Z</time>
      </trkpt>
      <trkpt lat="46.478155497461557" lon="11.740731261670589">
        <ele>1459.4200000000001</ele>
        <time>2018-03-03T14:23:07Z</time>
      </trkpt>
      <trkpt lat="46.478061284869909" lon="11.740812566131353">
        <ele>1458.46</ele>
        <time>2018-03-03T14:23:19Z</time>
      </trkpt>
      <trkpt lat="46.477957349270582" lon="11.740853972733021">
        <ele>1458.46</ele>
        <time>2018-03-03T14:23:29Z</time>
      </trkpt>
      <trkpt lat="46.477846289053559" lon="11.740933433175087">
        <ele>1457.02</ele>
        <time>2018-03-03T14:23:40Z</time>
      </trkpt>
      <trkpt lat="46.477728858590126" lon="11.741025634109974">
        <ele>1455.5699999999999</ele>
        <time>2018-03-03T14:23:52Z</time>
      </trkpt>
      <trkpt lat="46.477586282417178" lon="11.741145411506295">
        <ele>1454.6099999999999</ele>
        <time>2018-03-03T14:24:05Z</time>
      </trkpt>
      <trkpt lat="46.477482095360756" lon="11.741211879998446">
        <ele>1453.6500000000001</ele>
        <time>2018-03-03T14:24:16Z</time>
      </trkpt>
      <trkpt lat="46.477456446737051" lon="11.741229733452201">
        <ele>1453.6500000000001</ele>
        <time>2018-03-03T14:24:18Z</time>
      </trkpt>
      <trkpt lat="46.47734253667295" lon="11.741282371804118">
        <ele>1453.1700000000001</ele>
        <time>2018-03-03T14:24:31Z</time>
      </trkpt>
      <trkpt lat="46.477289563044906" lon="11.741272564977407">
        <ele>1453.1700000000001</ele>
        <time>2018-03-03T14:24:44Z</time>
      </trkpt>
      <trkpt lat="46.477135922759771" lon="11.741344397887588">
        <ele>1451.73</ele>
        <time>2018-03-03T14:24:57Z</time>
      </trkpt>
      <trkpt lat="46.47700197994709" lon="11.741441544145346">
        <ele>1451.25</ele>
        <time>2018-03-03T14:25:09Z</time>
      </trkpt>
      <trkpt lat="46.47690718062222" lon="11.741474820300937">
        <ele>1450.77</ele>
        <time>2018-03-03T14:25:18Z</time>
      </trkpt>
      <trkpt lat="46.47673711180687" lon="11.741567691788077">
        <ele>1449.8099999999999</ele>
        <time>2018-03-03T14:25:32Z</time>
      </trkpt>
      <trkpt lat="46.476623201742768" lon="11.741622257977724">
        <ele>1449.3199999999999</ele>
        <time>2018-03-03T14:25:42Z</time>
      </trkpt>
      <trkpt lat="46.476552123203874" lon="11.741741532459855">
        <ele>1448.8399999999999</ele>
        <time>2018-03-03T14:25:52Z</time>
      </trkpt>
      <trkpt lat="46.476495377719402" lon="11.74176718108356">
        <ele>1448.3599999999999</ele>
        <time>2018-03-03T14:26:00Z</time>
      </trkpt>
      <trkpt lat="46.476446595042944" lon="11.741766007617116">
        <ele>1448.3599999999999</ele>
        <time>2018-03-03T14:26:12Z</time>
      </trkpt>
      <trkpt lat="46.476436872035265" lon="11.74176374450326">
        <ele>1447.8800000000001</ele>
        <time>2018-03-03T14:26:17Z</time>
      </trkpt>
      <trkpt lat="46.476418599486351" lon="11.741901123896241">
        <ele>1448.3599999999999</ele>
        <time>2018-03-03T14:26:26Z</time>
      </trkpt>
      <trkpt lat="46.476415414363146" lon="11.741932975128293">
        <ele>1448.8399999999999</ele>
        <time>2018-03-03T14:26:30Z</time>
      </trkpt>
      <trkpt lat="46.476401081308722" lon="11.741960048675537">
        <ele>1448.8399999999999</ele>
        <time>2018-03-03T14:26:34Z</time>
      </trkpt>
      <trkpt lat="46.476367050781846" lon="11.742074964568019">
        <ele>1448.3599999999999</ele>
        <time>2018-03-03T14:26:48Z</time>
      </trkpt>
      <trkpt lat="46.476353220641613" lon="11.742148641496897">
        <ele>1447.8800000000001</ele>
        <time>2018-03-03T14:26:56Z</time>
      </trkpt>
      <trkpt lat="46.476317346096039" lon="11.742287697270513">
        <ele>1446.9200000000001</ele>
        <time>2018-03-03T14:27:08Z</time>
      </trkpt>
      <trkpt lat="46.476254481822252" lon="11.742445947602391">
        <ele>1445.96</ele>
        <time>2018-03-03T14:27:20Z</time>
      </trkpt>
      <trkpt lat="46.476245010271668" lon="11.742555247619748">
        <ele>1445</ele>
        <time>2018-03-03T14:27:29Z</time>
      </trkpt>
      <trkpt lat="46.476091621443629" lon="11.742725735530257">
        <ele>1444.04</ele>
        <time>2018-03-03T14:27:43Z</time>
      </trkpt>
      <trkpt lat="46.475992379710078" lon="11.742855068296194">
        <ele>1443.5599999999999</ele>
        <time>2018-03-03T14:27:54Z</time>
      </trkpt>
      <trkpt lat="46.475974610075355" lon="11.742879208177328">
        <ele>1443.5599999999999</ele>
        <time>2018-03-03T14:27:56Z</time>
      </trkpt>
      <trkpt lat="46.475932532921433" lon="11.743029998615384">
        <ele>1442.5999999999999</ele>
        <time>2018-03-03T14:28:08Z</time>
      </trkpt>
      <trkpt lat="46.475885845720768" lon="11.743121277540922">
        <ele>1442.1099999999999</ele>
        <time>2018-03-03T14:28:17Z</time>
      </trkpt>
      <trkpt lat="46.4757857657969" lon="11.743259830400348">
        <ele>1441.6300000000001</ele>
        <time>2018-03-03T14:28:29Z</time>
      </trkpt>
      <trkpt lat="46.475700018927455" lon="11.743359826505184">
        <ele>1440.6700000000001</ele>
        <time>2018-03-03T14:28:40Z</time>
      </trkpt>
      <trkpt lat="46.475645620375872" lon="11.743461582809687">
        <ele>1440.1900000000001</ele>
        <time>2018-03-03T14:28:52Z</time>
      </trkpt>
      <trkpt lat="46.475583845749497" lon="11.743556465953588">
        <ele>1439.23</ele>
        <time>2018-03-03T14:29:02Z</time>
      </trkpt>
      <trkpt lat="46.475530872121453" lon="11.743628550320864">
        <ele>1438.75</ele>
        <time>2018-03-03T14:29:09Z</time>
      </trkpt>
      <trkpt lat="46.475435402244329" lon="11.743732485920191">
        <ele>1437.79</ele>
        <time>2018-03-03T14:29:22Z</time>
      </trkpt>
      <trkpt lat="46.475431965664029" lon="11.743746399879456">
        <ele>1438.75</ele>
        <time>2018-03-03T14:29:23Z</time>
      </trkpt>
      <trkpt lat="46.475430708378553" lon="11.743762828409672">
        <ele>1437.79</ele>
        <time>2018-03-03T14:29:24Z</time>
      </trkpt>
      <trkpt lat="46.475426685065031" lon="11.743776323273778">
        <ele>1437.79</ele>
        <time>2018-03-03T14:29:25Z</time>
      </trkpt>
      <trkpt lat="46.475324174389243" lon="11.743856286630034">
        <ele>1436.3499999999999</ele>
        <time>2018-03-03T14:29:36Z</time>
      </trkpt>
      <trkpt lat="46.475205235183239" lon="11.74393717199564">
        <ele>1435.8699999999999</ele>
        <time>2018-03-03T14:29:48Z</time>
      </trkpt>
      <trkpt lat="46.475140694528818" lon="11.743999449536204">
        <ele>1435.3900000000001</ele>
        <time>2018-03-03T14:29:57Z</time>
      </trkpt>
      <trkpt lat="46.475048577412963" lon="11.744053848087788">
        <ele>1434.9100000000001</ele>
        <time>2018-03-03T14:30:07Z</time>
      </trkpt>
      <trkpt lat="46.475032735615969" lon="11.744071701541543">
        <ele>1434.9100000000001</ele>
        <time>2018-03-03T14:30:09Z</time>
      </trkpt>
      <trkpt lat="46.474969033151865" lon="11.744148395955563">
        <ele>1434.4200000000001</ele>
        <time>2018-03-03T14:30:19Z</time>
      </trkpt>
      <trkpt lat="46.474932404235005" lon="11.744180414825678">
        <ele>1434.4200000000001</ele>
        <time>2018-03-03T14:30:24Z</time>
      </trkpt>
      <trkpt lat="46.474895607680082" lon="11.744213774800301">
        <ele>1434.4200000000001</ele>
        <time>2018-03-03T14:30:28Z</time>
      </trkpt>
      <trkpt lat="46.474816985428333" lon="11.744304047897458">
        <ele>1434.4200000000001</ele>
        <time>2018-03-03T14:30:39Z</time>
      </trkpt>
      <trkpt lat="46.474728053435683" lon="11.744410078972578">
        <ele>1434.9100000000001</ele>
        <time>2018-03-03T14:30:49Z</time>
      </trkpt>
      <trkpt lat="46.47467122413218" lon="11.744523821398616">
        <ele>1434.9100000000001</ele>
        <time>2018-03-03T14:30:58Z</time>
      </trkpt>
      <trkpt lat="46.474665775895119" lon="11.744535891339183">
        <ele>1434.4200000000001</ele>
        <time>2018-03-03T14:30:59Z</time>
      </trkpt>
      <trkpt lat="46.474649934098125" lon="11.744587272405624">
        <ele>1434.4200000000001</ele>
        <time>2018-03-03T14:31:03Z</time>
      </trkpt>
      <trkpt lat="46.47461405955255" lon="11.744668493047357">
        <ele>1434.4200000000001</ele>
        <time>2018-03-03T14:31:09Z</time>
      </trkpt>
      <trkpt lat="46.474565360695124" lon="11.744783828034997">
        <ele>1433.9400000000001</ele>
        <time>2018-03-03T14:31:22Z</time>
      </trkpt>
      <trkpt lat="46.474558738991618" lon="11.744797490537167">
        <ele>1433.9400000000001</ele>
        <time>2018-03-03T14:31:25Z</time>
      </trkpt>
      <trkpt lat="46.474522026255727" lon="11.74478642642498">
        <ele>1433.9400000000001</ele>
        <time>2018-03-03T14:31:34Z</time>
      </trkpt>
      <trkpt lat="46.47448162548244" lon="11.744780726730824">
        <ele>1433.46</ele>
        <time>2018-03-03T14:31:44Z</time>
      </trkpt>
      <trkpt lat="46.474472237750888" lon="11.744758263230324">
        <ele>1433.46</ele>
        <time>2018-03-03T14:31:54Z</time>
      </trkpt>
      <trkpt lat="46.474455138668418" lon="11.74475809559226">
        <ele>1433.46</ele>
        <time>2018-03-03T14:32:14Z</time>
      </trkpt>
      <trkpt lat="46.474465532228351" lon="11.744769662618637">
        <ele>1433.46</ele>
        <time>2018-03-03T14:32:32Z</time>
      </trkpt>
      <trkpt lat="46.474489085376263" lon="11.744754491373897">
        <ele>1433.46</ele>
        <time>2018-03-03T14:32:53Z</time>
      </trkpt>
      <trkpt lat="46.474477434530854" lon="11.74471509642899">
        <ele>1433.46</ele>
        <time>2018-03-03T14:33:09Z</time>
      </trkpt>
      <trkpt lat="46.474440889433026" lon="11.744797574356198">
        <ele>1433.46</ele>
        <time>2018-03-03T14:33:33Z</time>
      </trkpt>
      <trkpt lat="46.474447511136532" lon="11.744781145825982">
        <ele>1433.46</ele>
        <time>2018-03-03T14:33:46Z</time>
      </trkpt>
      <trkpt lat="46.474397806450725" lon="11.744881141930819">
        <ele>1433.46</ele>
        <time>2018-03-03T14:34:05Z</time>
      </trkpt>
      <trkpt lat="46.474388670176268" lon="11.744937635958195">
        <ele>1433.46</ele>
        <time>2018-03-03T14:34:19Z</time>
      </trkpt>
      <trkpt lat="46.474354220554233" lon="11.74497208558023">
        <ele>1433.46</ele>
        <time>2018-03-03T14:34:26Z</time>
      </trkpt>
      <trkpt lat="46.474320776760578" lon="11.74494719132781">
        <ele>1433.46</ele>
        <time>2018-03-03T14:34:31Z</time>
      </trkpt>
      <trkpt lat="46.474283142015338" lon="11.744868904352188">
        <ele>1433.9400000000001</ele>
        <time>2018-03-03T14:34:41Z</time>
      </trkpt>
      <trkpt lat="46.474283561110497" lon="11.744891786947846">
        <ele>1434.4200000000001</ele>
        <time>2018-03-03T14:34:49Z</time>
      </trkpt>
      <trkpt lat="46.474300995469093" lon="11.744892541319132">
        <ele>1433.46</ele>
        <time>2018-03-03T14:34:51Z</time>
      </trkpt>
      <trkpt lat="46.474344665184617" lon="11.744860522449017">
        <ele>1433.9400000000001</ele>
        <time>2018-03-03T14:34:57Z</time>
      </trkpt>
      <trkpt lat="46.474365117028356" lon="11.744897654280066">
        <ele>1432.5</ele>
        <time>2018-03-03T14:35:20Z</time>
      </trkpt>
      <trkpt lat="46.474348101764917" lon="11.744907712563872">
        <ele>1432.5</ele>
        <time>2018-03-03T14:35:33Z</time>
      </trkpt>
      <trkpt lat="46.474150875583291" lon="11.744915759190917">
        <ele>1432.5</ele>
        <time>2018-03-03T14:35:56Z</time>
      </trkpt>
      <trkpt lat="46.474160933867097" lon="11.744908550754189">
        <ele>1432.02</ele>
        <time>2018-03-03T14:36:15Z</time>
      </trkpt>
      <trkpt lat="46.474152049049735" lon="11.744959093630314">
        <ele>1432.02</ele>
        <time>2018-03-03T14:36:29Z</time>
      </trkpt>
      <trkpt lat="46.474155653268099" lon="11.744970325380564">
        <ele>1432.02</ele>
        <time>2018-03-03T14:36:39Z</time>
      </trkpt>
      <trkpt lat="46.474214075133204" lon="11.74492028541863">
        <ele>1432.02</ele>
        <time>2018-03-03T14:36:55Z</time>
      </trkpt>
      <trkpt lat="46.474233437329531" lon="11.744883405044675">
        <ele>1431.54</ele>
        <time>2018-03-03T14:37:09Z</time>
      </trkpt>
      <trkpt lat="46.474259840324521" lon="11.74488365650177">
        <ele>1431.54</ele>
        <time>2018-03-03T14:37:16Z</time>
      </trkpt>
      <trkpt lat="46.474268976598978" lon="11.744870999827981">
        <ele>1432.5</ele>
        <time>2018-03-03T14:37:23Z</time>
      </trkpt>
      <trkpt lat="46.474337875843048" lon="11.744896061718464">
        <ele>1432.5</ele>
        <time>2018-03-03T14:37:32Z</time>
      </trkpt>
      <trkpt lat="46.474337624385953" lon="11.744877872988582">
        <ele>1432.98</ele>
        <time>2018-03-03T14:37:41Z</time>
      </trkpt>
      <trkpt lat="46.474310718476772" lon="11.74487192183733">
        <ele>1431.54</ele>
        <time>2018-03-03T14:37:52Z</time>
      </trkpt>
      <trkpt lat="46.474323961883783" lon="11.744879800826311">
        <ele>1431.54</ele>
        <time>2018-03-03T14:38:13Z</time>
      </trkpt>
      <trkpt lat="46.474195132032037" lon="11.744901007041335">
        <ele>1431.54</ele>
        <time>2018-03-03T14:38:33Z</time>
      </trkpt>
      <trkpt lat="46.474004527553916" lon="11.745033692568541">
        <ele>1431.54</ele>
        <time>2018-03-03T14:38:56Z</time>
      </trkpt>
      <trkpt lat="46.474008215591311" lon="11.74503612332046">
        <ele>1432.98</ele>
        <time>2018-03-03T14:38:59Z</time>
      </trkpt>
      <trkpt lat="46.474084323272109" lon="11.745019694790244">
        <ele>1431.54</ele>
        <time>2018-03-03T14:39:23Z</time>
      </trkpt>
      <trkpt lat="46.474241567775607" lon="11.744945012032986">
        <ele>1431.54</ele>
        <time>2018-03-03T14:39:43Z</time>
      </trkpt>
      <trkpt lat="46.474237544462085" lon="11.744937635958195">
        <ele>1431.54</ele>
        <time>2018-03-03T14:39:46Z</time>
      </trkpt>
      <trkpt lat="46.474231593310833" lon="11.74497501924634">
        <ele>1432.02</ele>
        <time>2018-03-03T14:39:53Z</time>
      </trkpt>
      <trkpt lat="46.474247770383954" lon="11.74507518298924">
        <ele>1432.02</ele>
        <time>2018-03-03T14:40:03Z</time>
      </trkpt>
      <trkpt lat="46.474323375150561" lon="11.744972756132483">
        <ele>1432.02</ele>
        <time>2018-03-03T14:40:13Z</time>
      </trkpt>
      <trkpt lat="46.474485397338867" lon="11.744836466386914">
        <ele>1432.02</ele>
        <time>2018-03-03T14:40:32Z</time>
      </trkpt>
      <trkpt lat="46.474546752870083" lon="11.744795478880405">
        <ele>1431.54</ele>
        <time>2018-03-03T14:40:44Z</time>
      </trkpt>
      <trkpt lat="46.474541891366243" lon="11.74478592351079">
        <ele>1432.02</ele>
        <time>2018-03-03T14:40:55Z</time>
      </trkpt>
      <trkpt lat="46.474519092589617" lon="11.744779469445348">
        <ele>1432.98</ele>
        <time>2018-03-03T14:41:06Z</time>
      </trkpt>
      <trkpt lat="46.474456815049052" lon="11.744769494980574">
        <ele>1432.5</ele>
        <time>2018-03-03T14:41:27Z</time>
      </trkpt>
    </trkseg>
  </trk>

</gpx>